<?xml version="1.0" encoding="UTF-8" standalone="no" ?>
<gpx xmlns="http://www.topografix.com/GPX/1/1" xmlns:xsi="http://www.w3.org/2001/XMLSchema-instance" xsi:schemaLocation="http://www.topografix.com/GPX/1/1 http://www.topografix.com/GPX/1/1/gpx.xsd" version="1.1" creator="VisuGPX - https://www.visugpx.com">
  <metadata>
    <name>140607ROBDolmenChristopheCarbonel</name>
    <desc><![CDATA[Bonne sortie sous un soleil bien chaud]]></desc>
  </metadata>
  <trk>
    <name><![CDATA[140607ROBDolmenChristopheCarbonel]]></name>
    <trkseg>
      <trkpt lat="43.41578" lon="6.07038">
        <ele>218.81854248047</ele>
        <time>2014-06-07T12:04:04Z</time>
      </trkpt>
      <trkpt lat="43.41579" lon="6.07038">
        <ele>218.84600830078</ele>
        <time>2014-06-07T12:04:05Z</time>
      </trkpt>
      <trkpt lat="43.41579" lon="6.07038">
        <ele>218.84600830078</ele>
        <time>2014-06-07T12:04:07Z</time>
      </trkpt>
      <trkpt lat="43.41579" lon="6.07039">
        <ele>218.85974121094</ele>
        <time>2014-06-07T12:04:08Z</time>
      </trkpt>
      <trkpt lat="43.41579" lon="6.07043">
        <ele>218.85974121094</ele>
        <time>2014-06-07T12:04:10Z</time>
      </trkpt>
      <trkpt lat="43.41581" lon="6.07055">
        <ele>218.90093994141</ele>
        <time>2014-06-07T12:04:14Z</time>
      </trkpt>
      <trkpt lat="43.41581" lon="6.07063">
        <ele>218.67387390137</ele>
        <time>2014-06-07T12:04:16Z</time>
      </trkpt>
      <trkpt lat="43.41583" lon="6.07077">
        <ele>218.21209716797</ele>
        <time>2014-06-07T12:04:20Z</time>
      </trkpt>
      <trkpt lat="43.41585" lon="6.07095">
        <ele>218</ele>
        <time>2014-06-07T12:04:24Z</time>
      </trkpt>
      <trkpt lat="43.41585" lon="6.07106">
        <ele>218</ele>
        <time>2014-06-07T12:04:28Z</time>
      </trkpt>
      <trkpt lat="43.4158" lon="6.07108">
        <ele>217.88720703125</ele>
        <time>2014-06-07T12:04:30Z</time>
      </trkpt>
      <trkpt lat="43.41568" lon="6.07112">
        <ele>217.44775390625</ele>
        <time>2014-06-07T12:04:36Z</time>
      </trkpt>
      <trkpt lat="43.41554" lon="6.07117">
        <ele>217</ele>
        <time>2014-06-07T12:04:42Z</time>
      </trkpt>
      <trkpt lat="43.4155" lon="6.07115">
        <ele>217</ele>
        <time>2014-06-07T12:04:44Z</time>
      </trkpt>
      <trkpt lat="43.41548" lon="6.07109">
        <ele>217</ele>
        <time>2014-06-07T12:04:46Z</time>
      </trkpt>
      <trkpt lat="43.41548" lon="6.071">
        <ele>217</ele>
        <time>2014-06-07T12:04:50Z</time>
      </trkpt>
      <trkpt lat="43.41548" lon="6.07098">
        <ele>217</ele>
        <time>2014-06-07T12:04:51Z</time>
      </trkpt>
      <trkpt lat="43.41546" lon="6.0708">
        <ele>217.1171875</ele>
        <time>2014-06-07T12:04:57Z</time>
      </trkpt>
      <trkpt lat="43.41534" lon="6.07074">
        <ele>217.3317565918</ele>
        <time>2014-06-07T12:05:02Z</time>
      </trkpt>
      <trkpt lat="43.41531" lon="6.07075">
        <ele>217.31631469727</ele>
        <time>2014-06-07T12:05:03Z</time>
      </trkpt>
      <trkpt lat="43.41512" lon="6.07081">
        <ele>216.54449462891</ele>
        <time>2014-06-07T12:05:09Z</time>
      </trkpt>
      <trkpt lat="43.41496" lon="6.07081">
        <ele>215.94538879394</ele>
        <time>2014-06-07T12:05:15Z</time>
      </trkpt>
      <trkpt lat="43.41484" lon="6.07075">
        <ele>215.73080444336</ele>
        <time>2014-06-07T12:05:20Z</time>
      </trkpt>
      <trkpt lat="43.41481" lon="6.07074">
        <ele>215.65356445312</ele>
        <time>2014-06-07T12:05:21Z</time>
      </trkpt>
      <trkpt lat="43.41477" lon="6.07074">
        <ele>215.50250244141</ele>
        <time>2014-06-07T12:05:23Z</time>
      </trkpt>
      <trkpt lat="43.41475" lon="6.07074">
        <ele>215.43383789062</ele>
        <time>2014-06-07T12:05:24Z</time>
      </trkpt>
      <trkpt lat="43.4147" lon="6.07073">
        <ele>215.35408020019</ele>
        <time>2014-06-07T12:05:28Z</time>
      </trkpt>
      <trkpt lat="43.41468" lon="6.07069">
        <ele>215.49827575684</ele>
        <time>2014-06-07T12:05:34Z</time>
      </trkpt>
      <trkpt lat="43.41467" lon="6.07067">
        <ele>215.58410644531</ele>
        <time>2014-06-07T12:05:36Z</time>
      </trkpt>
      <trkpt lat="43.41469" lon="6.07061">
        <ele>215.81927490234</ele>
        <time>2014-06-07T12:05:39Z</time>
      </trkpt>
      <trkpt lat="43.41478" lon="6.0704">
        <ele>216.20678710938</ele>
        <time>2014-06-07T12:05:46Z</time>
      </trkpt>
      <trkpt lat="43.41488" lon="6.07014">
        <ele>216.79379272461</ele>
        <time>2014-06-07T12:05:54Z</time>
      </trkpt>
      <trkpt lat="43.41493" lon="6.06991">
        <ele>217</ele>
        <time>2014-06-07T12:06:00Z</time>
      </trkpt>
      <trkpt lat="43.41489" lon="6.06968">
        <ele>217.06108093262</ele>
        <time>2014-06-07T12:06:06Z</time>
      </trkpt>
      <trkpt lat="43.4148" lon="6.06953">
        <ele>217.50758361816</ele>
        <time>2014-06-07T12:06:11Z</time>
      </trkpt>
      <trkpt lat="43.41476" lon="6.06946">
        <ele>217.81481933594</ele>
        <time>2014-06-07T12:06:13Z</time>
      </trkpt>
      <trkpt lat="43.41467" lon="6.06929">
        <ele>218</ele>
        <time>2014-06-07T12:06:18Z</time>
      </trkpt>
      <trkpt lat="43.41464" lon="6.06924">
        <ele>218</ele>
        <time>2014-06-07T12:06:20Z</time>
      </trkpt>
      <trkpt lat="43.41469" lon="6.06918">
        <ele>218</ele>
        <time>2014-06-07T12:06:23Z</time>
      </trkpt>
      <trkpt lat="43.41477" lon="6.06901">
        <ele>217.92849731445</ele>
        <time>2014-06-07T12:06:28Z</time>
      </trkpt>
      <trkpt lat="43.41477" lon="6.06899">
        <ele>217.93986511231</ele>
        <time>2014-06-07T12:06:29Z</time>
      </trkpt>
      <trkpt lat="43.41476" lon="6.06899">
        <ele>217.95198059082</ele>
        <time>2014-06-07T12:06:32Z</time>
      </trkpt>
      <trkpt lat="43.41476" lon="6.06894">
        <ele>217.97688293457</ele>
        <time>2014-06-07T12:06:39Z</time>
      </trkpt>
      <trkpt lat="43.41476" lon="6.06885">
        <ele>218.12846374512</ele>
        <time>2014-06-07T12:06:42Z</time>
      </trkpt>
      <trkpt lat="43.41477" lon="6.06877">
        <ele>218.36306762695</ele>
        <time>2014-06-07T12:06:44Z</time>
      </trkpt>
      <trkpt lat="43.41474" lon="6.06853">
        <ele>219.23425292969</ele>
        <time>2014-06-07T12:06:49Z</time>
      </trkpt>
      <trkpt lat="43.41477" lon="6.06829">
        <ele>219.82067871094</ele>
        <time>2014-06-07T12:06:53Z</time>
      </trkpt>
      <trkpt lat="43.41479" lon="6.06824">
        <ele>219.73828125</ele>
        <time>2014-06-07T12:06:54Z</time>
      </trkpt>
      <trkpt lat="43.4149" lon="6.06793">
        <ele>219.35375976562</ele>
        <time>2014-06-07T12:07:00Z</time>
      </trkpt>
      <trkpt lat="43.41496" lon="6.06758">
        <ele>219.75881958008</ele>
        <time>2014-06-07T12:07:07Z</time>
      </trkpt>
      <trkpt lat="43.41497" lon="6.06743">
        <ele>219.76989746094</ele>
        <time>2014-06-07T12:07:10Z</time>
      </trkpt>
      <trkpt lat="43.41499" lon="6.06719">
        <ele>219.03790283203</ele>
        <time>2014-06-07T12:07:15Z</time>
      </trkpt>
      <trkpt lat="43.415" lon="6.06696">
        <ele>219</ele>
        <time>2014-06-07T12:07:20Z</time>
      </trkpt>
      <trkpt lat="43.415" lon="6.06687">
        <ele>219</ele>
        <time>2014-06-07T12:07:22Z</time>
      </trkpt>
      <trkpt lat="43.41501" lon="6.06668">
        <ele>219</ele>
        <time>2014-06-07T12:07:26Z</time>
      </trkpt>
      <trkpt lat="43.41503" lon="6.06658">
        <ele>219</ele>
        <time>2014-06-07T12:07:28Z</time>
      </trkpt>
      <trkpt lat="43.41516" lon="6.06584">
        <ele>219.55322265625</ele>
        <time>2014-06-07T12:07:43Z</time>
      </trkpt>
      <trkpt lat="43.41517" lon="6.06574">
        <ele>219.7529296875</ele>
        <time>2014-06-07T12:07:45Z</time>
      </trkpt>
      <trkpt lat="43.41522" lon="6.06542">
        <ele>220</ele>
        <time>2014-06-07T12:07:51Z</time>
      </trkpt>
      <trkpt lat="43.41523" lon="6.06537">
        <ele>220</ele>
        <time>2014-06-07T12:07:52Z</time>
      </trkpt>
      <trkpt lat="43.41531" lon="6.06508">
        <ele>220</ele>
        <time>2014-06-07T12:07:58Z</time>
      </trkpt>
      <trkpt lat="43.41547" lon="6.06478">
        <ele>220</ele>
        <time>2014-06-07T12:08:07Z</time>
      </trkpt>
      <trkpt lat="43.41548" lon="6.0647">
        <ele>220</ele>
        <time>2014-06-07T12:08:09Z</time>
      </trkpt>
      <trkpt lat="43.41547" lon="6.06459">
        <ele>220</ele>
        <time>2014-06-07T12:08:12Z</time>
      </trkpt>
      <trkpt lat="43.41546" lon="6.06441">
        <ele>220</ele>
        <time>2014-06-07T12:08:16Z</time>
      </trkpt>
      <trkpt lat="43.41549" lon="6.0642">
        <ele>220</ele>
        <time>2014-06-07T12:08:21Z</time>
      </trkpt>
      <trkpt lat="43.41553" lon="6.06396">
        <ele>220</ele>
        <time>2014-06-07T12:08:27Z</time>
      </trkpt>
      <trkpt lat="43.41556" lon="6.06379">
        <ele>220.34687805176</ele>
        <time>2014-06-07T12:08:31Z</time>
      </trkpt>
      <trkpt lat="43.4156" lon="6.06363">
        <ele>221.06019592285</ele>
        <time>2014-06-07T12:08:35Z</time>
      </trkpt>
      <trkpt lat="43.41567" lon="6.06345">
        <ele>221.40655517578</ele>
        <time>2014-06-07T12:08:40Z</time>
      </trkpt>
      <trkpt lat="43.41569" lon="6.06342">
        <ele>221.47521972656</ele>
        <time>2014-06-07T12:08:41Z</time>
      </trkpt>
      <trkpt lat="43.41584" lon="6.06318">
        <ele>222.72064208984</ele>
        <time>2014-06-07T12:08:49Z</time>
      </trkpt>
      <trkpt lat="43.41586" lon="6.06314">
        <ele>223.07424926758</ele>
        <time>2014-06-07T12:08:50Z</time>
      </trkpt>
      <trkpt lat="43.41587" lon="6.0631">
        <ele>223.37982177734</ele>
        <time>2014-06-07T12:08:51Z</time>
      </trkpt>
      <trkpt lat="43.41588" lon="6.06302">
        <ele>223.80723571777</ele>
        <time>2014-06-07T12:08:53Z</time>
      </trkpt>
      <trkpt lat="43.41587" lon="6.06286">
        <ele>224.19366455078</ele>
        <time>2014-06-07T12:08:57Z</time>
      </trkpt>
      <trkpt lat="43.41586" lon="6.06272">
        <ele>224.51226806641</ele>
        <time>2014-06-07T12:09:01Z</time>
      </trkpt>
      <trkpt lat="43.41594" lon="6.06263">
        <ele>225.6452331543</ele>
        <time>2014-06-07T12:09:06Z</time>
      </trkpt>
      <trkpt lat="43.41597" lon="6.06259">
        <ele>226.18254089356</ele>
        <time>2014-06-07T12:09:08Z</time>
      </trkpt>
      <trkpt lat="43.416" lon="6.06255">
        <ele>226.57049560547</ele>
        <time>2014-06-07T12:09:10Z</time>
      </trkpt>
      <trkpt lat="43.41601" lon="6.06253">
        <ele>226.81597900391</ele>
        <time>2014-06-07T12:09:11Z</time>
      </trkpt>
      <trkpt lat="43.41605" lon="6.06233">
        <ele>227.50546264648</ele>
        <time>2014-06-07T12:09:18Z</time>
      </trkpt>
      <trkpt lat="43.41608" lon="6.06211">
        <ele>228.20248413086</ele>
        <time>2014-06-07T12:09:25Z</time>
      </trkpt>
      <trkpt lat="43.41613" lon="6.06208">
        <ele>228.60589599609</ele>
        <time>2014-06-07T12:09:28Z</time>
      </trkpt>
      <trkpt lat="43.4162" lon="6.06218">
        <ele>228.78442382812</ele>
        <time>2014-06-07T12:09:33Z</time>
      </trkpt>
      <trkpt lat="43.41632" lon="6.06231">
        <ele>229.509765625</ele>
        <time>2014-06-07T12:09:39Z</time>
      </trkpt>
      <trkpt lat="43.41653" lon="6.06243">
        <ele>230.63455200195</ele>
        <time>2014-06-07T12:09:48Z</time>
      </trkpt>
      <trkpt lat="43.41656" lon="6.06244">
        <ele>230.72914123535</ele>
        <time>2014-06-07T12:09:49Z</time>
      </trkpt>
      <trkpt lat="43.4167" lon="6.06248">
        <ele>231.27752685547</ele>
        <time>2014-06-07T12:09:54Z</time>
      </trkpt>
      <trkpt lat="43.41677" lon="6.06249">
        <ele>231.73860168457</ele>
        <time>2014-06-07T12:09:56Z</time>
      </trkpt>
      <trkpt lat="43.41695" lon="6.06252">
        <ele>232.97985839844</ele>
        <time>2014-06-07T12:10:01Z</time>
      </trkpt>
      <trkpt lat="43.41722" lon="6.06251">
        <ele>234.00958251953</ele>
        <time>2014-06-07T12:10:08Z</time>
      </trkpt>
      <trkpt lat="43.41746" lon="6.06252">
        <ele>234.86102294922</ele>
        <time>2014-06-07T12:10:15Z</time>
      </trkpt>
      <trkpt lat="43.41749" lon="6.06253">
        <ele>234.95715332031</ele>
        <time>2014-06-07T12:10:16Z</time>
      </trkpt>
      <trkpt lat="43.41754" lon="6.06255">
        <ele>235.27136230469</ele>
        <time>2014-06-07T12:10:18Z</time>
      </trkpt>
      <trkpt lat="43.41759" lon="6.06257">
        <ele>235.68334960938</ele>
        <time>2014-06-07T12:10:20Z</time>
      </trkpt>
      <trkpt lat="43.41776" lon="6.06265">
        <ele>236.86437988281</ele>
        <time>2014-06-07T12:10:26Z</time>
      </trkpt>
      <trkpt lat="43.41786" lon="6.06272">
        <ele>237.28924560547</ele>
        <time>2014-06-07T12:10:30Z</time>
      </trkpt>
      <trkpt lat="43.41797" lon="6.06284">
        <ele>237.63484191894</ele>
        <time>2014-06-07T12:10:35Z</time>
      </trkpt>
      <trkpt lat="43.41815" lon="6.06292">
        <ele>238.33294677734</ele>
        <time>2014-06-07T12:10:41Z</time>
      </trkpt>
      <trkpt lat="43.41825" lon="6.06294">
        <ele>238.71746826172</ele>
        <time>2014-06-07T12:10:45Z</time>
      </trkpt>
      <trkpt lat="43.41843" lon="6.06293">
        <ele>239.34918212891</ele>
        <time>2014-06-07T12:10:51Z</time>
      </trkpt>
      <trkpt lat="43.4186" lon="6.06294">
        <ele>239.95343017578</ele>
        <time>2014-06-07T12:10:57Z</time>
      </trkpt>
      <trkpt lat="43.41866" lon="6.06294">
        <ele>240.15942382812</ele>
        <time>2014-06-07T12:10:59Z</time>
      </trkpt>
      <trkpt lat="43.41869" lon="6.06294">
        <ele>240.26928710938</ele>
        <time>2014-06-07T12:11:00Z</time>
      </trkpt>
      <trkpt lat="43.41884" lon="6.06294">
        <ele>240.81860351562</ele>
        <time>2014-06-07T12:11:05Z</time>
      </trkpt>
      <trkpt lat="43.41892" lon="6.06295">
        <ele>241.21398925781</ele>
        <time>2014-06-07T12:11:08Z</time>
      </trkpt>
      <trkpt lat="43.41897" lon="6.06295">
        <ele>241.59851074219</ele>
        <time>2014-06-07T12:11:10Z</time>
      </trkpt>
      <trkpt lat="43.41902" lon="6.06295">
        <ele>241.92810058594</ele>
        <time>2014-06-07T12:11:12Z</time>
      </trkpt>
      <trkpt lat="43.41917" lon="6.06294">
        <ele>242.99926757812</ele>
        <time>2014-06-07T12:11:18Z</time>
      </trkpt>
      <trkpt lat="43.41921" lon="6.06294">
        <ele>243.45208740234</ele>
        <time>2014-06-07T12:11:20Z</time>
      </trkpt>
      <trkpt lat="43.41935" lon="6.0629">
        <ele>244.93524169922</ele>
        <time>2014-06-07T12:11:26Z</time>
      </trkpt>
      <trkpt lat="43.4195" lon="6.06285">
        <ele>246.38879394531</ele>
        <time>2014-06-07T12:11:32Z</time>
      </trkpt>
      <trkpt lat="43.41961" lon="6.06281">
        <ele>247.21276855469</ele>
        <time>2014-06-07T12:11:37Z</time>
      </trkpt>
      <trkpt lat="43.41985" lon="6.06274">
        <ele>249.33227539062</ele>
        <time>2014-06-07T12:11:48Z</time>
      </trkpt>
      <trkpt lat="43.41996" lon="6.0627">
        <ele>250.56823730469</ele>
        <time>2014-06-07T12:11:54Z</time>
      </trkpt>
      <trkpt lat="43.4201" lon="6.06265">
        <ele>251.72839355469</ele>
        <time>2014-06-07T12:12:01Z</time>
      </trkpt>
      <trkpt lat="43.42023" lon="6.06259">
        <ele>252.68969726562</ele>
        <time>2014-06-07T12:12:08Z</time>
      </trkpt>
      <trkpt lat="43.42043" lon="6.06253">
        <ele>254.11791992188</ele>
        <time>2014-06-07T12:12:18Z</time>
      </trkpt>
      <trkpt lat="43.4205" lon="6.06252">
        <ele>254.58483886719</ele>
        <time>2014-06-07T12:12:21Z</time>
      </trkpt>
      <trkpt lat="43.42062" lon="6.06248">
        <ele>255.43627929688</ele>
        <time>2014-06-07T12:12:27Z</time>
      </trkpt>
      <trkpt lat="43.42067" lon="6.06246">
        <ele>255.82080078125</ele>
        <time>2014-06-07T12:12:30Z</time>
      </trkpt>
      <trkpt lat="43.42075" lon="6.06245">
        <ele>256.3701171875</ele>
        <time>2014-06-07T12:12:34Z</time>
      </trkpt>
      <trkpt lat="43.42078" lon="6.06243">
        <ele>256.61730957031</ele>
        <time>2014-06-07T12:12:36Z</time>
      </trkpt>
      <trkpt lat="43.42096" lon="6.06235">
        <ele>258.32110595703</ele>
        <time>2014-06-07T12:12:46Z</time>
      </trkpt>
      <trkpt lat="43.42097" lon="6.06235">
        <ele>258.52709960938</ele>
        <time>2014-06-07T12:12:47Z</time>
      </trkpt>
      <trkpt lat="43.42113" lon="6.0623">
        <ele>260.27478027344</ele>
        <time>2014-06-07T12:12:55Z</time>
      </trkpt>
      <trkpt lat="43.42128" lon="6.06225">
        <ele>262.90283203125</ele>
        <time>2014-06-07T12:13:02Z</time>
      </trkpt>
      <trkpt lat="43.42131" lon="6.06224">
        <ele>263.60540771484</ele>
        <time>2014-06-07T12:13:04Z</time>
      </trkpt>
      <trkpt lat="43.42141" lon="6.06221">
        <ele>265.46127319336</ele>
        <time>2014-06-07T12:13:09Z</time>
      </trkpt>
      <trkpt lat="43.42148" lon="6.06217">
        <ele>266.67321777344</ele>
        <time>2014-06-07T12:13:13Z</time>
      </trkpt>
      <trkpt lat="43.42149" lon="6.06215">
        <ele>266.923828125</ele>
        <time>2014-06-07T12:13:14Z</time>
      </trkpt>
      <trkpt lat="43.42149" lon="6.06205">
        <ele>267.74438476562</ele>
        <time>2014-06-07T12:13:18Z</time>
      </trkpt>
      <trkpt lat="43.42149" lon="6.06202">
        <ele>267.88171386719</ele>
        <time>2014-06-07T12:13:19Z</time>
      </trkpt>
      <trkpt lat="43.42147" lon="6.06197">
        <ele>268.01904296875</ele>
        <time>2014-06-07T12:13:21Z</time>
      </trkpt>
      <trkpt lat="43.42143" lon="6.06182">
        <ele>268.07238769531</ele>
        <time>2014-06-07T12:13:25Z</time>
      </trkpt>
      <trkpt lat="43.42139" lon="6.06167">
        <ele>268.00030517578</ele>
        <time>2014-06-07T12:13:28Z</time>
      </trkpt>
      <trkpt lat="43.42137" lon="6.06162">
        <ele>267.71923828125</ele>
        <time>2014-06-07T12:13:29Z</time>
      </trkpt>
      <trkpt lat="43.42133" lon="6.06151">
        <ele>267.33093261719</ele>
        <time>2014-06-07T12:13:31Z</time>
      </trkpt>
      <trkpt lat="43.42127" lon="6.06133">
        <ele>267.12902832031</ele>
        <time>2014-06-07T12:13:34Z</time>
      </trkpt>
      <trkpt lat="43.42126" lon="6.06126">
        <ele>267.07922363281</ele>
        <time>2014-06-07T12:13:35Z</time>
      </trkpt>
      <trkpt lat="43.42121" lon="6.06108">
        <ele>266.92303466797</ele>
        <time>2014-06-07T12:13:38Z</time>
      </trkpt>
      <trkpt lat="43.42118" lon="6.06092">
        <ele>267.0002746582</ele>
        <time>2014-06-07T12:13:41Z</time>
      </trkpt>
      <trkpt lat="43.42115" lon="6.06065">
        <ele>267.94226074219</ele>
        <time>2014-06-07T12:13:47Z</time>
      </trkpt>
      <trkpt lat="43.42114" lon="6.06061">
        <ele>268.13452148438</ele>
        <time>2014-06-07T12:13:48Z</time>
      </trkpt>
      <trkpt lat="43.42112" lon="6.06052">
        <ele>268.35217285156</ele>
        <time>2014-06-07T12:13:50Z</time>
      </trkpt>
      <trkpt lat="43.42112" lon="6.06048">
        <ele>268.36761474609</ele>
        <time>2014-06-07T12:13:51Z</time>
      </trkpt>
      <trkpt lat="43.4211" lon="6.06039">
        <ele>268.27456665039</ele>
        <time>2014-06-07T12:13:53Z</time>
      </trkpt>
      <trkpt lat="43.4211" lon="6.06035">
        <ele>268.30624389648</ele>
        <time>2014-06-07T12:13:54Z</time>
      </trkpt>
      <trkpt lat="43.42109" lon="6.0603">
        <ele>268.21118164062</ele>
        <time>2014-06-07T12:13:55Z</time>
      </trkpt>
      <trkpt lat="43.421" lon="6.05996">
        <ele>268.15423583984</ele>
        <time>2014-06-07T12:14:02Z</time>
      </trkpt>
      <trkpt lat="43.42092" lon="6.05959">
        <ele>268.9934387207</ele>
        <time>2014-06-07T12:14:09Z</time>
      </trkpt>
      <trkpt lat="43.42087" lon="6.05938">
        <ele>268.96514892578</ele>
        <time>2014-06-07T12:14:13Z</time>
      </trkpt>
      <trkpt lat="43.4208" lon="6.05909">
        <ele>268.94183349609</ele>
        <time>2014-06-07T12:14:19Z</time>
      </trkpt>
      <trkpt lat="43.42078" lon="6.05898">
        <ele>269.25143432617</ele>
        <time>2014-06-07T12:14:21Z</time>
      </trkpt>
      <trkpt lat="43.42075" lon="6.05888">
        <ele>269.48202514648</ele>
        <time>2014-06-07T12:14:23Z</time>
      </trkpt>
      <trkpt lat="43.42068" lon="6.05867">
        <ele>267.90530395508</ele>
        <time>2014-06-07T12:14:27Z</time>
      </trkpt>
      <trkpt lat="43.42058" lon="6.0583">
        <ele>266.13415527344</ele>
        <time>2014-06-07T12:14:32Z</time>
      </trkpt>
      <trkpt lat="43.42052" lon="6.05799">
        <ele>263.52935791016</ele>
        <time>2014-06-07T12:14:35Z</time>
      </trkpt>
      <trkpt lat="43.42051" lon="6.0579">
        <ele>263.0710144043</ele>
        <time>2014-06-07T12:14:36Z</time>
      </trkpt>
      <trkpt lat="43.42049" lon="6.0578">
        <ele>262.5869140625</ele>
        <time>2014-06-07T12:14:37Z</time>
      </trkpt>
      <trkpt lat="43.42047" lon="6.0577">
        <ele>261.94186401367</ele>
        <time>2014-06-07T12:14:38Z</time>
      </trkpt>
      <trkpt lat="43.42036" lon="6.05711">
        <ele>260</ele>
        <time>2014-06-07T12:14:44Z</time>
      </trkpt>
      <trkpt lat="43.42026" lon="6.05657">
        <ele>259.95379638672</ele>
        <time>2014-06-07T12:14:50Z</time>
      </trkpt>
      <trkpt lat="43.42021" lon="6.05626">
        <ele>260</ele>
        <time>2014-06-07T12:14:54Z</time>
      </trkpt>
      <trkpt lat="43.42019" lon="6.05612">
        <ele>260</ele>
        <time>2014-06-07T12:14:56Z</time>
      </trkpt>
      <trkpt lat="43.42014" lon="6.05586">
        <ele>260</ele>
        <time>2014-06-07T12:15:00Z</time>
      </trkpt>
      <trkpt lat="43.42013" lon="6.05575">
        <ele>260.39349365234</ele>
        <time>2014-06-07T12:15:02Z</time>
      </trkpt>
      <trkpt lat="43.42008" lon="6.05551">
        <ele>261.03033447266</ele>
        <time>2014-06-07T12:15:07Z</time>
      </trkpt>
      <trkpt lat="43.42007" lon="6.05547">
        <ele>261.00588989258</ele>
        <time>2014-06-07T12:15:08Z</time>
      </trkpt>
      <trkpt lat="43.42005" lon="6.05538">
        <ele>260.90548706055</ele>
        <time>2014-06-07T12:15:10Z</time>
      </trkpt>
      <trkpt lat="43.42003" lon="6.05526">
        <ele>260.81433105469</ele>
        <time>2014-06-07T12:15:13Z</time>
      </trkpt>
      <trkpt lat="43.42001" lon="6.05514">
        <ele>261.27072143555</ele>
        <time>2014-06-07T12:15:16Z</time>
      </trkpt>
      <trkpt lat="43.42001" lon="6.05511">
        <ele>261.44369506836</ele>
        <time>2014-06-07T12:15:17Z</time>
      </trkpt>
      <trkpt lat="43.42" lon="6.05504">
        <ele>261.78936767578</ele>
        <time>2014-06-07T12:15:19Z</time>
      </trkpt>
      <trkpt lat="43.41996" lon="6.05478">
        <ele>262.23889160156</ele>
        <time>2014-06-07T12:15:26Z</time>
      </trkpt>
      <trkpt lat="43.41988" lon="6.05445">
        <ele>262.26608276367</ele>
        <time>2014-06-07T12:15:33Z</time>
      </trkpt>
      <trkpt lat="43.41981" lon="6.05417">
        <ele>260.9267578125</ele>
        <time>2014-06-07T12:15:37Z</time>
      </trkpt>
      <trkpt lat="43.41979" lon="6.05409">
        <ele>260.71429443359</ele>
        <time>2014-06-07T12:15:38Z</time>
      </trkpt>
      <trkpt lat="43.41972" lon="6.05383">
        <ele>260.01391601562</ele>
        <time>2014-06-07T12:15:41Z</time>
      </trkpt>
      <trkpt lat="43.41969" lon="6.05365">
        <ele>259.84854125977</ele>
        <time>2014-06-07T12:15:43Z</time>
      </trkpt>
      <trkpt lat="43.41964" lon="6.05347">
        <ele>259.71624755859</ele>
        <time>2014-06-07T12:15:45Z</time>
      </trkpt>
      <trkpt lat="43.4196" lon="6.05328">
        <ele>259.55145263672</ele>
        <time>2014-06-07T12:15:47Z</time>
      </trkpt>
      <trkpt lat="43.41957" lon="6.05319">
        <ele>259.46905517578</ele>
        <time>2014-06-07T12:15:48Z</time>
      </trkpt>
      <trkpt lat="43.41956" lon="6.05309">
        <ele>259.41412353516</ele>
        <time>2014-06-07T12:15:49Z</time>
      </trkpt>
      <trkpt lat="43.41954" lon="6.05299">
        <ele>259.4977722168</ele>
        <time>2014-06-07T12:15:50Z</time>
      </trkpt>
      <trkpt lat="43.41953" lon="6.05289">
        <ele>259.72113037109</ele>
        <time>2014-06-07T12:15:51Z</time>
      </trkpt>
      <trkpt lat="43.41951" lon="6.05278">
        <ele>260</ele>
        <time>2014-06-07T12:15:52Z</time>
      </trkpt>
      <trkpt lat="43.41949" lon="6.05266">
        <ele>260</ele>
        <time>2014-06-07T12:15:53Z</time>
      </trkpt>
      <trkpt lat="43.41947" lon="6.05254">
        <ele>260</ele>
        <time>2014-06-07T12:15:54Z</time>
      </trkpt>
      <trkpt lat="43.41945" lon="6.05242">
        <ele>260</ele>
        <time>2014-06-07T12:15:55Z</time>
      </trkpt>
      <trkpt lat="43.41944" lon="6.0523">
        <ele>259.97467041016</ele>
        <time>2014-06-07T12:15:56Z</time>
      </trkpt>
      <trkpt lat="43.41943" lon="6.05219">
        <ele>259.9416809082</ele>
        <time>2014-06-07T12:15:57Z</time>
      </trkpt>
      <trkpt lat="43.41941" lon="6.05208">
        <ele>259.9475402832</ele>
        <time>2014-06-07T12:15:58Z</time>
      </trkpt>
      <trkpt lat="43.41941" lon="6.05198">
        <ele>259.98477172852</ele>
        <time>2014-06-07T12:15:59Z</time>
      </trkpt>
      <trkpt lat="43.4194" lon="6.05188">
        <ele>260</ele>
        <time>2014-06-07T12:16:00Z</time>
      </trkpt>
      <trkpt lat="43.4194" lon="6.05179">
        <ele>260</ele>
        <time>2014-06-07T12:16:01Z</time>
      </trkpt>
      <trkpt lat="43.4194" lon="6.05171">
        <ele>260</ele>
        <time>2014-06-07T12:16:02Z</time>
      </trkpt>
      <trkpt lat="43.4194" lon="6.05163">
        <ele>260</ele>
        <time>2014-06-07T12:16:03Z</time>
      </trkpt>
      <trkpt lat="43.41943" lon="6.05156">
        <ele>260</ele>
        <time>2014-06-07T12:16:04Z</time>
      </trkpt>
      <trkpt lat="43.41951" lon="6.05147">
        <ele>260</ele>
        <time>2014-06-07T12:16:06Z</time>
      </trkpt>
      <trkpt lat="43.41959" lon="6.05142">
        <ele>260</ele>
        <time>2014-06-07T12:16:08Z</time>
      </trkpt>
      <trkpt lat="43.41964" lon="6.0514">
        <ele>260</ele>
        <time>2014-06-07T12:16:09Z</time>
      </trkpt>
      <trkpt lat="43.41968" lon="6.05138">
        <ele>260.10876464844</ele>
        <time>2014-06-07T12:16:10Z</time>
      </trkpt>
      <trkpt lat="43.41972" lon="6.05136">
        <ele>260.28912353516</ele>
        <time>2014-06-07T12:16:11Z</time>
      </trkpt>
      <trkpt lat="43.41983" lon="6.05134">
        <ele>260.55780029297</ele>
        <time>2014-06-07T12:16:14Z</time>
      </trkpt>
      <trkpt lat="43.41994" lon="6.05133">
        <ele>260.59899902344</ele>
        <time>2014-06-07T12:16:17Z</time>
      </trkpt>
      <trkpt lat="43.41997" lon="6.05133">
        <ele>260.64019775391</ele>
        <time>2014-06-07T12:16:18Z</time>
      </trkpt>
      <trkpt lat="43.42" lon="6.05132">
        <ele>260.76379394531</ele>
        <time>2014-06-07T12:16:19Z</time>
      </trkpt>
      <trkpt lat="43.42007" lon="6.05129">
        <ele>261.06762695312</ele>
        <time>2014-06-07T12:16:21Z</time>
      </trkpt>
      <trkpt lat="43.42035" lon="6.05122">
        <ele>261.86068725586</ele>
        <time>2014-06-07T12:16:28Z</time>
      </trkpt>
      <trkpt lat="43.42048" lon="6.05118">
        <ele>262.26239013672</ele>
        <time>2014-06-07T12:16:32Z</time>
      </trkpt>
      <trkpt lat="43.42064" lon="6.05116">
        <ele>262.73263549805</ele>
        <time>2014-06-07T12:16:37Z</time>
      </trkpt>
      <trkpt lat="43.42071" lon="6.05115">
        <ele>263.02865600586</ele>
        <time>2014-06-07T12:16:39Z</time>
      </trkpt>
      <trkpt lat="43.42093" lon="6.05117">
        <ele>264.24676513672</ele>
        <time>2014-06-07T12:16:46Z</time>
      </trkpt>
      <trkpt lat="43.42113" lon="6.05116">
        <ele>266.71722412109</ele>
        <time>2014-06-07T12:16:53Z</time>
      </trkpt>
      <trkpt lat="43.42119" lon="6.05121">
        <ele>267.03994750977</ele>
        <time>2014-06-07T12:16:56Z</time>
      </trkpt>
      <trkpt lat="43.42127" lon="6.0513">
        <ele>267.2751159668</ele>
        <time>2014-06-07T12:17:00Z</time>
      </trkpt>
      <trkpt lat="43.42143" lon="6.05148">
        <ele>267.33822631836</ele>
        <time>2014-06-07T12:17:08Z</time>
      </trkpt>
      <trkpt lat="43.42159" lon="6.05165">
        <ele>267.90814208984</ele>
        <time>2014-06-07T12:17:16Z</time>
      </trkpt>
      <trkpt lat="43.42175" lon="6.05171">
        <ele>271.08377075195</ele>
        <time>2014-06-07T12:17:22Z</time>
      </trkpt>
      <trkpt lat="43.42187" lon="6.05168">
        <ele>273.35629272461</ele>
        <time>2014-06-07T12:17:26Z</time>
      </trkpt>
      <trkpt lat="43.42187" lon="6.05168">
        <ele>273.44036865234</ele>
        <time>2014-06-07T12:17:27Z</time>
      </trkpt>
      <trkpt lat="43.42188" lon="6.05168">
        <ele>273.59872436523</ele>
        <time>2014-06-07T12:17:28Z</time>
      </trkpt>
      <trkpt lat="43.42188" lon="6.05168">
        <ele>273.59872436523</ele>
        <time>2014-06-07T12:17:30Z</time>
      </trkpt>
      <trkpt lat="43.42188" lon="6.05168">
        <ele>273.5173034668</ele>
        <time>2014-06-07T12:17:32Z</time>
      </trkpt>
      <trkpt lat="43.42186" lon="6.05168">
        <ele>273.27194213867</ele>
        <time>2014-06-07T12:17:33Z</time>
      </trkpt>
      <trkpt lat="43.42186" lon="6.05167">
        <ele>273.0947265625</ele>
        <time>2014-06-07T12:17:35Z</time>
      </trkpt>
      <trkpt lat="43.42184" lon="6.05167">
        <ele>272.86199951172</ele>
        <time>2014-06-07T12:17:37Z</time>
      </trkpt>
      <trkpt lat="43.42183" lon="6.05168">
        <ele>272.61862182617</ele>
        <time>2014-06-07T12:17:38Z</time>
      </trkpt>
      <trkpt lat="43.42179" lon="6.05171">
        <ele>271.95660400391</ele>
        <time>2014-06-07T12:17:43Z</time>
      </trkpt>
      <trkpt lat="43.42176" lon="6.05172">
        <ele>271.33779907227</ele>
        <time>2014-06-07T12:17:47Z</time>
      </trkpt>
      <trkpt lat="43.42176" lon="6.0517">
        <ele>271.20114135742</ele>
        <time>2014-06-07T12:17:49Z</time>
      </trkpt>
      <trkpt lat="43.42175" lon="6.05169">
        <ele>270.89471435547</ele>
        <time>2014-06-07T12:17:54Z</time>
      </trkpt>
      <trkpt lat="43.42174" lon="6.05168">
        <ele>270.67416381836</ele>
        <time>2014-06-07T12:17:55Z</time>
      </trkpt>
      <trkpt lat="43.42172" lon="6.05166">
        <ele>270.25772094727</ele>
        <time>2014-06-07T12:17:59Z</time>
      </trkpt>
      <trkpt lat="43.42171" lon="6.05166">
        <ele>270.11993408203</ele>
        <time>2014-06-07T12:18:01Z</time>
      </trkpt>
      <trkpt lat="43.42171" lon="6.05166">
        <ele>270.07601928711</ele>
        <time>2014-06-07T12:18:07Z</time>
      </trkpt>
      <trkpt lat="43.42172" lon="6.05166">
        <ele>270.17681884766</ele>
        <time>2014-06-07T12:18:14Z</time>
      </trkpt>
      <trkpt lat="43.42177" lon="6.05168">
        <ele>271.26943969727</ele>
        <time>2014-06-07T12:18:21Z</time>
      </trkpt>
      <trkpt lat="43.42186" lon="6.05167">
        <ele>273.17266845703</ele>
        <time>2014-06-07T12:18:24Z</time>
      </trkpt>
      <trkpt lat="43.42192" lon="6.05166">
        <ele>274.63317871094</ele>
        <time>2014-06-07T12:18:27Z</time>
      </trkpt>
      <trkpt lat="43.42194" lon="6.05167">
        <ele>274.98327636719</ele>
        <time>2014-06-07T12:18:29Z</time>
      </trkpt>
      <trkpt lat="43.42196" lon="6.05168">
        <ele>275.15637207031</ele>
        <time>2014-06-07T12:18:30Z</time>
      </trkpt>
      <trkpt lat="43.42197" lon="6.05169">
        <ele>275.27996826172</ele>
        <time>2014-06-07T12:18:31Z</time>
      </trkpt>
      <trkpt lat="43.42206" lon="6.05179">
        <ele>276.2275390625</ele>
        <time>2014-06-07T12:18:38Z</time>
      </trkpt>
      <trkpt lat="43.42208" lon="6.0518">
        <ele>276.51593017578</ele>
        <time>2014-06-07T12:18:40Z</time>
      </trkpt>
      <trkpt lat="43.42213" lon="6.05185">
        <ele>276.96911621094</ele>
        <time>2014-06-07T12:18:46Z</time>
      </trkpt>
      <trkpt lat="43.42218" lon="6.05189">
        <ele>277.5458984375</ele>
        <time>2014-06-07T12:18:49Z</time>
      </trkpt>
      <trkpt lat="43.42219" lon="6.05189">
        <ele>277.66949462891</ele>
        <time>2014-06-07T12:18:50Z</time>
      </trkpt>
      <trkpt lat="43.42221" lon="6.05191">
        <ele>277.91668701172</ele>
        <time>2014-06-07T12:18:53Z</time>
      </trkpt>
      <trkpt lat="43.42225" lon="6.05194">
        <ele>278.09606933594</ele>
        <time>2014-06-07T12:18:56Z</time>
      </trkpt>
      <trkpt lat="43.42233" lon="6.05205">
        <ele>278.76806640625</ele>
        <time>2014-06-07T12:19:02Z</time>
      </trkpt>
      <trkpt lat="43.42244" lon="6.05211">
        <ele>279.35858154297</ele>
        <time>2014-06-07T12:19:08Z</time>
      </trkpt>
      <trkpt lat="43.42256" lon="6.05211">
        <ele>279.60186767578</ele>
        <time>2014-06-07T12:19:16Z</time>
      </trkpt>
      <trkpt lat="43.42266" lon="6.05206">
        <ele>279.40786743164</ele>
        <time>2014-06-07T12:19:22Z</time>
      </trkpt>
      <trkpt lat="43.42282" lon="6.05193">
        <ele>279.21365356445</ele>
        <time>2014-06-07T12:19:31Z</time>
      </trkpt>
      <trkpt lat="43.42284" lon="6.05193">
        <ele>279.32489013672</ele>
        <time>2014-06-07T12:19:32Z</time>
      </trkpt>
      <trkpt lat="43.42287" lon="6.05194">
        <ele>279.39572143555</ele>
        <time>2014-06-07T12:19:34Z</time>
      </trkpt>
      <trkpt lat="43.42306" lon="6.05207">
        <ele>280.05639648438</ele>
        <time>2014-06-07T12:19:46Z</time>
      </trkpt>
      <trkpt lat="43.42316" lon="6.05204">
        <ele>281.30096435547</ele>
        <time>2014-06-07T12:19:52Z</time>
      </trkpt>
      <trkpt lat="43.42326" lon="6.05201">
        <ele>282.72369384766</ele>
        <time>2014-06-07T12:19:57Z</time>
      </trkpt>
      <trkpt lat="43.42331" lon="6.05203">
        <ele>283.0888671875</ele>
        <time>2014-06-07T12:20:00Z</time>
      </trkpt>
      <trkpt lat="43.42336" lon="6.05201">
        <ele>284.03100585938</ele>
        <time>2014-06-07T12:20:03Z</time>
      </trkpt>
      <trkpt lat="43.42336" lon="6.052">
        <ele>284.24468994141</ele>
        <time>2014-06-07T12:20:04Z</time>
      </trkpt>
      <trkpt lat="43.42346" lon="6.05202">
        <ele>284.99282836914</ele>
        <time>2014-06-07T12:20:10Z</time>
      </trkpt>
      <trkpt lat="43.42347" lon="6.05203">
        <ele>284.92269897461</ele>
        <time>2014-06-07T12:20:11Z</time>
      </trkpt>
      <trkpt lat="43.42348" lon="6.05203">
        <ele>285.01477050781</ele>
        <time>2014-06-07T12:20:12Z</time>
      </trkpt>
      <trkpt lat="43.42349" lon="6.05202">
        <ele>285.33096313477</ele>
        <time>2014-06-07T12:20:13Z</time>
      </trkpt>
      <trkpt lat="43.42353" lon="6.052">
        <ele>286.24038696289</ele>
        <time>2014-06-07T12:20:16Z</time>
      </trkpt>
      <trkpt lat="43.42358" lon="6.05197">
        <ele>287.83413696289</ele>
        <time>2014-06-07T12:20:20Z</time>
      </trkpt>
      <trkpt lat="43.42363" lon="6.0519">
        <ele>290.46978759766</ele>
        <time>2014-06-07T12:20:25Z</time>
      </trkpt>
      <trkpt lat="43.42366" lon="6.0519">
        <ele>290.92639160156</ele>
        <time>2014-06-07T12:20:27Z</time>
      </trkpt>
      <trkpt lat="43.42369" lon="6.05188">
        <ele>291.73150634766</ele>
        <time>2014-06-07T12:20:29Z</time>
      </trkpt>
      <trkpt lat="43.42373" lon="6.05186">
        <ele>292.78549194336</ele>
        <time>2014-06-07T12:20:32Z</time>
      </trkpt>
      <trkpt lat="43.42375" lon="6.05187">
        <ele>292.9296875</ele>
        <time>2014-06-07T12:20:35Z</time>
      </trkpt>
      <trkpt lat="43.42376" lon="6.05187">
        <ele>293.03955078125</ele>
        <time>2014-06-07T12:20:36Z</time>
      </trkpt>
      <trkpt lat="43.42376" lon="6.05187">
        <ele>293.09448242188</ele>
        <time>2014-06-07T12:20:37Z</time>
      </trkpt>
      <trkpt lat="43.42377" lon="6.05187">
        <ele>293.24041748047</ele>
        <time>2014-06-07T12:20:38Z</time>
      </trkpt>
      <trkpt lat="43.42377" lon="6.05187">
        <ele>293.27645874023</ele>
        <time>2014-06-07T12:20:39Z</time>
      </trkpt>
      <trkpt lat="43.42379" lon="6.05187">
        <ele>293.37600708008</ele>
        <time>2014-06-07T12:20:42Z</time>
      </trkpt>
      <trkpt lat="43.4238" lon="6.05187">
        <ele>293.52365112305</ele>
        <time>2014-06-07T12:20:47Z</time>
      </trkpt>
      <trkpt lat="43.4238" lon="6.05187">
        <ele>293.52365112305</ele>
        <time>2014-06-07T12:20:52Z</time>
      </trkpt>
      <trkpt lat="43.42381" lon="6.05187">
        <ele>293.61462402344</ele>
        <time>2014-06-07T12:20:59Z</time>
      </trkpt>
      <trkpt lat="43.42382" lon="6.05187">
        <ele>293.94763183594</ele>
        <time>2014-06-07T12:21:06Z</time>
      </trkpt>
      <trkpt lat="43.4239" lon="6.05177">
        <ele>297.66271972656</ele>
        <time>2014-06-07T12:21:13Z</time>
      </trkpt>
      <trkpt lat="43.42392" lon="6.05175">
        <ele>298.34197998047</ele>
        <time>2014-06-07T12:21:15Z</time>
      </trkpt>
      <trkpt lat="43.42393" lon="6.05175">
        <ele>298.39559936523</ele>
        <time>2014-06-07T12:21:16Z</time>
      </trkpt>
      <trkpt lat="43.42395" lon="6.05177">
        <ele>298.10043334961</ele>
        <time>2014-06-07T12:21:17Z</time>
      </trkpt>
      <trkpt lat="43.42396" lon="6.05179">
        <ele>297.65979003906</ele>
        <time>2014-06-07T12:21:18Z</time>
      </trkpt>
      <trkpt lat="43.42399" lon="6.05188">
        <ele>295.93026733398</ele>
        <time>2014-06-07T12:21:22Z</time>
      </trkpt>
      <trkpt lat="43.42404" lon="6.05207">
        <ele>289.41799926758</ele>
        <time>2014-06-07T12:21:30Z</time>
      </trkpt>
      <trkpt lat="43.42405" lon="6.05211">
        <ele>287.85528564453</ele>
        <time>2014-06-07T12:21:31Z</time>
      </trkpt>
      <trkpt lat="43.42412" lon="6.0522">
        <ele>285.29385375977</ele>
        <time>2014-06-07T12:21:35Z</time>
      </trkpt>
      <trkpt lat="43.42417" lon="6.05224">
        <ele>284.7028503418</ele>
        <time>2014-06-07T12:21:37Z</time>
      </trkpt>
      <trkpt lat="43.42424" lon="6.05224">
        <ele>285.54864501953</ele>
        <time>2014-06-07T12:21:39Z</time>
      </trkpt>
      <trkpt lat="43.42429" lon="6.05223">
        <ele>286.54467773438</ele>
        <time>2014-06-07T12:21:41Z</time>
      </trkpt>
      <trkpt lat="43.42436" lon="6.05223">
        <ele>287.47991943359</ele>
        <time>2014-06-07T12:21:44Z</time>
      </trkpt>
      <trkpt lat="43.42443" lon="6.0522">
        <ele>289.44448852539</ele>
        <time>2014-06-07T12:21:48Z</time>
      </trkpt>
      <trkpt lat="43.42459" lon="6.05214">
        <ele>295.13891601562</ele>
        <time>2014-06-07T12:21:56Z</time>
      </trkpt>
      <trkpt lat="43.4246" lon="6.05214">
        <ele>295.55319213867</ele>
        <time>2014-06-07T12:21:57Z</time>
      </trkpt>
      <trkpt lat="43.42465" lon="6.05214">
        <ele>296.62582397461</ele>
        <time>2014-06-07T12:22:01Z</time>
      </trkpt>
      <trkpt lat="43.42468" lon="6.05215">
        <ele>297.23397827148</ele>
        <time>2014-06-07T12:22:03Z</time>
      </trkpt>
      <trkpt lat="43.4247" lon="6.05215">
        <ele>297.53778076172</ele>
        <time>2014-06-07T12:22:04Z</time>
      </trkpt>
      <trkpt lat="43.42476" lon="6.05216">
        <ele>298.33731079102</ele>
        <time>2014-06-07T12:22:07Z</time>
      </trkpt>
      <trkpt lat="43.42488" lon="6.05221">
        <ele>298.5498046875</ele>
        <time>2014-06-07T12:22:12Z</time>
      </trkpt>
      <trkpt lat="43.42501" lon="6.05225">
        <ele>299.57543945312</ele>
        <time>2014-06-07T12:22:18Z</time>
      </trkpt>
      <trkpt lat="43.42514" lon="6.05225">
        <ele>299.62731933594</ele>
        <time>2014-06-07T12:22:24Z</time>
      </trkpt>
      <trkpt lat="43.42526" lon="6.05225">
        <ele>299.74975585938</ele>
        <time>2014-06-07T12:22:29Z</time>
      </trkpt>
      <trkpt lat="43.42533" lon="6.05225">
        <ele>299.81951904297</ele>
        <time>2014-06-07T12:22:32Z</time>
      </trkpt>
      <trkpt lat="43.42536" lon="6.05225">
        <ele>299.85604858398</ele>
        <time>2014-06-07T12:22:33Z</time>
      </trkpt>
      <trkpt lat="43.42549" lon="6.05221">
        <ele>300.14025878906</ele>
        <time>2014-06-07T12:22:39Z</time>
      </trkpt>
      <trkpt lat="43.42551" lon="6.0522">
        <ele>300.20465087891</ele>
        <time>2014-06-07T12:22:40Z</time>
      </trkpt>
      <trkpt lat="43.42555" lon="6.0522">
        <ele>300.16567993164</ele>
        <time>2014-06-07T12:22:42Z</time>
      </trkpt>
      <trkpt lat="43.42559" lon="6.0522">
        <ele>300.14086914062</ele>
        <time>2014-06-07T12:22:44Z</time>
      </trkpt>
      <trkpt lat="43.42573" lon="6.05224">
        <ele>300</ele>
        <time>2014-06-07T12:22:50Z</time>
      </trkpt>
      <trkpt lat="43.4258" lon="6.05229">
        <ele>300</ele>
        <time>2014-06-07T12:22:53Z</time>
      </trkpt>
      <trkpt lat="43.42585" lon="6.05233">
        <ele>300</ele>
        <time>2014-06-07T12:22:55Z</time>
      </trkpt>
      <trkpt lat="43.42591" lon="6.05239">
        <ele>300</ele>
        <time>2014-06-07T12:22:58Z</time>
      </trkpt>
      <trkpt lat="43.42596" lon="6.05242">
        <ele>300</ele>
        <time>2014-06-07T12:23:00Z</time>
      </trkpt>
      <trkpt lat="43.42607" lon="6.05252">
        <ele>300</ele>
        <time>2014-06-07T12:23:06Z</time>
      </trkpt>
      <trkpt lat="43.42618" lon="6.0526">
        <ele>300</ele>
        <time>2014-06-07T12:23:13Z</time>
      </trkpt>
      <trkpt lat="43.42622" lon="6.05264">
        <ele>300</ele>
        <time>2014-06-07T12:23:16Z</time>
      </trkpt>
      <trkpt lat="43.42628" lon="6.05268">
        <ele>300</ele>
        <time>2014-06-07T12:23:22Z</time>
      </trkpt>
      <trkpt lat="43.42628" lon="6.05268">
        <ele>300</ele>
        <time>2014-06-07T12:23:27Z</time>
      </trkpt>
      <trkpt lat="43.42628" lon="6.05268">
        <ele>300</ele>
        <time>2014-06-07T12:23:40Z</time>
      </trkpt>
      <trkpt lat="43.42628" lon="6.05268">
        <ele>300</ele>
        <time>2014-06-07T12:23:57Z</time>
      </trkpt>
      <trkpt lat="43.42629" lon="6.05267">
        <ele>300</ele>
        <time>2014-06-07T12:24:05Z</time>
      </trkpt>
      <trkpt lat="43.4263" lon="6.05267">
        <ele>300</ele>
        <time>2014-06-07T12:24:14Z</time>
      </trkpt>
      <trkpt lat="43.4263" lon="6.05267">
        <ele>300</ele>
        <time>2014-06-07T12:24:24Z</time>
      </trkpt>
      <trkpt lat="43.42631" lon="6.05265">
        <ele>300</ele>
        <time>2014-06-07T12:24:29Z</time>
      </trkpt>
      <trkpt lat="43.42641" lon="6.0526">
        <ele>300</ele>
        <time>2014-06-07T12:24:34Z</time>
      </trkpt>
      <trkpt lat="43.42651" lon="6.05252">
        <ele>300</ele>
        <time>2014-06-07T12:24:39Z</time>
      </trkpt>
      <trkpt lat="43.42653" lon="6.05251">
        <ele>300</ele>
        <time>2014-06-07T12:24:40Z</time>
      </trkpt>
      <trkpt lat="43.42655" lon="6.05249">
        <ele>300</ele>
        <time>2014-06-07T12:24:41Z</time>
      </trkpt>
      <trkpt lat="43.42656" lon="6.05247">
        <ele>300</ele>
        <time>2014-06-07T12:24:42Z</time>
      </trkpt>
      <trkpt lat="43.42658" lon="6.05244">
        <ele>300</ele>
        <time>2014-06-07T12:24:43Z</time>
      </trkpt>
      <trkpt lat="43.42664" lon="6.05242">
        <ele>300</ele>
        <time>2014-06-07T12:24:45Z</time>
      </trkpt>
      <trkpt lat="43.42671" lon="6.05236">
        <ele>300</ele>
        <time>2014-06-07T12:24:49Z</time>
      </trkpt>
      <trkpt lat="43.42673" lon="6.05232">
        <ele>300</ele>
        <time>2014-06-07T12:24:51Z</time>
      </trkpt>
      <trkpt lat="43.42675" lon="6.05229">
        <ele>300</ele>
        <time>2014-06-07T12:24:53Z</time>
      </trkpt>
      <trkpt lat="43.42676" lon="6.05228">
        <ele>300</ele>
        <time>2014-06-07T12:24:54Z</time>
      </trkpt>
      <trkpt lat="43.42679" lon="6.05227">
        <ele>300</ele>
        <time>2014-06-07T12:24:56Z</time>
      </trkpt>
      <trkpt lat="43.42681" lon="6.05226">
        <ele>300</ele>
        <time>2014-06-07T12:24:57Z</time>
      </trkpt>
      <trkpt lat="43.42683" lon="6.05225">
        <ele>300</ele>
        <time>2014-06-07T12:24:59Z</time>
      </trkpt>
      <trkpt lat="43.42685" lon="6.05223">
        <ele>300</ele>
        <time>2014-06-07T12:25:02Z</time>
      </trkpt>
      <trkpt lat="43.42686" lon="6.05222">
        <ele>300</ele>
        <time>2014-06-07T12:25:03Z</time>
      </trkpt>
      <trkpt lat="43.42688" lon="6.0522">
        <ele>300</ele>
        <time>2014-06-07T12:25:05Z</time>
      </trkpt>
      <trkpt lat="43.42689" lon="6.05219">
        <ele>300</ele>
        <time>2014-06-07T12:25:06Z</time>
      </trkpt>
      <trkpt lat="43.4269" lon="6.05218">
        <ele>300</ele>
        <time>2014-06-07T12:25:07Z</time>
      </trkpt>
      <trkpt lat="43.42692" lon="6.05218">
        <ele>300</ele>
        <time>2014-06-07T12:25:08Z</time>
      </trkpt>
      <trkpt lat="43.42692" lon="6.05217">
        <ele>300</ele>
        <time>2014-06-07T12:25:09Z</time>
      </trkpt>
      <trkpt lat="43.42709" lon="6.0521">
        <ele>300</ele>
        <time>2014-06-07T12:25:15Z</time>
      </trkpt>
      <trkpt lat="43.42713" lon="6.05206">
        <ele>300</ele>
        <time>2014-06-07T12:25:18Z</time>
      </trkpt>
      <trkpt lat="43.42715" lon="6.05205">
        <ele>300</ele>
        <time>2014-06-07T12:25:19Z</time>
      </trkpt>
      <trkpt lat="43.42717" lon="6.05202">
        <ele>300</ele>
        <time>2014-06-07T12:25:21Z</time>
      </trkpt>
      <trkpt lat="43.42722" lon="6.05193">
        <ele>300</ele>
        <time>2014-06-07T12:25:26Z</time>
      </trkpt>
      <trkpt lat="43.42728" lon="6.05181">
        <ele>300</ele>
        <time>2014-06-07T12:25:33Z</time>
      </trkpt>
      <trkpt lat="43.42731" lon="6.05174">
        <ele>300</ele>
        <time>2014-06-07T12:25:37Z</time>
      </trkpt>
      <trkpt lat="43.42734" lon="6.0517">
        <ele>300</ele>
        <time>2014-06-07T12:25:39Z</time>
      </trkpt>
      <trkpt lat="43.42735" lon="6.05164">
        <ele>300.15347290039</ele>
        <time>2014-06-07T12:25:44Z</time>
      </trkpt>
      <trkpt lat="43.42736" lon="6.05162">
        <ele>300.26257324219</ele>
        <time>2014-06-07T12:25:45Z</time>
      </trkpt>
      <trkpt lat="43.42739" lon="6.05155">
        <ele>300.4616394043</ele>
        <time>2014-06-07T12:25:49Z</time>
      </trkpt>
      <trkpt lat="43.42746" lon="6.05147">
        <ele>300.34405517578</ele>
        <time>2014-06-07T12:25:54Z</time>
      </trkpt>
      <trkpt lat="43.42751" lon="6.05137">
        <ele>300.05941772461</ele>
        <time>2014-06-07T12:25:59Z</time>
      </trkpt>
      <trkpt lat="43.42754" lon="6.05121">
        <ele>300.53582763672</ele>
        <time>2014-06-07T12:26:05Z</time>
      </trkpt>
      <trkpt lat="43.42757" lon="6.05118">
        <ele>300.54650878906</ele>
        <time>2014-06-07T12:26:07Z</time>
      </trkpt>
      <trkpt lat="43.42756" lon="6.05108">
        <ele>300.95303344727</ele>
        <time>2014-06-07T12:26:11Z</time>
      </trkpt>
      <trkpt lat="43.42751" lon="6.05089">
        <ele>301.85385131836</ele>
        <time>2014-06-07T12:26:18Z</time>
      </trkpt>
      <trkpt lat="43.42752" lon="6.0507">
        <ele>302.64978027344</ele>
        <time>2014-06-07T12:26:25Z</time>
      </trkpt>
      <trkpt lat="43.42755" lon="6.05062">
        <ele>303.25863647461</ele>
        <time>2014-06-07T12:26:29Z</time>
      </trkpt>
      <trkpt lat="43.4276" lon="6.05047">
        <ele>304.86114501953</ele>
        <time>2014-06-07T12:26:35Z</time>
      </trkpt>
      <trkpt lat="43.42765" lon="6.05031">
        <ele>306.80599975586</ele>
        <time>2014-06-07T12:26:42Z</time>
      </trkpt>
      <trkpt lat="43.42765" lon="6.05029">
        <ele>306.94882202148</ele>
        <time>2014-06-07T12:26:44Z</time>
      </trkpt>
      <trkpt lat="43.42765" lon="6.05029">
        <ele>306.94882202148</ele>
        <time>2014-06-07T12:26:58Z</time>
      </trkpt>
      <trkpt lat="43.42765" lon="6.05029">
        <ele>306.94036865234</ele>
        <time>2014-06-07T12:27:42Z</time>
      </trkpt>
      <trkpt lat="43.42765" lon="6.05029">
        <ele>306.94036865234</ele>
        <time>2014-06-07T12:27:56Z</time>
      </trkpt>
      <trkpt lat="43.42767" lon="6.05024">
        <ele>307.35986328125</ele>
        <time>2014-06-07T12:27:59Z</time>
      </trkpt>
      <trkpt lat="43.42767" lon="6.05017">
        <ele>307.62939453125</ele>
        <time>2014-06-07T12:28:01Z</time>
      </trkpt>
      <trkpt lat="43.42767" lon="6.05004">
        <ele>308.04650878906</ele>
        <time>2014-06-07T12:28:05Z</time>
      </trkpt>
      <trkpt lat="43.42765" lon="6.05001">
        <ele>308.06539916992</ele>
        <time>2014-06-07T12:28:06Z</time>
      </trkpt>
      <trkpt lat="43.42763" lon="6.04986">
        <ele>308.9333190918</ele>
        <time>2014-06-07T12:28:11Z</time>
      </trkpt>
      <trkpt lat="43.42762" lon="6.0497">
        <ele>310.14877319336</ele>
        <time>2014-06-07T12:28:16Z</time>
      </trkpt>
      <trkpt lat="43.42762" lon="6.04961">
        <ele>311.01052856445</ele>
        <time>2014-06-07T12:28:19Z</time>
      </trkpt>
      <trkpt lat="43.42761" lon="6.04955">
        <ele>311.61993408203</ele>
        <time>2014-06-07T12:28:21Z</time>
      </trkpt>
      <trkpt lat="43.42761" lon="6.04953">
        <ele>311.90832519531</ele>
        <time>2014-06-07T12:28:22Z</time>
      </trkpt>
      <trkpt lat="43.42762" lon="6.04936">
        <ele>313.19400024414</ele>
        <time>2014-06-07T12:28:28Z</time>
      </trkpt>
      <trkpt lat="43.42758" lon="6.04917">
        <ele>313.54418945312</ele>
        <time>2014-06-07T12:28:35Z</time>
      </trkpt>
      <trkpt lat="43.42757" lon="6.04911">
        <ele>313.93209838867</ele>
        <time>2014-06-07T12:28:37Z</time>
      </trkpt>
      <trkpt lat="43.4276" lon="6.04901">
        <ele>314.84875488281</ele>
        <time>2014-06-07T12:28:41Z</time>
      </trkpt>
      <trkpt lat="43.42766" lon="6.04888">
        <ele>316.18011474609</ele>
        <time>2014-06-07T12:28:47Z</time>
      </trkpt>
      <trkpt lat="43.4277" lon="6.04883">
        <ele>316.61614990234</ele>
        <time>2014-06-07T12:28:50Z</time>
      </trkpt>
      <trkpt lat="43.4277" lon="6.04881">
        <ele>316.75347900391</ele>
        <time>2014-06-07T12:28:51Z</time>
      </trkpt>
      <trkpt lat="43.42778" lon="6.04858">
        <ele>318.18441772461</ele>
        <time>2014-06-07T12:29:01Z</time>
      </trkpt>
      <trkpt lat="43.42779" lon="6.04853">
        <ele>318.85989379883</ele>
        <time>2014-06-07T12:29:03Z</time>
      </trkpt>
      <trkpt lat="43.4278" lon="6.04837">
        <ele>320.38922119141</ele>
        <time>2014-06-07T12:29:10Z</time>
      </trkpt>
      <trkpt lat="43.42783" lon="6.04832">
        <ele>321.80374145508</ele>
        <time>2014-06-07T12:29:13Z</time>
      </trkpt>
      <trkpt lat="43.4279" lon="6.04832">
        <ele>324.21090698242</ele>
        <time>2014-06-07T12:29:18Z</time>
      </trkpt>
      <trkpt lat="43.42797" lon="6.04837">
        <ele>325.92471313477</ele>
        <time>2014-06-07T12:29:22Z</time>
      </trkpt>
      <trkpt lat="43.42805" lon="6.04845">
        <ele>327.11465454102</ele>
        <time>2014-06-07T12:29:27Z</time>
      </trkpt>
      <trkpt lat="43.42807" lon="6.04847">
        <ele>327.22119140625</ele>
        <time>2014-06-07T12:29:29Z</time>
      </trkpt>
      <trkpt lat="43.42818" lon="6.04853">
        <ele>327.54257202148</ele>
        <time>2014-06-07T12:29:34Z</time>
      </trkpt>
      <trkpt lat="43.42823" lon="6.04853">
        <ele>328.20724487305</ele>
        <time>2014-06-07T12:29:37Z</time>
      </trkpt>
      <trkpt lat="43.42825" lon="6.04853">
        <ele>328.36419677734</ele>
        <time>2014-06-07T12:29:39Z</time>
      </trkpt>
      <trkpt lat="43.42826" lon="6.04853">
        <ele>328.46646118164</ele>
        <time>2014-06-07T12:29:40Z</time>
      </trkpt>
      <trkpt lat="43.42827" lon="6.04853">
        <ele>328.60723876953</ele>
        <time>2014-06-07T12:29:41Z</time>
      </trkpt>
      <trkpt lat="43.42831" lon="6.04854">
        <ele>328.96630859375</ele>
        <time>2014-06-07T12:29:43Z</time>
      </trkpt>
      <trkpt lat="43.42834" lon="6.04855">
        <ele>329.21548461914</ele>
        <time>2014-06-07T12:29:47Z</time>
      </trkpt>
      <trkpt lat="43.42844" lon="6.04859">
        <ele>329.04019165039</ele>
        <time>2014-06-07T12:29:55Z</time>
      </trkpt>
      <trkpt lat="43.42851" lon="6.04867">
        <ele>328.85690307617</ele>
        <time>2014-06-07T12:30:01Z</time>
      </trkpt>
      <trkpt lat="43.42857" lon="6.04875">
        <ele>328.83648681641</ele>
        <time>2014-06-07T12:30:07Z</time>
      </trkpt>
      <trkpt lat="43.42862" lon="6.04882">
        <ele>328.98394775391</ele>
        <time>2014-06-07T12:30:11Z</time>
      </trkpt>
      <trkpt lat="43.42862" lon="6.04886">
        <ele>328.95648193359</ele>
        <time>2014-06-07T12:30:13Z</time>
      </trkpt>
      <trkpt lat="43.42868" lon="6.04895">
        <ele>328.75048828125</ele>
        <time>2014-06-07T12:30:17Z</time>
      </trkpt>
      <trkpt lat="43.42871" lon="6.04904">
        <ele>328.62689208984</ele>
        <time>2014-06-07T12:30:20Z</time>
      </trkpt>
      <trkpt lat="43.42875" lon="6.04912">
        <ele>328.50329589844</ele>
        <time>2014-06-07T12:30:23Z</time>
      </trkpt>
      <trkpt lat="43.42883" lon="6.04922">
        <ele>328.21490478516</ele>
        <time>2014-06-07T12:30:28Z</time>
      </trkpt>
      <trkpt lat="43.42889" lon="6.04926">
        <ele>327.99035644531</ele>
        <time>2014-06-07T12:30:33Z</time>
      </trkpt>
      <trkpt lat="43.42891" lon="6.04925">
        <ele>327.85302734375</ele>
        <time>2014-06-07T12:30:34Z</time>
      </trkpt>
      <trkpt lat="43.42905" lon="6.04922">
        <ele>326.8642578125</ele>
        <time>2014-06-07T12:30:40Z</time>
      </trkpt>
      <trkpt lat="43.42917" lon="6.04919">
        <ele>325.91744995117</ele>
        <time>2014-06-07T12:30:46Z</time>
      </trkpt>
      <trkpt lat="43.42925" lon="6.04918">
        <ele>324.83493041992</ele>
        <time>2014-06-07T12:30:51Z</time>
      </trkpt>
      <trkpt lat="43.42928" lon="6.04925">
        <ele>324.49465942383</ele>
        <time>2014-06-07T12:30:56Z</time>
      </trkpt>
      <trkpt lat="43.42929" lon="6.04927">
        <ele>324.32476806641</ele>
        <time>2014-06-07T12:30:58Z</time>
      </trkpt>
      <trkpt lat="43.42931" lon="6.04928">
        <ele>324.19384765625</ele>
        <time>2014-06-07T12:30:59Z</time>
      </trkpt>
      <trkpt lat="43.42932" lon="6.04931">
        <ele>324.11077880859</ele>
        <time>2014-06-07T12:31:02Z</time>
      </trkpt>
      <trkpt lat="43.42933" lon="6.04935">
        <ele>324.09744262695</ele>
        <time>2014-06-07T12:31:05Z</time>
      </trkpt>
      <trkpt lat="43.42933" lon="6.04938">
        <ele>324.07049560547</ele>
        <time>2014-06-07T12:31:08Z</time>
      </trkpt>
      <trkpt lat="43.42933" lon="6.04938">
        <ele>324.11981201172</ele>
        <time>2014-06-07T12:31:13Z</time>
      </trkpt>
      <trkpt lat="43.42933" lon="6.04938">
        <ele>324.11981201172</ele>
        <time>2014-06-07T12:31:25Z</time>
      </trkpt>
      <trkpt lat="43.42933" lon="6.04942">
        <ele>324.18701171875</ele>
        <time>2014-06-07T12:31:28Z</time>
      </trkpt>
      <trkpt lat="43.42933" lon="6.04944">
        <ele>324.19158935547</ele>
        <time>2014-06-07T12:31:29Z</time>
      </trkpt>
      <trkpt lat="43.4293" lon="6.04959">
        <ele>324.81072998047</ele>
        <time>2014-06-07T12:31:35Z</time>
      </trkpt>
      <trkpt lat="43.42928" lon="6.04976">
        <ele>325.42568969727</ele>
        <time>2014-06-07T12:31:41Z</time>
      </trkpt>
      <trkpt lat="43.42924" lon="6.05014">
        <ele>326.15405273438</ele>
        <time>2014-06-07T12:31:54Z</time>
      </trkpt>
      <trkpt lat="43.4292" lon="6.05062">
        <ele>327.67565917969</ele>
        <time>2014-06-07T12:32:11Z</time>
      </trkpt>
      <trkpt lat="43.42917" lon="6.05084">
        <ele>327.98547363281</ele>
        <time>2014-06-07T12:32:18Z</time>
      </trkpt>
      <trkpt lat="43.42915" lon="6.05104">
        <ele>328.04760742188</ele>
        <time>2014-06-07T12:32:25Z</time>
      </trkpt>
      <trkpt lat="43.42913" lon="6.05116">
        <ele>328.40216064453</ele>
        <time>2014-06-07T12:32:30Z</time>
      </trkpt>
      <trkpt lat="43.4291" lon="6.05128">
        <ele>329.169921875</ele>
        <time>2014-06-07T12:32:35Z</time>
      </trkpt>
      <trkpt lat="43.4291" lon="6.05133">
        <ele>329.44320678711</ele>
        <time>2014-06-07T12:32:37Z</time>
      </trkpt>
      <trkpt lat="43.42907" lon="6.05167">
        <ele>330</ele>
        <time>2014-06-07T12:32:50Z</time>
      </trkpt>
      <trkpt lat="43.42905" lon="6.05182">
        <ele>330</ele>
        <time>2014-06-07T12:32:56Z</time>
      </trkpt>
      <trkpt lat="43.42904" lon="6.05188">
        <ele>330</ele>
        <time>2014-06-07T12:32:58Z</time>
      </trkpt>
      <trkpt lat="43.42902" lon="6.05199">
        <ele>330</ele>
        <time>2014-06-07T12:33:02Z</time>
      </trkpt>
      <trkpt lat="43.42901" lon="6.05206">
        <ele>330</ele>
        <time>2014-06-07T12:33:04Z</time>
      </trkpt>
      <trkpt lat="43.42899" lon="6.05227">
        <ele>330</ele>
        <time>2014-06-07T12:33:10Z</time>
      </trkpt>
      <trkpt lat="43.42897" lon="6.0525">
        <ele>330</ele>
        <time>2014-06-07T12:33:17Z</time>
      </trkpt>
      <trkpt lat="43.42894" lon="6.05275">
        <ele>330</ele>
        <time>2014-06-07T12:33:25Z</time>
      </trkpt>
      <trkpt lat="43.42893" lon="6.05291">
        <ele>330</ele>
        <time>2014-06-07T12:33:30Z</time>
      </trkpt>
      <trkpt lat="43.42892" lon="6.05294">
        <ele>330</ele>
        <time>2014-06-07T12:33:31Z</time>
      </trkpt>
      <trkpt lat="43.42887" lon="6.05332">
        <ele>329.80847167969</ele>
        <time>2014-06-07T12:33:41Z</time>
      </trkpt>
      <trkpt lat="43.42883" lon="6.05353">
        <ele>329.25045776367</ele>
        <time>2014-06-07T12:33:45Z</time>
      </trkpt>
      <trkpt lat="43.42881" lon="6.05377">
        <ele>328.33123779297</ele>
        <time>2014-06-07T12:33:49Z</time>
      </trkpt>
      <trkpt lat="43.42879" lon="6.05406">
        <ele>327.03692626953</ele>
        <time>2014-06-07T12:33:53Z</time>
      </trkpt>
      <trkpt lat="43.42878" lon="6.0542">
        <ele>326.40020751953</ele>
        <time>2014-06-07T12:33:55Z</time>
      </trkpt>
      <trkpt lat="43.42877" lon="6.05428">
        <ele>326.2102355957</ele>
        <time>2014-06-07T12:33:56Z</time>
      </trkpt>
      <trkpt lat="43.42873" lon="6.0545">
        <ele>325.6194152832</ele>
        <time>2014-06-07T12:33:59Z</time>
      </trkpt>
      <trkpt lat="43.42872" lon="6.05457">
        <ele>325.18872070312</ele>
        <time>2014-06-07T12:34:00Z</time>
      </trkpt>
      <trkpt lat="43.42869" lon="6.05491">
        <ele>324.09600830078</ele>
        <time>2014-06-07T12:34:05Z</time>
      </trkpt>
      <trkpt lat="43.42868" lon="6.05497">
        <ele>324.02682495117</ele>
        <time>2014-06-07T12:34:06Z</time>
      </trkpt>
      <trkpt lat="43.42863" lon="6.05533">
        <ele>323</ele>
        <time>2014-06-07T12:34:12Z</time>
      </trkpt>
      <trkpt lat="43.42855" lon="6.05578">
        <ele>322.96084594727</ele>
        <time>2014-06-07T12:34:20Z</time>
      </trkpt>
      <trkpt lat="43.42854" lon="6.05599">
        <ele>322.42492675781</ele>
        <time>2014-06-07T12:34:25Z</time>
      </trkpt>
      <trkpt lat="43.42851" lon="6.05613">
        <ele>322</ele>
        <time>2014-06-07T12:34:28Z</time>
      </trkpt>
      <trkpt lat="43.42849" lon="6.05634">
        <ele>322</ele>
        <time>2014-06-07T12:34:32Z</time>
      </trkpt>
      <trkpt lat="43.42846" lon="6.05662">
        <ele>321.62289428711</ele>
        <time>2014-06-07T12:34:38Z</time>
      </trkpt>
      <trkpt lat="43.42843" lon="6.05707">
        <ele>321.95886230469</ele>
        <time>2014-06-07T12:34:47Z</time>
      </trkpt>
      <trkpt lat="43.42834" lon="6.05734">
        <ele>322.89999389648</ele>
        <time>2014-06-07T12:34:53Z</time>
      </trkpt>
      <trkpt lat="43.4283" lon="6.05753">
        <ele>323.22463989258</ele>
        <time>2014-06-07T12:34:57Z</time>
      </trkpt>
      <trkpt lat="43.42826" lon="6.05779">
        <ele>324.27484130859</ele>
        <time>2014-06-07T12:35:02Z</time>
      </trkpt>
      <trkpt lat="43.42825" lon="6.05791">
        <ele>324.30230712891</ele>
        <time>2014-06-07T12:35:04Z</time>
      </trkpt>
      <trkpt lat="43.42822" lon="6.05811">
        <ele>324.65692138672</ele>
        <time>2014-06-07T12:35:08Z</time>
      </trkpt>
      <trkpt lat="43.4282" lon="6.05824">
        <ele>325.44595336914</ele>
        <time>2014-06-07T12:35:11Z</time>
      </trkpt>
      <trkpt lat="43.42819" lon="6.05829">
        <ele>325.77096557617</ele>
        <time>2014-06-07T12:35:12Z</time>
      </trkpt>
      <trkpt lat="43.42818" lon="6.05836">
        <ele>326.36785888672</ele>
        <time>2014-06-07T12:35:15Z</time>
      </trkpt>
      <trkpt lat="43.42817" lon="6.05839">
        <ele>326.63873291016</ele>
        <time>2014-06-07T12:35:16Z</time>
      </trkpt>
      <trkpt lat="43.42817" lon="6.05841">
        <ele>326.83120727539</ele>
        <time>2014-06-07T12:35:17Z</time>
      </trkpt>
      <trkpt lat="43.42814" lon="6.0585">
        <ele>327.84017944336</ele>
        <time>2014-06-07T12:35:21Z</time>
      </trkpt>
      <trkpt lat="43.42813" lon="6.05852">
        <ele>328.08422851562</ele>
        <time>2014-06-07T12:35:22Z</time>
      </trkpt>
      <trkpt lat="43.4281" lon="6.05861">
        <ele>329.25839233398</ele>
        <time>2014-06-07T12:35:26Z</time>
      </trkpt>
      <trkpt lat="43.42803" lon="6.05875">
        <ele>330</ele>
        <time>2014-06-07T12:35:35Z</time>
      </trkpt>
      <trkpt lat="43.42802" lon="6.05878">
        <ele>330</ele>
        <time>2014-06-07T12:35:37Z</time>
      </trkpt>
      <trkpt lat="43.42798" lon="6.05887">
        <ele>330</ele>
        <time>2014-06-07T12:35:42Z</time>
      </trkpt>
      <trkpt lat="43.42795" lon="6.05893">
        <ele>330</ele>
        <time>2014-06-07T12:35:46Z</time>
      </trkpt>
      <trkpt lat="43.42786" lon="6.05918">
        <ele>330</ele>
        <time>2014-06-07T12:36:01Z</time>
      </trkpt>
      <trkpt lat="43.42785" lon="6.0592">
        <ele>330</ele>
        <time>2014-06-07T12:36:02Z</time>
      </trkpt>
      <trkpt lat="43.42785" lon="6.05923">
        <ele>330</ele>
        <time>2014-06-07T12:36:04Z</time>
      </trkpt>
      <trkpt lat="43.42783" lon="6.05932">
        <ele>330</ele>
        <time>2014-06-07T12:36:09Z</time>
      </trkpt>
      <trkpt lat="43.42783" lon="6.05937">
        <ele>330</ele>
        <time>2014-06-07T12:36:11Z</time>
      </trkpt>
      <trkpt lat="43.42783" lon="6.05949">
        <ele>330</ele>
        <time>2014-06-07T12:36:15Z</time>
      </trkpt>
      <trkpt lat="43.42781" lon="6.05954">
        <ele>330</ele>
        <time>2014-06-07T12:36:17Z</time>
      </trkpt>
      <trkpt lat="43.42778" lon="6.05967">
        <ele>330</ele>
        <time>2014-06-07T12:36:23Z</time>
      </trkpt>
      <trkpt lat="43.42775" lon="6.0597">
        <ele>330</ele>
        <time>2014-06-07T12:36:28Z</time>
      </trkpt>
      <trkpt lat="43.42774" lon="6.0597">
        <ele>330</ele>
        <time>2014-06-07T12:36:29Z</time>
      </trkpt>
      <trkpt lat="43.42768" lon="6.05971">
        <ele>330</ele>
        <time>2014-06-07T12:36:34Z</time>
      </trkpt>
      <trkpt lat="43.42764" lon="6.05973">
        <ele>330</ele>
        <time>2014-06-07T12:36:37Z</time>
      </trkpt>
      <trkpt lat="43.42761" lon="6.05978">
        <ele>330</ele>
        <time>2014-06-07T12:36:41Z</time>
      </trkpt>
      <trkpt lat="43.42761" lon="6.05978">
        <ele>330</ele>
        <time>2014-06-07T12:36:45Z</time>
      </trkpt>
      <trkpt lat="43.42762" lon="6.05979">
        <ele>330</ele>
        <time>2014-06-07T12:36:51Z</time>
      </trkpt>
      <trkpt lat="43.42762" lon="6.05979">
        <ele>330</ele>
        <time>2014-06-07T12:36:57Z</time>
      </trkpt>
      <trkpt lat="43.42764" lon="6.0598">
        <ele>330</ele>
        <time>2014-06-07T12:37:07Z</time>
      </trkpt>
      <trkpt lat="43.42764" lon="6.0598">
        <ele>330</ele>
        <time>2014-06-07T12:37:34Z</time>
      </trkpt>
      <trkpt lat="43.42764" lon="6.0598">
        <ele>330</ele>
        <time>2014-06-07T12:37:51Z</time>
      </trkpt>
      <trkpt lat="43.42764" lon="6.0598">
        <ele>330</ele>
        <time>2014-06-07T12:37:58Z</time>
      </trkpt>
      <trkpt lat="43.42764" lon="6.0598">
        <ele>330</ele>
        <time>2014-06-07T12:38:23Z</time>
      </trkpt>
      <trkpt lat="43.42764" lon="6.0598">
        <ele>330</ele>
        <time>2014-06-07T12:38:54Z</time>
      </trkpt>
      <trkpt lat="43.42765" lon="6.05981">
        <ele>330</ele>
        <time>2014-06-07T12:38:58Z</time>
      </trkpt>
      <trkpt lat="43.42767" lon="6.05983">
        <ele>330</ele>
        <time>2014-06-07T12:38:59Z</time>
      </trkpt>
      <trkpt lat="43.42773" lon="6.05988">
        <ele>330</ele>
        <time>2014-06-07T12:39:02Z</time>
      </trkpt>
      <trkpt lat="43.42779" lon="6.05991">
        <ele>330</ele>
        <time>2014-06-07T12:39:05Z</time>
      </trkpt>
      <trkpt lat="43.4278" lon="6.05992">
        <ele>330</ele>
        <time>2014-06-07T12:39:06Z</time>
      </trkpt>
      <trkpt lat="43.42789" lon="6.0599">
        <ele>330</ele>
        <time>2014-06-07T12:39:10Z</time>
      </trkpt>
      <trkpt lat="43.42789" lon="6.05991">
        <ele>330</ele>
        <time>2014-06-07T12:39:12Z</time>
      </trkpt>
      <trkpt lat="43.42789" lon="6.05991">
        <ele>330</ele>
        <time>2014-06-07T12:39:16Z</time>
      </trkpt>
      <trkpt lat="43.42789" lon="6.05991">
        <ele>330</ele>
        <time>2014-06-07T12:39:20Z</time>
      </trkpt>
      <trkpt lat="43.42791" lon="6.0599">
        <ele>330</ele>
        <time>2014-06-07T12:39:24Z</time>
      </trkpt>
      <trkpt lat="43.42805" lon="6.0599">
        <ele>330</ele>
        <time>2014-06-07T12:39:28Z</time>
      </trkpt>
      <trkpt lat="43.4281" lon="6.0599">
        <ele>329.53500366211</ele>
        <time>2014-06-07T12:39:29Z</time>
      </trkpt>
      <trkpt lat="43.42817" lon="6.05991">
        <ele>328.94171142578</ele>
        <time>2014-06-07T12:39:30Z</time>
      </trkpt>
      <trkpt lat="43.42822" lon="6.05993">
        <ele>328.43057250977</ele>
        <time>2014-06-07T12:39:31Z</time>
      </trkpt>
      <trkpt lat="43.42826" lon="6.05996">
        <ele>327.93795776367</ele>
        <time>2014-06-07T12:39:32Z</time>
      </trkpt>
      <trkpt lat="43.4283" lon="6.06">
        <ele>327.35607910156</ele>
        <time>2014-06-07T12:39:33Z</time>
      </trkpt>
      <trkpt lat="43.42833" lon="6.06005">
        <ele>326.81707763672</ele>
        <time>2014-06-07T12:39:34Z</time>
      </trkpt>
      <trkpt lat="43.42837" lon="6.06011">
        <ele>325.91622924805</ele>
        <time>2014-06-07T12:39:35Z</time>
      </trkpt>
      <trkpt lat="43.42841" lon="6.06017">
        <ele>324.939453125</ele>
        <time>2014-06-07T12:39:36Z</time>
      </trkpt>
      <trkpt lat="43.42844" lon="6.06023">
        <ele>324.19961547852</ele>
        <time>2014-06-07T12:39:37Z</time>
      </trkpt>
      <trkpt lat="43.42849" lon="6.06029">
        <ele>323.07522583008</ele>
        <time>2014-06-07T12:39:38Z</time>
      </trkpt>
      <trkpt lat="43.42864" lon="6.06046">
        <ele>319.41186523438</ele>
        <time>2014-06-07T12:39:41Z</time>
      </trkpt>
      <trkpt lat="43.42869" lon="6.06054">
        <ele>317.14431762695</ele>
        <time>2014-06-07T12:39:43Z</time>
      </trkpt>
      <trkpt lat="43.42867" lon="6.06079">
        <ele>317.39712524414</ele>
        <time>2014-06-07T12:39:47Z</time>
      </trkpt>
      <trkpt lat="43.42863" lon="6.06094">
        <ele>318.95327758789</ele>
        <time>2014-06-07T12:39:49Z</time>
      </trkpt>
      <trkpt lat="43.42859" lon="6.06119">
        <ele>319.11907958984</ele>
        <time>2014-06-07T12:39:53Z</time>
      </trkpt>
      <trkpt lat="43.42859" lon="6.06126">
        <ele>318.10647583008</ele>
        <time>2014-06-07T12:39:54Z</time>
      </trkpt>
      <trkpt lat="43.4287" lon="6.06157">
        <ele>310.12561035156</ele>
        <time>2014-06-07T12:39:59Z</time>
      </trkpt>
      <trkpt lat="43.4287" lon="6.06162">
        <ele>309.18664550781</ele>
        <time>2014-06-07T12:40:00Z</time>
      </trkpt>
      <trkpt lat="43.42872" lon="6.06173">
        <ele>307.57437133789</ele>
        <time>2014-06-07T12:40:02Z</time>
      </trkpt>
      <trkpt lat="43.42873" lon="6.06179">
        <ele>306.51922607422</ele>
        <time>2014-06-07T12:40:03Z</time>
      </trkpt>
      <trkpt lat="43.42874" lon="6.06185">
        <ele>305.82397460938</ele>
        <time>2014-06-07T12:40:04Z</time>
      </trkpt>
      <trkpt lat="43.42875" lon="6.06192">
        <ele>305.31649780273</ele>
        <time>2014-06-07T12:40:05Z</time>
      </trkpt>
      <trkpt lat="43.42875" lon="6.06204">
        <ele>303.93814086914</ele>
        <time>2014-06-07T12:40:07Z</time>
      </trkpt>
      <trkpt lat="43.42874" lon="6.0621">
        <ele>303.41827392578</ele>
        <time>2014-06-07T12:40:08Z</time>
      </trkpt>
      <trkpt lat="43.42872" lon="6.06216">
        <ele>303.27795410156</ele>
        <time>2014-06-07T12:40:09Z</time>
      </trkpt>
      <trkpt lat="43.4287" lon="6.06222">
        <ele>303.2565612793</ele>
        <time>2014-06-07T12:40:10Z</time>
      </trkpt>
      <trkpt lat="43.42866" lon="6.06224">
        <ele>304.06069946289</ele>
        <time>2014-06-07T12:40:11Z</time>
      </trkpt>
      <trkpt lat="43.4286" lon="6.0623">
        <ele>305.11511230469</ele>
        <time>2014-06-07T12:40:13Z</time>
      </trkpt>
      <trkpt lat="43.42856" lon="6.06234">
        <ele>305.56353759766</ele>
        <time>2014-06-07T12:40:15Z</time>
      </trkpt>
      <trkpt lat="43.42854" lon="6.06234">
        <ele>306.05908203125</ele>
        <time>2014-06-07T12:40:16Z</time>
      </trkpt>
      <trkpt lat="43.42853" lon="6.06233">
        <ele>306.38720703125</ele>
        <time>2014-06-07T12:40:17Z</time>
      </trkpt>
      <trkpt lat="43.42854" lon="6.06234">
        <ele>306.16424560547</ele>
        <time>2014-06-07T12:40:18Z</time>
      </trkpt>
      <trkpt lat="43.42854" lon="6.06234">
        <ele>306.16424560547</ele>
        <time>2014-06-07T12:40:32Z</time>
      </trkpt>
      <trkpt lat="43.42854" lon="6.06234">
        <ele>306.16424560547</ele>
        <time>2014-06-07T12:40:33Z</time>
      </trkpt>
      <trkpt lat="43.4285" lon="6.0623">
        <ele>307.46197509766</ele>
        <time>2014-06-07T12:40:37Z</time>
      </trkpt>
      <trkpt lat="43.42848" lon="6.0623">
        <ele>308.0910949707</ele>
        <time>2014-06-07T12:40:38Z</time>
      </trkpt>
      <trkpt lat="43.42845" lon="6.0623">
        <ele>308.75839233398</ele>
        <time>2014-06-07T12:40:39Z</time>
      </trkpt>
      <trkpt lat="43.42842" lon="6.06232">
        <ele>309.23681640625</ele>
        <time>2014-06-07T12:40:40Z</time>
      </trkpt>
      <trkpt lat="43.42839" lon="6.06234">
        <ele>309.57113647461</ele>
        <time>2014-06-07T12:40:41Z</time>
      </trkpt>
      <trkpt lat="43.42836" lon="6.06237">
        <ele>309.81137084961</ele>
        <time>2014-06-07T12:40:42Z</time>
      </trkpt>
      <trkpt lat="43.42831" lon="6.06241">
        <ele>309.91458129883</ele>
        <time>2014-06-07T12:40:44Z</time>
      </trkpt>
      <trkpt lat="43.4283" lon="6.06244">
        <ele>309.38586425781</ele>
        <time>2014-06-07T12:40:45Z</time>
      </trkpt>
      <trkpt lat="43.4283" lon="6.06248">
        <ele>308.73870849609</ele>
        <time>2014-06-07T12:40:46Z</time>
      </trkpt>
      <trkpt lat="43.42829" lon="6.06252">
        <ele>308.18551635742</ele>
        <time>2014-06-07T12:40:47Z</time>
      </trkpt>
      <trkpt lat="43.42828" lon="6.06256">
        <ele>307.65057373047</ele>
        <time>2014-06-07T12:40:48Z</time>
      </trkpt>
      <trkpt lat="43.42829" lon="6.06264">
        <ele>306.55096435547</ele>
        <time>2014-06-07T12:40:50Z</time>
      </trkpt>
      <trkpt lat="43.42831" lon="6.0627">
        <ele>305.46105957031</ele>
        <time>2014-06-07T12:40:52Z</time>
      </trkpt>
      <trkpt lat="43.42831" lon="6.06279">
        <ele>304.08380126953</ele>
        <time>2014-06-07T12:40:54Z</time>
      </trkpt>
      <trkpt lat="43.4283" lon="6.0629">
        <ele>302.25701904297</ele>
        <time>2014-06-07T12:40:56Z</time>
      </trkpt>
      <trkpt lat="43.4283" lon="6.06295">
        <ele>301.45050048828</ele>
        <time>2014-06-07T12:40:57Z</time>
      </trkpt>
      <trkpt lat="43.42829" lon="6.06298">
        <ele>300.8876953125</ele>
        <time>2014-06-07T12:40:58Z</time>
      </trkpt>
      <trkpt lat="43.42826" lon="6.06302">
        <ele>300.40725708008</ele>
        <time>2014-06-07T12:41:00Z</time>
      </trkpt>
      <trkpt lat="43.42825" lon="6.06303">
        <ele>300.49642944336</ele>
        <time>2014-06-07T12:41:01Z</time>
      </trkpt>
      <trkpt lat="43.4282" lon="6.06304">
        <ele>300.82904052734</ele>
        <time>2014-06-07T12:41:03Z</time>
      </trkpt>
      <trkpt lat="43.42815" lon="6.06308">
        <ele>300.64688110352</ele>
        <time>2014-06-07T12:41:05Z</time>
      </trkpt>
      <trkpt lat="43.42812" lon="6.0631">
        <ele>300.58142089844</ele>
        <time>2014-06-07T12:41:06Z</time>
      </trkpt>
      <trkpt lat="43.42804" lon="6.06315">
        <ele>300.30740356445</ele>
        <time>2014-06-07T12:41:09Z</time>
      </trkpt>
      <trkpt lat="43.42799" lon="6.06318">
        <ele>300.04302978516</ele>
        <time>2014-06-07T12:41:11Z</time>
      </trkpt>
      <trkpt lat="43.42797" lon="6.06317">
        <ele>300.19067382812</ele>
        <time>2014-06-07T12:41:12Z</time>
      </trkpt>
      <trkpt lat="43.42794" lon="6.06316">
        <ele>300.50137329102</ele>
        <time>2014-06-07T12:41:13Z</time>
      </trkpt>
      <trkpt lat="43.42792" lon="6.06315">
        <ele>300.84124755859</ele>
        <time>2014-06-07T12:41:14Z</time>
      </trkpt>
      <trkpt lat="43.42788" lon="6.06314">
        <ele>301.11590576172</ele>
        <time>2014-06-07T12:41:16Z</time>
      </trkpt>
      <trkpt lat="43.42786" lon="6.06314">
        <ele>301.21548461914</ele>
        <time>2014-06-07T12:41:17Z</time>
      </trkpt>
      <trkpt lat="43.42781" lon="6.0631">
        <ele>302.15618896484</ele>
        <time>2014-06-07T12:41:19Z</time>
      </trkpt>
      <trkpt lat="43.42778" lon="6.06309">
        <ele>302.39996337891</ele>
        <time>2014-06-07T12:41:20Z</time>
      </trkpt>
      <trkpt lat="43.4277" lon="6.06311">
        <ele>301.91925048828</ele>
        <time>2014-06-07T12:41:22Z</time>
      </trkpt>
      <trkpt lat="43.42758" lon="6.06311">
        <ele>301.56182861328</ele>
        <time>2014-06-07T12:41:24Z</time>
      </trkpt>
      <trkpt lat="43.42753" lon="6.06311">
        <ele>301.47006225586</ele>
        <time>2014-06-07T12:41:25Z</time>
      </trkpt>
      <trkpt lat="43.42747" lon="6.06311">
        <ele>301.24151611328</ele>
        <time>2014-06-07T12:41:26Z</time>
      </trkpt>
      <trkpt lat="43.42742" lon="6.06312">
        <ele>300.82952880859</ele>
        <time>2014-06-07T12:41:27Z</time>
      </trkpt>
      <trkpt lat="43.42736" lon="6.06314">
        <ele>300.36917114258</ele>
        <time>2014-06-07T12:41:28Z</time>
      </trkpt>
      <trkpt lat="43.4273" lon="6.06317">
        <ele>299.92608642578</ele>
        <time>2014-06-07T12:41:29Z</time>
      </trkpt>
      <trkpt lat="43.42725" lon="6.0632">
        <ele>299.57861328125</ele>
        <time>2014-06-07T12:41:30Z</time>
      </trkpt>
      <trkpt lat="43.4271" lon="6.0633">
        <ele>297.5348815918</ele>
        <time>2014-06-07T12:41:33Z</time>
      </trkpt>
      <trkpt lat="43.42709" lon="6.06332">
        <ele>297.16122436523</ele>
        <time>2014-06-07T12:41:34Z</time>
      </trkpt>
      <trkpt lat="43.42706" lon="6.06332">
        <ele>296.80883789062</ele>
        <time>2014-06-07T12:41:35Z</time>
      </trkpt>
      <trkpt lat="43.42705" lon="6.06332">
        <ele>296.64410400391</ele>
        <time>2014-06-07T12:41:36Z</time>
      </trkpt>
      <trkpt lat="43.42704" lon="6.06332">
        <ele>296.46151733398</ele>
        <time>2014-06-07T12:41:37Z</time>
      </trkpt>
      <trkpt lat="43.42702" lon="6.06332">
        <ele>296.26837158203</ele>
        <time>2014-06-07T12:41:38Z</time>
      </trkpt>
      <trkpt lat="43.42701" lon="6.06333">
        <ele>295.99114990234</ele>
        <time>2014-06-07T12:41:40Z</time>
      </trkpt>
      <trkpt lat="43.427" lon="6.06334">
        <ele>295.71606445312</ele>
        <time>2014-06-07T12:41:42Z</time>
      </trkpt>
      <trkpt lat="43.42698" lon="6.06337">
        <ele>295.13638305664</ele>
        <time>2014-06-07T12:41:44Z</time>
      </trkpt>
      <trkpt lat="43.42696" lon="6.06338">
        <ele>294.76208496094</ele>
        <time>2014-06-07T12:41:45Z</time>
      </trkpt>
      <trkpt lat="43.42692" lon="6.06339">
        <ele>293.74465942383</ele>
        <time>2014-06-07T12:41:48Z</time>
      </trkpt>
      <trkpt lat="43.42691" lon="6.06339">
        <ele>293.42538452148</ele>
        <time>2014-06-07T12:41:49Z</time>
      </trkpt>
      <trkpt lat="43.42685" lon="6.06333">
        <ele>292.29098510742</ele>
        <time>2014-06-07T12:41:54Z</time>
      </trkpt>
      <trkpt lat="43.42683" lon="6.06332">
        <ele>292.01522827148</ele>
        <time>2014-06-07T12:41:55Z</time>
      </trkpt>
      <trkpt lat="43.42681" lon="6.06331">
        <ele>291.46640014648</ele>
        <time>2014-06-07T12:42:00Z</time>
      </trkpt>
      <trkpt lat="43.42681" lon="6.06331">
        <ele>291.46640014648</ele>
        <time>2014-06-07T12:42:25Z</time>
      </trkpt>
      <trkpt lat="43.42681" lon="6.06331">
        <ele>291.46640014648</ele>
        <time>2014-06-07T12:42:36Z</time>
      </trkpt>
      <trkpt lat="43.42681" lon="6.06332">
        <ele>291.3984375</ele>
        <time>2014-06-07T12:42:43Z</time>
      </trkpt>
      <trkpt lat="43.42681" lon="6.06332">
        <ele>291.3984375</ele>
        <time>2014-06-07T12:43:04Z</time>
      </trkpt>
      <trkpt lat="43.42681" lon="6.06332">
        <ele>291.39163208008</ele>
        <time>2014-06-07T12:43:36Z</time>
      </trkpt>
      <trkpt lat="43.42681" lon="6.06332">
        <ele>291.36444091797</ele>
        <time>2014-06-07T12:44:00Z</time>
      </trkpt>
      <trkpt lat="43.42679" lon="6.06331">
        <ele>290.79150390625</ele>
        <time>2014-06-07T12:44:03Z</time>
      </trkpt>
      <trkpt lat="43.42677" lon="6.06331">
        <ele>290.36151123047</ele>
        <time>2014-06-07T12:44:05Z</time>
      </trkpt>
      <trkpt lat="43.42676" lon="6.0633">
        <ele>290.21127319336</ele>
        <time>2014-06-07T12:44:06Z</time>
      </trkpt>
      <trkpt lat="43.42667" lon="6.06326">
        <ele>288.29153442383</ele>
        <time>2014-06-07T12:44:09Z</time>
      </trkpt>
      <trkpt lat="43.42657" lon="6.06324">
        <ele>286.30822753906</ele>
        <time>2014-06-07T12:44:11Z</time>
      </trkpt>
      <trkpt lat="43.42646" lon="6.06321">
        <ele>284.22872924805</ele>
        <time>2014-06-07T12:44:13Z</time>
      </trkpt>
      <trkpt lat="43.42641" lon="6.06321">
        <ele>283.16778564453</ele>
        <time>2014-06-07T12:44:14Z</time>
      </trkpt>
      <trkpt lat="43.42636" lon="6.0632">
        <ele>282.65713500977</ele>
        <time>2014-06-07T12:44:15Z</time>
      </trkpt>
      <trkpt lat="43.42632" lon="6.0632">
        <ele>282.62893676758</ele>
        <time>2014-06-07T12:44:16Z</time>
      </trkpt>
      <trkpt lat="43.42628" lon="6.06318">
        <ele>282.65258789062</ele>
        <time>2014-06-07T12:44:17Z</time>
      </trkpt>
      <trkpt lat="43.42624" lon="6.06316">
        <ele>282.69226074219</ele>
        <time>2014-06-07T12:44:18Z</time>
      </trkpt>
      <trkpt lat="43.4262" lon="6.06314">
        <ele>282.70147705078</ele>
        <time>2014-06-07T12:44:19Z</time>
      </trkpt>
      <trkpt lat="43.4261" lon="6.0631">
        <ele>282.521484375</ele>
        <time>2014-06-07T12:44:21Z</time>
      </trkpt>
      <trkpt lat="43.42605" lon="6.0631">
        <ele>282.51635742188</ele>
        <time>2014-06-07T12:44:22Z</time>
      </trkpt>
      <trkpt lat="43.42587" lon="6.06322">
        <ele>281.26495361328</ele>
        <time>2014-06-07T12:44:26Z</time>
      </trkpt>
      <trkpt lat="43.42582" lon="6.06326">
        <ele>280.89303588867</ele>
        <time>2014-06-07T12:44:27Z</time>
      </trkpt>
      <trkpt lat="43.42578" lon="6.0633">
        <ele>280.6298828125</ele>
        <time>2014-06-07T12:44:28Z</time>
      </trkpt>
      <trkpt lat="43.42573" lon="6.06334">
        <ele>280.35070800781</ele>
        <time>2014-06-07T12:44:29Z</time>
      </trkpt>
      <trkpt lat="43.42564" lon="6.06342">
        <ele>280.46948242188</ele>
        <time>2014-06-07T12:44:31Z</time>
      </trkpt>
      <trkpt lat="43.4255" lon="6.06354">
        <ele>280.46786499023</ele>
        <time>2014-06-07T12:44:34Z</time>
      </trkpt>
      <trkpt lat="43.42542" lon="6.06362">
        <ele>280</ele>
        <time>2014-06-07T12:44:36Z</time>
      </trkpt>
      <trkpt lat="43.4254" lon="6.06368">
        <ele>280</ele>
        <time>2014-06-07T12:44:37Z</time>
      </trkpt>
      <trkpt lat="43.42539" lon="6.06373">
        <ele>280</ele>
        <time>2014-06-07T12:44:38Z</time>
      </trkpt>
      <trkpt lat="43.42541" lon="6.06378">
        <ele>280</ele>
        <time>2014-06-07T12:44:39Z</time>
      </trkpt>
      <trkpt lat="43.42551" lon="6.06393">
        <ele>280</ele>
        <time>2014-06-07T12:44:43Z</time>
      </trkpt>
      <trkpt lat="43.42566" lon="6.06417">
        <ele>280</ele>
        <time>2014-06-07T12:44:50Z</time>
      </trkpt>
      <trkpt lat="43.42575" lon="6.0643">
        <ele>280</ele>
        <time>2014-06-07T12:44:55Z</time>
      </trkpt>
      <trkpt lat="43.42577" lon="6.06445">
        <ele>280</ele>
        <time>2014-06-07T12:44:59Z</time>
      </trkpt>
      <trkpt lat="43.42579" lon="6.06454">
        <ele>280</ele>
        <time>2014-06-07T12:45:02Z</time>
      </trkpt>
      <trkpt lat="43.42583" lon="6.06461">
        <ele>280</ele>
        <time>2014-06-07T12:45:04Z</time>
      </trkpt>
      <trkpt lat="43.42591" lon="6.06474">
        <ele>280.35116577148</ele>
        <time>2014-06-07T12:45:11Z</time>
      </trkpt>
      <trkpt lat="43.42594" lon="6.06477">
        <ele>280.61560058594</ele>
        <time>2014-06-07T12:45:14Z</time>
      </trkpt>
      <trkpt lat="43.42595" lon="6.06479">
        <ele>280.72253417969</ele>
        <time>2014-06-07T12:45:15Z</time>
      </trkpt>
      <trkpt lat="43.42595" lon="6.06481">
        <ele>280.85125732422</ele>
        <time>2014-06-07T12:45:16Z</time>
      </trkpt>
      <trkpt lat="43.42596" lon="6.06487">
        <ele>281.18960571289</ele>
        <time>2014-06-07T12:45:18Z</time>
      </trkpt>
      <trkpt lat="43.42595" lon="6.06492">
        <ele>281.47326660156</ele>
        <time>2014-06-07T12:45:20Z</time>
      </trkpt>
      <trkpt lat="43.42593" lon="6.065">
        <ele>281.72900390625</ele>
        <time>2014-06-07T12:45:23Z</time>
      </trkpt>
      <trkpt lat="43.42593" lon="6.06506">
        <ele>281.87145996094</ele>
        <time>2014-06-07T12:45:25Z</time>
      </trkpt>
      <trkpt lat="43.42592" lon="6.06508">
        <ele>281.90237426758</ele>
        <time>2014-06-07T12:45:26Z</time>
      </trkpt>
      <trkpt lat="43.42588" lon="6.06519">
        <ele>282.01565551758</ele>
        <time>2014-06-07T12:45:30Z</time>
      </trkpt>
      <trkpt lat="43.42585" lon="6.06533">
        <ele>282.45568847656</ele>
        <time>2014-06-07T12:45:36Z</time>
      </trkpt>
      <trkpt lat="43.42585" lon="6.06538">
        <ele>282.85256958008</ele>
        <time>2014-06-07T12:45:38Z</time>
      </trkpt>
      <trkpt lat="43.42584" lon="6.06543">
        <ele>283.15124511719</ele>
        <time>2014-06-07T12:45:40Z</time>
      </trkpt>
      <trkpt lat="43.42583" lon="6.06547">
        <ele>283.34478759766</ele>
        <time>2014-06-07T12:45:42Z</time>
      </trkpt>
      <trkpt lat="43.42582" lon="6.06563">
        <ele>284.05419921875</ele>
        <time>2014-06-07T12:45:48Z</time>
      </trkpt>
      <trkpt lat="43.42578" lon="6.06585">
        <ele>284.306640625</ele>
        <time>2014-06-07T12:45:55Z</time>
      </trkpt>
      <trkpt lat="43.42575" lon="6.06598">
        <ele>284.78729248047</ele>
        <time>2014-06-07T12:45:59Z</time>
      </trkpt>
      <trkpt lat="43.42563" lon="6.06613">
        <ele>284.17050170898</ele>
        <time>2014-06-07T12:46:05Z</time>
      </trkpt>
      <trkpt lat="43.42548" lon="6.06625">
        <ele>282.59808349609</ele>
        <time>2014-06-07T12:46:12Z</time>
      </trkpt>
      <trkpt lat="43.42545" lon="6.0663">
        <ele>282.3171081543</ele>
        <time>2014-06-07T12:46:14Z</time>
      </trkpt>
      <trkpt lat="43.42542" lon="6.06648">
        <ele>282.19140625</ele>
        <time>2014-06-07T12:46:19Z</time>
      </trkpt>
      <trkpt lat="43.4254" lon="6.06653">
        <ele>282.04144287109</ele>
        <time>2014-06-07T12:46:21Z</time>
      </trkpt>
      <trkpt lat="43.42539" lon="6.06657">
        <ele>281.85467529297</ele>
        <time>2014-06-07T12:46:23Z</time>
      </trkpt>
      <trkpt lat="43.42533" lon="6.06668">
        <ele>281.02874755859</ele>
        <time>2014-06-07T12:46:28Z</time>
      </trkpt>
      <trkpt lat="43.42528" lon="6.06689">
        <ele>280.06744384766</ele>
        <time>2014-06-07T12:46:34Z</time>
      </trkpt>
      <trkpt lat="43.42527" lon="6.06705">
        <ele>279.96667480469</ele>
        <time>2014-06-07T12:46:37Z</time>
      </trkpt>
      <trkpt lat="43.42525" lon="6.06719">
        <ele>279.76245117188</ele>
        <time>2014-06-07T12:46:39Z</time>
      </trkpt>
      <trkpt lat="43.42524" lon="6.06734">
        <ele>279.13104248047</ele>
        <time>2014-06-07T12:46:41Z</time>
      </trkpt>
      <trkpt lat="43.42523" lon="6.06742">
        <ele>278.75509643555</ele>
        <time>2014-06-07T12:46:42Z</time>
      </trkpt>
      <trkpt lat="43.4252" lon="6.06759">
        <ele>277.83670043945</ele>
        <time>2014-06-07T12:46:44Z</time>
      </trkpt>
      <trkpt lat="43.42515" lon="6.06775">
        <ele>276.69000244141</ele>
        <time>2014-06-07T12:46:46Z</time>
      </trkpt>
      <trkpt lat="43.42512" lon="6.06783">
        <ele>276.12866210938</ele>
        <time>2014-06-07T12:46:47Z</time>
      </trkpt>
      <trkpt lat="43.4251" lon="6.0679">
        <ele>275.60855102539</ele>
        <time>2014-06-07T12:46:48Z</time>
      </trkpt>
      <trkpt lat="43.42508" lon="6.06797">
        <ele>275.15191650391</ele>
        <time>2014-06-07T12:46:49Z</time>
      </trkpt>
      <trkpt lat="43.42506" lon="6.06804">
        <ele>274.65240478516</ele>
        <time>2014-06-07T12:46:50Z</time>
      </trkpt>
      <trkpt lat="43.42503" lon="6.06812">
        <ele>274.11682128906</ele>
        <time>2014-06-07T12:46:51Z</time>
      </trkpt>
      <trkpt lat="43.42499" lon="6.06831">
        <ele>273.00100708008</ele>
        <time>2014-06-07T12:46:53Z</time>
      </trkpt>
      <trkpt lat="43.42498" lon="6.0684">
        <ele>272.49118041992</ele>
        <time>2014-06-07T12:46:54Z</time>
      </trkpt>
      <trkpt lat="43.42496" lon="6.06859">
        <ele>271.60369873047</ele>
        <time>2014-06-07T12:46:56Z</time>
      </trkpt>
      <trkpt lat="43.42495" lon="6.06868">
        <ele>271.25347900391</ele>
        <time>2014-06-07T12:46:57Z</time>
      </trkpt>
      <trkpt lat="43.42495" lon="6.06878">
        <ele>270.8981628418</ele>
        <time>2014-06-07T12:46:58Z</time>
      </trkpt>
      <trkpt lat="43.42495" lon="6.06887">
        <ele>270.55654907227</ele>
        <time>2014-06-07T12:46:59Z</time>
      </trkpt>
      <trkpt lat="43.42496" lon="6.06896">
        <ele>270.28704833984</ele>
        <time>2014-06-07T12:47:00Z</time>
      </trkpt>
      <trkpt lat="43.42497" lon="6.06912">
        <ele>269.82525634766</ele>
        <time>2014-06-07T12:47:02Z</time>
      </trkpt>
      <trkpt lat="43.42497" lon="6.0692">
        <ele>269.57806396484</ele>
        <time>2014-06-07T12:47:03Z</time>
      </trkpt>
      <trkpt lat="43.42498" lon="6.06937">
        <ele>269.11288452148</ele>
        <time>2014-06-07T12:47:05Z</time>
      </trkpt>
      <trkpt lat="43.42499" lon="6.06944">
        <ele>268.94122314453</ele>
        <time>2014-06-07T12:47:06Z</time>
      </trkpt>
      <trkpt lat="43.425" lon="6.06949">
        <ele>269.03295898438</ele>
        <time>2014-06-07T12:47:07Z</time>
      </trkpt>
      <trkpt lat="43.42501" lon="6.06953">
        <ele>269.15655517578</ele>
        <time>2014-06-07T12:47:08Z</time>
      </trkpt>
      <trkpt lat="43.42504" lon="6.06965">
        <ele>269.40374755859</ele>
        <time>2014-06-07T12:47:10Z</time>
      </trkpt>
      <trkpt lat="43.4251" lon="6.06977">
        <ele>269.78173828125</ele>
        <time>2014-06-07T12:47:12Z</time>
      </trkpt>
      <trkpt lat="43.42514" lon="6.06985">
        <ele>269.57574462891</ele>
        <time>2014-06-07T12:47:13Z</time>
      </trkpt>
      <trkpt lat="43.42515" lon="6.06994">
        <ele>269.03329467773</ele>
        <time>2014-06-07T12:47:14Z</time>
      </trkpt>
      <trkpt lat="43.42515" lon="6.07022">
        <ele>267.85116577148</ele>
        <time>2014-06-07T12:47:17Z</time>
      </trkpt>
      <trkpt lat="43.42516" lon="6.07032">
        <ele>267.72210693359</ele>
        <time>2014-06-07T12:47:18Z</time>
      </trkpt>
      <trkpt lat="43.42517" lon="6.07042">
        <ele>267.80450439453</ele>
        <time>2014-06-07T12:47:19Z</time>
      </trkpt>
      <trkpt lat="43.42518" lon="6.07051">
        <ele>267.92810058594</ele>
        <time>2014-06-07T12:47:20Z</time>
      </trkpt>
      <trkpt lat="43.42519" lon="6.0706">
        <ele>267.70742797852</ele>
        <time>2014-06-07T12:47:21Z</time>
      </trkpt>
      <trkpt lat="43.42519" lon="6.07068">
        <ele>267.18902587891</ele>
        <time>2014-06-07T12:47:22Z</time>
      </trkpt>
      <trkpt lat="43.4252" lon="6.07075">
        <ele>266.75985717773</ele>
        <time>2014-06-07T12:47:23Z</time>
      </trkpt>
      <trkpt lat="43.42521" lon="6.07081">
        <ele>266.36505126953</ele>
        <time>2014-06-07T12:47:24Z</time>
      </trkpt>
      <trkpt lat="43.42521" lon="6.07088">
        <ele>266.0641784668</ele>
        <time>2014-06-07T12:47:25Z</time>
      </trkpt>
      <trkpt lat="43.42521" lon="6.07094">
        <ele>265.93026733398</ele>
        <time>2014-06-07T12:47:26Z</time>
      </trkpt>
      <trkpt lat="43.42523" lon="6.07112">
        <ele>265.5048828125</ele>
        <time>2014-06-07T12:47:30Z</time>
      </trkpt>
      <trkpt lat="43.42524" lon="6.07118">
        <ele>265.62847900391</ele>
        <time>2014-06-07T12:47:32Z</time>
      </trkpt>
      <trkpt lat="43.42525" lon="6.0712">
        <ele>265.71087646484</ele>
        <time>2014-06-07T12:47:33Z</time>
      </trkpt>
      <trkpt lat="43.42527" lon="6.07122">
        <ele>265.91687011719</ele>
        <time>2014-06-07T12:47:35Z</time>
      </trkpt>
      <trkpt lat="43.42528" lon="6.07122">
        <ele>265.99926757812</ele>
        <time>2014-06-07T12:47:41Z</time>
      </trkpt>
      <trkpt lat="43.42528" lon="6.07122">
        <ele>265.99926757812</ele>
        <time>2014-06-07T12:47:58Z</time>
      </trkpt>
      <trkpt lat="43.42528" lon="6.07122">
        <ele>265.99926757812</ele>
        <time>2014-06-07T12:48:08Z</time>
      </trkpt>
      <trkpt lat="43.42528" lon="6.07122">
        <ele>265.99926757812</ele>
        <time>2014-06-07T12:48:09Z</time>
      </trkpt>
      <trkpt lat="43.42528" lon="6.07124">
        <ele>265.99926757812</ele>
        <time>2014-06-07T12:48:10Z</time>
      </trkpt>
      <trkpt lat="43.42533" lon="6.07132">
        <ele>266.43161010742</ele>
        <time>2014-06-07T12:48:13Z</time>
      </trkpt>
      <trkpt lat="43.42535" lon="6.07133">
        <ele>266.57699584961</ele>
        <time>2014-06-07T12:48:14Z</time>
      </trkpt>
      <trkpt lat="43.42537" lon="6.07131">
        <ele>266.74710083008</ele>
        <time>2014-06-07T12:48:16Z</time>
      </trkpt>
      <trkpt lat="43.42542" lon="6.07135">
        <ele>267.05389404297</ele>
        <time>2014-06-07T12:48:20Z</time>
      </trkpt>
      <trkpt lat="43.42546" lon="6.07146">
        <ele>267.00891113281</ele>
        <time>2014-06-07T12:48:25Z</time>
      </trkpt>
      <trkpt lat="43.42552" lon="6.07153">
        <ele>267.17132568359</ele>
        <time>2014-06-07T12:48:29Z</time>
      </trkpt>
      <trkpt lat="43.42576" lon="6.07177">
        <ele>267.29077148438</ele>
        <time>2014-06-07T12:48:42Z</time>
      </trkpt>
      <trkpt lat="43.42584" lon="6.07185">
        <ele>267.38031005859</ele>
        <time>2014-06-07T12:48:45Z</time>
      </trkpt>
      <trkpt lat="43.42587" lon="6.07188">
        <ele>267.37567138672</ele>
        <time>2014-06-07T12:48:46Z</time>
      </trkpt>
      <trkpt lat="43.42592" lon="6.07197">
        <ele>267.21838378906</ele>
        <time>2014-06-07T12:48:49Z</time>
      </trkpt>
      <trkpt lat="43.42606" lon="6.07218">
        <ele>266.99176025391</ele>
        <time>2014-06-07T12:48:56Z</time>
      </trkpt>
      <trkpt lat="43.42622" lon="6.07229">
        <ele>267.4538269043</ele>
        <time>2014-06-07T12:49:01Z</time>
      </trkpt>
      <trkpt lat="43.42637" lon="6.07232">
        <ele>268.14993286133</ele>
        <time>2014-06-07T12:49:06Z</time>
      </trkpt>
      <trkpt lat="43.42654" lon="6.07237">
        <ele>269.033203125</ele>
        <time>2014-06-07T12:49:12Z</time>
      </trkpt>
      <trkpt lat="43.42669" lon="6.07248">
        <ele>269.32501220703</ele>
        <time>2014-06-07T12:49:18Z</time>
      </trkpt>
      <trkpt lat="43.4268" lon="6.07261">
        <ele>269.4182434082</ele>
        <time>2014-06-07T12:49:24Z</time>
      </trkpt>
      <trkpt lat="43.42705" lon="6.07287">
        <ele>269.43304443359</ele>
        <time>2014-06-07T12:49:36Z</time>
      </trkpt>
      <trkpt lat="43.42714" lon="6.07296">
        <ele>269.77124023438</ele>
        <time>2014-06-07T12:49:40Z</time>
      </trkpt>
      <trkpt lat="43.4272" lon="6.07304">
        <ele>269.87936401367</ele>
        <time>2014-06-07T12:49:43Z</time>
      </trkpt>
      <trkpt lat="43.42726" lon="6.07312">
        <ele>269.90502929688</ele>
        <time>2014-06-07T12:49:47Z</time>
      </trkpt>
      <trkpt lat="43.42728" lon="6.07314">
        <ele>269.92218017578</ele>
        <time>2014-06-07T12:49:48Z</time>
      </trkpt>
      <trkpt lat="43.42744" lon="6.07323">
        <ele>270.14190673828</ele>
        <time>2014-06-07T12:49:54Z</time>
      </trkpt>
      <trkpt lat="43.42751" lon="6.0733">
        <ele>270.17037963867</ele>
        <time>2014-06-07T12:49:57Z</time>
      </trkpt>
      <trkpt lat="43.42754" lon="6.07334">
        <ele>270.06588745117</ele>
        <time>2014-06-07T12:49:59Z</time>
      </trkpt>
      <trkpt lat="43.42755" lon="6.07336">
        <ele>269.99545288086</ele>
        <time>2014-06-07T12:50:00Z</time>
      </trkpt>
      <trkpt lat="43.42757" lon="6.07339">
        <ele>269.94314575195</ele>
        <time>2014-06-07T12:50:01Z</time>
      </trkpt>
      <trkpt lat="43.4276" lon="6.07343">
        <ele>269.7958984375</ele>
        <time>2014-06-07T12:50:03Z</time>
      </trkpt>
      <trkpt lat="43.42762" lon="6.0735">
        <ele>269.52526855469</ele>
        <time>2014-06-07T12:50:06Z</time>
      </trkpt>
      <trkpt lat="43.42777" lon="6.07382">
        <ele>269.20974731445</ele>
        <time>2014-06-07T12:50:17Z</time>
      </trkpt>
      <trkpt lat="43.4278" lon="6.07387">
        <ele>269.13424682617</ele>
        <time>2014-06-07T12:50:19Z</time>
      </trkpt>
      <trkpt lat="43.42783" lon="6.07395">
        <ele>268.95745849609</ele>
        <time>2014-06-07T12:50:22Z</time>
      </trkpt>
      <trkpt lat="43.42787" lon="6.07407">
        <ele>268.68280029297</ele>
        <time>2014-06-07T12:50:27Z</time>
      </trkpt>
      <trkpt lat="43.42794" lon="6.07421">
        <ele>268.74536132812</ele>
        <time>2014-06-07T12:50:33Z</time>
      </trkpt>
      <trkpt lat="43.42795" lon="6.07423">
        <ele>268.86553955078</ele>
        <time>2014-06-07T12:50:34Z</time>
      </trkpt>
      <trkpt lat="43.42805" lon="6.07433">
        <ele>269.59851074219</ele>
        <time>2014-06-07T12:50:41Z</time>
      </trkpt>
      <trkpt lat="43.42813" lon="6.07442">
        <ele>270.41122436523</ele>
        <time>2014-06-07T12:50:46Z</time>
      </trkpt>
      <trkpt lat="43.42822" lon="6.0745">
        <ele>271.52478027344</ele>
        <time>2014-06-07T12:50:51Z</time>
      </trkpt>
      <trkpt lat="43.42825" lon="6.07454">
        <ele>272.11184692383</ele>
        <time>2014-06-07T12:50:54Z</time>
      </trkpt>
      <trkpt lat="43.42829" lon="6.07459">
        <ele>272.74011230469</ele>
        <time>2014-06-07T12:50:58Z</time>
      </trkpt>
      <trkpt lat="43.42834" lon="6.07465">
        <ele>273.47503662109</ele>
        <time>2014-06-07T12:51:03Z</time>
      </trkpt>
      <trkpt lat="43.42839" lon="6.07472">
        <ele>274.20184326172</ele>
        <time>2014-06-07T12:51:08Z</time>
      </trkpt>
      <trkpt lat="43.42844" lon="6.07478">
        <ele>274.70645141602</ele>
        <time>2014-06-07T12:51:13Z</time>
      </trkpt>
      <trkpt lat="43.42847" lon="6.07482">
        <ele>275.00253295898</ele>
        <time>2014-06-07T12:51:16Z</time>
      </trkpt>
      <trkpt lat="43.42854" lon="6.07492">
        <ele>275.623046875</ele>
        <time>2014-06-07T12:51:25Z</time>
      </trkpt>
      <trkpt lat="43.42857" lon="6.07496">
        <ele>275.82385253906</ele>
        <time>2014-06-07T12:51:29Z</time>
      </trkpt>
      <trkpt lat="43.42861" lon="6.07499">
        <ele>275.97073364258</ele>
        <time>2014-06-07T12:51:34Z</time>
      </trkpt>
      <trkpt lat="43.42864" lon="6.07505">
        <ele>276.25634765625</ele>
        <time>2014-06-07T12:51:39Z</time>
      </trkpt>
      <trkpt lat="43.42865" lon="6.07507">
        <ele>276.35626220703</ele>
        <time>2014-06-07T12:51:41Z</time>
      </trkpt>
      <trkpt lat="43.42868" lon="6.07512">
        <ele>276.56463623047</ele>
        <time>2014-06-07T12:51:45Z</time>
      </trkpt>
      <trkpt lat="43.4287" lon="6.07516">
        <ele>276.71212768555</ele>
        <time>2014-06-07T12:51:48Z</time>
      </trkpt>
      <trkpt lat="43.4287" lon="6.07517">
        <ele>276.73513793945</ele>
        <time>2014-06-07T12:51:49Z</time>
      </trkpt>
      <trkpt lat="43.4287" lon="6.07517">
        <ele>276.73971557617</ele>
        <time>2014-06-07T12:51:50Z</time>
      </trkpt>
      <trkpt lat="43.4287" lon="6.07517">
        <ele>276.73971557617</ele>
        <time>2014-06-07T12:52:03Z</time>
      </trkpt>
      <trkpt lat="43.4287" lon="6.07517">
        <ele>276.73971557617</ele>
        <time>2014-06-07T12:52:22Z</time>
      </trkpt>
      <trkpt lat="43.4287" lon="6.07519">
        <ele>276.79248046875</ele>
        <time>2014-06-07T12:52:24Z</time>
      </trkpt>
      <trkpt lat="43.4287" lon="6.07531">
        <ele>277.11682128906</ele>
        <time>2014-06-07T12:52:31Z</time>
      </trkpt>
      <trkpt lat="43.42869" lon="6.07538">
        <ele>277.37945556641</ele>
        <time>2014-06-07T12:52:36Z</time>
      </trkpt>
      <trkpt lat="43.42864" lon="6.0755">
        <ele>277.80517578125</ele>
        <time>2014-06-07T12:52:44Z</time>
      </trkpt>
      <trkpt lat="43.42862" lon="6.07558">
        <ele>278.16656494141</ele>
        <time>2014-06-07T12:52:48Z</time>
      </trkpt>
      <trkpt lat="43.42863" lon="6.07564">
        <ele>278.60601806641</ele>
        <time>2014-06-07T12:52:51Z</time>
      </trkpt>
      <trkpt lat="43.42864" lon="6.07572">
        <ele>279.20684814453</ele>
        <time>2014-06-07T12:52:55Z</time>
      </trkpt>
      <trkpt lat="43.42864" lon="6.07577">
        <ele>279.57073974609</ele>
        <time>2014-06-07T12:52:58Z</time>
      </trkpt>
      <trkpt lat="43.42864" lon="6.07579">
        <ele>279.70123291016</ele>
        <time>2014-06-07T12:52:59Z</time>
      </trkpt>
      <trkpt lat="43.42864" lon="6.07582">
        <ele>279.93811035156</ele>
        <time>2014-06-07T12:53:01Z</time>
      </trkpt>
      <trkpt lat="43.42864" lon="6.07586">
        <ele>280.27279663086</ele>
        <time>2014-06-07T12:53:03Z</time>
      </trkpt>
      <trkpt lat="43.42865" lon="6.07589">
        <ele>280.66418457031</ele>
        <time>2014-06-07T12:53:05Z</time>
      </trkpt>
      <trkpt lat="43.42866" lon="6.07592">
        <ele>280.93197631836</ele>
        <time>2014-06-07T12:53:07Z</time>
      </trkpt>
      <trkpt lat="43.42866" lon="6.07592">
        <ele>280.962890625</ele>
        <time>2014-06-07T12:53:08Z</time>
      </trkpt>
      <trkpt lat="43.42866" lon="6.07592">
        <ele>280.962890625</ele>
        <time>2014-06-07T12:53:10Z</time>
      </trkpt>
      <trkpt lat="43.42866" lon="6.07593">
        <ele>280.99377441406</ele>
        <time>2014-06-07T12:53:19Z</time>
      </trkpt>
      <trkpt lat="43.42867" lon="6.07595">
        <ele>281.29248046875</ele>
        <time>2014-06-07T12:53:25Z</time>
      </trkpt>
      <trkpt lat="43.42868" lon="6.07597">
        <ele>281.43667602539</ele>
        <time>2014-06-07T12:53:31Z</time>
      </trkpt>
      <trkpt lat="43.4287" lon="6.07601">
        <ele>281.90530395508</ele>
        <time>2014-06-07T12:53:39Z</time>
      </trkpt>
      <trkpt lat="43.42871" lon="6.07603">
        <ele>282.09069824219</ele>
        <time>2014-06-07T12:53:46Z</time>
      </trkpt>
      <trkpt lat="43.42871" lon="6.07603">
        <ele>282.17309570312</ele>
        <time>2014-06-07T12:53:54Z</time>
      </trkpt>
      <trkpt lat="43.42871" lon="6.07603">
        <ele>282.17309570312</ele>
        <time>2014-06-07T12:54:03Z</time>
      </trkpt>
      <trkpt lat="43.42871" lon="6.07605">
        <ele>282.31213378906</ele>
        <time>2014-06-07T12:54:09Z</time>
      </trkpt>
      <trkpt lat="43.42871" lon="6.07605">
        <ele>282.337890625</ele>
        <time>2014-06-07T12:54:11Z</time>
      </trkpt>
      <trkpt lat="43.42872" lon="6.07607">
        <ele>282.56448364258</ele>
        <time>2014-06-07T12:54:16Z</time>
      </trkpt>
      <trkpt lat="43.42873" lon="6.0761">
        <ele>282.91467285156</ele>
        <time>2014-06-07T12:54:18Z</time>
      </trkpt>
      <trkpt lat="43.42875" lon="6.07614">
        <ele>283.39434814453</ele>
        <time>2014-06-07T12:54:21Z</time>
      </trkpt>
      <trkpt lat="43.42874" lon="6.07616">
        <ele>283.64154052734</ele>
        <time>2014-06-07T12:54:23Z</time>
      </trkpt>
      <trkpt lat="43.42874" lon="6.07616">
        <ele>283.73767089844</ele>
        <time>2014-06-07T12:54:29Z</time>
      </trkpt>
      <trkpt lat="43.42876" lon="6.07621">
        <ele>284.40371704102</ele>
        <time>2014-06-07T12:54:35Z</time>
      </trkpt>
      <trkpt lat="43.42876" lon="6.07621">
        <ele>284.40371704102</ele>
        <time>2014-06-07T12:54:39Z</time>
      </trkpt>
      <trkpt lat="43.42876" lon="6.0762">
        <ele>284.34878540039</ele>
        <time>2014-06-07T12:54:44Z</time>
      </trkpt>
      <trkpt lat="43.42876" lon="6.0762">
        <ele>284.34878540039</ele>
        <time>2014-06-07T12:54:46Z</time>
      </trkpt>
      <trkpt lat="43.42876" lon="6.0762">
        <ele>284.34878540039</ele>
        <time>2014-06-07T12:54:52Z</time>
      </trkpt>
      <trkpt lat="43.42876" lon="6.07623">
        <ele>284.64404296875</ele>
        <time>2014-06-07T12:54:59Z</time>
      </trkpt>
      <trkpt lat="43.42881" lon="6.07632">
        <ele>286.03793334961</ele>
        <time>2014-06-07T12:55:05Z</time>
      </trkpt>
      <trkpt lat="43.42881" lon="6.07634">
        <ele>286.31259155273</ele>
        <time>2014-06-07T12:55:06Z</time>
      </trkpt>
      <trkpt lat="43.42882" lon="6.07636">
        <ele>286.62844848633</ele>
        <time>2014-06-07T12:55:07Z</time>
      </trkpt>
      <trkpt lat="43.42883" lon="6.0764">
        <ele>287.13638305664</ele>
        <time>2014-06-07T12:55:09Z</time>
      </trkpt>
      <trkpt lat="43.42884" lon="6.07653">
        <ele>289.57397460938</ele>
        <time>2014-06-07T12:55:18Z</time>
      </trkpt>
      <trkpt lat="43.42886" lon="6.0767">
        <ele>292.32623291016</ele>
        <time>2014-06-07T12:55:29Z</time>
      </trkpt>
      <trkpt lat="43.42885" lon="6.07671">
        <ele>292.49102783203</ele>
        <time>2014-06-07T12:55:30Z</time>
      </trkpt>
      <trkpt lat="43.42889" lon="6.07688">
        <ele>294.28521728516</ele>
        <time>2014-06-07T12:55:43Z</time>
      </trkpt>
      <trkpt lat="43.42896" lon="6.07709">
        <ele>297.41262817383</ele>
        <time>2014-06-07T12:56:00Z</time>
      </trkpt>
      <trkpt lat="43.42898" lon="6.07716">
        <ele>298.72039794922</ele>
        <time>2014-06-07T12:56:05Z</time>
      </trkpt>
      <trkpt lat="43.42899" lon="6.07717">
        <ele>298.98333740234</ele>
        <time>2014-06-07T12:56:06Z</time>
      </trkpt>
      <trkpt lat="43.42899" lon="6.0772">
        <ele>299.5341796875</ele>
        <time>2014-06-07T12:56:13Z</time>
      </trkpt>
      <trkpt lat="43.42899" lon="6.0772">
        <ele>299.5341796875</ele>
        <time>2014-06-07T12:56:29Z</time>
      </trkpt>
      <trkpt lat="43.42899" lon="6.0772">
        <ele>299.56173706055</ele>
        <time>2014-06-07T12:56:50Z</time>
      </trkpt>
      <trkpt lat="43.42899" lon="6.0772">
        <ele>299.56173706055</ele>
        <time>2014-06-07T12:56:56Z</time>
      </trkpt>
      <trkpt lat="43.42899" lon="6.07721">
        <ele>299.82797241211</ele>
        <time>2014-06-07T12:57:00Z</time>
      </trkpt>
      <trkpt lat="43.42899" lon="6.07725">
        <ele>300</ele>
        <time>2014-06-07T12:57:02Z</time>
      </trkpt>
      <trkpt lat="43.429" lon="6.07731">
        <ele>300</ele>
        <time>2014-06-07T12:57:05Z</time>
      </trkpt>
      <trkpt lat="43.42897" lon="6.07741">
        <ele>300</ele>
        <time>2014-06-07T12:57:11Z</time>
      </trkpt>
      <trkpt lat="43.42895" lon="6.07745">
        <ele>300</ele>
        <time>2014-06-07T12:57:15Z</time>
      </trkpt>
      <trkpt lat="43.42895" lon="6.07745">
        <ele>300</ele>
        <time>2014-06-07T12:57:30Z</time>
      </trkpt>
      <trkpt lat="43.42895" lon="6.07745">
        <ele>300</ele>
        <time>2014-06-07T12:57:42Z</time>
      </trkpt>
      <trkpt lat="43.42889" lon="6.07746">
        <ele>300</ele>
        <time>2014-06-07T12:57:46Z</time>
      </trkpt>
      <trkpt lat="43.42882" lon="6.07752">
        <ele>300</ele>
        <time>2014-06-07T12:57:51Z</time>
      </trkpt>
      <trkpt lat="43.4288" lon="6.07755">
        <ele>300</ele>
        <time>2014-06-07T12:57:52Z</time>
      </trkpt>
      <trkpt lat="43.42877" lon="6.0777">
        <ele>300</ele>
        <time>2014-06-07T12:57:55Z</time>
      </trkpt>
      <trkpt lat="43.42873" lon="6.0779">
        <ele>300</ele>
        <time>2014-06-07T12:57:58Z</time>
      </trkpt>
      <trkpt lat="43.4287" lon="6.07808">
        <ele>300</ele>
        <time>2014-06-07T12:58:02Z</time>
      </trkpt>
      <trkpt lat="43.42868" lon="6.07813">
        <ele>300</ele>
        <time>2014-06-07T12:58:03Z</time>
      </trkpt>
      <trkpt lat="43.42865" lon="6.07816">
        <ele>300</ele>
        <time>2014-06-07T12:58:04Z</time>
      </trkpt>
      <trkpt lat="43.42861" lon="6.0782">
        <ele>300</ele>
        <time>2014-06-07T12:58:05Z</time>
      </trkpt>
      <trkpt lat="43.42853" lon="6.0783">
        <ele>300</ele>
        <time>2014-06-07T12:58:07Z</time>
      </trkpt>
      <trkpt lat="43.42846" lon="6.07841">
        <ele>299.42852783203</ele>
        <time>2014-06-07T12:58:09Z</time>
      </trkpt>
      <trkpt lat="43.42833" lon="6.07851">
        <ele>298.04693603516</ele>
        <time>2014-06-07T12:58:12Z</time>
      </trkpt>
      <trkpt lat="43.4283" lon="6.07853">
        <ele>297.24819946289</ele>
        <time>2014-06-07T12:58:13Z</time>
      </trkpt>
      <trkpt lat="43.42826" lon="6.07853">
        <ele>296.65121459961</ele>
        <time>2014-06-07T12:58:14Z</time>
      </trkpt>
      <trkpt lat="43.42806" lon="6.07856">
        <ele>293.46215820312</ele>
        <time>2014-06-07T12:58:19Z</time>
      </trkpt>
      <trkpt lat="43.42802" lon="6.07857">
        <ele>292.40399169922</ele>
        <time>2014-06-07T12:58:20Z</time>
      </trkpt>
      <trkpt lat="43.42797" lon="6.07858">
        <ele>291.2516784668</ele>
        <time>2014-06-07T12:58:21Z</time>
      </trkpt>
      <trkpt lat="43.42793" lon="6.07859">
        <ele>290.28076171875</ele>
        <time>2014-06-07T12:58:22Z</time>
      </trkpt>
      <trkpt lat="43.42787" lon="6.07867">
        <ele>288.64733886719</ele>
        <time>2014-06-07T12:58:24Z</time>
      </trkpt>
      <trkpt lat="43.4278" lon="6.07883">
        <ele>286.66818237305</ele>
        <time>2014-06-07T12:58:27Z</time>
      </trkpt>
      <trkpt lat="43.4276" lon="6.07917">
        <ele>284.34170532227</ele>
        <time>2014-06-07T12:58:32Z</time>
      </trkpt>
      <trkpt lat="43.42756" lon="6.07924">
        <ele>283.95373535156</ele>
        <time>2014-06-07T12:58:33Z</time>
      </trkpt>
      <trkpt lat="43.42751" lon="6.07929">
        <ele>283.60354614258</ele>
        <time>2014-06-07T12:58:34Z</time>
      </trkpt>
      <trkpt lat="43.42746" lon="6.07933">
        <ele>283.40869140625</ele>
        <time>2014-06-07T12:58:35Z</time>
      </trkpt>
      <trkpt lat="43.42741" lon="6.07938">
        <ele>283.24560546875</ele>
        <time>2014-06-07T12:58:36Z</time>
      </trkpt>
      <trkpt lat="43.42735" lon="6.07942">
        <ele>283.10485839844</ele>
        <time>2014-06-07T12:58:37Z</time>
      </trkpt>
      <trkpt lat="43.4273" lon="6.07945">
        <ele>282.98126220703</ele>
        <time>2014-06-07T12:58:38Z</time>
      </trkpt>
      <trkpt lat="43.42724" lon="6.07948">
        <ele>282.87481689453</ele>
        <time>2014-06-07T12:58:39Z</time>
      </trkpt>
      <trkpt lat="43.42717" lon="6.07949">
        <ele>282.65521240234</ele>
        <time>2014-06-07T12:58:40Z</time>
      </trkpt>
      <trkpt lat="43.42704" lon="6.07949">
        <ele>282.17797851562</ele>
        <time>2014-06-07T12:58:42Z</time>
      </trkpt>
      <trkpt lat="43.42683" lon="6.07948">
        <ele>281.86279296875</ele>
        <time>2014-06-07T12:58:45Z</time>
      </trkpt>
      <trkpt lat="43.42677" lon="6.07949">
        <ele>281.84735107422</ele>
        <time>2014-06-07T12:58:46Z</time>
      </trkpt>
      <trkpt lat="43.42667" lon="6.07947">
        <ele>281.91973876953</ele>
        <time>2014-06-07T12:58:48Z</time>
      </trkpt>
      <trkpt lat="43.42662" lon="6.07944">
        <ele>281.66345214844</ele>
        <time>2014-06-07T12:58:49Z</time>
      </trkpt>
      <trkpt lat="43.42657" lon="6.0794">
        <ele>281.28387451172</ele>
        <time>2014-06-07T12:58:50Z</time>
      </trkpt>
      <trkpt lat="43.42653" lon="6.07936">
        <ele>280.88674926758</ele>
        <time>2014-06-07T12:58:51Z</time>
      </trkpt>
      <trkpt lat="43.42644" lon="6.07926">
        <ele>279.7907409668</ele>
        <time>2014-06-07T12:58:53Z</time>
      </trkpt>
      <trkpt lat="43.4264" lon="6.07919">
        <ele>279.20007324219</ele>
        <time>2014-06-07T12:58:54Z</time>
      </trkpt>
      <trkpt lat="43.42637" lon="6.07913">
        <ele>278.27728271484</ele>
        <time>2014-06-07T12:58:55Z</time>
      </trkpt>
      <trkpt lat="43.42635" lon="6.07908">
        <ele>277.43441772461</ele>
        <time>2014-06-07T12:58:56Z</time>
      </trkpt>
      <trkpt lat="43.42627" lon="6.07898">
        <ele>274.78051757812</ele>
        <time>2014-06-07T12:58:59Z</time>
      </trkpt>
      <trkpt lat="43.42623" lon="6.07896">
        <ele>273.71279907227</ele>
        <time>2014-06-07T12:59:00Z</time>
      </trkpt>
      <trkpt lat="43.4261" lon="6.07889">
        <ele>269.71398925781</ele>
        <time>2014-06-07T12:59:03Z</time>
      </trkpt>
      <trkpt lat="43.42604" lon="6.07886">
        <ele>268.47171020508</ele>
        <time>2014-06-07T12:59:04Z</time>
      </trkpt>
      <trkpt lat="43.42598" lon="6.07882">
        <ele>267.11685180664</ele>
        <time>2014-06-07T12:59:05Z</time>
      </trkpt>
      <trkpt lat="43.42592" lon="6.07878">
        <ele>265.79547119141</ele>
        <time>2014-06-07T12:59:06Z</time>
      </trkpt>
      <trkpt lat="43.42587" lon="6.07874">
        <ele>264.62615966797</ele>
        <time>2014-06-07T12:59:07Z</time>
      </trkpt>
      <trkpt lat="43.42581" lon="6.07872">
        <ele>263.78155517578</ele>
        <time>2014-06-07T12:59:08Z</time>
      </trkpt>
      <trkpt lat="43.4257" lon="6.07871">
        <ele>262.84463500977</ele>
        <time>2014-06-07T12:59:10Z</time>
      </trkpt>
      <trkpt lat="43.42565" lon="6.07872">
        <ele>262.41302490234</ele>
        <time>2014-06-07T12:59:11Z</time>
      </trkpt>
      <trkpt lat="43.4256" lon="6.07871">
        <ele>261.99624633789</ele>
        <time>2014-06-07T12:59:12Z</time>
      </trkpt>
      <trkpt lat="43.42554" lon="6.07873">
        <ele>261.55447387695</ele>
        <time>2014-06-07T12:59:13Z</time>
      </trkpt>
      <trkpt lat="43.42542" lon="6.07878">
        <ele>261.08673095703</ele>
        <time>2014-06-07T12:59:15Z</time>
      </trkpt>
      <trkpt lat="43.42535" lon="6.0788">
        <ele>260.82794189453</ele>
        <time>2014-06-07T12:59:16Z</time>
      </trkpt>
      <trkpt lat="43.42528" lon="6.07881">
        <ele>260.56588745117</ele>
        <time>2014-06-07T12:59:17Z</time>
      </trkpt>
      <trkpt lat="43.42522" lon="6.07882">
        <ele>260.47375488281</ele>
        <time>2014-06-07T12:59:18Z</time>
      </trkpt>
      <trkpt lat="43.42515" lon="6.07884">
        <ele>260.34329223633</ele>
        <time>2014-06-07T12:59:19Z</time>
      </trkpt>
      <trkpt lat="43.42508" lon="6.07886">
        <ele>260.20251464844</ele>
        <time>2014-06-07T12:59:20Z</time>
      </trkpt>
      <trkpt lat="43.42501" lon="6.07888">
        <ele>260.03088378906</ele>
        <time>2014-06-07T12:59:21Z</time>
      </trkpt>
      <trkpt lat="43.42495" lon="6.0789">
        <ele>260</ele>
        <time>2014-06-07T12:59:22Z</time>
      </trkpt>
      <trkpt lat="43.42488" lon="6.07892">
        <ele>260</ele>
        <time>2014-06-07T12:59:23Z</time>
      </trkpt>
      <trkpt lat="43.42483" lon="6.07894">
        <ele>260</ele>
        <time>2014-06-07T12:59:24Z</time>
      </trkpt>
      <trkpt lat="43.42478" lon="6.07896">
        <ele>260</ele>
        <time>2014-06-07T12:59:25Z</time>
      </trkpt>
      <trkpt lat="43.42474" lon="6.07899">
        <ele>260</ele>
        <time>2014-06-07T12:59:26Z</time>
      </trkpt>
      <trkpt lat="43.42471" lon="6.07902">
        <ele>260</ele>
        <time>2014-06-07T12:59:27Z</time>
      </trkpt>
      <trkpt lat="43.4247" lon="6.07906">
        <ele>260</ele>
        <time>2014-06-07T12:59:28Z</time>
      </trkpt>
      <trkpt lat="43.4247" lon="6.07908">
        <ele>260</ele>
        <time>2014-06-07T12:59:29Z</time>
      </trkpt>
      <trkpt lat="43.42472" lon="6.07909">
        <ele>260</ele>
        <time>2014-06-07T12:59:31Z</time>
      </trkpt>
      <trkpt lat="43.42472" lon="6.07909">
        <ele>260</ele>
        <time>2014-06-07T12:59:32Z</time>
      </trkpt>
      <trkpt lat="43.42472" lon="6.07909">
        <ele>260</ele>
        <time>2014-06-07T12:59:33Z</time>
      </trkpt>
      <trkpt lat="43.42473" lon="6.07909">
        <ele>260</ele>
        <time>2014-06-07T12:59:34Z</time>
      </trkpt>
      <trkpt lat="43.42473" lon="6.07908">
        <ele>260</ele>
        <time>2014-06-07T12:59:35Z</time>
      </trkpt>
      <trkpt lat="43.42472" lon="6.07908">
        <ele>260</ele>
        <time>2014-06-07T12:59:42Z</time>
      </trkpt>
      <trkpt lat="43.42472" lon="6.07908">
        <ele>260</ele>
        <time>2014-06-07T12:59:50Z</time>
      </trkpt>
      <trkpt lat="43.42473" lon="6.07908">
        <ele>260</ele>
        <time>2014-06-07T12:59:57Z</time>
      </trkpt>
      <trkpt lat="43.42473" lon="6.0791">
        <ele>260</ele>
        <time>2014-06-07T13:00:04Z</time>
      </trkpt>
      <trkpt lat="43.42473" lon="6.0791">
        <ele>260</ele>
        <time>2014-06-07T13:00:13Z</time>
      </trkpt>
      <trkpt lat="43.42474" lon="6.07909">
        <ele>260</ele>
        <time>2014-06-07T13:00:18Z</time>
      </trkpt>
      <trkpt lat="43.4248" lon="6.07906">
        <ele>260</ele>
        <time>2014-06-07T13:00:22Z</time>
      </trkpt>
      <trkpt lat="43.42484" lon="6.07904">
        <ele>260</ele>
        <time>2014-06-07T13:00:24Z</time>
      </trkpt>
      <trkpt lat="43.42493" lon="6.07902">
        <ele>260</ele>
        <time>2014-06-07T13:00:28Z</time>
      </trkpt>
      <trkpt lat="43.42498" lon="6.07901">
        <ele>260</ele>
        <time>2014-06-07T13:00:30Z</time>
      </trkpt>
      <trkpt lat="43.42509" lon="6.079">
        <ele>260</ele>
        <time>2014-06-07T13:00:34Z</time>
      </trkpt>
      <trkpt lat="43.42514" lon="6.079">
        <ele>260</ele>
        <time>2014-06-07T13:00:36Z</time>
      </trkpt>
      <trkpt lat="43.42529" lon="6.07898">
        <ele>260.03610229492</ele>
        <time>2014-06-07T13:00:42Z</time>
      </trkpt>
      <trkpt lat="43.42538" lon="6.07898">
        <ele>260.26092529297</ele>
        <time>2014-06-07T13:00:46Z</time>
      </trkpt>
      <trkpt lat="43.42547" lon="6.07901">
        <ele>260.40567016602</ele>
        <time>2014-06-07T13:00:50Z</time>
      </trkpt>
      <trkpt lat="43.4255" lon="6.07903">
        <ele>260.39834594727</ele>
        <time>2014-06-07T13:00:51Z</time>
      </trkpt>
      <trkpt lat="43.42554" lon="6.07908">
        <ele>260.30053710938</ele>
        <time>2014-06-07T13:00:53Z</time>
      </trkpt>
      <trkpt lat="43.42555" lon="6.07915">
        <ele>260.07116699219</ele>
        <time>2014-06-07T13:00:55Z</time>
      </trkpt>
      <trkpt lat="43.42558" lon="6.07924">
        <ele>260.36831665039</ele>
        <time>2014-06-07T13:00:58Z</time>
      </trkpt>
      <trkpt lat="43.42562" lon="6.07933">
        <ele>260.75628662109</ele>
        <time>2014-06-07T13:01:01Z</time>
      </trkpt>
      <trkpt lat="43.42578" lon="6.0795">
        <ele>262.26327514648</ele>
        <time>2014-06-07T13:01:10Z</time>
      </trkpt>
      <trkpt lat="43.42582" lon="6.07955">
        <ele>262.49743652344</ele>
        <time>2014-06-07T13:01:13Z</time>
      </trkpt>
      <trkpt lat="43.42585" lon="6.07957">
        <ele>262.95275878906</ele>
        <time>2014-06-07T13:01:15Z</time>
      </trkpt>
      <trkpt lat="43.42596" lon="6.07967">
        <ele>265.4006652832</ele>
        <time>2014-06-07T13:01:21Z</time>
      </trkpt>
      <trkpt lat="43.42604" lon="6.07977">
        <ele>267.55010986328</ele>
        <time>2014-06-07T13:01:27Z</time>
      </trkpt>
      <trkpt lat="43.42608" lon="6.07981">
        <ele>268.64877319336</ele>
        <time>2014-06-07T13:01:29Z</time>
      </trkpt>
      <trkpt lat="43.42612" lon="6.07986">
        <ele>269.74966430664</ele>
        <time>2014-06-07T13:01:31Z</time>
      </trkpt>
      <trkpt lat="43.42617" lon="6.07998">
        <ele>271.24197387695</ele>
        <time>2014-06-07T13:01:35Z</time>
      </trkpt>
      <trkpt lat="43.42619" lon="6.08014">
        <ele>272.96408081055</ele>
        <time>2014-06-07T13:01:41Z</time>
      </trkpt>
      <trkpt lat="43.4262" lon="6.08026">
        <ele>274.23678588867</ele>
        <time>2014-06-07T13:01:46Z</time>
      </trkpt>
      <trkpt lat="43.4262" lon="6.08047">
        <ele>275.43899536133</ele>
        <time>2014-06-07T13:01:53Z</time>
      </trkpt>
      <trkpt lat="43.4262" lon="6.08059">
        <ele>276.12188720703</ele>
        <time>2014-06-07T13:01:57Z</time>
      </trkpt>
      <trkpt lat="43.4262" lon="6.08061">
        <ele>276.24087524414</ele>
        <time>2014-06-07T13:01:58Z</time>
      </trkpt>
      <trkpt lat="43.4262" lon="6.08062">
        <ele>276.37164306641</ele>
        <time>2014-06-07T13:01:59Z</time>
      </trkpt>
      <trkpt lat="43.42624" lon="6.08076">
        <ele>277.49136352539</ele>
        <time>2014-06-07T13:02:06Z</time>
      </trkpt>
      <trkpt lat="43.42632" lon="6.08084">
        <ele>278.54537963867</ele>
        <time>2014-06-07T13:02:12Z</time>
      </trkpt>
      <trkpt lat="43.42643" lon="6.08085">
        <ele>279.17980957031</ele>
        <time>2014-06-07T13:02:17Z</time>
      </trkpt>
      <trkpt lat="43.42657" lon="6.08073">
        <ele>279.25561523438</ele>
        <time>2014-06-07T13:02:24Z</time>
      </trkpt>
      <trkpt lat="43.42669" lon="6.08075">
        <ele>279.71197509766</ele>
        <time>2014-06-07T13:02:29Z</time>
      </trkpt>
      <trkpt lat="43.42673" lon="6.08079">
        <ele>279.83215332031</ele>
        <time>2014-06-07T13:02:31Z</time>
      </trkpt>
      <trkpt lat="43.42681" lon="6.08086">
        <ele>280</ele>
        <time>2014-06-07T13:02:35Z</time>
      </trkpt>
      <trkpt lat="43.42685" lon="6.08093">
        <ele>280</ele>
        <time>2014-06-07T13:02:38Z</time>
      </trkpt>
      <trkpt lat="43.42691" lon="6.08097">
        <ele>280</ele>
        <time>2014-06-07T13:02:41Z</time>
      </trkpt>
      <trkpt lat="43.42716" lon="6.08113">
        <ele>280</ele>
        <time>2014-06-07T13:02:53Z</time>
      </trkpt>
      <trkpt lat="43.42727" lon="6.08119">
        <ele>280</ele>
        <time>2014-06-07T13:02:58Z</time>
      </trkpt>
      <trkpt lat="43.42736" lon="6.08135">
        <ele>280</ele>
        <time>2014-06-07T13:03:05Z</time>
      </trkpt>
      <trkpt lat="43.42746" lon="6.08144">
        <ele>280</ele>
        <time>2014-06-07T13:03:11Z</time>
      </trkpt>
      <trkpt lat="43.42759" lon="6.0815">
        <ele>280</ele>
        <time>2014-06-07T13:03:18Z</time>
      </trkpt>
      <trkpt lat="43.42764" lon="6.08158">
        <ele>280</ele>
        <time>2014-06-07T13:03:22Z</time>
      </trkpt>
      <trkpt lat="43.42767" lon="6.08162">
        <ele>280</ele>
        <time>2014-06-07T13:03:24Z</time>
      </trkpt>
      <trkpt lat="43.4277" lon="6.0817">
        <ele>280</ele>
        <time>2014-06-07T13:03:28Z</time>
      </trkpt>
      <trkpt lat="43.42776" lon="6.08176">
        <ele>280</ele>
        <time>2014-06-07T13:03:32Z</time>
      </trkpt>
      <trkpt lat="43.4278" lon="6.08183">
        <ele>280</ele>
        <time>2014-06-07T13:03:35Z</time>
      </trkpt>
      <trkpt lat="43.42781" lon="6.08191">
        <ele>280</ele>
        <time>2014-06-07T13:03:39Z</time>
      </trkpt>
      <trkpt lat="43.42784" lon="6.08197">
        <ele>280</ele>
        <time>2014-06-07T13:03:42Z</time>
      </trkpt>
      <trkpt lat="43.42785" lon="6.08204">
        <ele>280</ele>
        <time>2014-06-07T13:03:46Z</time>
      </trkpt>
      <trkpt lat="43.42785" lon="6.08213">
        <ele>280</ele>
        <time>2014-06-07T13:03:52Z</time>
      </trkpt>
      <trkpt lat="43.42786" lon="6.08222">
        <ele>280</ele>
        <time>2014-06-07T13:03:57Z</time>
      </trkpt>
      <trkpt lat="43.42786" lon="6.08224">
        <ele>280</ele>
        <time>2014-06-07T13:03:58Z</time>
      </trkpt>
      <trkpt lat="43.42787" lon="6.08229">
        <ele>280</ele>
        <time>2014-06-07T13:04:01Z</time>
      </trkpt>
      <trkpt lat="43.4279" lon="6.08236">
        <ele>280</ele>
        <time>2014-06-07T13:04:05Z</time>
      </trkpt>
      <trkpt lat="43.42793" lon="6.08251">
        <ele>280.00833129883</ele>
        <time>2014-06-07T13:04:12Z</time>
      </trkpt>
      <trkpt lat="43.42795" lon="6.08257">
        <ele>280.09228515625</ele>
        <time>2014-06-07T13:04:16Z</time>
      </trkpt>
      <trkpt lat="43.42796" lon="6.08258">
        <ele>280.09808349609</ele>
        <time>2014-06-07T13:04:17Z</time>
      </trkpt>
      <trkpt lat="43.42797" lon="6.08259">
        <ele>280.09362792969</ele>
        <time>2014-06-07T13:04:18Z</time>
      </trkpt>
      <trkpt lat="43.42797" lon="6.08259">
        <ele>280.09573364258</ele>
        <time>2014-06-07T13:04:19Z</time>
      </trkpt>
      <trkpt lat="43.42797" lon="6.08259">
        <ele>280.09573364258</ele>
        <time>2014-06-07T13:04:23Z</time>
      </trkpt>
      <trkpt lat="43.42797" lon="6.08258">
        <ele>280.09259033203</ele>
        <time>2014-06-07T13:04:33Z</time>
      </trkpt>
      <trkpt lat="43.42797" lon="6.08258">
        <ele>280.09259033203</ele>
        <time>2014-06-07T13:04:55Z</time>
      </trkpt>
      <trkpt lat="43.42797" lon="6.08258">
        <ele>280.09259033203</ele>
        <time>2014-06-07T13:05:50Z</time>
      </trkpt>
      <trkpt lat="43.42802" lon="6.08259">
        <ele>280.04638671875</ele>
        <time>2014-06-07T13:05:59Z</time>
      </trkpt>
      <trkpt lat="43.42811" lon="6.08259">
        <ele>280</ele>
        <time>2014-06-07T13:06:04Z</time>
      </trkpt>
      <trkpt lat="43.42824" lon="6.08264">
        <ele>280</ele>
        <time>2014-06-07T13:06:09Z</time>
      </trkpt>
      <trkpt lat="43.42827" lon="6.08269">
        <ele>280</ele>
        <time>2014-06-07T13:06:10Z</time>
      </trkpt>
      <trkpt lat="43.42833" lon="6.08282">
        <ele>280</ele>
        <time>2014-06-07T13:06:13Z</time>
      </trkpt>
      <trkpt lat="43.42837" lon="6.08302">
        <ele>280</ele>
        <time>2014-06-07T13:06:17Z</time>
      </trkpt>
      <trkpt lat="43.4284" lon="6.08316">
        <ele>280</ele>
        <time>2014-06-07T13:06:21Z</time>
      </trkpt>
      <trkpt lat="43.42842" lon="6.08328">
        <ele>280</ele>
        <time>2014-06-07T13:06:25Z</time>
      </trkpt>
      <trkpt lat="43.42844" lon="6.08337">
        <ele>280.15078735352</ele>
        <time>2014-06-07T13:06:28Z</time>
      </trkpt>
      <trkpt lat="43.42847" lon="6.08349">
        <ele>280.57672119141</ele>
        <time>2014-06-07T13:06:32Z</time>
      </trkpt>
      <trkpt lat="43.42849" lon="6.08361">
        <ele>280.90545654297</ele>
        <time>2014-06-07T13:06:36Z</time>
      </trkpt>
      <trkpt lat="43.42851" lon="6.08371">
        <ele>280.83721923828</ele>
        <time>2014-06-07T13:06:39Z</time>
      </trkpt>
      <trkpt lat="43.42854" lon="6.08381">
        <ele>280.66201782227</ele>
        <time>2014-06-07T13:06:42Z</time>
      </trkpt>
      <trkpt lat="43.42859" lon="6.08401">
        <ele>280.34219360352</ele>
        <time>2014-06-07T13:06:49Z</time>
      </trkpt>
      <trkpt lat="43.42865" lon="6.08417">
        <ele>280</ele>
        <time>2014-06-07T13:06:55Z</time>
      </trkpt>
      <trkpt lat="43.42867" lon="6.0842">
        <ele>280</ele>
        <time>2014-06-07T13:06:56Z</time>
      </trkpt>
      <trkpt lat="43.42876" lon="6.0843">
        <ele>280</ele>
        <time>2014-06-07T13:07:01Z</time>
      </trkpt>
      <trkpt lat="43.42891" lon="6.08451">
        <ele>280</ele>
        <time>2014-06-07T13:07:09Z</time>
      </trkpt>
      <trkpt lat="43.429" lon="6.08469">
        <ele>280</ele>
        <time>2014-06-07T13:07:16Z</time>
      </trkpt>
      <trkpt lat="43.42913" lon="6.08487">
        <ele>280</ele>
        <time>2014-06-07T13:07:23Z</time>
      </trkpt>
      <trkpt lat="43.4293" lon="6.08504">
        <ele>280</ele>
        <time>2014-06-07T13:07:30Z</time>
      </trkpt>
      <trkpt lat="43.42944" lon="6.08524">
        <ele>280</ele>
        <time>2014-06-07T13:07:36Z</time>
      </trkpt>
      <trkpt lat="43.42949" lon="6.08543">
        <ele>280</ele>
        <time>2014-06-07T13:07:41Z</time>
      </trkpt>
      <trkpt lat="43.42957" lon="6.08572">
        <ele>280</ele>
        <time>2014-06-07T13:07:49Z</time>
      </trkpt>
      <trkpt lat="43.42966" lon="6.08609">
        <ele>280</ele>
        <time>2014-06-07T13:07:59Z</time>
      </trkpt>
      <trkpt lat="43.4297" lon="6.08627">
        <ele>280</ele>
        <time>2014-06-07T13:08:04Z</time>
      </trkpt>
      <trkpt lat="43.42976" lon="6.08652">
        <ele>280</ele>
        <time>2014-06-07T13:08:11Z</time>
      </trkpt>
      <trkpt lat="43.42983" lon="6.08681">
        <ele>280</ele>
        <time>2014-06-07T13:08:20Z</time>
      </trkpt>
      <trkpt lat="43.42989" lon="6.08705">
        <ele>280</ele>
        <time>2014-06-07T13:08:27Z</time>
      </trkpt>
      <trkpt lat="43.42998" lon="6.08724">
        <ele>280.27694702148</ele>
        <time>2014-06-07T13:08:34Z</time>
      </trkpt>
      <trkpt lat="43.43007" lon="6.08746">
        <ele>284.29327392578</ele>
        <time>2014-06-07T13:08:42Z</time>
      </trkpt>
      <trkpt lat="43.43011" lon="6.08759">
        <ele>285.81329345703</ele>
        <time>2014-06-07T13:08:46Z</time>
      </trkpt>
      <trkpt lat="43.43013" lon="6.08775">
        <ele>287.24493408203</ele>
        <time>2014-06-07T13:08:51Z</time>
      </trkpt>
      <trkpt lat="43.43015" lon="6.08809">
        <ele>289.2802734375</ele>
        <time>2014-06-07T13:09:01Z</time>
      </trkpt>
      <trkpt lat="43.4302" lon="6.0883">
        <ele>290.56436157227</ele>
        <time>2014-06-07T13:09:08Z</time>
      </trkpt>
      <trkpt lat="43.43023" lon="6.08844">
        <ele>291.27197265625</ele>
        <time>2014-06-07T13:09:13Z</time>
      </trkpt>
      <trkpt lat="43.43023" lon="6.08847">
        <ele>291.39608764648</ele>
        <time>2014-06-07T13:09:14Z</time>
      </trkpt>
      <trkpt lat="43.43023" lon="6.08857">
        <ele>291.84457397461</ele>
        <time>2014-06-07T13:09:18Z</time>
      </trkpt>
      <trkpt lat="43.43021" lon="6.08874">
        <ele>292.44808959961</ele>
        <time>2014-06-07T13:09:24Z</time>
      </trkpt>
      <trkpt lat="43.43023" lon="6.08892">
        <ele>293.12750244141</ele>
        <time>2014-06-07T13:09:30Z</time>
      </trkpt>
      <trkpt lat="43.43021" lon="6.08898">
        <ele>293.41482543945</ele>
        <time>2014-06-07T13:09:32Z</time>
      </trkpt>
      <trkpt lat="43.43019" lon="6.08906">
        <ele>293.80755615234</ele>
        <time>2014-06-07T13:09:35Z</time>
      </trkpt>
      <trkpt lat="43.43016" lon="6.08921">
        <ele>294.6526184082</ele>
        <time>2014-06-07T13:09:41Z</time>
      </trkpt>
      <trkpt lat="43.43017" lon="6.08928">
        <ele>294.9619140625</ele>
        <time>2014-06-07T13:09:46Z</time>
      </trkpt>
      <trkpt lat="43.43023" lon="6.08936">
        <ele>295.00268554688</ele>
        <time>2014-06-07T13:09:50Z</time>
      </trkpt>
      <trkpt lat="43.43023" lon="6.08952">
        <ele>295.58401489258</ele>
        <time>2014-06-07T13:09:56Z</time>
      </trkpt>
      <trkpt lat="43.43025" lon="6.08968">
        <ele>296.07666015625</ele>
        <time>2014-06-07T13:10:02Z</time>
      </trkpt>
      <trkpt lat="43.43024" lon="6.0899">
        <ele>296.89892578125</ele>
        <time>2014-06-07T13:10:09Z</time>
      </trkpt>
      <trkpt lat="43.43024" lon="6.09005">
        <ele>297.294921875</ele>
        <time>2014-06-07T13:10:14Z</time>
      </trkpt>
      <trkpt lat="43.43018" lon="6.09038">
        <ele>297.95306396484</ele>
        <time>2014-06-07T13:10:26Z</time>
      </trkpt>
      <trkpt lat="43.43013" lon="6.09048">
        <ele>298.42581176758</ele>
        <time>2014-06-07T13:10:31Z</time>
      </trkpt>
      <trkpt lat="43.43011" lon="6.0905">
        <ele>298.52059936523</ele>
        <time>2014-06-07T13:10:32Z</time>
      </trkpt>
      <trkpt lat="43.43009" lon="6.09051">
        <ele>298.61892700195</ele>
        <time>2014-06-07T13:10:33Z</time>
      </trkpt>
      <trkpt lat="43.43" lon="6.09059">
        <ele>299.02359008789</ele>
        <time>2014-06-07T13:10:38Z</time>
      </trkpt>
      <trkpt lat="43.42994" lon="6.09065">
        <ele>299.38723754883</ele>
        <time>2014-06-07T13:10:43Z</time>
      </trkpt>
      <trkpt lat="43.42983" lon="6.09076">
        <ele>299.78344726562</ele>
        <time>2014-06-07T13:10:49Z</time>
      </trkpt>
      <trkpt lat="43.42972" lon="6.09086">
        <ele>299.95700073242</ele>
        <time>2014-06-07T13:10:55Z</time>
      </trkpt>
      <trkpt lat="43.42962" lon="6.09092">
        <ele>300.77227783203</ele>
        <time>2014-06-07T13:10:59Z</time>
      </trkpt>
      <trkpt lat="43.42949" lon="6.09102">
        <ele>301.01867675781</ele>
        <time>2014-06-07T13:11:04Z</time>
      </trkpt>
      <trkpt lat="43.42939" lon="6.09117">
        <ele>300.44998168945</ele>
        <time>2014-06-07T13:11:07Z</time>
      </trkpt>
      <trkpt lat="43.42933" lon="6.09128">
        <ele>299.84228515625</ele>
        <time>2014-06-07T13:11:09Z</time>
      </trkpt>
      <trkpt lat="43.42929" lon="6.09138">
        <ele>298.19940185547</ele>
        <time>2014-06-07T13:11:11Z</time>
      </trkpt>
      <trkpt lat="43.42928" lon="6.09144">
        <ele>297.87969970703</ele>
        <time>2014-06-07T13:11:12Z</time>
      </trkpt>
      <trkpt lat="43.42928" lon="6.09151">
        <ele>297.54348754883</ele>
        <time>2014-06-07T13:11:13Z</time>
      </trkpt>
      <trkpt lat="43.42928" lon="6.09158">
        <ele>297.1828918457</ele>
        <time>2014-06-07T13:11:14Z</time>
      </trkpt>
      <trkpt lat="43.4293" lon="6.09165">
        <ele>296.64794921875</ele>
        <time>2014-06-07T13:11:15Z</time>
      </trkpt>
      <trkpt lat="43.4293" lon="6.09172">
        <ele>296.02694702148</ele>
        <time>2014-06-07T13:11:16Z</time>
      </trkpt>
      <trkpt lat="43.42929" lon="6.09187">
        <ele>294.8046875</ele>
        <time>2014-06-07T13:11:18Z</time>
      </trkpt>
      <trkpt lat="43.42928" lon="6.09193">
        <ele>294.2978515625</ele>
        <time>2014-06-07T13:11:19Z</time>
      </trkpt>
      <trkpt lat="43.42922" lon="6.09202">
        <ele>293.73809814453</ele>
        <time>2014-06-07T13:11:21Z</time>
      </trkpt>
      <trkpt lat="43.42918" lon="6.09205">
        <ele>293.69348144531</ele>
        <time>2014-06-07T13:11:22Z</time>
      </trkpt>
      <trkpt lat="43.42913" lon="6.09209">
        <ele>293.8503112793</ele>
        <time>2014-06-07T13:11:24Z</time>
      </trkpt>
      <trkpt lat="43.42912" lon="6.09211">
        <ele>293.81634521484</ele>
        <time>2014-06-07T13:11:25Z</time>
      </trkpt>
      <trkpt lat="43.42911" lon="6.09212">
        <ele>293.77575683594</ele>
        <time>2014-06-07T13:11:26Z</time>
      </trkpt>
      <trkpt lat="43.4291" lon="6.09213">
        <ele>293.82662963867</ele>
        <time>2014-06-07T13:11:27Z</time>
      </trkpt>
      <trkpt lat="43.42908" lon="6.09215">
        <ele>293.87121582031</ele>
        <time>2014-06-07T13:11:29Z</time>
      </trkpt>
      <trkpt lat="43.42908" lon="6.09218">
        <ele>293.6936340332</ele>
        <time>2014-06-07T13:11:32Z</time>
      </trkpt>
      <trkpt lat="43.42907" lon="6.09218">
        <ele>293.72821044922</ele>
        <time>2014-06-07T13:11:44Z</time>
      </trkpt>
      <trkpt lat="43.42905" lon="6.09224">
        <ele>293.51736450195</ele>
        <time>2014-06-07T13:11:47Z</time>
      </trkpt>
      <trkpt lat="43.42904" lon="6.09228">
        <ele>293.544921875</ele>
        <time>2014-06-07T13:11:48Z</time>
      </trkpt>
      <trkpt lat="43.42903" lon="6.09239">
        <ele>293.11791992188</ele>
        <time>2014-06-07T13:11:51Z</time>
      </trkpt>
      <trkpt lat="43.42902" lon="6.09248">
        <ele>292.69134521484</ele>
        <time>2014-06-07T13:11:53Z</time>
      </trkpt>
      <trkpt lat="43.42905" lon="6.09263">
        <ele>291.32516479492</ele>
        <time>2014-06-07T13:11:56Z</time>
      </trkpt>
      <trkpt lat="43.42907" lon="6.09276">
        <ele>290.13626098633</ele>
        <time>2014-06-07T13:11:58Z</time>
      </trkpt>
      <trkpt lat="43.42909" lon="6.09283">
        <ele>289.33654785156</ele>
        <time>2014-06-07T13:11:59Z</time>
      </trkpt>
      <trkpt lat="43.4291" lon="6.09289">
        <ele>288.70141601562</ele>
        <time>2014-06-07T13:12:00Z</time>
      </trkpt>
      <trkpt lat="43.4291" lon="6.09296">
        <ele>288.03536987305</ele>
        <time>2014-06-07T13:12:01Z</time>
      </trkpt>
      <trkpt lat="43.42911" lon="6.09303">
        <ele>287.47918701172</ele>
        <time>2014-06-07T13:12:02Z</time>
      </trkpt>
      <trkpt lat="43.42911" lon="6.09309">
        <ele>286.82406616211</ele>
        <time>2014-06-07T13:12:03Z</time>
      </trkpt>
      <trkpt lat="43.42907" lon="6.09339">
        <ele>285.28915405273</ele>
        <time>2014-06-07T13:12:08Z</time>
      </trkpt>
      <trkpt lat="43.42903" lon="6.09358">
        <ele>284.81488037109</ele>
        <time>2014-06-07T13:12:13Z</time>
      </trkpt>
      <trkpt lat="43.42904" lon="6.09366">
        <ele>283.99359130859</ele>
        <time>2014-06-07T13:12:15Z</time>
      </trkpt>
      <trkpt lat="43.42904" lon="6.09372">
        <ele>283.49780273438</ele>
        <time>2014-06-07T13:12:16Z</time>
      </trkpt>
      <trkpt lat="43.42905" lon="6.09378">
        <ele>283.12078857422</ele>
        <time>2014-06-07T13:12:17Z</time>
      </trkpt>
      <trkpt lat="43.42904" lon="6.09383">
        <ele>282.96051025391</ele>
        <time>2014-06-07T13:12:18Z</time>
      </trkpt>
      <trkpt lat="43.42902" lon="6.09403">
        <ele>282.98052978516</ele>
        <time>2014-06-07T13:12:22Z</time>
      </trkpt>
      <trkpt lat="43.4291" lon="6.09418">
        <ele>281.21813964844</ele>
        <time>2014-06-07T13:12:26Z</time>
      </trkpt>
      <trkpt lat="43.42926" lon="6.09435">
        <ele>280</ele>
        <time>2014-06-07T13:12:32Z</time>
      </trkpt>
      <trkpt lat="43.42944" lon="6.09446">
        <ele>280</ele>
        <time>2014-06-07T13:12:38Z</time>
      </trkpt>
      <trkpt lat="43.42947" lon="6.09449">
        <ele>280</ele>
        <time>2014-06-07T13:12:41Z</time>
      </trkpt>
      <trkpt lat="43.42948" lon="6.09451">
        <ele>280</ele>
        <time>2014-06-07T13:12:42Z</time>
      </trkpt>
      <trkpt lat="43.42948" lon="6.09458">
        <ele>280</ele>
        <time>2014-06-07T13:12:48Z</time>
      </trkpt>
      <trkpt lat="43.42948" lon="6.09459">
        <ele>280</ele>
        <time>2014-06-07T13:12:54Z</time>
      </trkpt>
      <trkpt lat="43.42946" lon="6.09462">
        <ele>280</ele>
        <time>2014-06-07T13:13:02Z</time>
      </trkpt>
      <trkpt lat="43.42942" lon="6.09477">
        <ele>279.98547363281</ele>
        <time>2014-06-07T13:13:07Z</time>
      </trkpt>
      <trkpt lat="43.4294" lon="6.09485">
        <ele>279.92895507812</ele>
        <time>2014-06-07T13:13:09Z</time>
      </trkpt>
      <trkpt lat="43.42937" lon="6.09492">
        <ele>279.81762695312</ele>
        <time>2014-06-07T13:13:11Z</time>
      </trkpt>
      <trkpt lat="43.42935" lon="6.09504">
        <ele>279.66650390625</ele>
        <time>2014-06-07T13:13:14Z</time>
      </trkpt>
      <trkpt lat="43.42925" lon="6.09536">
        <ele>279.30944824219</ele>
        <time>2014-06-07T13:13:23Z</time>
      </trkpt>
      <trkpt lat="43.42921" lon="6.09544">
        <ele>279.17211914062</ele>
        <time>2014-06-07T13:13:26Z</time>
      </trkpt>
      <trkpt lat="43.4292" lon="6.09547">
        <ele>279.13092041016</ele>
        <time>2014-06-07T13:13:27Z</time>
      </trkpt>
      <trkpt lat="43.42917" lon="6.09551">
        <ele>279.00732421875</ele>
        <time>2014-06-07T13:13:29Z</time>
      </trkpt>
      <trkpt lat="43.42911" lon="6.09556">
        <ele>278.99472045898</ele>
        <time>2014-06-07T13:13:33Z</time>
      </trkpt>
      <trkpt lat="43.42906" lon="6.09564">
        <ele>278.87991333008</ele>
        <time>2014-06-07T13:13:38Z</time>
      </trkpt>
      <trkpt lat="43.42905" lon="6.09565">
        <ele>278.86422729492</ele>
        <time>2014-06-07T13:13:39Z</time>
      </trkpt>
      <trkpt lat="43.42902" lon="6.09571">
        <ele>278.6953125</ele>
        <time>2014-06-07T13:13:42Z</time>
      </trkpt>
      <trkpt lat="43.42897" lon="6.09585">
        <ele>278.30694580078</ele>
        <time>2014-06-07T13:13:46Z</time>
      </trkpt>
      <trkpt lat="43.42893" lon="6.09601">
        <ele>278.15588378906</ele>
        <time>2014-06-07T13:13:50Z</time>
      </trkpt>
      <trkpt lat="43.42891" lon="6.09604">
        <ele>278.05975341797</ele>
        <time>2014-06-07T13:13:51Z</time>
      </trkpt>
      <trkpt lat="43.42889" lon="6.09607">
        <ele>278.01019287109</ele>
        <time>2014-06-07T13:13:52Z</time>
      </trkpt>
      <trkpt lat="43.42885" lon="6.09613">
        <ele>278.08547973633</ele>
        <time>2014-06-07T13:13:55Z</time>
      </trkpt>
      <trkpt lat="43.42882" lon="6.09616">
        <ele>278.06317138672</ele>
        <time>2014-06-07T13:13:59Z</time>
      </trkpt>
      <trkpt lat="43.42882" lon="6.09616">
        <ele>278.06317138672</ele>
        <time>2014-06-07T13:14:12Z</time>
      </trkpt>
      <trkpt lat="43.42883" lon="6.09617">
        <ele>278.00137329102</ele>
        <time>2014-06-07T13:14:17Z</time>
      </trkpt>
      <trkpt lat="43.42884" lon="6.09617">
        <ele>277.97561645508</ele>
        <time>2014-06-07T13:14:25Z</time>
      </trkpt>
      <trkpt lat="43.42885" lon="6.09615">
        <ele>277.99450683594</ele>
        <time>2014-06-07T13:14:34Z</time>
      </trkpt>
      <trkpt lat="43.42885" lon="6.09615">
        <ele>277.99450683594</ele>
        <time>2014-06-07T13:14:52Z</time>
      </trkpt>
      <trkpt lat="43.42885" lon="6.09615">
        <ele>278.00653076172</ele>
        <time>2014-06-07T13:15:05Z</time>
      </trkpt>
      <trkpt lat="43.42885" lon="6.09615">
        <ele>278.00653076172</ele>
        <time>2014-06-07T13:15:26Z</time>
      </trkpt>
      <trkpt lat="43.42885" lon="6.09615">
        <ele>278.00653076172</ele>
        <time>2014-06-07T13:15:41Z</time>
      </trkpt>
      <trkpt lat="43.42885" lon="6.09615">
        <ele>278.00994873047</ele>
        <time>2014-06-07T13:15:51Z</time>
      </trkpt>
      <trkpt lat="43.42885" lon="6.09615">
        <ele>278.00994873047</ele>
        <time>2014-06-07T13:16:06Z</time>
      </trkpt>
      <trkpt lat="43.42885" lon="6.09614">
        <ele>278.03570556641</ele>
        <time>2014-06-07T13:16:11Z</time>
      </trkpt>
      <trkpt lat="43.42887" lon="6.09613">
        <ele>278.00994873047</ele>
        <time>2014-06-07T13:16:13Z</time>
      </trkpt>
      <trkpt lat="43.42891" lon="6.09607">
        <ele>278.08721923828</ele>
        <time>2014-06-07T13:16:16Z</time>
      </trkpt>
      <trkpt lat="43.42895" lon="6.096">
        <ele>278.22454833984</ele>
        <time>2014-06-07T13:16:19Z</time>
      </trkpt>
      <trkpt lat="43.42899" lon="6.09592">
        <ele>278.36187744141</ele>
        <time>2014-06-07T13:16:22Z</time>
      </trkpt>
      <trkpt lat="43.42905" lon="6.09574">
        <ele>278.7177734375</ele>
        <time>2014-06-07T13:16:28Z</time>
      </trkpt>
      <trkpt lat="43.42912" lon="6.09563">
        <ele>278.95135498047</ele>
        <time>2014-06-07T13:16:33Z</time>
      </trkpt>
      <trkpt lat="43.42913" lon="6.09561">
        <ele>278.97372436523</ele>
        <time>2014-06-07T13:16:34Z</time>
      </trkpt>
      <trkpt lat="43.42916" lon="6.09553">
        <ele>279</ele>
        <time>2014-06-07T13:16:38Z</time>
      </trkpt>
      <trkpt lat="43.42919" lon="6.09549">
        <ele>279.08972167969</ele>
        <time>2014-06-07T13:16:41Z</time>
      </trkpt>
      <trkpt lat="43.42921" lon="6.09549">
        <ele>279.14465332031</ele>
        <time>2014-06-07T13:16:44Z</time>
      </trkpt>
      <trkpt lat="43.42921" lon="6.09549">
        <ele>279.14465332031</ele>
        <time>2014-06-07T13:16:46Z</time>
      </trkpt>
      <trkpt lat="43.42924" lon="6.09544">
        <ele>279.25451660156</ele>
        <time>2014-06-07T13:16:53Z</time>
      </trkpt>
      <trkpt lat="43.42926" lon="6.09539">
        <ele>279.3369140625</ele>
        <time>2014-06-07T13:16:58Z</time>
      </trkpt>
      <trkpt lat="43.42927" lon="6.09537">
        <ele>279.36437988281</ele>
        <time>2014-06-07T13:17:00Z</time>
      </trkpt>
      <trkpt lat="43.42927" lon="6.09531">
        <ele>279.36437988281</ele>
        <time>2014-06-07T13:17:05Z</time>
      </trkpt>
      <trkpt lat="43.42927" lon="6.09531">
        <ele>279.36437988281</ele>
        <time>2014-06-07T13:17:06Z</time>
      </trkpt>
      <trkpt lat="43.42927" lon="6.09531">
        <ele>279.36437988281</ele>
        <time>2014-06-07T13:17:07Z</time>
      </trkpt>
      <trkpt lat="43.42927" lon="6.09531">
        <ele>279.37811279297</ele>
        <time>2014-06-07T13:17:08Z</time>
      </trkpt>
      <trkpt lat="43.42927" lon="6.09529">
        <ele>279.37811279297</ele>
        <time>2014-06-07T13:17:13Z</time>
      </trkpt>
      <trkpt lat="43.42929" lon="6.09526">
        <ele>279.43304443359</ele>
        <time>2014-06-07T13:17:18Z</time>
      </trkpt>
      <trkpt lat="43.4293" lon="6.09522">
        <ele>279.47424316406</ele>
        <time>2014-06-07T13:17:20Z</time>
      </trkpt>
      <trkpt lat="43.42936" lon="6.09504">
        <ele>279.68023681641</ele>
        <time>2014-06-07T13:17:28Z</time>
      </trkpt>
      <trkpt lat="43.42939" lon="6.0949">
        <ele>279.87469482422</ele>
        <time>2014-06-07T13:17:34Z</time>
      </trkpt>
      <trkpt lat="43.42944" lon="6.09478">
        <ele>279.99401855469</ele>
        <time>2014-06-07T13:17:39Z</time>
      </trkpt>
      <trkpt lat="43.42947" lon="6.09462">
        <ele>280</ele>
        <time>2014-06-07T13:17:46Z</time>
      </trkpt>
      <trkpt lat="43.4295" lon="6.09456">
        <ele>280</ele>
        <time>2014-06-07T13:17:49Z</time>
      </trkpt>
      <trkpt lat="43.42952" lon="6.09452">
        <ele>280</ele>
        <time>2014-06-07T13:17:52Z</time>
      </trkpt>
      <trkpt lat="43.42953" lon="6.09451">
        <ele>280</ele>
        <time>2014-06-07T13:17:53Z</time>
      </trkpt>
      <trkpt lat="43.42957" lon="6.09448">
        <ele>280</ele>
        <time>2014-06-07T13:17:57Z</time>
      </trkpt>
      <trkpt lat="43.42959" lon="6.09445">
        <ele>280</ele>
        <time>2014-06-07T13:17:59Z</time>
      </trkpt>
      <trkpt lat="43.42964" lon="6.09445">
        <ele>280</ele>
        <time>2014-06-07T13:18:02Z</time>
      </trkpt>
      <trkpt lat="43.42967" lon="6.09441">
        <ele>280</ele>
        <time>2014-06-07T13:18:04Z</time>
      </trkpt>
      <trkpt lat="43.42974" lon="6.09438">
        <ele>280</ele>
        <time>2014-06-07T13:18:08Z</time>
      </trkpt>
      <trkpt lat="43.42981" lon="6.09434">
        <ele>280</ele>
        <time>2014-06-07T13:18:13Z</time>
      </trkpt>
      <trkpt lat="43.42987" lon="6.09434">
        <ele>280</ele>
        <time>2014-06-07T13:18:16Z</time>
      </trkpt>
      <trkpt lat="43.42989" lon="6.09437">
        <ele>280</ele>
        <time>2014-06-07T13:18:18Z</time>
      </trkpt>
      <trkpt lat="43.42988" lon="6.09441">
        <ele>280</ele>
        <time>2014-06-07T13:18:20Z</time>
      </trkpt>
      <trkpt lat="43.42987" lon="6.09447">
        <ele>280</ele>
        <time>2014-06-07T13:18:23Z</time>
      </trkpt>
      <trkpt lat="43.42986" lon="6.09451">
        <ele>280</ele>
        <time>2014-06-07T13:18:25Z</time>
      </trkpt>
      <trkpt lat="43.42987" lon="6.09467">
        <ele>280</ele>
        <time>2014-06-07T13:18:32Z</time>
      </trkpt>
      <trkpt lat="43.42988" lon="6.0948">
        <ele>280</ele>
        <time>2014-06-07T13:18:38Z</time>
      </trkpt>
      <trkpt lat="43.42987" lon="6.09504">
        <ele>280</ele>
        <time>2014-06-07T13:18:48Z</time>
      </trkpt>
      <trkpt lat="43.42987" lon="6.09506">
        <ele>280</ele>
        <time>2014-06-07T13:18:49Z</time>
      </trkpt>
      <trkpt lat="43.42988" lon="6.09512">
        <ele>280</ele>
        <time>2014-06-07T13:18:52Z</time>
      </trkpt>
      <trkpt lat="43.42991" lon="6.09521">
        <ele>280</ele>
        <time>2014-06-07T13:18:56Z</time>
      </trkpt>
      <trkpt lat="43.42992" lon="6.09527">
        <ele>280</ele>
        <time>2014-06-07T13:18:59Z</time>
      </trkpt>
      <trkpt lat="43.42992" lon="6.09529">
        <ele>280</ele>
        <time>2014-06-07T13:19:00Z</time>
      </trkpt>
      <trkpt lat="43.42992" lon="6.09531">
        <ele>280</ele>
        <time>2014-06-07T13:19:01Z</time>
      </trkpt>
      <trkpt lat="43.42992" lon="6.09532">
        <ele>280</ele>
        <time>2014-06-07T13:19:02Z</time>
      </trkpt>
      <trkpt lat="43.42991" lon="6.09534">
        <ele>280</ele>
        <time>2014-06-07T13:19:03Z</time>
      </trkpt>
      <trkpt lat="43.4299" lon="6.09546">
        <ele>280</ele>
        <time>2014-06-07T13:19:06Z</time>
      </trkpt>
      <trkpt lat="43.42989" lon="6.09551">
        <ele>280</ele>
        <time>2014-06-07T13:19:07Z</time>
      </trkpt>
      <trkpt lat="43.42981" lon="6.09571">
        <ele>280</ele>
        <time>2014-06-07T13:19:10Z</time>
      </trkpt>
      <trkpt lat="43.42978" lon="6.09586">
        <ele>280</ele>
        <time>2014-06-07T13:19:12Z</time>
      </trkpt>
      <trkpt lat="43.42976" lon="6.09591">
        <ele>280</ele>
        <time>2014-06-07T13:19:13Z</time>
      </trkpt>
      <trkpt lat="43.42976" lon="6.09596">
        <ele>280</ele>
        <time>2014-06-07T13:19:14Z</time>
      </trkpt>
      <trkpt lat="43.42975" lon="6.096">
        <ele>280</ele>
        <time>2014-06-07T13:19:15Z</time>
      </trkpt>
      <trkpt lat="43.42974" lon="6.09617">
        <ele>280.01516723633</ele>
        <time>2014-06-07T13:19:20Z</time>
      </trkpt>
      <trkpt lat="43.42973" lon="6.09641">
        <ele>280.099609375</ele>
        <time>2014-06-07T13:19:27Z</time>
      </trkpt>
      <trkpt lat="43.42973" lon="6.09668">
        <ele>281.0583190918</ele>
        <time>2014-06-07T13:19:34Z</time>
      </trkpt>
      <trkpt lat="43.42971" lon="6.09692">
        <ele>281.81130981445</ele>
        <time>2014-06-07T13:19:41Z</time>
      </trkpt>
      <trkpt lat="43.42968" lon="6.09714">
        <ele>281.54260253906</ele>
        <time>2014-06-07T13:19:48Z</time>
      </trkpt>
      <trkpt lat="43.42965" lon="6.09728">
        <ele>281.25421142578</ele>
        <time>2014-06-07T13:19:53Z</time>
      </trkpt>
      <trkpt lat="43.42965" lon="6.09741">
        <ele>281.25421142578</ele>
        <time>2014-06-07T13:19:58Z</time>
      </trkpt>
      <trkpt lat="43.42966" lon="6.09748">
        <ele>281.29541015625</ele>
        <time>2014-06-07T13:20:01Z</time>
      </trkpt>
      <trkpt lat="43.42963" lon="6.09763">
        <ele>281.31329345703</ele>
        <time>2014-06-07T13:20:06Z</time>
      </trkpt>
      <trkpt lat="43.42962" lon="6.09785">
        <ele>281.56616210938</ele>
        <time>2014-06-07T13:20:13Z</time>
      </trkpt>
      <trkpt lat="43.42961" lon="6.098">
        <ele>281.34643554688</ele>
        <time>2014-06-07T13:20:19Z</time>
      </trkpt>
      <trkpt lat="43.42961" lon="6.09804">
        <ele>281.34643554688</ele>
        <time>2014-06-07T13:20:21Z</time>
      </trkpt>
      <trkpt lat="43.42959" lon="6.09807">
        <ele>281.04376220703</ele>
        <time>2014-06-07T13:20:23Z</time>
      </trkpt>
      <trkpt lat="43.42958" lon="6.09812">
        <ele>280.84613037109</ele>
        <time>2014-06-07T13:20:25Z</time>
      </trkpt>
      <trkpt lat="43.42956" lon="6.09821">
        <ele>280.27038574219</ele>
        <time>2014-06-07T13:20:30Z</time>
      </trkpt>
      <trkpt lat="43.42956" lon="6.09834">
        <ele>280.01516723633</ele>
        <time>2014-06-07T13:20:37Z</time>
      </trkpt>
      <trkpt lat="43.42957" lon="6.09841">
        <ele>280.666015625</ele>
        <time>2014-06-07T13:20:43Z</time>
      </trkpt>
      <trkpt lat="43.42957" lon="6.09841">
        <ele>280.666015625</ele>
        <time>2014-06-07T13:20:53Z</time>
      </trkpt>
      <trkpt lat="43.42957" lon="6.09842">
        <ele>280.71878051758</ele>
        <time>2014-06-07T13:21:04Z</time>
      </trkpt>
      <trkpt lat="43.42957" lon="6.09842">
        <ele>280.71878051758</ele>
        <time>2014-06-07T13:21:16Z</time>
      </trkpt>
      <trkpt lat="43.42958" lon="6.09844">
        <ele>281.11761474609</ele>
        <time>2014-06-07T13:21:22Z</time>
      </trkpt>
      <trkpt lat="43.4296" lon="6.09848">
        <ele>281.5895690918</ele>
        <time>2014-06-07T13:21:25Z</time>
      </trkpt>
      <trkpt lat="43.4296" lon="6.09848">
        <ele>281.68087768555</ele>
        <time>2014-06-07T13:21:27Z</time>
      </trkpt>
      <trkpt lat="43.4296" lon="6.09848">
        <ele>281.68087768555</ele>
        <time>2014-06-07T13:21:41Z</time>
      </trkpt>
      <trkpt lat="43.4296" lon="6.09848">
        <ele>281.60705566406</ele>
        <time>2014-06-07T13:21:49Z</time>
      </trkpt>
      <trkpt lat="43.4296" lon="6.09848">
        <ele>281.60705566406</ele>
        <time>2014-06-07T13:22:02Z</time>
      </trkpt>
      <trkpt lat="43.4296" lon="6.09848">
        <ele>281.68829345703</ele>
        <time>2014-06-07T13:22:22Z</time>
      </trkpt>
      <trkpt lat="43.4296" lon="6.09848">
        <ele>281.78439331055</ele>
        <time>2014-06-07T13:22:45Z</time>
      </trkpt>
      <trkpt lat="43.4296" lon="6.09848">
        <ele>281.78439331055</ele>
        <time>2014-06-07T13:23:09Z</time>
      </trkpt>
      <trkpt lat="43.42961" lon="6.09849">
        <ele>281.88763427734</ele>
        <time>2014-06-07T13:24:10Z</time>
      </trkpt>
      <trkpt lat="43.42961" lon="6.09849">
        <ele>281.88763427734</ele>
        <time>2014-06-07T13:24:23Z</time>
      </trkpt>
      <trkpt lat="43.42961" lon="6.09849">
        <ele>281.88763427734</ele>
        <time>2014-06-07T13:24:40Z</time>
      </trkpt>
      <trkpt lat="43.4296" lon="6.09849">
        <ele>281.82604980469</ele>
        <time>2014-06-07T13:24:43Z</time>
      </trkpt>
      <trkpt lat="43.4296" lon="6.09849">
        <ele>281.82604980469</ele>
        <time>2014-06-07T13:24:49Z</time>
      </trkpt>
      <trkpt lat="43.4296" lon="6.09851">
        <ele>281.91915893555</ele>
        <time>2014-06-07T13:24:52Z</time>
      </trkpt>
      <trkpt lat="43.4296" lon="6.09862">
        <ele>282.31796264648</ele>
        <time>2014-06-07T13:24:56Z</time>
      </trkpt>
      <trkpt lat="43.4296" lon="6.09866">
        <ele>282.44155883789</ele>
        <time>2014-06-07T13:24:57Z</time>
      </trkpt>
      <trkpt lat="43.42957" lon="6.09885">
        <ele>282.64929199219</ele>
        <time>2014-06-07T13:25:03Z</time>
      </trkpt>
      <trkpt lat="43.42955" lon="6.09907">
        <ele>284.36407470703</ele>
        <time>2014-06-07T13:25:09Z</time>
      </trkpt>
      <trkpt lat="43.42954" lon="6.09918">
        <ele>285.23022460938</ele>
        <time>2014-06-07T13:25:13Z</time>
      </trkpt>
      <trkpt lat="43.42954" lon="6.09924">
        <ele>285.53234863281</ele>
        <time>2014-06-07T13:25:15Z</time>
      </trkpt>
      <trkpt lat="43.42953" lon="6.09926">
        <ele>285.63534545898</ele>
        <time>2014-06-07T13:25:16Z</time>
      </trkpt>
      <trkpt lat="43.42952" lon="6.09936">
        <ele>286.1022644043</ele>
        <time>2014-06-07T13:25:20Z</time>
      </trkpt>
      <trkpt lat="43.42952" lon="6.0994">
        <ele>286.28765869141</ele>
        <time>2014-06-07T13:25:23Z</time>
      </trkpt>
      <trkpt lat="43.42952" lon="6.0994">
        <ele>286.29452514648</ele>
        <time>2014-06-07T13:25:26Z</time>
      </trkpt>
      <trkpt lat="43.42952" lon="6.0994">
        <ele>286.29452514648</ele>
        <time>2014-06-07T13:25:28Z</time>
      </trkpt>
      <trkpt lat="43.42951" lon="6.09941">
        <ele>286.19494628906</ele>
        <time>2014-06-07T13:25:29Z</time>
      </trkpt>
      <trkpt lat="43.4295" lon="6.09944">
        <ele>286.11944580078</ele>
        <time>2014-06-07T13:25:32Z</time>
      </trkpt>
      <trkpt lat="43.42946" lon="6.09947">
        <ele>285.82009887695</ele>
        <time>2014-06-07T13:25:35Z</time>
      </trkpt>
      <trkpt lat="43.42945" lon="6.09949">
        <ele>285.67462158203</ele>
        <time>2014-06-07T13:25:36Z</time>
      </trkpt>
      <trkpt lat="43.42943" lon="6.0995">
        <ele>285.57409667969</ele>
        <time>2014-06-07T13:25:37Z</time>
      </trkpt>
      <trkpt lat="43.42942" lon="6.0995">
        <ele>285.49169921875</ele>
        <time>2014-06-07T13:25:38Z</time>
      </trkpt>
      <trkpt lat="43.42937" lon="6.0995">
        <ele>284.72265625</ele>
        <time>2014-06-07T13:25:41Z</time>
      </trkpt>
      <trkpt lat="43.42925" lon="6.09957">
        <ele>284.03601074219</ele>
        <time>2014-06-07T13:25:47Z</time>
      </trkpt>
      <trkpt lat="43.42913" lon="6.09966">
        <ele>283.70385742188</ele>
        <time>2014-06-07T13:25:53Z</time>
      </trkpt>
      <trkpt lat="43.42902" lon="6.09978">
        <ele>284.08129882812</ele>
        <time>2014-06-07T13:25:59Z</time>
      </trkpt>
      <trkpt lat="43.42896" lon="6.09989">
        <ele>284.61175537109</ele>
        <time>2014-06-07T13:26:04Z</time>
      </trkpt>
      <trkpt lat="43.42893" lon="6.09997">
        <ele>285.11642456055</ele>
        <time>2014-06-07T13:26:07Z</time>
      </trkpt>
      <trkpt lat="43.42888" lon="6.10006">
        <ele>285.61810302734</ele>
        <time>2014-06-07T13:26:12Z</time>
      </trkpt>
      <trkpt lat="43.42883" lon="6.10017">
        <ele>286.29516601562</ele>
        <time>2014-06-07T13:26:18Z</time>
      </trkpt>
      <trkpt lat="43.4288" lon="6.1002">
        <ele>286.28799438477</ele>
        <time>2014-06-07T13:26:20Z</time>
      </trkpt>
      <trkpt lat="43.42878" lon="6.10022">
        <ele>286.31524658203</ele>
        <time>2014-06-07T13:26:22Z</time>
      </trkpt>
      <trkpt lat="43.42875" lon="6.10024">
        <ele>286.23077392578</ele>
        <time>2014-06-07T13:26:24Z</time>
      </trkpt>
      <trkpt lat="43.42866" lon="6.10039">
        <ele>286.09478759766</ele>
        <time>2014-06-07T13:26:31Z</time>
      </trkpt>
      <trkpt lat="43.42865" lon="6.10041">
        <ele>286.09555053711</ele>
        <time>2014-06-07T13:26:32Z</time>
      </trkpt>
      <trkpt lat="43.42864" lon="6.10048">
        <ele>286.23873901367</ele>
        <time>2014-06-07T13:26:35Z</time>
      </trkpt>
      <trkpt lat="43.42865" lon="6.10066">
        <ele>287.81430053711</ele>
        <time>2014-06-07T13:26:40Z</time>
      </trkpt>
      <trkpt lat="43.42865" lon="6.10078">
        <ele>289.18585205078</ele>
        <time>2014-06-07T13:26:43Z</time>
      </trkpt>
      <trkpt lat="43.42865" lon="6.10086">
        <ele>289.8642578125</ele>
        <time>2014-06-07T13:26:45Z</time>
      </trkpt>
      <trkpt lat="43.42865" lon="6.10094">
        <ele>290.13681030273</ele>
        <time>2014-06-07T13:26:47Z</time>
      </trkpt>
      <trkpt lat="43.42865" lon="6.10098">
        <ele>290.31677246094</ele>
        <time>2014-06-07T13:26:48Z</time>
      </trkpt>
      <trkpt lat="43.42866" lon="6.10113">
        <ele>291.17349243164</ele>
        <time>2014-06-07T13:26:51Z</time>
      </trkpt>
      <trkpt lat="43.42866" lon="6.10125">
        <ele>292.13919067383</ele>
        <time>2014-06-07T13:26:53Z</time>
      </trkpt>
      <trkpt lat="43.42865" lon="6.1013">
        <ele>292.42498779297</ele>
        <time>2014-06-07T13:26:54Z</time>
      </trkpt>
      <trkpt lat="43.42863" lon="6.10136">
        <ele>292.44717407227</ele>
        <time>2014-06-07T13:26:55Z</time>
      </trkpt>
      <trkpt lat="43.42862" lon="6.10141">
        <ele>292.13067626953</ele>
        <time>2014-06-07T13:26:56Z</time>
      </trkpt>
      <trkpt lat="43.42859" lon="6.10145">
        <ele>291.46923828125</ele>
        <time>2014-06-07T13:26:57Z</time>
      </trkpt>
      <trkpt lat="43.4285" lon="6.10158">
        <ele>288.72265625</ele>
        <time>2014-06-07T13:27:00Z</time>
      </trkpt>
      <trkpt lat="43.42847" lon="6.10164">
        <ele>287.84375</ele>
        <time>2014-06-07T13:27:01Z</time>
      </trkpt>
      <trkpt lat="43.42844" lon="6.10169">
        <ele>286.91323852539</ele>
        <time>2014-06-07T13:27:02Z</time>
      </trkpt>
      <trkpt lat="43.42841" lon="6.10173">
        <ele>286.06713867188</ele>
        <time>2014-06-07T13:27:03Z</time>
      </trkpt>
      <trkpt lat="43.42838" lon="6.10178">
        <ele>285.28680419922</ele>
        <time>2014-06-07T13:27:04Z</time>
      </trkpt>
      <trkpt lat="43.42836" lon="6.10182">
        <ele>284.568359375</ele>
        <time>2014-06-07T13:27:05Z</time>
      </trkpt>
      <trkpt lat="43.4283" lon="6.10197">
        <ele>283.8913269043</ele>
        <time>2014-06-07T13:27:09Z</time>
      </trkpt>
      <trkpt lat="43.42827" lon="6.10204">
        <ele>284.31875610352</ele>
        <time>2014-06-07T13:27:13Z</time>
      </trkpt>
      <trkpt lat="43.42827" lon="6.10204">
        <ele>284.31875610352</ele>
        <time>2014-06-07T13:27:36Z</time>
      </trkpt>
      <trkpt lat="43.42827" lon="6.10204">
        <ele>284.31875610352</ele>
        <time>2014-06-07T13:27:45Z</time>
      </trkpt>
      <trkpt lat="43.42827" lon="6.10203">
        <ele>284.27239990234</ele>
        <time>2014-06-07T13:27:54Z</time>
      </trkpt>
      <trkpt lat="43.42826" lon="6.10205">
        <ele>284.38571166992</ele>
        <time>2014-06-07T13:27:57Z</time>
      </trkpt>
      <trkpt lat="43.42825" lon="6.10208">
        <ele>284.58654785156</ele>
        <time>2014-06-07T13:27:59Z</time>
      </trkpt>
      <trkpt lat="43.42822" lon="6.10215">
        <ele>285.07580566406</ele>
        <time>2014-06-07T13:28:02Z</time>
      </trkpt>
      <trkpt lat="43.42821" lon="6.10218">
        <ele>285.23028564453</ele>
        <time>2014-06-07T13:28:03Z</time>
      </trkpt>
      <trkpt lat="43.42819" lon="6.10221">
        <ele>285.34872436523</ele>
        <time>2014-06-07T13:28:04Z</time>
      </trkpt>
      <trkpt lat="43.42816" lon="6.10225">
        <ele>285.39477539062</ele>
        <time>2014-06-07T13:28:06Z</time>
      </trkpt>
      <trkpt lat="43.42813" lon="6.10228">
        <ele>285.35662841797</ele>
        <time>2014-06-07T13:28:08Z</time>
      </trkpt>
      <trkpt lat="43.42805" lon="6.1024">
        <ele>285.86221313477</ele>
        <time>2014-06-07T13:28:14Z</time>
      </trkpt>
      <trkpt lat="43.42803" lon="6.10242">
        <ele>286.03387451172</ele>
        <time>2014-06-07T13:28:18Z</time>
      </trkpt>
      <trkpt lat="43.428" lon="6.10252">
        <ele>286.93865966797</ele>
        <time>2014-06-07T13:28:22Z</time>
      </trkpt>
      <trkpt lat="43.42796" lon="6.10271">
        <ele>288.14715576172</ele>
        <time>2014-06-07T13:28:28Z</time>
      </trkpt>
      <trkpt lat="43.42791" lon="6.10297">
        <ele>290.17056274414</ele>
        <time>2014-06-07T13:28:36Z</time>
      </trkpt>
      <trkpt lat="43.42787" lon="6.10305">
        <ele>290.6282043457</ele>
        <time>2014-06-07T13:28:39Z</time>
      </trkpt>
      <trkpt lat="43.42782" lon="6.10313">
        <ele>290.83361816406</ele>
        <time>2014-06-07T13:28:42Z</time>
      </trkpt>
      <trkpt lat="43.42775" lon="6.10324">
        <ele>291.26797485352</ele>
        <time>2014-06-07T13:28:47Z</time>
      </trkpt>
      <trkpt lat="43.42773" lon="6.10337">
        <ele>291.94552612305</ele>
        <time>2014-06-07T13:28:52Z</time>
      </trkpt>
      <trkpt lat="43.42772" lon="6.10342">
        <ele>292.10861206055</ele>
        <time>2014-06-07T13:28:54Z</time>
      </trkpt>
      <trkpt lat="43.42772" lon="6.10346">
        <ele>292.25622558594</ele>
        <time>2014-06-07T13:28:56Z</time>
      </trkpt>
      <trkpt lat="43.42773" lon="6.10353">
        <ele>292.52575683594</ele>
        <time>2014-06-07T13:28:59Z</time>
      </trkpt>
      <trkpt lat="43.42773" lon="6.10361">
        <ele>292.81628417969</ele>
        <time>2014-06-07T13:29:02Z</time>
      </trkpt>
      <trkpt lat="43.42773" lon="6.10373">
        <ele>292.84375</ele>
        <time>2014-06-07T13:29:06Z</time>
      </trkpt>
      <trkpt lat="43.42774" lon="6.10375">
        <ele>292.87121582031</ele>
        <time>2014-06-07T13:29:07Z</time>
      </trkpt>
      <trkpt lat="43.42776" lon="6.10381">
        <ele>292.92614746094</ele>
        <time>2014-06-07T13:29:09Z</time>
      </trkpt>
      <trkpt lat="43.42783" lon="6.10396">
        <ele>293.3466796875</ele>
        <time>2014-06-07T13:29:15Z</time>
      </trkpt>
      <trkpt lat="43.42789" lon="6.10408">
        <ele>293.81359863281</ele>
        <time>2014-06-07T13:29:20Z</time>
      </trkpt>
      <trkpt lat="43.42793" lon="6.10427">
        <ele>294.11572265625</ele>
        <time>2014-06-07T13:29:27Z</time>
      </trkpt>
      <trkpt lat="43.42797" lon="6.10447">
        <ele>294.41784667969</ele>
        <time>2014-06-07T13:29:37Z</time>
      </trkpt>
      <trkpt lat="43.42798" lon="6.1045">
        <ele>294.47277832031</ele>
        <time>2014-06-07T13:29:39Z</time>
      </trkpt>
      <trkpt lat="43.42799" lon="6.10452">
        <ele>294.50024414062</ele>
        <time>2014-06-07T13:29:40Z</time>
      </trkpt>
      <trkpt lat="43.42799" lon="6.10457">
        <ele>294.52770996094</ele>
        <time>2014-06-07T13:29:43Z</time>
      </trkpt>
      <trkpt lat="43.42799" lon="6.10461">
        <ele>294.55517578125</ele>
        <time>2014-06-07T13:29:45Z</time>
      </trkpt>
      <trkpt lat="43.428" lon="6.10461">
        <ele>294.61010742188</ele>
        <time>2014-06-07T13:29:48Z</time>
      </trkpt>
      <trkpt lat="43.428" lon="6.10461">
        <ele>294.61010742188</ele>
        <time>2014-06-07T13:29:59Z</time>
      </trkpt>
      <trkpt lat="43.428" lon="6.10465">
        <ele>294.61010742188</ele>
        <time>2014-06-07T13:30:09Z</time>
      </trkpt>
      <trkpt lat="43.42803" lon="6.1048">
        <ele>294.53527832031</ele>
        <time>2014-06-07T13:30:14Z</time>
      </trkpt>
      <trkpt lat="43.42806" lon="6.10504">
        <ele>294.02478027344</ele>
        <time>2014-06-07T13:30:20Z</time>
      </trkpt>
      <trkpt lat="43.42808" lon="6.10513">
        <ele>294.07971191406</ele>
        <time>2014-06-07T13:30:22Z</time>
      </trkpt>
      <trkpt lat="43.4281" lon="6.10523">
        <ele>294.17584228516</ele>
        <time>2014-06-07T13:30:24Z</time>
      </trkpt>
      <trkpt lat="43.42813" lon="6.10532">
        <ele>294.10461425781</ele>
        <time>2014-06-07T13:30:26Z</time>
      </trkpt>
      <trkpt lat="43.42823" lon="6.10561">
        <ele>293.62902832031</ele>
        <time>2014-06-07T13:30:31Z</time>
      </trkpt>
      <trkpt lat="43.42829" lon="6.1058">
        <ele>293.84875488281</ele>
        <time>2014-06-07T13:30:34Z</time>
      </trkpt>
      <trkpt lat="43.42833" lon="6.10594">
        <ele>293.57165527344</ele>
        <time>2014-06-07T13:30:36Z</time>
      </trkpt>
      <trkpt lat="43.42837" lon="6.10617">
        <ele>293.13714599609</ele>
        <time>2014-06-07T13:30:39Z</time>
      </trkpt>
      <trkpt lat="43.42841" lon="6.10631">
        <ele>293.27447509766</ele>
        <time>2014-06-07T13:30:41Z</time>
      </trkpt>
      <trkpt lat="43.42842" lon="6.10638">
        <ele>293.32940673828</ele>
        <time>2014-06-07T13:30:42Z</time>
      </trkpt>
      <trkpt lat="43.42841" lon="6.10652">
        <ele>293.28820800781</ele>
        <time>2014-06-07T13:30:44Z</time>
      </trkpt>
      <trkpt lat="43.42838" lon="6.10675">
        <ele>292.87658691406</ele>
        <time>2014-06-07T13:30:47Z</time>
      </trkpt>
      <trkpt lat="43.42838" lon="6.1069">
        <ele>292.30667114258</ele>
        <time>2014-06-07T13:30:49Z</time>
      </trkpt>
      <trkpt lat="43.42839" lon="6.10752">
        <ele>291.14559936523</ele>
        <time>2014-06-07T13:30:58Z</time>
      </trkpt>
      <trkpt lat="43.42838" lon="6.10774">
        <ele>290.47711181641</ele>
        <time>2014-06-07T13:31:01Z</time>
      </trkpt>
      <trkpt lat="43.42833" lon="6.10815">
        <ele>288.65466308594</ele>
        <time>2014-06-07T13:31:07Z</time>
      </trkpt>
      <trkpt lat="43.42822" lon="6.10865">
        <ele>286.43850708008</ele>
        <time>2014-06-07T13:31:15Z</time>
      </trkpt>
      <trkpt lat="43.42814" lon="6.10884">
        <ele>285.48236083984</ele>
        <time>2014-06-07T13:31:18Z</time>
      </trkpt>
      <trkpt lat="43.42812" lon="6.109">
        <ele>284.84719848633</ele>
        <time>2014-06-07T13:31:20Z</time>
      </trkpt>
      <trkpt lat="43.42812" lon="6.10916">
        <ele>284.22406005859</ele>
        <time>2014-06-07T13:31:22Z</time>
      </trkpt>
      <trkpt lat="43.42812" lon="6.10925">
        <ele>283.67251586914</ele>
        <time>2014-06-07T13:31:23Z</time>
      </trkpt>
      <trkpt lat="43.42812" lon="6.10942">
        <ele>282.61965942383</ele>
        <time>2014-06-07T13:31:25Z</time>
      </trkpt>
      <trkpt lat="43.42812" lon="6.10949">
        <ele>282.46154785156</ele>
        <time>2014-06-07T13:31:26Z</time>
      </trkpt>
      <trkpt lat="43.42814" lon="6.10964">
        <ele>282.59887695312</ele>
        <time>2014-06-07T13:31:28Z</time>
      </trkpt>
      <trkpt lat="43.4282" lon="6.10975">
        <ele>282.83636474609</ele>
        <time>2014-06-07T13:31:30Z</time>
      </trkpt>
      <trkpt lat="43.42827" lon="6.10983">
        <ele>282.72994995117</ele>
        <time>2014-06-07T13:31:32Z</time>
      </trkpt>
      <trkpt lat="43.42839" lon="6.10999">
        <ele>282.89630126953</ele>
        <time>2014-06-07T13:31:36Z</time>
      </trkpt>
      <trkpt lat="43.42846" lon="6.1101">
        <ele>283.35034179688</ele>
        <time>2014-06-07T13:31:39Z</time>
      </trkpt>
      <trkpt lat="43.42849" lon="6.11016">
        <ele>283.81756591797</ele>
        <time>2014-06-07T13:31:41Z</time>
      </trkpt>
      <trkpt lat="43.42852" lon="6.11022">
        <ele>284.08541870117</ele>
        <time>2014-06-07T13:31:43Z</time>
      </trkpt>
      <trkpt lat="43.42855" lon="6.11031">
        <ele>284.52508544922</ele>
        <time>2014-06-07T13:31:46Z</time>
      </trkpt>
      <trkpt lat="43.42855" lon="6.11034">
        <ele>284.60195922852</ele>
        <time>2014-06-07T13:31:47Z</time>
      </trkpt>
      <trkpt lat="43.42859" lon="6.11043">
        <ele>285.01776123047</ele>
        <time>2014-06-07T13:31:50Z</time>
      </trkpt>
      <trkpt lat="43.42863" lon="6.11061">
        <ele>284.87152099609</ele>
        <time>2014-06-07T13:31:56Z</time>
      </trkpt>
      <trkpt lat="43.42863" lon="6.11064">
        <ele>284.76336669922</ele>
        <time>2014-06-07T13:31:57Z</time>
      </trkpt>
      <trkpt lat="43.42863" lon="6.11068">
        <ele>284.63119506836</ele>
        <time>2014-06-07T13:31:58Z</time>
      </trkpt>
      <trkpt lat="43.42862" lon="6.11074">
        <ele>284.36856079102</ele>
        <time>2014-06-07T13:32:00Z</time>
      </trkpt>
      <trkpt lat="43.42857" lon="6.11086">
        <ele>283.70440673828</ele>
        <time>2014-06-07T13:32:05Z</time>
      </trkpt>
      <trkpt lat="43.42853" lon="6.11094">
        <ele>283.6376953125</ele>
        <time>2014-06-07T13:32:09Z</time>
      </trkpt>
      <trkpt lat="43.4285" lon="6.111">
        <ele>283.69964599609</ele>
        <time>2014-06-07T13:32:12Z</time>
      </trkpt>
      <trkpt lat="43.42851" lon="6.11113">
        <ele>283.94674682617</ele>
        <time>2014-06-07T13:32:18Z</time>
      </trkpt>
      <trkpt lat="43.42852" lon="6.11118">
        <ele>283.82434082031</ele>
        <time>2014-06-07T13:32:20Z</time>
      </trkpt>
      <trkpt lat="43.42856" lon="6.11125">
        <ele>283.59823608398</ele>
        <time>2014-06-07T13:32:23Z</time>
      </trkpt>
      <trkpt lat="43.42867" lon="6.11139">
        <ele>282.99215698242</ele>
        <time>2014-06-07T13:32:29Z</time>
      </trkpt>
      <trkpt lat="43.42878" lon="6.11159">
        <ele>282.2780456543</ele>
        <time>2014-06-07T13:32:34Z</time>
      </trkpt>
      <trkpt lat="43.42892" lon="6.11186">
        <ele>282.02920532227</ele>
        <time>2014-06-07T13:32:40Z</time>
      </trkpt>
      <trkpt lat="43.42896" lon="6.11199">
        <ele>281.85153198242</ele>
        <time>2014-06-07T13:32:42Z</time>
      </trkpt>
      <trkpt lat="43.42897" lon="6.11215">
        <ele>281.24212646484</ele>
        <time>2014-06-07T13:32:45Z</time>
      </trkpt>
      <trkpt lat="43.42896" lon="6.11219">
        <ele>281.12197875977</ele>
        <time>2014-06-07T13:32:46Z</time>
      </trkpt>
      <trkpt lat="43.42877" lon="6.1124">
        <ele>280.24856567383</ele>
        <time>2014-06-07T13:32:54Z</time>
      </trkpt>
      <trkpt lat="43.42865" lon="6.11258">
        <ele>280.36575317383</ele>
        <time>2014-06-07T13:33:00Z</time>
      </trkpt>
      <trkpt lat="43.42855" lon="6.11273">
        <ele>280.40475463867</ele>
        <time>2014-06-07T13:33:05Z</time>
      </trkpt>
      <trkpt lat="43.42848" lon="6.11293">
        <ele>280.47833251953</ele>
        <time>2014-06-07T13:33:10Z</time>
      </trkpt>
      <trkpt lat="43.42831" lon="6.11331">
        <ele>280.09478759766</ele>
        <time>2014-06-07T13:33:19Z</time>
      </trkpt>
      <trkpt lat="43.42813" lon="6.11366">
        <ele>280</ele>
        <time>2014-06-07T13:33:27Z</time>
      </trkpt>
      <trkpt lat="43.42799" lon="6.11379">
        <ele>280</ele>
        <time>2014-06-07T13:33:31Z</time>
      </trkpt>
      <trkpt lat="43.42787" lon="6.11387">
        <ele>280</ele>
        <time>2014-06-07T13:33:34Z</time>
      </trkpt>
      <trkpt lat="43.4278" lon="6.11393">
        <ele>280</ele>
        <time>2014-06-07T13:33:36Z</time>
      </trkpt>
      <trkpt lat="43.4277" lon="6.11406">
        <ele>280</ele>
        <time>2014-06-07T13:33:39Z</time>
      </trkpt>
      <trkpt lat="43.42766" lon="6.11417">
        <ele>280</ele>
        <time>2014-06-07T13:33:41Z</time>
      </trkpt>
      <trkpt lat="43.42761" lon="6.11428">
        <ele>280</ele>
        <time>2014-06-07T13:33:43Z</time>
      </trkpt>
      <trkpt lat="43.42759" lon="6.11433">
        <ele>280</ele>
        <time>2014-06-07T13:33:44Z</time>
      </trkpt>
      <trkpt lat="43.42754" lon="6.11446">
        <ele>279.97702026367</ele>
        <time>2014-06-07T13:33:48Z</time>
      </trkpt>
      <trkpt lat="43.42754" lon="6.1145">
        <ele>279.95120239258</ele>
        <time>2014-06-07T13:33:49Z</time>
      </trkpt>
      <trkpt lat="43.42752" lon="6.11456">
        <ele>279.94009399414</ele>
        <time>2014-06-07T13:33:51Z</time>
      </trkpt>
      <trkpt lat="43.42751" lon="6.11458">
        <ele>279.96807861328</ele>
        <time>2014-06-07T13:33:52Z</time>
      </trkpt>
      <trkpt lat="43.4275" lon="6.11461">
        <ele>279.99545288086</ele>
        <time>2014-06-07T13:33:54Z</time>
      </trkpt>
      <trkpt lat="43.42749" lon="6.11463">
        <ele>279.98568725586</ele>
        <time>2014-06-07T13:33:59Z</time>
      </trkpt>
      <trkpt lat="43.42749" lon="6.11463">
        <ele>279.9856262207</ele>
        <time>2014-06-07T13:34:02Z</time>
      </trkpt>
      <trkpt lat="43.42749" lon="6.11463">
        <ele>279.9856262207</ele>
        <time>2014-06-07T13:34:21Z</time>
      </trkpt>
      <trkpt lat="43.42749" lon="6.11463">
        <ele>279.9856262207</ele>
        <time>2014-06-07T13:34:37Z</time>
      </trkpt>
      <trkpt lat="43.42749" lon="6.11465">
        <ele>279.96463012695</ele>
        <time>2014-06-07T13:34:45Z</time>
      </trkpt>
      <trkpt lat="43.42748" lon="6.11467">
        <ele>279.93780517578</ele>
        <time>2014-06-07T13:34:46Z</time>
      </trkpt>
      <trkpt lat="43.42745" lon="6.11478">
        <ele>279.28845214844</ele>
        <time>2014-06-07T13:34:49Z</time>
      </trkpt>
      <trkpt lat="43.42743" lon="6.11483">
        <ele>278.65267944336</ele>
        <time>2014-06-07T13:34:51Z</time>
      </trkpt>
      <trkpt lat="43.42741" lon="6.11498">
        <ele>277.20330810547</ele>
        <time>2014-06-07T13:34:55Z</time>
      </trkpt>
      <trkpt lat="43.42741" lon="6.11503">
        <ele>276.81015014648</ele>
        <time>2014-06-07T13:34:56Z</time>
      </trkpt>
      <trkpt lat="43.42742" lon="6.11509">
        <ele>276.45593261719</ele>
        <time>2014-06-07T13:34:57Z</time>
      </trkpt>
      <trkpt lat="43.42744" lon="6.11514">
        <ele>276.06213378906</ele>
        <time>2014-06-07T13:34:58Z</time>
      </trkpt>
      <trkpt lat="43.42747" lon="6.1152">
        <ele>275.60162353516</ele>
        <time>2014-06-07T13:34:59Z</time>
      </trkpt>
      <trkpt lat="43.4275" lon="6.11527">
        <ele>275.09326171875</ele>
        <time>2014-06-07T13:35:00Z</time>
      </trkpt>
      <trkpt lat="43.42752" lon="6.1154">
        <ele>273.97518920898</ele>
        <time>2014-06-07T13:35:02Z</time>
      </trkpt>
      <trkpt lat="43.42753" lon="6.11546">
        <ele>273.46362304688</ele>
        <time>2014-06-07T13:35:03Z</time>
      </trkpt>
      <trkpt lat="43.42754" lon="6.11551">
        <ele>273.02075195312</ele>
        <time>2014-06-07T13:35:04Z</time>
      </trkpt>
      <trkpt lat="43.42754" lon="6.11556">
        <ele>272.65338134766</ele>
        <time>2014-06-07T13:35:05Z</time>
      </trkpt>
      <trkpt lat="43.42755" lon="6.11561">
        <ele>272.23455810547</ele>
        <time>2014-06-07T13:35:06Z</time>
      </trkpt>
      <trkpt lat="43.42757" lon="6.1158">
        <ele>270.74450683594</ele>
        <time>2014-06-07T13:35:10Z</time>
      </trkpt>
      <trkpt lat="43.42757" lon="6.11588">
        <ele>270.10067749023</ele>
        <time>2014-06-07T13:35:12Z</time>
      </trkpt>
      <trkpt lat="43.42759" lon="6.11596">
        <ele>269.3203125</ele>
        <time>2014-06-07T13:35:14Z</time>
      </trkpt>
      <trkpt lat="43.42759" lon="6.116">
        <ele>268.96957397461</ele>
        <time>2014-06-07T13:35:15Z</time>
      </trkpt>
      <trkpt lat="43.42754" lon="6.11624">
        <ele>267.61767578125</ele>
        <time>2014-06-07T13:35:21Z</time>
      </trkpt>
      <trkpt lat="43.42742" lon="6.11636">
        <ele>267.47183227539</ele>
        <time>2014-06-07T13:35:25Z</time>
      </trkpt>
      <trkpt lat="43.42729" lon="6.11643">
        <ele>267.61227416992</ele>
        <time>2014-06-07T13:35:29Z</time>
      </trkpt>
      <trkpt lat="43.42727" lon="6.11644">
        <ele>267.66204833984</ele>
        <time>2014-06-07T13:35:30Z</time>
      </trkpt>
      <trkpt lat="43.42725" lon="6.11645">
        <ele>267.66546630859</ele>
        <time>2014-06-07T13:35:31Z</time>
      </trkpt>
      <trkpt lat="43.4272" lon="6.11656">
        <ele>267.27099609375</ele>
        <time>2014-06-07T13:35:34Z</time>
      </trkpt>
      <trkpt lat="43.42716" lon="6.11674">
        <ele>266.17401123047</ele>
        <time>2014-06-07T13:35:39Z</time>
      </trkpt>
      <trkpt lat="43.42723" lon="6.11685">
        <ele>265.67718505859</ele>
        <time>2014-06-07T13:35:43Z</time>
      </trkpt>
      <trkpt lat="43.42728" lon="6.11691">
        <ele>265.04547119141</ele>
        <time>2014-06-07T13:35:45Z</time>
      </trkpt>
      <trkpt lat="43.42731" lon="6.11693">
        <ele>264.79486083984</ele>
        <time>2014-06-07T13:35:46Z</time>
      </trkpt>
      <trkpt lat="43.42733" lon="6.11695">
        <ele>264.60641479492</ele>
        <time>2014-06-07T13:35:47Z</time>
      </trkpt>
      <trkpt lat="43.42734" lon="6.11697">
        <ele>264.37414550781</ele>
        <time>2014-06-07T13:35:48Z</time>
      </trkpt>
      <trkpt lat="43.42736" lon="6.117">
        <ele>264.04364013672</ele>
        <time>2014-06-07T13:35:49Z</time>
      </trkpt>
      <trkpt lat="43.42737" lon="6.11702">
        <ele>263.7431640625</ele>
        <time>2014-06-07T13:35:50Z</time>
      </trkpt>
      <trkpt lat="43.42738" lon="6.11705">
        <ele>263.48736572266</ele>
        <time>2014-06-07T13:35:51Z</time>
      </trkpt>
      <trkpt lat="43.42739" lon="6.11706">
        <ele>263.33401489258</ele>
        <time>2014-06-07T13:35:52Z</time>
      </trkpt>
      <trkpt lat="43.42739" lon="6.11708">
        <ele>263.11068725586</ele>
        <time>2014-06-07T13:35:53Z</time>
      </trkpt>
      <trkpt lat="43.42741" lon="6.1171">
        <ele>262.78253173828</ele>
        <time>2014-06-07T13:35:54Z</time>
      </trkpt>
      <trkpt lat="43.42743" lon="6.11711">
        <ele>262.62884521484</ele>
        <time>2014-06-07T13:35:55Z</time>
      </trkpt>
      <trkpt lat="43.42743" lon="6.11711">
        <ele>262.58963012695</ele>
        <time>2014-06-07T13:35:56Z</time>
      </trkpt>
      <trkpt lat="43.42743" lon="6.11711">
        <ele>262.58963012695</ele>
        <time>2014-06-07T13:36:06Z</time>
      </trkpt>
      <trkpt lat="43.42743" lon="6.11711">
        <ele>262.58016967773</ele>
        <time>2014-06-07T13:36:22Z</time>
      </trkpt>
      <trkpt lat="43.42745" lon="6.1171">
        <ele>262.6032409668</ele>
        <time>2014-06-07T13:36:28Z</time>
      </trkpt>
      <trkpt lat="43.42745" lon="6.1171">
        <ele>262.6032409668</ele>
        <time>2014-06-07T13:36:47Z</time>
      </trkpt>
      <trkpt lat="43.42745" lon="6.1171">
        <ele>262.6032409668</ele>
        <time>2014-06-07T13:37:04Z</time>
      </trkpt>
      <trkpt lat="43.42745" lon="6.1171">
        <ele>262.63705444336</ele>
        <time>2014-06-07T13:37:18Z</time>
      </trkpt>
      <trkpt lat="43.42745" lon="6.1171">
        <ele>262.63705444336</ele>
        <time>2014-06-07T13:37:26Z</time>
      </trkpt>
      <trkpt lat="43.42747" lon="6.1171">
        <ele>262.54544067383</ele>
        <time>2014-06-07T13:37:32Z</time>
      </trkpt>
      <trkpt lat="43.42747" lon="6.1171">
        <ele>262.54544067383</ele>
        <time>2014-06-07T13:37:42Z</time>
      </trkpt>
      <trkpt lat="43.42747" lon="6.1171">
        <ele>262.54544067383</ele>
        <time>2014-06-07T13:37:52Z</time>
      </trkpt>
      <trkpt lat="43.42749" lon="6.11709">
        <ele>262.42755126953</ele>
        <time>2014-06-07T13:37:54Z</time>
      </trkpt>
      <trkpt lat="43.42755" lon="6.1171">
        <ele>261.3044128418</ele>
        <time>2014-06-07T13:37:56Z</time>
      </trkpt>
      <trkpt lat="43.42758" lon="6.11717">
        <ele>259.70004272461</ele>
        <time>2014-06-07T13:37:59Z</time>
      </trkpt>
      <trkpt lat="43.42759" lon="6.1172">
        <ele>259.11108398438</ele>
        <time>2014-06-07T13:38:00Z</time>
      </trkpt>
      <trkpt lat="43.42765" lon="6.11721">
        <ele>257.56295776367</ele>
        <time>2014-06-07T13:38:02Z</time>
      </trkpt>
      <trkpt lat="43.42768" lon="6.11719">
        <ele>257.15829467773</ele>
        <time>2014-06-07T13:38:03Z</time>
      </trkpt>
      <trkpt lat="43.42771" lon="6.11716">
        <ele>256.8571472168</ele>
        <time>2014-06-07T13:38:04Z</time>
      </trkpt>
      <trkpt lat="43.42777" lon="6.11711">
        <ele>256.61993408203</ele>
        <time>2014-06-07T13:38:06Z</time>
      </trkpt>
      <trkpt lat="43.42783" lon="6.11705">
        <ele>255.52409362793</ele>
        <time>2014-06-07T13:38:08Z</time>
      </trkpt>
      <trkpt lat="43.42786" lon="6.11702">
        <ele>255.01727294922</ele>
        <time>2014-06-07T13:38:09Z</time>
      </trkpt>
      <trkpt lat="43.42788" lon="6.11699">
        <ele>254.39363098144</ele>
        <time>2014-06-07T13:38:10Z</time>
      </trkpt>
      <trkpt lat="43.42791" lon="6.11695">
        <ele>253.86401367188</ele>
        <time>2014-06-07T13:38:11Z</time>
      </trkpt>
      <trkpt lat="43.42796" lon="6.11691">
        <ele>251.94259643555</ele>
        <time>2014-06-07T13:38:13Z</time>
      </trkpt>
      <trkpt lat="43.42801" lon="6.11691">
        <ele>249.63195800781</ele>
        <time>2014-06-07T13:38:15Z</time>
      </trkpt>
      <trkpt lat="43.42803" lon="6.11694">
        <ele>248.193359375</ele>
        <time>2014-06-07T13:38:16Z</time>
      </trkpt>
      <trkpt lat="43.42806" lon="6.11699">
        <ele>246.57641601562</ele>
        <time>2014-06-07T13:38:17Z</time>
      </trkpt>
      <trkpt lat="43.42809" lon="6.11706">
        <ele>245.3924407959</ele>
        <time>2014-06-07T13:38:18Z</time>
      </trkpt>
      <trkpt lat="43.42811" lon="6.11721">
        <ele>243.85350036621</ele>
        <time>2014-06-07T13:38:20Z</time>
      </trkpt>
      <trkpt lat="43.4281" lon="6.11735">
        <ele>242.96426391602</ele>
        <time>2014-06-07T13:38:22Z</time>
      </trkpt>
      <trkpt lat="43.42807" lon="6.1174">
        <ele>242.78504943848</ele>
        <time>2014-06-07T13:38:23Z</time>
      </trkpt>
      <trkpt lat="43.42806" lon="6.11746">
        <ele>242.37612915039</ele>
        <time>2014-06-07T13:38:24Z</time>
      </trkpt>
      <trkpt lat="43.42804" lon="6.11753">
        <ele>242.31495666504</ele>
        <time>2014-06-07T13:38:25Z</time>
      </trkpt>
      <trkpt lat="43.42802" lon="6.11757">
        <ele>242.56845092773</ele>
        <time>2014-06-07T13:38:26Z</time>
      </trkpt>
      <trkpt lat="43.428" lon="6.11761">
        <ele>242.99606323242</ele>
        <time>2014-06-07T13:38:27Z</time>
      </trkpt>
      <trkpt lat="43.42799" lon="6.11765">
        <ele>243.04142761231</ele>
        <time>2014-06-07T13:38:28Z</time>
      </trkpt>
      <trkpt lat="43.42798" lon="6.11774">
        <ele>242.38050842285</ele>
        <time>2014-06-07T13:38:30Z</time>
      </trkpt>
      <trkpt lat="43.42799" lon="6.11778">
        <ele>241.70776367188</ele>
        <time>2014-06-07T13:38:31Z</time>
      </trkpt>
      <trkpt lat="43.42802" lon="6.11791">
        <ele>239.48544311523</ele>
        <time>2014-06-07T13:38:34Z</time>
      </trkpt>
      <trkpt lat="43.42803" lon="6.118">
        <ele>238.19860839844</ele>
        <time>2014-06-07T13:38:36Z</time>
      </trkpt>
      <trkpt lat="43.42809" lon="6.11825">
        <ele>235.14616394043</ele>
        <time>2014-06-07T13:38:42Z</time>
      </trkpt>
      <trkpt lat="43.42807" lon="6.11839">
        <ele>234.61952209473</ele>
        <time>2014-06-07T13:38:46Z</time>
      </trkpt>
      <trkpt lat="43.42802" lon="6.11856">
        <ele>234.89324951172</ele>
        <time>2014-06-07T13:38:51Z</time>
      </trkpt>
      <trkpt lat="43.42798" lon="6.11858">
        <ele>235.49577331543</ele>
        <time>2014-06-07T13:38:53Z</time>
      </trkpt>
      <trkpt lat="43.42789" lon="6.11857">
        <ele>237.12826538086</ele>
        <time>2014-06-07T13:38:57Z</time>
      </trkpt>
      <trkpt lat="43.4278" lon="6.11849">
        <ele>239.0354309082</ele>
        <time>2014-06-07T13:39:02Z</time>
      </trkpt>
      <trkpt lat="43.42776" lon="6.11851">
        <ele>239.60340881348</ele>
        <time>2014-06-07T13:39:04Z</time>
      </trkpt>
      <trkpt lat="43.42767" lon="6.11855">
        <ele>240.76905822754</ele>
        <time>2014-06-07T13:39:10Z</time>
      </trkpt>
      <trkpt lat="43.42762" lon="6.11859">
        <ele>241.03788757324</ele>
        <time>2014-06-07T13:39:14Z</time>
      </trkpt>
      <trkpt lat="43.42759" lon="6.11859">
        <ele>241.31604003906</ele>
        <time>2014-06-07T13:39:16Z</time>
      </trkpt>
      <trkpt lat="43.42755" lon="6.1186">
        <ele>241.63349914551</ele>
        <time>2014-06-07T13:39:20Z</time>
      </trkpt>
      <trkpt lat="43.42751" lon="6.11863">
        <ele>241.77967834473</ele>
        <time>2014-06-07T13:39:23Z</time>
      </trkpt>
      <trkpt lat="43.42749" lon="6.11864">
        <ele>241.91311645508</ele>
        <time>2014-06-07T13:39:24Z</time>
      </trkpt>
      <trkpt lat="43.42746" lon="6.11868">
        <ele>242.69589233398</ele>
        <time>2014-06-07T13:39:27Z</time>
      </trkpt>
      <trkpt lat="43.42744" lon="6.11871">
        <ele>242.97225952148</ele>
        <time>2014-06-07T13:39:29Z</time>
      </trkpt>
      <trkpt lat="43.42741" lon="6.11871">
        <ele>244.07604980469</ele>
        <time>2014-06-07T13:39:31Z</time>
      </trkpt>
      <trkpt lat="43.42739" lon="6.11871">
        <ele>244.98585510254</ele>
        <time>2014-06-07T13:39:33Z</time>
      </trkpt>
      <trkpt lat="43.42736" lon="6.11872">
        <ele>245.68623352051</ele>
        <time>2014-06-07T13:39:36Z</time>
      </trkpt>
      <trkpt lat="43.42736" lon="6.11872">
        <ele>245.68623352051</ele>
        <time>2014-06-07T13:39:57Z</time>
      </trkpt>
      <trkpt lat="43.42736" lon="6.11872">
        <ele>245.68623352051</ele>
        <time>2014-06-07T13:40:13Z</time>
      </trkpt>
      <trkpt lat="43.42733" lon="6.11873">
        <ele>246.97712707519</ele>
        <time>2014-06-07T13:40:19Z</time>
      </trkpt>
      <trkpt lat="43.42725" lon="6.11877">
        <ele>249.46450805664</ele>
        <time>2014-06-07T13:40:24Z</time>
      </trkpt>
      <trkpt lat="43.42717" lon="6.11882">
        <ele>251.64860534668</ele>
        <time>2014-06-07T13:40:29Z</time>
      </trkpt>
      <trkpt lat="43.42715" lon="6.11884">
        <ele>252.25984191894</ele>
        <time>2014-06-07T13:40:30Z</time>
      </trkpt>
      <trkpt lat="43.42704" lon="6.11892">
        <ele>256.13534545898</ele>
        <time>2014-06-07T13:40:35Z</time>
      </trkpt>
      <trkpt lat="43.427" lon="6.11905">
        <ele>256.43478393555</ele>
        <time>2014-06-07T13:40:39Z</time>
      </trkpt>
      <trkpt lat="43.42701" lon="6.11909">
        <ele>255.95167541504</ele>
        <time>2014-06-07T13:40:40Z</time>
      </trkpt>
      <trkpt lat="43.42703" lon="6.11923">
        <ele>254.05920410156</ele>
        <time>2014-06-07T13:40:43Z</time>
      </trkpt>
      <trkpt lat="43.42705" lon="6.11928">
        <ele>252.99084472656</ele>
        <time>2014-06-07T13:40:44Z</time>
      </trkpt>
      <trkpt lat="43.42711" lon="6.11935">
        <ele>249.85939025879</ele>
        <time>2014-06-07T13:40:46Z</time>
      </trkpt>
      <trkpt lat="43.42718" lon="6.11941">
        <ele>246.1376953125</ele>
        <time>2014-06-07T13:40:48Z</time>
      </trkpt>
      <trkpt lat="43.42724" lon="6.11948">
        <ele>243.13340759277</ele>
        <time>2014-06-07T13:40:50Z</time>
      </trkpt>
      <trkpt lat="43.42731" lon="6.11954">
        <ele>241.38038635254</ele>
        <time>2014-06-07T13:40:52Z</time>
      </trkpt>
      <trkpt lat="43.42735" lon="6.11962">
        <ele>240.03979492188</ele>
        <time>2014-06-07T13:40:54Z</time>
      </trkpt>
      <trkpt lat="43.42736" lon="6.11981">
        <ele>238.87260437012</ele>
        <time>2014-06-07T13:40:58Z</time>
      </trkpt>
      <trkpt lat="43.42735" lon="6.11994">
        <ele>238.68977355957</ele>
        <time>2014-06-07T13:41:01Z</time>
      </trkpt>
      <trkpt lat="43.42737" lon="6.12023">
        <ele>238.38130187988</ele>
        <time>2014-06-07T13:41:07Z</time>
      </trkpt>
      <trkpt lat="43.42735" lon="6.12035">
        <ele>238.84120178223</ele>
        <time>2014-06-07T13:41:10Z</time>
      </trkpt>
      <trkpt lat="43.42736" lon="6.12045">
        <ele>238.75106811523</ele>
        <time>2014-06-07T13:41:12Z</time>
      </trkpt>
      <trkpt lat="43.42737" lon="6.12065">
        <ele>239.17082214356</ele>
        <time>2014-06-07T13:41:16Z</time>
      </trkpt>
      <trkpt lat="43.4274" lon="6.12079">
        <ele>239.32015991211</ele>
        <time>2014-06-07T13:41:19Z</time>
      </trkpt>
      <trkpt lat="43.42749" lon="6.12102">
        <ele>238.140625</ele>
        <time>2014-06-07T13:41:23Z</time>
      </trkpt>
      <trkpt lat="43.42751" lon="6.12107">
        <ele>237.66931152344</ele>
        <time>2014-06-07T13:41:24Z</time>
      </trkpt>
      <trkpt lat="43.4276" lon="6.12121">
        <ele>235.36218261719</ele>
        <time>2014-06-07T13:41:28Z</time>
      </trkpt>
      <trkpt lat="43.42761" lon="6.12124">
        <ele>235.169921875</ele>
        <time>2014-06-07T13:41:29Z</time>
      </trkpt>
      <trkpt lat="43.42763" lon="6.12128">
        <ele>234.78540039062</ele>
        <time>2014-06-07T13:41:30Z</time>
      </trkpt>
      <trkpt lat="43.42769" lon="6.1214">
        <ele>233.15118408203</ele>
        <time>2014-06-07T13:41:33Z</time>
      </trkpt>
      <trkpt lat="43.42778" lon="6.12155">
        <ele>230.81742858887</ele>
        <time>2014-06-07T13:41:36Z</time>
      </trkpt>
      <trkpt lat="43.42783" lon="6.12163">
        <ele>229.36932373047</ele>
        <time>2014-06-07T13:41:38Z</time>
      </trkpt>
      <trkpt lat="43.42785" lon="6.12166">
        <ele>228.83650207519</ele>
        <time>2014-06-07T13:41:39Z</time>
      </trkpt>
      <trkpt lat="43.42787" lon="6.12168">
        <ele>227.89360046387</ele>
        <time>2014-06-07T13:41:40Z</time>
      </trkpt>
      <trkpt lat="43.4279" lon="6.1217">
        <ele>226.79028320312</ele>
        <time>2014-06-07T13:41:41Z</time>
      </trkpt>
      <trkpt lat="43.42793" lon="6.12171">
        <ele>225.85234069824</ele>
        <time>2014-06-07T13:41:42Z</time>
      </trkpt>
      <trkpt lat="43.42799" lon="6.12173">
        <ele>223.57601928711</ele>
        <time>2014-06-07T13:41:45Z</time>
      </trkpt>
      <trkpt lat="43.42802" lon="6.12173">
        <ele>222.84344482422</ele>
        <time>2014-06-07T13:41:46Z</time>
      </trkpt>
      <trkpt lat="43.42806" lon="6.12172">
        <ele>221.46420288086</ele>
        <time>2014-06-07T13:41:48Z</time>
      </trkpt>
      <trkpt lat="43.42808" lon="6.12172">
        <ele>221.18907165527</ele>
        <time>2014-06-07T13:41:49Z</time>
      </trkpt>
      <trkpt lat="43.4281" lon="6.12172">
        <ele>220.83950805664</ele>
        <time>2014-06-07T13:41:50Z</time>
      </trkpt>
      <trkpt lat="43.42817" lon="6.12171">
        <ele>219.50004577637</ele>
        <time>2014-06-07T13:41:54Z</time>
      </trkpt>
      <trkpt lat="43.42828" lon="6.1217">
        <ele>217.66096496582</ele>
        <time>2014-06-07T13:41:58Z</time>
      </trkpt>
      <trkpt lat="43.42838" lon="6.12168">
        <ele>215.77996826172</ele>
        <time>2014-06-07T13:42:02Z</time>
      </trkpt>
      <trkpt lat="43.42842" lon="6.12168">
        <ele>214.68656921387</ele>
        <time>2014-06-07T13:42:04Z</time>
      </trkpt>
      <trkpt lat="43.4285" lon="6.12169">
        <ele>212.61317443848</ele>
        <time>2014-06-07T13:42:06Z</time>
      </trkpt>
      <trkpt lat="43.42854" lon="6.12169">
        <ele>211.5989074707</ele>
        <time>2014-06-07T13:42:07Z</time>
      </trkpt>
      <trkpt lat="43.42858" lon="6.1217">
        <ele>210.56671142578</ele>
        <time>2014-06-07T13:42:08Z</time>
      </trkpt>
      <trkpt lat="43.42862" lon="6.12171">
        <ele>209.61296081543</ele>
        <time>2014-06-07T13:42:09Z</time>
      </trkpt>
      <trkpt lat="43.42865" lon="6.12171">
        <ele>209.29840087891</ele>
        <time>2014-06-07T13:42:10Z</time>
      </trkpt>
      <trkpt lat="43.42869" lon="6.12169">
        <ele>209.01968383789</ele>
        <time>2014-06-07T13:42:12Z</time>
      </trkpt>
      <trkpt lat="43.4287" lon="6.12169">
        <ele>208.88255310059</ele>
        <time>2014-06-07T13:42:18Z</time>
      </trkpt>
      <trkpt lat="43.4287" lon="6.12169">
        <ele>208.88255310059</ele>
        <time>2014-06-07T13:42:25Z</time>
      </trkpt>
      <trkpt lat="43.4287" lon="6.12169">
        <ele>208.88255310059</ele>
        <time>2014-06-07T13:42:29Z</time>
      </trkpt>
      <trkpt lat="43.42872" lon="6.12169">
        <ele>208.72177124023</ele>
        <time>2014-06-07T13:42:36Z</time>
      </trkpt>
      <trkpt lat="43.42874" lon="6.12168">
        <ele>208.58441162109</ele>
        <time>2014-06-07T13:42:37Z</time>
      </trkpt>
      <trkpt lat="43.42884" lon="6.12165">
        <ele>207.67730712891</ele>
        <time>2014-06-07T13:42:40Z</time>
      </trkpt>
      <trkpt lat="43.42891" lon="6.12163">
        <ele>207.24545288086</ele>
        <time>2014-06-07T13:42:42Z</time>
      </trkpt>
      <trkpt lat="43.42899" lon="6.12161">
        <ele>207.40338134766</ele>
        <time>2014-06-07T13:42:44Z</time>
      </trkpt>
      <trkpt lat="43.42903" lon="6.12159">
        <ele>207.56817626953</ele>
        <time>2014-06-07T13:42:45Z</time>
      </trkpt>
      <trkpt lat="43.42905" lon="6.12155">
        <ele>207.84283447266</ele>
        <time>2014-06-07T13:42:46Z</time>
      </trkpt>
      <trkpt lat="43.42907" lon="6.1215">
        <ele>208.1895904541</ele>
        <time>2014-06-07T13:42:47Z</time>
      </trkpt>
      <trkpt lat="43.42913" lon="6.12135">
        <ele>209.10914611816</ele>
        <time>2014-06-07T13:42:50Z</time>
      </trkpt>
      <trkpt lat="43.42911" lon="6.12121">
        <ele>209.50889587402</ele>
        <time>2014-06-07T13:42:53Z</time>
      </trkpt>
      <trkpt lat="43.42912" lon="6.12111">
        <ele>209.83967590332</ele>
        <time>2014-06-07T13:42:55Z</time>
      </trkpt>
      <trkpt lat="43.4291" lon="6.12091">
        <ele>210.6591796875</ele>
        <time>2014-06-07T13:42:58Z</time>
      </trkpt>
      <trkpt lat="43.42908" lon="6.12072">
        <ele>211.71969604492</ele>
        <time>2014-06-07T13:43:01Z</time>
      </trkpt>
      <trkpt lat="43.42907" lon="6.12065">
        <ele>212.07078552246</ele>
        <time>2014-06-07T13:43:02Z</time>
      </trkpt>
      <trkpt lat="43.42906" lon="6.12059">
        <ele>212.4259185791</ele>
        <time>2014-06-07T13:43:03Z</time>
      </trkpt>
      <trkpt lat="43.42904" lon="6.12053">
        <ele>212.6388092041</ele>
        <time>2014-06-07T13:43:04Z</time>
      </trkpt>
      <trkpt lat="43.42903" lon="6.12048">
        <ele>212.78300476074</ele>
        <time>2014-06-07T13:43:05Z</time>
      </trkpt>
      <trkpt lat="43.42902" lon="6.12041">
        <ele>212.97869873047</ele>
        <time>2014-06-07T13:43:06Z</time>
      </trkpt>
      <trkpt lat="43.42901" lon="6.12028">
        <ele>213.45077514648</ele>
        <time>2014-06-07T13:43:08Z</time>
      </trkpt>
      <trkpt lat="43.429" lon="6.12014">
        <ele>213.89880371094</ele>
        <time>2014-06-07T13:43:10Z</time>
      </trkpt>
      <trkpt lat="43.42899" lon="6.12008">
        <ele>214.07217407227</ele>
        <time>2014-06-07T13:43:11Z</time>
      </trkpt>
      <trkpt lat="43.42897" lon="6.12003">
        <ele>214.20263671875</ele>
        <time>2014-06-07T13:43:12Z</time>
      </trkpt>
      <trkpt lat="43.42887" lon="6.11984">
        <ele>214.77249145508</ele>
        <time>2014-06-07T13:43:16Z</time>
      </trkpt>
      <trkpt lat="43.42884" lon="6.11971">
        <ele>215.68743896484</ele>
        <time>2014-06-07T13:43:19Z</time>
      </trkpt>
      <trkpt lat="43.42883" lon="6.11958">
        <ele>216.30885314941</ele>
        <time>2014-06-07T13:43:22Z</time>
      </trkpt>
      <trkpt lat="43.4288" lon="6.1194">
        <ele>217.45976257324</ele>
        <time>2014-06-07T13:43:26Z</time>
      </trkpt>
      <trkpt lat="43.42879" lon="6.1193">
        <ele>218.08535766602</ele>
        <time>2014-06-07T13:43:28Z</time>
      </trkpt>
      <trkpt lat="43.42879" lon="6.11918">
        <ele>218.60345458984</ele>
        <time>2014-06-07T13:43:30Z</time>
      </trkpt>
      <trkpt lat="43.4288" lon="6.11907">
        <ele>218.87210083008</ele>
        <time>2014-06-07T13:43:32Z</time>
      </trkpt>
      <trkpt lat="43.42879" lon="6.11901">
        <ele>219.08976745606</ele>
        <time>2014-06-07T13:43:33Z</time>
      </trkpt>
      <trkpt lat="43.42879" lon="6.11896">
        <ele>219.27799987793</ele>
        <time>2014-06-07T13:43:34Z</time>
      </trkpt>
      <trkpt lat="43.42878" lon="6.11892">
        <ele>219.52671813965</ele>
        <time>2014-06-07T13:43:35Z</time>
      </trkpt>
      <trkpt lat="43.42875" lon="6.11886">
        <ele>220.19195556641</ele>
        <time>2014-06-07T13:43:37Z</time>
      </trkpt>
      <trkpt lat="43.42875" lon="6.11879">
        <ele>220.68634033203</ele>
        <time>2014-06-07T13:43:41Z</time>
      </trkpt>
      <trkpt lat="43.42875" lon="6.11877">
        <ele>220.86143493652</ele>
        <time>2014-06-07T13:43:46Z</time>
      </trkpt>
      <trkpt lat="43.42875" lon="6.11875">
        <ele>221.00563049316</ele>
        <time>2014-06-07T13:43:47Z</time>
      </trkpt>
      <trkpt lat="43.42875" lon="6.11873">
        <ele>221.06742858887</ele>
        <time>2014-06-07T13:43:48Z</time>
      </trkpt>
      <trkpt lat="43.42875" lon="6.11871">
        <ele>221.22535705566</ele>
        <time>2014-06-07T13:43:49Z</time>
      </trkpt>
      <trkpt lat="43.42876" lon="6.11869">
        <ele>221.27342224121</ele>
        <time>2014-06-07T13:43:50Z</time>
      </trkpt>
      <trkpt lat="43.42876" lon="6.11867">
        <ele>221.40731811523</ele>
        <time>2014-06-07T13:43:51Z</time>
      </trkpt>
      <trkpt lat="43.42876" lon="6.11866">
        <ele>221.49314880371</ele>
        <time>2014-06-07T13:43:52Z</time>
      </trkpt>
      <trkpt lat="43.42876" lon="6.11864">
        <ele>221.6682434082</ele>
        <time>2014-06-07T13:43:53Z</time>
      </trkpt>
      <trkpt lat="43.42873" lon="6.11856">
        <ele>222.3934173584</ele>
        <time>2014-06-07T13:43:56Z</time>
      </trkpt>
      <trkpt lat="43.42871" lon="6.11848">
        <ele>222.91906738281</ele>
        <time>2014-06-07T13:43:59Z</time>
      </trkpt>
      <trkpt lat="43.42871" lon="6.11844">
        <ele>223.01454162598</ele>
        <time>2014-06-07T13:44:00Z</time>
      </trkpt>
      <trkpt lat="43.42871" lon="6.11835">
        <ele>223.23582458496</ele>
        <time>2014-06-07T13:44:02Z</time>
      </trkpt>
      <trkpt lat="43.42871" lon="6.1183">
        <ele>223.88648986816</ele>
        <time>2014-06-07T13:44:03Z</time>
      </trkpt>
      <trkpt lat="43.42871" lon="6.11825">
        <ele>224.68389892578</ele>
        <time>2014-06-07T13:44:04Z</time>
      </trkpt>
      <trkpt lat="43.42872" lon="6.1182">
        <ele>225.72885131836</ele>
        <time>2014-06-07T13:44:05Z</time>
      </trkpt>
      <trkpt lat="43.42873" lon="6.11814">
        <ele>226.70794677734</ele>
        <time>2014-06-07T13:44:06Z</time>
      </trkpt>
      <trkpt lat="43.42875" lon="6.11804">
        <ele>228.34014892578</ele>
        <time>2014-06-07T13:44:08Z</time>
      </trkpt>
      <trkpt lat="43.42875" lon="6.118">
        <ele>229.3602142334</ele>
        <time>2014-06-07T13:44:09Z</time>
      </trkpt>
      <trkpt lat="43.42876" lon="6.11795">
        <ele>230.42346191406</ele>
        <time>2014-06-07T13:44:10Z</time>
      </trkpt>
      <trkpt lat="43.42876" lon="6.11789">
        <ele>231.62231445312</ele>
        <time>2014-06-07T13:44:11Z</time>
      </trkpt>
      <trkpt lat="43.42877" lon="6.11785">
        <ele>232.58972167969</ele>
        <time>2014-06-07T13:44:12Z</time>
      </trkpt>
      <trkpt lat="43.42877" lon="6.11775">
        <ele>234.31428527832</ele>
        <time>2014-06-07T13:44:15Z</time>
      </trkpt>
      <trkpt lat="43.42879" lon="6.11771">
        <ele>234.20893859863</ele>
        <time>2014-06-07T13:44:19Z</time>
      </trkpt>
      <trkpt lat="43.42881" lon="6.11769">
        <ele>234.11253356934</ele>
        <time>2014-06-07T13:44:21Z</time>
      </trkpt>
      <trkpt lat="43.42881" lon="6.11769">
        <ele>234.08671569824</ele>
        <time>2014-06-07T13:44:22Z</time>
      </trkpt>
      <trkpt lat="43.42883" lon="6.11768">
        <ele>233.87214660644</ele>
        <time>2014-06-07T13:44:27Z</time>
      </trkpt>
      <trkpt lat="43.42883" lon="6.11768">
        <ele>233.87214660644</ele>
        <time>2014-06-07T13:44:33Z</time>
      </trkpt>
      <trkpt lat="43.42884" lon="6.11768">
        <ele>233.83975219727</ele>
        <time>2014-06-07T13:44:38Z</time>
      </trkpt>
      <trkpt lat="43.42884" lon="6.11768">
        <ele>233.83975219727</ele>
        <time>2014-06-07T13:44:48Z</time>
      </trkpt>
      <trkpt lat="43.42884" lon="6.11768">
        <ele>233.76962280273</ele>
        <time>2014-06-07T13:44:53Z</time>
      </trkpt>
      <trkpt lat="43.42884" lon="6.11768">
        <ele>233.80891418457</ele>
        <time>2014-06-07T13:44:58Z</time>
      </trkpt>
      <trkpt lat="43.42884" lon="6.11768">
        <ele>233.80183410644</ele>
        <time>2014-06-07T13:45:00Z</time>
      </trkpt>
      <trkpt lat="43.42884" lon="6.11768">
        <ele>233.81884765625</ele>
        <time>2014-06-07T13:45:01Z</time>
      </trkpt>
      <trkpt lat="43.42885" lon="6.11768">
        <ele>233.70860290527</ele>
        <time>2014-06-07T13:45:04Z</time>
      </trkpt>
      <trkpt lat="43.42886" lon="6.11768">
        <ele>233.63606262207</ele>
        <time>2014-06-07T13:45:12Z</time>
      </trkpt>
      <trkpt lat="43.42886" lon="6.1177">
        <ele>233.53895568848</ele>
        <time>2014-06-07T13:45:13Z</time>
      </trkpt>
      <trkpt lat="43.42887" lon="6.1177">
        <ele>233.49542236328</ele>
        <time>2014-06-07T13:45:16Z</time>
      </trkpt>
      <trkpt lat="43.42887" lon="6.1177">
        <ele>233.49542236328</ele>
        <time>2014-06-07T13:45:36Z</time>
      </trkpt>
      <trkpt lat="43.42887" lon="6.1177">
        <ele>233.49700927734</ele>
        <time>2014-06-07T13:46:10Z</time>
      </trkpt>
      <trkpt lat="43.42887" lon="6.1177">
        <ele>233.49700927734</ele>
        <time>2014-06-07T13:46:31Z</time>
      </trkpt>
      <trkpt lat="43.42887" lon="6.1177">
        <ele>233.50651550293</ele>
        <time>2014-06-07T13:46:37Z</time>
      </trkpt>
      <trkpt lat="43.42888" lon="6.11769">
        <ele>233.39678955078</ele>
        <time>2014-06-07T13:46:42Z</time>
      </trkpt>
      <trkpt lat="43.42888" lon="6.1177">
        <ele>233.38687133789</ele>
        <time>2014-06-07T13:46:47Z</time>
      </trkpt>
      <trkpt lat="43.42888" lon="6.1177">
        <ele>233.38687133789</ele>
        <time>2014-06-07T13:46:54Z</time>
      </trkpt>
      <trkpt lat="43.42888" lon="6.1177">
        <ele>233.38687133789</ele>
        <time>2014-06-07T13:47:00Z</time>
      </trkpt>
      <trkpt lat="43.42889" lon="6.1177">
        <ele>233.26657104492</ele>
        <time>2014-06-07T13:47:06Z</time>
      </trkpt>
      <trkpt lat="43.42891" lon="6.11772">
        <ele>233.07258605957</ele>
        <time>2014-06-07T13:47:09Z</time>
      </trkpt>
      <trkpt lat="43.42892" lon="6.11772">
        <ele>232.9695892334</ele>
        <time>2014-06-07T13:47:13Z</time>
      </trkpt>
      <trkpt lat="43.42892" lon="6.11772">
        <ele>232.9524230957</ele>
        <time>2014-06-07T13:47:20Z</time>
      </trkpt>
      <trkpt lat="43.42892" lon="6.11772">
        <ele>232.9524230957</ele>
        <time>2014-06-07T13:47:39Z</time>
      </trkpt>
      <trkpt lat="43.42892" lon="6.11772">
        <ele>232.9524230957</ele>
        <time>2014-06-07T13:47:52Z</time>
      </trkpt>
      <trkpt lat="43.42893" lon="6.11775">
        <ele>232.80307006836</ele>
        <time>2014-06-07T13:47:57Z</time>
      </trkpt>
      <trkpt lat="43.429" lon="6.11788">
        <ele>229.54360961914</ele>
        <time>2014-06-07T13:48:01Z</time>
      </trkpt>
      <trkpt lat="43.42903" lon="6.11808">
        <ele>224.16821289062</ele>
        <time>2014-06-07T13:48:05Z</time>
      </trkpt>
      <trkpt lat="43.42904" lon="6.11814">
        <ele>223.4054107666</ele>
        <time>2014-06-07T13:48:06Z</time>
      </trkpt>
      <trkpt lat="43.42908" lon="6.11828">
        <ele>221.91148376465</ele>
        <time>2014-06-07T13:48:09Z</time>
      </trkpt>
      <trkpt lat="43.4291" lon="6.11832">
        <ele>221.56671142578</ele>
        <time>2014-06-07T13:48:10Z</time>
      </trkpt>
      <trkpt lat="43.42911" lon="6.11838">
        <ele>221.45079040527</ele>
        <time>2014-06-07T13:48:11Z</time>
      </trkpt>
      <trkpt lat="43.42912" lon="6.11843">
        <ele>221.36592102051</ele>
        <time>2014-06-07T13:48:12Z</time>
      </trkpt>
      <trkpt lat="43.42913" lon="6.11849">
        <ele>221.23773193359</ele>
        <time>2014-06-07T13:48:13Z</time>
      </trkpt>
      <trkpt lat="43.42913" lon="6.11855">
        <ele>221.09236145019</ele>
        <time>2014-06-07T13:48:14Z</time>
      </trkpt>
      <trkpt lat="43.42915" lon="6.11866">
        <ele>220.60401916504</ele>
        <time>2014-06-07T13:48:16Z</time>
      </trkpt>
      <trkpt lat="43.4292" lon="6.11893">
        <ele>219.19342041016</ele>
        <time>2014-06-07T13:48:22Z</time>
      </trkpt>
      <trkpt lat="43.42924" lon="6.11906">
        <ele>219.35221862793</ele>
        <time>2014-06-07T13:48:25Z</time>
      </trkpt>
      <trkpt lat="43.42925" lon="6.11911">
        <ele>219.35694885254</ele>
        <time>2014-06-07T13:48:26Z</time>
      </trkpt>
      <trkpt lat="43.42925" lon="6.11915">
        <ele>219.30921936035</ele>
        <time>2014-06-07T13:48:27Z</time>
      </trkpt>
      <trkpt lat="43.42923" lon="6.11922">
        <ele>218.85493469238</ele>
        <time>2014-06-07T13:48:29Z</time>
      </trkpt>
      <trkpt lat="43.42924" lon="6.11927">
        <ele>218.57341003418</ele>
        <time>2014-06-07T13:48:31Z</time>
      </trkpt>
      <trkpt lat="43.42924" lon="6.11929">
        <ele>218.37084960938</ele>
        <time>2014-06-07T13:48:32Z</time>
      </trkpt>
      <trkpt lat="43.42927" lon="6.11936">
        <ele>218.01036071777</ele>
        <time>2014-06-07T13:48:34Z</time>
      </trkpt>
      <trkpt lat="43.42928" lon="6.11944">
        <ele>217.46447753906</ele>
        <time>2014-06-07T13:48:36Z</time>
      </trkpt>
      <trkpt lat="43.42937" lon="6.11967">
        <ele>216.92520141602</ele>
        <time>2014-06-07T13:48:41Z</time>
      </trkpt>
      <trkpt lat="43.4294" lon="6.11977">
        <ele>216.65568542481</ele>
        <time>2014-06-07T13:48:43Z</time>
      </trkpt>
      <trkpt lat="43.42942" lon="6.11989">
        <ele>216.31408691406</ele>
        <time>2014-06-07T13:48:45Z</time>
      </trkpt>
      <trkpt lat="43.42942" lon="6.11995">
        <ele>216.08920288086</ele>
        <time>2014-06-07T13:48:46Z</time>
      </trkpt>
      <trkpt lat="43.42942" lon="6.12001">
        <ele>215.82246398926</ele>
        <time>2014-06-07T13:48:47Z</time>
      </trkpt>
      <trkpt lat="43.42944" lon="6.1201">
        <ele>215.28419494629</ele>
        <time>2014-06-07T13:48:49Z</time>
      </trkpt>
      <trkpt lat="43.42947" lon="6.12014">
        <ele>214.88893127441</ele>
        <time>2014-06-07T13:48:50Z</time>
      </trkpt>
      <trkpt lat="43.42958" lon="6.12041">
        <ele>213.05424499512</ele>
        <time>2014-06-07T13:48:55Z</time>
      </trkpt>
      <trkpt lat="43.42965" lon="6.12064">
        <ele>211.63516235352</ele>
        <time>2014-06-07T13:48:59Z</time>
      </trkpt>
      <trkpt lat="43.42972" lon="6.12089">
        <ele>209.57522583008</ele>
        <time>2014-06-07T13:49:03Z</time>
      </trkpt>
      <trkpt lat="43.42983" lon="6.12127">
        <ele>207.02877807617</ele>
        <time>2014-06-07T13:49:09Z</time>
      </trkpt>
      <trkpt lat="43.42988" lon="6.12147">
        <ele>205.97557067871</ele>
        <time>2014-06-07T13:49:12Z</time>
      </trkpt>
      <trkpt lat="43.42991" lon="6.12159">
        <ele>205.09091186523</ele>
        <time>2014-06-07T13:49:14Z</time>
      </trkpt>
      <trkpt lat="43.43" lon="6.12191">
        <ele>203.13438415527</ele>
        <time>2014-06-07T13:49:19Z</time>
      </trkpt>
      <trkpt lat="43.43004" lon="6.12212">
        <ele>202.36148071289</ele>
        <time>2014-06-07T13:49:22Z</time>
      </trkpt>
      <trkpt lat="43.43005" lon="6.1222">
        <ele>202.09197998047</ele>
        <time>2014-06-07T13:49:23Z</time>
      </trkpt>
      <trkpt lat="43.43006" lon="6.12227">
        <ele>201.63806152344</ele>
        <time>2014-06-07T13:49:24Z</time>
      </trkpt>
      <trkpt lat="43.43008" lon="6.12234">
        <ele>201.12994384766</ele>
        <time>2014-06-07T13:49:25Z</time>
      </trkpt>
      <trkpt lat="43.43011" lon="6.12241">
        <ele>200.62182617188</ele>
        <time>2014-06-07T13:49:26Z</time>
      </trkpt>
      <trkpt lat="43.43015" lon="6.12255">
        <ele>199.83026123047</ele>
        <time>2014-06-07T13:49:28Z</time>
      </trkpt>
      <trkpt lat="43.43019" lon="6.12267">
        <ele>199.38050842285</ele>
        <time>2014-06-07T13:49:30Z</time>
      </trkpt>
      <trkpt lat="43.43022" lon="6.1228">
        <ele>198.98320007324</ele>
        <time>2014-06-07T13:49:32Z</time>
      </trkpt>
      <trkpt lat="43.43024" lon="6.12285">
        <ele>198.95941162109</ele>
        <time>2014-06-07T13:49:33Z</time>
      </trkpt>
      <trkpt lat="43.43023" lon="6.12302">
        <ele>198.85795593262</ele>
        <time>2014-06-07T13:49:37Z</time>
      </trkpt>
      <trkpt lat="43.43024" lon="6.12308">
        <ele>198.70674133301</ele>
        <time>2014-06-07T13:49:39Z</time>
      </trkpt>
      <trkpt lat="43.43025" lon="6.12311">
        <ele>198.50755310059</ele>
        <time>2014-06-07T13:49:40Z</time>
      </trkpt>
      <trkpt lat="43.43025" lon="6.12315">
        <ele>198.24671936035</ele>
        <time>2014-06-07T13:49:41Z</time>
      </trkpt>
      <trkpt lat="43.43025" lon="6.12326">
        <ele>197.49687194824</ele>
        <time>2014-06-07T13:49:45Z</time>
      </trkpt>
      <trkpt lat="43.43028" lon="6.12343">
        <ele>196.66842651367</ele>
        <time>2014-06-07T13:49:50Z</time>
      </trkpt>
      <trkpt lat="43.43029" lon="6.12359">
        <ele>196.15000915527</ele>
        <time>2014-06-07T13:49:54Z</time>
      </trkpt>
      <trkpt lat="43.43031" lon="6.12365">
        <ele>195.97148132324</ele>
        <time>2014-06-07T13:49:56Z</time>
      </trkpt>
      <trkpt lat="43.4303" lon="6.12376">
        <ele>195.56292724609</ele>
        <time>2014-06-07T13:50:00Z</time>
      </trkpt>
      <trkpt lat="43.4302" lon="6.1238">
        <ele>195.06338500977</ele>
        <time>2014-06-07T13:50:05Z</time>
      </trkpt>
      <trkpt lat="43.43013" lon="6.12378">
        <ele>194.86254882812</ele>
        <time>2014-06-07T13:50:10Z</time>
      </trkpt>
      <trkpt lat="43.43009" lon="6.12373">
        <ele>194.87971496582</ele>
        <time>2014-06-07T13:50:15Z</time>
      </trkpt>
      <trkpt lat="43.43007" lon="6.1237">
        <ele>194.93637084961</ele>
        <time>2014-06-07T13:50:17Z</time>
      </trkpt>
      <trkpt lat="43.43005" lon="6.12367">
        <ele>194.970703125</ele>
        <time>2014-06-07T13:50:19Z</time>
      </trkpt>
      <trkpt lat="43.43002" lon="6.12362">
        <ele>195.03421020508</ele>
        <time>2014-06-07T13:50:21Z</time>
      </trkpt>
      <trkpt lat="43.42994" lon="6.12341">
        <ele>196.48071289062</ele>
        <time>2014-06-07T13:50:26Z</time>
      </trkpt>
      <trkpt lat="43.42983" lon="6.12316">
        <ele>197.64157104492</ele>
        <time>2014-06-07T13:50:32Z</time>
      </trkpt>
      <trkpt lat="43.42973" lon="6.12299">
        <ele>198.24067687988</ele>
        <time>2014-06-07T13:50:37Z</time>
      </trkpt>
      <trkpt lat="43.42968" lon="6.12297">
        <ele>198.58680725098</ele>
        <time>2014-06-07T13:50:39Z</time>
      </trkpt>
      <trkpt lat="43.42964" lon="6.12298">
        <ele>198.86833190918</ele>
        <time>2014-06-07T13:50:41Z</time>
      </trkpt>
      <trkpt lat="43.42958" lon="6.12302">
        <ele>199.14985656738</ele>
        <time>2014-06-07T13:50:44Z</time>
      </trkpt>
      <trkpt lat="43.42946" lon="6.12306">
        <ele>199.87409973144</ele>
        <time>2014-06-07T13:50:50Z</time>
      </trkpt>
      <trkpt lat="43.42934" lon="6.12303">
        <ele>200.46258544922</ele>
        <time>2014-06-07T13:50:57Z</time>
      </trkpt>
      <trkpt lat="43.42926" lon="6.12298">
        <ele>200.90719604492</ele>
        <time>2014-06-07T13:51:02Z</time>
      </trkpt>
      <trkpt lat="43.42924" lon="6.12297">
        <ele>201.01190185547</ele>
        <time>2014-06-07T13:51:03Z</time>
      </trkpt>
      <trkpt lat="43.42905" lon="6.12292">
        <ele>201.8942565918</ele>
        <time>2014-06-07T13:51:12Z</time>
      </trkpt>
      <trkpt lat="43.42894" lon="6.123">
        <ele>201.99896240234</ele>
        <time>2014-06-07T13:51:16Z</time>
      </trkpt>
      <trkpt lat="43.42887" lon="6.12311">
        <ele>201.67234802246</ele>
        <time>2014-06-07T13:51:20Z</time>
      </trkpt>
      <trkpt lat="43.42873" lon="6.12324">
        <ele>201.5860748291</ele>
        <time>2014-06-07T13:51:25Z</time>
      </trkpt>
      <trkpt lat="43.4287" lon="6.1233">
        <ele>201.56072998047</ele>
        <time>2014-06-07T13:51:27Z</time>
      </trkpt>
      <trkpt lat="43.42867" lon="6.12333">
        <ele>201.5574798584</ele>
        <time>2014-06-07T13:51:28Z</time>
      </trkpt>
      <trkpt lat="43.42865" lon="6.12338">
        <ele>201.38920593262</ele>
        <time>2014-06-07T13:51:29Z</time>
      </trkpt>
      <trkpt lat="43.42859" lon="6.12347">
        <ele>201.15335083008</ele>
        <time>2014-06-07T13:51:31Z</time>
      </trkpt>
      <trkpt lat="43.42853" lon="6.12355">
        <ele>201.01945495606</ele>
        <time>2014-06-07T13:51:33Z</time>
      </trkpt>
      <trkpt lat="43.42847" lon="6.12364">
        <ele>200.71846008301</ele>
        <time>2014-06-07T13:51:35Z</time>
      </trkpt>
      <trkpt lat="43.42844" lon="6.12371">
        <ele>200.39724731445</ele>
        <time>2014-06-07T13:51:37Z</time>
      </trkpt>
      <trkpt lat="43.42841" lon="6.12379">
        <ele>199.98022460938</ele>
        <time>2014-06-07T13:51:39Z</time>
      </trkpt>
      <trkpt lat="43.4284" lon="6.12381">
        <ele>199.87933349609</ele>
        <time>2014-06-07T13:51:40Z</time>
      </trkpt>
      <trkpt lat="43.42838" lon="6.12386">
        <ele>199.7061920166</ele>
        <time>2014-06-07T13:51:42Z</time>
      </trkpt>
      <trkpt lat="43.42836" lon="6.12391">
        <ele>199.34008789062</ele>
        <time>2014-06-07T13:51:44Z</time>
      </trkpt>
      <trkpt lat="43.42834" lon="6.12401">
        <ele>197.65727233887</ele>
        <time>2014-06-07T13:51:48Z</time>
      </trkpt>
      <trkpt lat="43.42834" lon="6.12401">
        <ele>197.62237548828</ele>
        <time>2014-06-07T13:51:49Z</time>
      </trkpt>
      <trkpt lat="43.42834" lon="6.12401">
        <ele>197.62237548828</ele>
        <time>2014-06-07T13:51:53Z</time>
      </trkpt>
      <trkpt lat="43.42834" lon="6.12404">
        <ele>197.20364379883</ele>
        <time>2014-06-07T13:52:05Z</time>
      </trkpt>
      <trkpt lat="43.42833" lon="6.12405">
        <ele>197.04507446289</ele>
        <time>2014-06-07T13:52:06Z</time>
      </trkpt>
      <trkpt lat="43.42828" lon="6.12413">
        <ele>196.00323486328</ele>
        <time>2014-06-07T13:52:09Z</time>
      </trkpt>
      <trkpt lat="43.42817" lon="6.1243">
        <ele>193.82424926758</ele>
        <time>2014-06-07T13:52:15Z</time>
      </trkpt>
      <trkpt lat="43.42815" lon="6.12432">
        <ele>193.51698303223</ele>
        <time>2014-06-07T13:52:16Z</time>
      </trkpt>
      <trkpt lat="43.42795" lon="6.12453">
        <ele>192.16604614258</ele>
        <time>2014-06-07T13:52:23Z</time>
      </trkpt>
      <trkpt lat="43.42786" lon="6.1246">
        <ele>191.61366271973</ele>
        <time>2014-06-07T13:52:26Z</time>
      </trkpt>
      <trkpt lat="43.42755" lon="6.12473">
        <ele>190.6368560791</ele>
        <time>2014-06-07T13:52:36Z</time>
      </trkpt>
      <trkpt lat="43.42737" lon="6.12475">
        <ele>191.65321350098</ele>
        <time>2014-06-07T13:52:41Z</time>
      </trkpt>
      <trkpt lat="43.42714" lon="6.12476">
        <ele>192.23480224609</ele>
        <time>2014-06-07T13:52:47Z</time>
      </trkpt>
      <trkpt lat="43.42706" lon="6.12475">
        <ele>192.11019897461</ele>
        <time>2014-06-07T13:52:49Z</time>
      </trkpt>
      <trkpt lat="43.42682" lon="6.12474">
        <ele>191.80853271484</ele>
        <time>2014-06-07T13:52:55Z</time>
      </trkpt>
      <trkpt lat="43.42661" lon="6.12469">
        <ele>192.37896728516</ele>
        <time>2014-06-07T13:53:00Z</time>
      </trkpt>
      <trkpt lat="43.42658" lon="6.12467">
        <ele>192.68214416504</ele>
        <time>2014-06-07T13:53:01Z</time>
      </trkpt>
      <trkpt lat="43.42637" lon="6.12451">
        <ele>194.65635681152</ele>
        <time>2014-06-07T13:53:07Z</time>
      </trkpt>
      <trkpt lat="43.42617" lon="6.12422">
        <ele>195.4365234375</ele>
        <time>2014-06-07T13:53:14Z</time>
      </trkpt>
      <trkpt lat="43.42588" lon="6.12383">
        <ele>197.24839782715</ele>
        <time>2014-06-07T13:53:22Z</time>
      </trkpt>
      <trkpt lat="43.42576" lon="6.12361">
        <ele>196.57426452637</ele>
        <time>2014-06-07T13:53:26Z</time>
      </trkpt>
      <trkpt lat="43.42563" lon="6.12336">
        <ele>198.06605529785</ele>
        <time>2014-06-07T13:53:30Z</time>
      </trkpt>
      <trkpt lat="43.42552" lon="6.1231">
        <ele>198.62106323242</ele>
        <time>2014-06-07T13:53:34Z</time>
      </trkpt>
      <trkpt lat="43.42546" lon="6.12296">
        <ele>199.14514160156</ele>
        <time>2014-06-07T13:53:36Z</time>
      </trkpt>
      <trkpt lat="43.42529" lon="6.12256">
        <ele>198.84539794922</ele>
        <time>2014-06-07T13:53:42Z</time>
      </trkpt>
      <trkpt lat="43.42513" lon="6.12218">
        <ele>200.71846008301</ele>
        <time>2014-06-07T13:53:48Z</time>
      </trkpt>
      <trkpt lat="43.42493" lon="6.12174">
        <ele>201.50010681152</ele>
        <time>2014-06-07T13:53:55Z</time>
      </trkpt>
      <trkpt lat="43.42467" lon="6.12135">
        <ele>198.48843383789</ele>
        <time>2014-06-07T13:54:02Z</time>
      </trkpt>
      <trkpt lat="43.42436" lon="6.12097">
        <ele>196.4860534668</ele>
        <time>2014-06-07T13:54:10Z</time>
      </trkpt>
      <trkpt lat="43.42416" lon="6.1206">
        <ele>195.74830627441</ele>
        <time>2014-06-07T13:54:17Z</time>
      </trkpt>
      <trkpt lat="43.42403" lon="6.12032">
        <ele>195.88906860352</ele>
        <time>2014-06-07T13:54:22Z</time>
      </trkpt>
      <trkpt lat="43.42399" lon="6.1202">
        <ele>196.02296447754</ele>
        <time>2014-06-07T13:54:24Z</time>
      </trkpt>
      <trkpt lat="43.42381" lon="6.11949">
        <ele>197.53947448731</ele>
        <time>2014-06-07T13:54:36Z</time>
      </trkpt>
      <trkpt lat="43.42369" lon="6.11902">
        <ele>198.80290222168</ele>
        <time>2014-06-07T13:54:44Z</time>
      </trkpt>
      <trkpt lat="43.42366" lon="6.1189">
        <ele>199.12905883789</ele>
        <time>2014-06-07T13:54:46Z</time>
      </trkpt>
      <trkpt lat="43.42363" lon="6.11878">
        <ele>199.41426086426</ele>
        <time>2014-06-07T13:54:48Z</time>
      </trkpt>
      <trkpt lat="43.42356" lon="6.11856">
        <ele>199.85040283203</ele>
        <time>2014-06-07T13:54:52Z</time>
      </trkpt>
      <trkpt lat="43.42345" lon="6.11822">
        <ele>202.43588256836</ele>
        <time>2014-06-07T13:54:59Z</time>
      </trkpt>
      <trkpt lat="43.42325" lon="6.11785">
        <ele>211.04713439941</ele>
        <time>2014-06-07T13:55:06Z</time>
      </trkpt>
      <trkpt lat="43.42317" lon="6.11775">
        <ele>212.97991943359</ele>
        <time>2014-06-07T13:55:08Z</time>
      </trkpt>
      <trkpt lat="43.42302" lon="6.11755">
        <ele>217.73812866211</ele>
        <time>2014-06-07T13:55:12Z</time>
      </trkpt>
      <trkpt lat="43.4227" lon="6.11714">
        <ele>221.0764465332</ele>
        <time>2014-06-07T13:55:20Z</time>
      </trkpt>
      <trkpt lat="43.42231" lon="6.11662">
        <ele>218.51358032227</ele>
        <time>2014-06-07T13:55:30Z</time>
      </trkpt>
      <trkpt lat="43.42221" lon="6.11645">
        <ele>215.20018005371</ele>
        <time>2014-06-07T13:55:33Z</time>
      </trkpt>
      <trkpt lat="43.42187" lon="6.11586">
        <ele>209.98899841309</ele>
        <time>2014-06-07T13:55:43Z</time>
      </trkpt>
      <trkpt lat="43.42173" lon="6.11561">
        <ele>206.59124755859</ele>
        <time>2014-06-07T13:55:47Z</time>
      </trkpt>
      <trkpt lat="43.42145" lon="6.11513">
        <ele>202.76312255859</ele>
        <time>2014-06-07T13:55:55Z</time>
      </trkpt>
      <trkpt lat="43.42127" lon="6.11484">
        <ele>202.35652160644</ele>
        <time>2014-06-07T13:56:00Z</time>
      </trkpt>
      <trkpt lat="43.4212" lon="6.11471">
        <ele>202.12646484375</ele>
        <time>2014-06-07T13:56:02Z</time>
      </trkpt>
      <trkpt lat="43.42099" lon="6.11435">
        <ele>201.56437683106</ele>
        <time>2014-06-07T13:56:08Z</time>
      </trkpt>
      <trkpt lat="43.42092" lon="6.11424">
        <ele>200.65370178223</ele>
        <time>2014-06-07T13:56:10Z</time>
      </trkpt>
      <trkpt lat="43.42085" lon="6.11416">
        <ele>199.38059997559</ele>
        <time>2014-06-07T13:56:12Z</time>
      </trkpt>
      <trkpt lat="43.42079" lon="6.11414">
        <ele>198.44551086426</ele>
        <time>2014-06-07T13:56:14Z</time>
      </trkpt>
      <trkpt lat="43.42073" lon="6.11424">
        <ele>197.39674377441</ele>
        <time>2014-06-07T13:56:17Z</time>
      </trkpt>
      <trkpt lat="43.42071" lon="6.11434">
        <ele>196.62083435059</ele>
        <time>2014-06-07T13:56:20Z</time>
      </trkpt>
      <trkpt lat="43.42066" lon="6.11449">
        <ele>195.22885131836</ele>
        <time>2014-06-07T13:56:24Z</time>
      </trkpt>
      <trkpt lat="43.42065" lon="6.11453">
        <ele>194.94329833984</ele>
        <time>2014-06-07T13:56:25Z</time>
      </trkpt>
      <trkpt lat="43.42063" lon="6.11455">
        <ele>194.53079223633</ele>
        <time>2014-06-07T13:56:26Z</time>
      </trkpt>
      <trkpt lat="43.42059" lon="6.11462">
        <ele>193.5807800293</ele>
        <time>2014-06-07T13:56:29Z</time>
      </trkpt>
      <trkpt lat="43.42056" lon="6.11465">
        <ele>193.13623046875</ele>
        <time>2014-06-07T13:56:30Z</time>
      </trkpt>
      <trkpt lat="43.42044" lon="6.1148">
        <ele>193</ele>
        <time>2014-06-07T13:56:35Z</time>
      </trkpt>
      <trkpt lat="43.42029" lon="6.11494">
        <ele>193</ele>
        <time>2014-06-07T13:56:40Z</time>
      </trkpt>
      <trkpt lat="43.42015" lon="6.11507">
        <ele>193.11685180664</ele>
        <time>2014-06-07T13:56:44Z</time>
      </trkpt>
      <trkpt lat="43.41998" lon="6.11525">
        <ele>194.28869628906</ele>
        <time>2014-06-07T13:56:50Z</time>
      </trkpt>
      <trkpt lat="43.41994" lon="6.11545">
        <ele>195.60876464844</ele>
        <time>2014-06-07T13:56:54Z</time>
      </trkpt>
      <trkpt lat="43.41999" lon="6.1157">
        <ele>195.77528381348</ele>
        <time>2014-06-07T13:56:59Z</time>
      </trkpt>
      <trkpt lat="43.42004" lon="6.11607">
        <ele>196.28311157227</ele>
        <time>2014-06-07T13:57:06Z</time>
      </trkpt>
      <trkpt lat="43.4201" lon="6.11645">
        <ele>196.86364746094</ele>
        <time>2014-06-07T13:57:13Z</time>
      </trkpt>
      <trkpt lat="43.42014" lon="6.1168">
        <ele>197.67514038086</ele>
        <time>2014-06-07T13:57:19Z</time>
      </trkpt>
      <trkpt lat="43.42015" lon="6.11703">
        <ele>198.45643615723</ele>
        <time>2014-06-07T13:57:23Z</time>
      </trkpt>
      <trkpt lat="43.42017" lon="6.11744">
        <ele>199.79113769531</ele>
        <time>2014-06-07T13:57:30Z</time>
      </trkpt>
      <trkpt lat="43.42018" lon="6.11774">
        <ele>199.73706054688</ele>
        <time>2014-06-07T13:57:35Z</time>
      </trkpt>
      <trkpt lat="43.42015" lon="6.11823">
        <ele>202.86027526856</ele>
        <time>2014-06-07T13:57:43Z</time>
      </trkpt>
      <trkpt lat="43.42014" lon="6.11866">
        <ele>203.0732421875</ele>
        <time>2014-06-07T13:57:50Z</time>
      </trkpt>
      <trkpt lat="43.42013" lon="6.11872">
        <ele>203.15563964844</ele>
        <time>2014-06-07T13:57:51Z</time>
      </trkpt>
      <trkpt lat="43.4201" lon="6.11912">
        <ele>203.81481933594</ele>
        <time>2014-06-07T13:57:58Z</time>
      </trkpt>
      <trkpt lat="43.42006" lon="6.11944">
        <ele>204.20564270019</ele>
        <time>2014-06-07T13:58:04Z</time>
      </trkpt>
      <trkpt lat="43.42004" lon="6.11949">
        <ele>204.04843139648</ele>
        <time>2014-06-07T13:58:05Z</time>
      </trkpt>
      <trkpt lat="43.41999" lon="6.1196">
        <ele>203.89791870117</ele>
        <time>2014-06-07T13:58:09Z</time>
      </trkpt>
      <trkpt lat="43.41991" lon="6.11958">
        <ele>204.70472717285</ele>
        <time>2014-06-07T13:58:14Z</time>
      </trkpt>
      <trkpt lat="43.41989" lon="6.11958">
        <ele>204.84548950195</ele>
        <time>2014-06-07T13:58:15Z</time>
      </trkpt>
      <trkpt lat="43.4199" lon="6.11957">
        <ele>204.79742431641</ele>
        <time>2014-06-07T13:58:16Z</time>
      </trkpt>
      <trkpt lat="43.41989" lon="6.11956">
        <ele>205.00341796875</ele>
        <time>2014-06-07T13:58:17Z</time>
      </trkpt>
      <trkpt lat="43.41986" lon="6.11954">
        <ele>205.29524230957</ele>
        <time>2014-06-07T13:58:18Z</time>
      </trkpt>
      <trkpt lat="43.41984" lon="6.11954">
        <ele>205.49436950684</ele>
        <time>2014-06-07T13:58:20Z</time>
      </trkpt>
      <trkpt lat="43.4198" lon="6.11954">
        <ele>205.7106628418</ele>
        <time>2014-06-07T13:58:22Z</time>
      </trkpt>
      <trkpt lat="43.41974" lon="6.11956">
        <ele>206.04368591309</ele>
        <time>2014-06-07T13:58:27Z</time>
      </trkpt>
      <trkpt lat="43.41973" lon="6.11957">
        <ele>206.05055236816</ele>
        <time>2014-06-07T13:58:29Z</time>
      </trkpt>
      <trkpt lat="43.41972" lon="6.11957">
        <ele>206.06771850586</ele>
        <time>2014-06-07T13:58:30Z</time>
      </trkpt>
      <trkpt lat="43.41972" lon="6.11958">
        <ele>206.03225708008</ele>
        <time>2014-06-07T13:58:31Z</time>
      </trkpt>
      <trkpt lat="43.4197" lon="6.11959">
        <ele>206.11723327637</ele>
        <time>2014-06-07T13:58:33Z</time>
      </trkpt>
      <trkpt lat="43.41969" lon="6.11958">
        <ele>206.19453430176</ele>
        <time>2014-06-07T13:58:34Z</time>
      </trkpt>
      <trkpt lat="43.4196" lon="6.11951">
        <ele>207.33528137207</ele>
        <time>2014-06-07T13:58:40Z</time>
      </trkpt>
      <trkpt lat="43.41955" lon="6.11947">
        <ele>207.94027709961</ele>
        <time>2014-06-07T13:58:42Z</time>
      </trkpt>
      <trkpt lat="43.41951" lon="6.11946">
        <ele>208.30375671387</ele>
        <time>2014-06-07T13:58:43Z</time>
      </trkpt>
      <trkpt lat="43.4195" lon="6.11944">
        <ele>208.70153808594</ele>
        <time>2014-06-07T13:58:44Z</time>
      </trkpt>
      <trkpt lat="43.41945" lon="6.11939">
        <ele>209.7795715332</ele>
        <time>2014-06-07T13:58:46Z</time>
      </trkpt>
      <trkpt lat="43.4194" lon="6.11938">
        <ele>210.14535522461</ele>
        <time>2014-06-07T13:58:48Z</time>
      </trkpt>
      <trkpt lat="43.41921" lon="6.1193">
        <ele>212.35200500488</ele>
        <time>2014-06-07T13:58:55Z</time>
      </trkpt>
      <trkpt lat="43.41906" lon="6.11919">
        <ele>214.52951049805</ele>
        <time>2014-06-07T13:59:03Z</time>
      </trkpt>
      <trkpt lat="43.419" lon="6.11913">
        <ele>215.41677856445</ele>
        <time>2014-06-07T13:59:07Z</time>
      </trkpt>
      <trkpt lat="43.41885" lon="6.11898">
        <ele>217.22100830078</ele>
        <time>2014-06-07T13:59:16Z</time>
      </trkpt>
      <trkpt lat="43.41884" lon="6.11897">
        <ele>217.32325744629</ele>
        <time>2014-06-07T13:59:17Z</time>
      </trkpt>
      <trkpt lat="43.4188" lon="6.11893">
        <ele>217.20684814453</ele>
        <time>2014-06-07T13:59:20Z</time>
      </trkpt>
      <trkpt lat="43.41879" lon="6.11892">
        <ele>217.23411560059</ele>
        <time>2014-06-07T13:59:21Z</time>
      </trkpt>
      <trkpt lat="43.41873" lon="6.11887">
        <ele>216.93579101562</ele>
        <time>2014-06-07T13:59:26Z</time>
      </trkpt>
      <trkpt lat="43.41867" lon="6.11883">
        <ele>216.66976928711</ele>
        <time>2014-06-07T13:59:30Z</time>
      </trkpt>
      <trkpt lat="43.41864" lon="6.1188">
        <ele>216.57931518555</ele>
        <time>2014-06-07T13:59:33Z</time>
      </trkpt>
      <trkpt lat="43.41859" lon="6.11873">
        <ele>217.03207397461</ele>
        <time>2014-06-07T13:59:37Z</time>
      </trkpt>
      <trkpt lat="43.41849" lon="6.1186">
        <ele>217.35404968262</ele>
        <time>2014-06-07T13:59:45Z</time>
      </trkpt>
      <trkpt lat="43.41839" lon="6.11844">
        <ele>217.35475158691</ele>
        <time>2014-06-07T13:59:53Z</time>
      </trkpt>
      <trkpt lat="43.41834" lon="6.11833">
        <ele>218.09635925293</ele>
        <time>2014-06-07T14:00:00Z</time>
      </trkpt>
      <trkpt lat="43.41829" lon="6.1182">
        <ele>218.39163208008</ele>
        <time>2014-06-07T14:00:07Z</time>
      </trkpt>
      <trkpt lat="43.41823" lon="6.11812">
        <ele>218.10807800293</ele>
        <time>2014-06-07T14:00:11Z</time>
      </trkpt>
      <trkpt lat="43.41813" lon="6.11803">
        <ele>217.22470092773</ele>
        <time>2014-06-07T14:00:16Z</time>
      </trkpt>
      <trkpt lat="43.418" lon="6.11768">
        <ele>218.39262390137</ele>
        <time>2014-06-07T14:00:29Z</time>
      </trkpt>
      <trkpt lat="43.41792" lon="6.1175">
        <ele>219.02806091309</ele>
        <time>2014-06-07T14:00:35Z</time>
      </trkpt>
      <trkpt lat="43.4178" lon="6.11734">
        <ele>218.69425964356</ele>
        <time>2014-06-07T14:00:41Z</time>
      </trkpt>
      <trkpt lat="43.41772" lon="6.11721">
        <ele>218.80828857422</ele>
        <time>2014-06-07T14:00:46Z</time>
      </trkpt>
      <trkpt lat="43.41761" lon="6.11704">
        <ele>219.06405639648</ele>
        <time>2014-06-07T14:00:52Z</time>
      </trkpt>
      <trkpt lat="43.41758" lon="6.11686">
        <ele>219.50854492188</ele>
        <time>2014-06-07T14:00:58Z</time>
      </trkpt>
      <trkpt lat="43.41759" lon="6.11676">
        <ele>219.7781829834</ele>
        <time>2014-06-07T14:01:02Z</time>
      </trkpt>
      <trkpt lat="43.41763" lon="6.11664">
        <ele>220.03813171387</ele>
        <time>2014-06-07T14:01:07Z</time>
      </trkpt>
      <trkpt lat="43.41766" lon="6.11662">
        <ele>220.09155273438</ele>
        <time>2014-06-07T14:01:09Z</time>
      </trkpt>
      <trkpt lat="43.41771" lon="6.11661">
        <ele>220.15589904785</ele>
        <time>2014-06-07T14:01:11Z</time>
      </trkpt>
      <trkpt lat="43.41782" lon="6.11662">
        <ele>220.1524810791</ele>
        <time>2014-06-07T14:01:16Z</time>
      </trkpt>
      <trkpt lat="43.41786" lon="6.11661">
        <ele>220.15403747559</ele>
        <time>2014-06-07T14:01:18Z</time>
      </trkpt>
      <trkpt lat="43.41788" lon="6.11659">
        <ele>220.16944885254</ele>
        <time>2014-06-07T14:01:19Z</time>
      </trkpt>
      <trkpt lat="43.41789" lon="6.11652">
        <ele>220.30513000488</ele>
        <time>2014-06-07T14:01:23Z</time>
      </trkpt>
      <trkpt lat="43.41791" lon="6.11635">
        <ele>220.5322265625</ele>
        <time>2014-06-07T14:01:28Z</time>
      </trkpt>
      <trkpt lat="43.41792" lon="6.11612">
        <ele>220.50476074219</ele>
        <time>2014-06-07T14:01:35Z</time>
      </trkpt>
      <trkpt lat="43.41792" lon="6.11602">
        <ele>220.65173339844</ele>
        <time>2014-06-07T14:01:38Z</time>
      </trkpt>
      <trkpt lat="43.41792" lon="6.11594">
        <ele>220.81811523438</ele>
        <time>2014-06-07T14:01:41Z</time>
      </trkpt>
      <trkpt lat="43.4179" lon="6.11574">
        <ele>221.28898620606</ele>
        <time>2014-06-07T14:01:48Z</time>
      </trkpt>
      <trkpt lat="43.41786" lon="6.11559">
        <ele>221.65518188477</ele>
        <time>2014-06-07T14:01:55Z</time>
      </trkpt>
      <trkpt lat="43.41784" lon="6.11558">
        <ele>221.74418640137</ele>
        <time>2014-06-07T14:01:56Z</time>
      </trkpt>
      <trkpt lat="43.41778" lon="6.11558">
        <ele>221.99906921387</ele>
        <time>2014-06-07T14:01:58Z</time>
      </trkpt>
      <trkpt lat="43.41766" lon="6.11559">
        <ele>222.4111328125</ele>
        <time>2014-06-07T14:02:01Z</time>
      </trkpt>
      <trkpt lat="43.41751" lon="6.1156">
        <ele>222.94671630859</ele>
        <time>2014-06-07T14:02:05Z</time>
      </trkpt>
      <trkpt lat="43.41741" lon="6.1155">
        <ele>225.23013305664</ele>
        <time>2014-06-07T14:02:09Z</time>
      </trkpt>
      <trkpt lat="43.41727" lon="6.11532">
        <ele>228.94671630859</ele>
        <time>2014-06-07T14:02:17Z</time>
      </trkpt>
      <trkpt lat="43.41714" lon="6.11516">
        <ele>232.86190795898</ele>
        <time>2014-06-07T14:02:25Z</time>
      </trkpt>
      <trkpt lat="43.4171" lon="6.11509">
        <ele>234.21412658691</ele>
        <time>2014-06-07T14:02:28Z</time>
      </trkpt>
      <trkpt lat="43.41708" lon="6.11503">
        <ele>234.86979675293</ele>
        <time>2014-06-07T14:02:30Z</time>
      </trkpt>
      <trkpt lat="43.41707" lon="6.11496">
        <ele>235.54904174805</ele>
        <time>2014-06-07T14:02:33Z</time>
      </trkpt>
      <trkpt lat="43.41708" lon="6.11491">
        <ele>235.68980407715</ele>
        <time>2014-06-07T14:02:35Z</time>
      </trkpt>
      <trkpt lat="43.41709" lon="6.1149">
        <ele>235.63143920898</ele>
        <time>2014-06-07T14:02:36Z</time>
      </trkpt>
      <trkpt lat="43.41711" lon="6.11488">
        <ele>235.21258544922</ele>
        <time>2014-06-07T14:02:38Z</time>
      </trkpt>
      <trkpt lat="43.41711" lon="6.11487">
        <ele>235.26408386231</ele>
        <time>2014-06-07T14:02:39Z</time>
      </trkpt>
      <trkpt lat="43.41712" lon="6.11487">
        <ele>235.15765380859</ele>
        <time>2014-06-07T14:02:41Z</time>
      </trkpt>
      <trkpt lat="43.41712" lon="6.11487">
        <ele>235.15765380859</ele>
        <time>2014-06-07T14:03:04Z</time>
      </trkpt>
      <trkpt lat="43.41712" lon="6.11487">
        <ele>235.09585571289</ele>
        <time>2014-06-07T14:04:46Z</time>
      </trkpt>
      <trkpt lat="43.41712" lon="6.11487">
        <ele>235.09585571289</ele>
        <time>2014-06-07T14:04:58Z</time>
      </trkpt>
      <trkpt lat="43.41712" lon="6.11487">
        <ele>235.18511962891</ele>
        <time>2014-06-07T14:05:25Z</time>
      </trkpt>
      <trkpt lat="43.41712" lon="6.11487">
        <ele>235.18511962891</ele>
        <time>2014-06-07T14:05:39Z</time>
      </trkpt>
      <trkpt lat="43.41712" lon="6.11487">
        <ele>235.21601867676</ele>
        <time>2014-06-07T14:06:07Z</time>
      </trkpt>
      <trkpt lat="43.41712" lon="6.11487">
        <ele>235.21601867676</ele>
        <time>2014-06-07T14:06:27Z</time>
      </trkpt>
      <trkpt lat="43.41712" lon="6.11487">
        <ele>235.21601867676</ele>
        <time>2014-06-07T14:06:36Z</time>
      </trkpt>
      <trkpt lat="43.41712" lon="6.11486">
        <ele>235.14735412598</ele>
        <time>2014-06-07T14:06:41Z</time>
      </trkpt>
      <trkpt lat="43.41712" lon="6.11486">
        <ele>235.14735412598</ele>
        <time>2014-06-07T14:07:12Z</time>
      </trkpt>
      <trkpt lat="43.41712" lon="6.11486">
        <ele>235.18511962891</ele>
        <time>2014-06-07T14:07:25Z</time>
      </trkpt>
      <trkpt lat="43.41712" lon="6.11486">
        <ele>235.18511962891</ele>
        <time>2014-06-07T14:07:50Z</time>
      </trkpt>
      <trkpt lat="43.41712" lon="6.11486">
        <ele>235.26065063477</ele>
        <time>2014-06-07T14:08:06Z</time>
      </trkpt>
      <trkpt lat="43.41712" lon="6.11486">
        <ele>235.26065063477</ele>
        <time>2014-06-07T14:08:26Z</time>
      </trkpt>
      <trkpt lat="43.41712" lon="6.11485">
        <ele>235.31214904785</ele>
        <time>2014-06-07T14:08:52Z</time>
      </trkpt>
      <trkpt lat="43.41712" lon="6.11485">
        <ele>235.31214904785</ele>
        <time>2014-06-07T14:09:07Z</time>
      </trkpt>
      <trkpt lat="43.41711" lon="6.11485">
        <ele>235.40141296387</ele>
        <time>2014-06-07T14:09:22Z</time>
      </trkpt>
      <trkpt lat="43.41711" lon="6.11485">
        <ele>235.40141296387</ele>
        <time>2014-06-07T14:09:38Z</time>
      </trkpt>
      <trkpt lat="43.41711" lon="6.11485">
        <ele>235.40141296387</ele>
        <time>2014-06-07T14:09:50Z</time>
      </trkpt>
      <trkpt lat="43.41711" lon="6.11484">
        <ele>235.53187561035</ele>
        <time>2014-06-07T14:10:01Z</time>
      </trkpt>
      <trkpt lat="43.41711" lon="6.11484">
        <ele>235.53187561035</ele>
        <time>2014-06-07T14:10:20Z</time>
      </trkpt>
      <trkpt lat="43.41711" lon="6.11485">
        <ele>235.4220123291</ele>
        <time>2014-06-07T14:10:41Z</time>
      </trkpt>
      <trkpt lat="43.41711" lon="6.11485">
        <ele>235.4220123291</ele>
        <time>2014-06-07T14:10:59Z</time>
      </trkpt>
      <trkpt lat="43.41711" lon="6.11485">
        <ele>235.4220123291</ele>
        <time>2014-06-07T14:11:17Z</time>
      </trkpt>
      <trkpt lat="43.41712" lon="6.11484">
        <ele>235.37051391602</ele>
        <time>2014-06-07T14:11:23Z</time>
      </trkpt>
      <trkpt lat="43.41712" lon="6.11484">
        <ele>235.37051391602</ele>
        <time>2014-06-07T14:11:50Z</time>
      </trkpt>
      <trkpt lat="43.41712" lon="6.11484">
        <ele>235.31901550293</ele>
        <time>2014-06-07T14:12:04Z</time>
      </trkpt>
      <trkpt lat="43.41712" lon="6.11484">
        <ele>235.31901550293</ele>
        <time>2014-06-07T14:12:33Z</time>
      </trkpt>
      <trkpt lat="43.41712" lon="6.11484">
        <ele>235.30184936523</ele>
        <time>2014-06-07T14:13:46Z</time>
      </trkpt>
      <trkpt lat="43.41712" lon="6.11484">
        <ele>235.28811645508</ele>
        <time>2014-06-07T14:14:12Z</time>
      </trkpt>
      <trkpt lat="43.41712" lon="6.11484">
        <ele>235.30184936523</ele>
        <time>2014-06-07T14:14:19Z</time>
      </trkpt>
      <trkpt lat="43.41712" lon="6.11484">
        <ele>235.30184936523</ele>
        <time>2014-06-07T14:14:22Z</time>
      </trkpt>
      <trkpt lat="43.41714" lon="6.11481">
        <ele>235.10958862305</ele>
        <time>2014-06-07T14:14:25Z</time>
      </trkpt>
      <trkpt lat="43.41718" lon="6.11473">
        <ele>234.92762756348</ele>
        <time>2014-06-07T14:14:29Z</time>
      </trkpt>
      <trkpt lat="43.41719" lon="6.11466">
        <ele>234.79772949219</ele>
        <time>2014-06-07T14:14:32Z</time>
      </trkpt>
      <trkpt lat="43.41721" lon="6.11455">
        <ele>234.94232177734</ele>
        <time>2014-06-07T14:14:36Z</time>
      </trkpt>
      <trkpt lat="43.41719" lon="6.11447">
        <ele>235.564453125</ele>
        <time>2014-06-07T14:14:38Z</time>
      </trkpt>
      <trkpt lat="43.41718" lon="6.11439">
        <ele>235.87745666504</ele>
        <time>2014-06-07T14:14:41Z</time>
      </trkpt>
      <trkpt lat="43.41719" lon="6.11438">
        <ele>235.69816589356</ele>
        <time>2014-06-07T14:14:42Z</time>
      </trkpt>
      <trkpt lat="43.41721" lon="6.11438">
        <ele>235.45353698731</ele>
        <time>2014-06-07T14:14:46Z</time>
      </trkpt>
      <trkpt lat="43.41722" lon="6.11435">
        <ele>235.43907165527</ele>
        <time>2014-06-07T14:14:48Z</time>
      </trkpt>
      <trkpt lat="43.41722" lon="6.11433">
        <ele>235.50987243652</ele>
        <time>2014-06-07T14:14:49Z</time>
      </trkpt>
      <trkpt lat="43.41721" lon="6.11431">
        <ele>235.70426940918</ele>
        <time>2014-06-07T14:14:50Z</time>
      </trkpt>
      <trkpt lat="43.41718" lon="6.11423">
        <ele>236.38442993164</ele>
        <time>2014-06-07T14:14:55Z</time>
      </trkpt>
      <trkpt lat="43.4172" lon="6.11414">
        <ele>236.18530273438</ele>
        <time>2014-06-07T14:14:59Z</time>
      </trkpt>
      <trkpt lat="43.41722" lon="6.11379">
        <ele>233.66459655762</ele>
        <time>2014-06-07T14:15:13Z</time>
      </trkpt>
      <trkpt lat="43.41725" lon="6.11357">
        <ele>232.20809936523</ele>
        <time>2014-06-07T14:15:18Z</time>
      </trkpt>
      <trkpt lat="43.41725" lon="6.1135">
        <ele>231.74449157715</ele>
        <time>2014-06-07T14:15:20Z</time>
      </trkpt>
      <trkpt lat="43.41726" lon="6.11343">
        <ele>231.25164794922</ele>
        <time>2014-06-07T14:15:23Z</time>
      </trkpt>
      <trkpt lat="43.41726" lon="6.11339">
        <ele>230.91885375977</ele>
        <time>2014-06-07T14:15:25Z</time>
      </trkpt>
      <trkpt lat="43.41727" lon="6.11336">
        <ele>230.63780212402</ele>
        <time>2014-06-07T14:15:27Z</time>
      </trkpt>
      <trkpt lat="43.41727" lon="6.11334">
        <ele>230.52725219727</ele>
        <time>2014-06-07T14:15:28Z</time>
      </trkpt>
      <trkpt lat="43.41726" lon="6.11326">
        <ele>230.33375549316</ele>
        <time>2014-06-07T14:15:32Z</time>
      </trkpt>
      <trkpt lat="43.41726" lon="6.11317">
        <ele>229.96479797363</ele>
        <time>2014-06-07T14:15:37Z</time>
      </trkpt>
      <trkpt lat="43.41726" lon="6.11315">
        <ele>229.89755249023</ele>
        <time>2014-06-07T14:15:38Z</time>
      </trkpt>
      <trkpt lat="43.41727" lon="6.11307">
        <ele>229.40786743164</ele>
        <time>2014-06-07T14:15:43Z</time>
      </trkpt>
      <trkpt lat="43.41727" lon="6.11304">
        <ele>229.22895812988</ele>
        <time>2014-06-07T14:15:45Z</time>
      </trkpt>
      <trkpt lat="43.41727" lon="6.11297">
        <ele>228.6731262207</ele>
        <time>2014-06-07T14:15:50Z</time>
      </trkpt>
      <trkpt lat="43.41726" lon="6.11283">
        <ele>228.02536010742</ele>
        <time>2014-06-07T14:15:55Z</time>
      </trkpt>
      <trkpt lat="43.41725" lon="6.11258">
        <ele>227.65803527832</ele>
        <time>2014-06-07T14:16:02Z</time>
      </trkpt>
      <trkpt lat="43.41728" lon="6.11223">
        <ele>225.42515563965</ele>
        <time>2014-06-07T14:16:10Z</time>
      </trkpt>
      <trkpt lat="43.41732" lon="6.11189">
        <ele>223.12680053711</ele>
        <time>2014-06-07T14:16:18Z</time>
      </trkpt>
      <trkpt lat="43.41732" lon="6.11178">
        <ele>222.7165222168</ele>
        <time>2014-06-07T14:16:22Z</time>
      </trkpt>
      <trkpt lat="43.41732" lon="6.11176">
        <ele>222.6203918457</ele>
        <time>2014-06-07T14:16:23Z</time>
      </trkpt>
      <trkpt lat="43.41732" lon="6.11175">
        <ele>222.61009216309</ele>
        <time>2014-06-07T14:16:28Z</time>
      </trkpt>
      <trkpt lat="43.41732" lon="6.11175">
        <ele>222.61009216309</ele>
        <time>2014-06-07T14:16:33Z</time>
      </trkpt>
      <trkpt lat="43.41731" lon="6.11174">
        <ele>222.61009216309</ele>
        <time>2014-06-07T14:16:35Z</time>
      </trkpt>
      <trkpt lat="43.4173" lon="6.1117">
        <ele>222.54656982422</ele>
        <time>2014-06-07T14:16:38Z</time>
      </trkpt>
      <trkpt lat="43.41727" lon="6.11163">
        <ele>222.43882751465</ele>
        <time>2014-06-07T14:16:42Z</time>
      </trkpt>
      <trkpt lat="43.4172" lon="6.11153">
        <ele>222.26658630371</ele>
        <time>2014-06-07T14:16:47Z</time>
      </trkpt>
      <trkpt lat="43.41718" lon="6.11149">
        <ele>222.18748474121</ele>
        <time>2014-06-07T14:16:49Z</time>
      </trkpt>
      <trkpt lat="43.41718" lon="6.11147">
        <ele>222.11956787109</ele>
        <time>2014-06-07T14:16:50Z</time>
      </trkpt>
      <trkpt lat="43.41717" lon="6.11145">
        <ele>222.01477050781</ele>
        <time>2014-06-07T14:16:51Z</time>
      </trkpt>
      <trkpt lat="43.41717" lon="6.11142">
        <ele>221.82136535644</ele>
        <time>2014-06-07T14:16:53Z</time>
      </trkpt>
      <trkpt lat="43.41717" lon="6.1114">
        <ele>221.65170288086</ele>
        <time>2014-06-07T14:16:59Z</time>
      </trkpt>
      <trkpt lat="43.41717" lon="6.11138">
        <ele>221.52497863769</ele>
        <time>2014-06-07T14:17:06Z</time>
      </trkpt>
      <trkpt lat="43.41717" lon="6.11138">
        <ele>221.52841186523</ele>
        <time>2014-06-07T14:17:08Z</time>
      </trkpt>
      <trkpt lat="43.41718" lon="6.11143">
        <ele>221.81550598144</ele>
        <time>2014-06-07T14:17:11Z</time>
      </trkpt>
      <trkpt lat="43.41722" lon="6.11154">
        <ele>222.12944030762</ele>
        <time>2014-06-07T14:17:15Z</time>
      </trkpt>
      <trkpt lat="43.41727" lon="6.11164">
        <ele>222.44035339356</ele>
        <time>2014-06-07T14:17:19Z</time>
      </trkpt>
      <trkpt lat="43.41729" lon="6.11164">
        <ele>222.31494140625</ele>
        <time>2014-06-07T14:17:20Z</time>
      </trkpt>
      <trkpt lat="43.41729" lon="6.11152">
        <ele>221.57981872559</ele>
        <time>2014-06-07T14:17:24Z</time>
      </trkpt>
      <trkpt lat="43.41728" lon="6.11139">
        <ele>220.78901672363</ele>
        <time>2014-06-07T14:17:27Z</time>
      </trkpt>
      <trkpt lat="43.41728" lon="6.11133">
        <ele>220.56413269043</ele>
        <time>2014-06-07T14:17:28Z</time>
      </trkpt>
      <trkpt lat="43.41728" lon="6.11128">
        <ele>220.31402587891</ele>
        <time>2014-06-07T14:17:29Z</time>
      </trkpt>
      <trkpt lat="43.4173" lon="6.11102">
        <ele>218.57424926758</ele>
        <time>2014-06-07T14:17:33Z</time>
      </trkpt>
      <trkpt lat="43.4173" lon="6.11095">
        <ele>217.84698486328</ele>
        <time>2014-06-07T14:17:34Z</time>
      </trkpt>
      <trkpt lat="43.4173" lon="6.11087">
        <ele>217.1057434082</ele>
        <time>2014-06-07T14:17:35Z</time>
      </trkpt>
      <trkpt lat="43.4173" lon="6.1108">
        <ele>216.34146118164</ele>
        <time>2014-06-07T14:17:36Z</time>
      </trkpt>
      <trkpt lat="43.41729" lon="6.11073">
        <ele>215.5827331543</ele>
        <time>2014-06-07T14:17:37Z</time>
      </trkpt>
      <trkpt lat="43.41729" lon="6.11067">
        <ele>214.9853515625</ele>
        <time>2014-06-07T14:17:38Z</time>
      </trkpt>
      <trkpt lat="43.41729" lon="6.11063">
        <ele>214.51498413086</ele>
        <time>2014-06-07T14:17:39Z</time>
      </trkpt>
      <trkpt lat="43.4173" lon="6.11054">
        <ele>213.62030029297</ele>
        <time>2014-06-07T14:17:41Z</time>
      </trkpt>
      <trkpt lat="43.4173" lon="6.1105">
        <ele>213.29414367676</ele>
        <time>2014-06-07T14:17:42Z</time>
      </trkpt>
      <trkpt lat="43.41731" lon="6.11025">
        <ele>211.39511108398</ele>
        <time>2014-06-07T14:17:48Z</time>
      </trkpt>
      <trkpt lat="43.41732" lon="6.11016">
        <ele>210.32223510742</ele>
        <time>2014-06-07T14:17:51Z</time>
      </trkpt>
      <trkpt lat="43.41735" lon="6.11007">
        <ele>209.28540039062</ele>
        <time>2014-06-07T14:17:55Z</time>
      </trkpt>
      <trkpt lat="43.41737" lon="6.11002">
        <ele>208.66055297852</ele>
        <time>2014-06-07T14:17:58Z</time>
      </trkpt>
      <trkpt lat="43.41738" lon="6.11002">
        <ele>208.59875488281</ele>
        <time>2014-06-07T14:17:59Z</time>
      </trkpt>
      <trkpt lat="43.41744" lon="6.11003">
        <ele>208.54898071289</ele>
        <time>2014-06-07T14:18:02Z</time>
      </trkpt>
      <trkpt lat="43.41748" lon="6.11005">
        <ele>208.61077880859</ele>
        <time>2014-06-07T14:18:05Z</time>
      </trkpt>
      <trkpt lat="43.41749" lon="6.11006">
        <ele>208.734375</ele>
        <time>2014-06-07T14:18:06Z</time>
      </trkpt>
      <trkpt lat="43.4175" lon="6.11007">
        <ele>208.734375</ele>
        <time>2014-06-07T14:18:07Z</time>
      </trkpt>
      <trkpt lat="43.41751" lon="6.11005">
        <ele>208.45195007324</ele>
        <time>2014-06-07T14:18:09Z</time>
      </trkpt>
      <trkpt lat="43.41752" lon="6.11003">
        <ele>208.10748291016</ele>
        <time>2014-06-07T14:18:13Z</time>
      </trkpt>
      <trkpt lat="43.41752" lon="6.11003">
        <ele>208.10748291016</ele>
        <time>2014-06-07T14:18:15Z</time>
      </trkpt>
      <trkpt lat="43.41752" lon="6.11003">
        <ele>208.04479980469</ele>
        <time>2014-06-07T14:18:18Z</time>
      </trkpt>
      <trkpt lat="43.41753" lon="6.11002">
        <ele>207.86041259766</ele>
        <time>2014-06-07T14:18:29Z</time>
      </trkpt>
      <trkpt lat="43.41756" lon="6.10989">
        <ele>206.26052856445</ele>
        <time>2014-06-07T14:18:34Z</time>
      </trkpt>
      <trkpt lat="43.41756" lon="6.10986">
        <ele>205.8708190918</ele>
        <time>2014-06-07T14:18:35Z</time>
      </trkpt>
      <trkpt lat="43.41757" lon="6.10983">
        <ele>205.54830932617</ele>
        <time>2014-06-07T14:18:36Z</time>
      </trkpt>
      <trkpt lat="43.41757" lon="6.10979">
        <ele>205.18162536621</ele>
        <time>2014-06-07T14:18:37Z</time>
      </trkpt>
      <trkpt lat="43.41758" lon="6.10976">
        <ele>204.78550720215</ele>
        <time>2014-06-07T14:18:38Z</time>
      </trkpt>
      <trkpt lat="43.41758" lon="6.10972">
        <ele>204.36935424805</ele>
        <time>2014-06-07T14:18:39Z</time>
      </trkpt>
      <trkpt lat="43.41759" lon="6.10968">
        <ele>204.08746337891</ele>
        <time>2014-06-07T14:18:40Z</time>
      </trkpt>
      <trkpt lat="43.41759" lon="6.10959">
        <ele>203.53131103516</ele>
        <time>2014-06-07T14:18:42Z</time>
      </trkpt>
      <trkpt lat="43.41759" lon="6.10954">
        <ele>203.21447753906</ele>
        <time>2014-06-07T14:18:43Z</time>
      </trkpt>
      <trkpt lat="43.41759" lon="6.10933">
        <ele>201.59017944336</ele>
        <time>2014-06-07T14:18:48Z</time>
      </trkpt>
      <trkpt lat="43.41757" lon="6.10921">
        <ele>200.39674377441</ele>
        <time>2014-06-07T14:18:51Z</time>
      </trkpt>
      <trkpt lat="43.41754" lon="6.10918">
        <ele>200.1512298584</ele>
        <time>2014-06-07T14:18:52Z</time>
      </trkpt>
      <trkpt lat="43.41751" lon="6.10916">
        <ele>199.87902832031</ele>
        <time>2014-06-07T14:18:53Z</time>
      </trkpt>
      <trkpt lat="43.41747" lon="6.10914">
        <ele>199.66319274902</ele>
        <time>2014-06-07T14:18:54Z</time>
      </trkpt>
      <trkpt lat="43.41743" lon="6.10912">
        <ele>199.43446350098</ele>
        <time>2014-06-07T14:18:55Z</time>
      </trkpt>
      <trkpt lat="43.4174" lon="6.1091">
        <ele>199.10810852051</ele>
        <time>2014-06-07T14:18:56Z</time>
      </trkpt>
      <trkpt lat="43.41733" lon="6.10904">
        <ele>198.07411193848</ele>
        <time>2014-06-07T14:18:58Z</time>
      </trkpt>
      <trkpt lat="43.41729" lon="6.10901">
        <ele>197.47900390625</ele>
        <time>2014-06-07T14:18:59Z</time>
      </trkpt>
      <trkpt lat="43.41726" lon="6.10898">
        <ele>196.88339233398</ele>
        <time>2014-06-07T14:19:00Z</time>
      </trkpt>
      <trkpt lat="43.41723" lon="6.10895">
        <ele>196.35575866699</ele>
        <time>2014-06-07T14:19:01Z</time>
      </trkpt>
      <trkpt lat="43.41721" lon="6.10892">
        <ele>195.82087707519</ele>
        <time>2014-06-07T14:19:02Z</time>
      </trkpt>
      <trkpt lat="43.41719" lon="6.10891">
        <ele>195.53648376465</ele>
        <time>2014-06-07T14:19:03Z</time>
      </trkpt>
      <trkpt lat="43.41718" lon="6.10891">
        <ele>195.50143432617</ele>
        <time>2014-06-07T14:19:07Z</time>
      </trkpt>
      <trkpt lat="43.41718" lon="6.10891">
        <ele>195.50143432617</ele>
        <time>2014-06-07T14:19:30Z</time>
      </trkpt>
      <trkpt lat="43.41718" lon="6.1089">
        <ele>195.46237182617</ele>
        <time>2014-06-07T14:19:45Z</time>
      </trkpt>
      <trkpt lat="43.41718" lon="6.1089">
        <ele>195.46237182617</ele>
        <time>2014-06-07T14:20:12Z</time>
      </trkpt>
      <trkpt lat="43.41717" lon="6.10891">
        <ele>195.60499572754</ele>
        <time>2014-06-07T14:20:14Z</time>
      </trkpt>
      <trkpt lat="43.41706" lon="6.10883">
        <ele>195.56719970703</ele>
        <time>2014-06-07T14:20:20Z</time>
      </trkpt>
      <trkpt lat="43.41699" lon="6.10875">
        <ele>195.84185791016</ele>
        <time>2014-06-07T14:20:23Z</time>
      </trkpt>
      <trkpt lat="43.41696" lon="6.10873">
        <ele>195.95172119141</ele>
        <time>2014-06-07T14:20:24Z</time>
      </trkpt>
      <trkpt lat="43.41674" lon="6.10858">
        <ele>196.72076416016</ele>
        <time>2014-06-07T14:20:31Z</time>
      </trkpt>
      <trkpt lat="43.41663" lon="6.10854">
        <ele>197.146484375</ele>
        <time>2014-06-07T14:20:35Z</time>
      </trkpt>
      <trkpt lat="43.41652" lon="6.10853">
        <ele>197.54473876953</ele>
        <time>2014-06-07T14:20:39Z</time>
      </trkpt>
      <trkpt lat="43.41649" lon="6.10853">
        <ele>197.62713623047</ele>
        <time>2014-06-07T14:20:40Z</time>
      </trkpt>
      <trkpt lat="43.41629" lon="6.10857">
        <ele>198.48010253906</ele>
        <time>2014-06-07T14:20:46Z</time>
      </trkpt>
      <trkpt lat="43.41618" lon="6.10866">
        <ele>198.73950195312</ele>
        <time>2014-06-07T14:20:50Z</time>
      </trkpt>
      <trkpt lat="43.41615" lon="6.10875">
        <ele>198.84936523438</ele>
        <time>2014-06-07T14:20:52Z</time>
      </trkpt>
      <trkpt lat="43.41615" lon="6.10879">
        <ele>198.86309814453</ele>
        <time>2014-06-07T14:20:53Z</time>
      </trkpt>
      <trkpt lat="43.41615" lon="6.10895">
        <ele>199.13220214844</ele>
        <time>2014-06-07T14:20:58Z</time>
      </trkpt>
      <trkpt lat="43.41617" lon="6.10907">
        <ele>199.59625244141</ele>
        <time>2014-06-07T14:21:03Z</time>
      </trkpt>
      <trkpt lat="43.41617" lon="6.10919">
        <ele>200</ele>
        <time>2014-06-07T14:21:07Z</time>
      </trkpt>
      <trkpt lat="43.41617" lon="6.10923">
        <ele>200</ele>
        <time>2014-06-07T14:21:08Z</time>
      </trkpt>
      <trkpt lat="43.41616" lon="6.10947">
        <ele>200</ele>
        <time>2014-06-07T14:21:14Z</time>
      </trkpt>
      <trkpt lat="43.41612" lon="6.10967">
        <ele>200</ele>
        <time>2014-06-07T14:21:19Z</time>
      </trkpt>
      <trkpt lat="43.41606" lon="6.10992">
        <ele>201.19468688965</ele>
        <time>2014-06-07T14:21:25Z</time>
      </trkpt>
      <trkpt lat="43.41602" lon="6.11009">
        <ele>202.72546386719</ele>
        <time>2014-06-07T14:21:29Z</time>
      </trkpt>
      <trkpt lat="43.41601" lon="6.11034">
        <ele>205.84982299805</ele>
        <time>2014-06-07T14:21:35Z</time>
      </trkpt>
      <trkpt lat="43.41599" lon="6.11049">
        <ele>207.13899230957</ele>
        <time>2014-06-07T14:21:39Z</time>
      </trkpt>
      <trkpt lat="43.41599" lon="6.11053">
        <ele>207.51837158203</ele>
        <time>2014-06-07T14:21:40Z</time>
      </trkpt>
      <trkpt lat="43.41593" lon="6.11077">
        <ele>209.75436401367</ele>
        <time>2014-06-07T14:21:46Z</time>
      </trkpt>
      <trkpt lat="43.41584" lon="6.11099">
        <ele>210.53536987305</ele>
        <time>2014-06-07T14:21:52Z</time>
      </trkpt>
      <trkpt lat="43.41575" lon="6.11112">
        <ele>211.45207214356</ele>
        <time>2014-06-07T14:21:56Z</time>
      </trkpt>
      <trkpt lat="43.41568" lon="6.11121">
        <ele>211.54820251465</ele>
        <time>2014-06-07T14:21:59Z</time>
      </trkpt>
      <trkpt lat="43.4156" lon="6.11129">
        <ele>211.5791015625</ele>
        <time>2014-06-07T14:22:02Z</time>
      </trkpt>
      <trkpt lat="43.41551" lon="6.11134">
        <ele>211.87361145019</ele>
        <time>2014-06-07T14:22:05Z</time>
      </trkpt>
      <trkpt lat="43.41536" lon="6.11141">
        <ele>212.86952209473</ele>
        <time>2014-06-07T14:22:09Z</time>
      </trkpt>
      <trkpt lat="43.41526" lon="6.11149">
        <ele>213.79266357422</ele>
        <time>2014-06-07T14:22:12Z</time>
      </trkpt>
      <trkpt lat="43.41518" lon="6.11154">
        <ele>214.41751098633</ele>
        <time>2014-06-07T14:22:14Z</time>
      </trkpt>
      <trkpt lat="43.41511" lon="6.11157">
        <ele>214.89472961426</ele>
        <time>2014-06-07T14:22:16Z</time>
      </trkpt>
      <trkpt lat="43.41484" lon="6.11163">
        <ele>215.76319885254</ele>
        <time>2014-06-07T14:22:23Z</time>
      </trkpt>
      <trkpt lat="43.4146" lon="6.11164">
        <ele>215.8387298584</ele>
        <time>2014-06-07T14:22:29Z</time>
      </trkpt>
      <trkpt lat="43.4145" lon="6.11168">
        <ele>216.04638671875</ele>
        <time>2014-06-07T14:22:33Z</time>
      </trkpt>
      <trkpt lat="43.41449" lon="6.11168">
        <ele>216.06184387207</ele>
        <time>2014-06-07T14:22:37Z</time>
      </trkpt>
      <trkpt lat="43.41449" lon="6.11168">
        <ele>216.06184387207</ele>
        <time>2014-06-07T14:22:51Z</time>
      </trkpt>
      <trkpt lat="43.41449" lon="6.11168">
        <ele>216.06184387207</ele>
        <time>2014-06-07T14:23:11Z</time>
      </trkpt>
      <trkpt lat="43.41447" lon="6.11169">
        <ele>216.08930969238</ele>
        <time>2014-06-07T14:23:17Z</time>
      </trkpt>
      <trkpt lat="43.41451" lon="6.11168">
        <ele>216.05841064453</ele>
        <time>2014-06-07T14:23:21Z</time>
      </trkpt>
      <trkpt lat="43.41461" lon="6.11161">
        <ele>215.62586975098</ele>
        <time>2014-06-07T14:23:27Z</time>
      </trkpt>
      <trkpt lat="43.41462" lon="6.11159">
        <ele>215.44390869141</ele>
        <time>2014-06-07T14:23:28Z</time>
      </trkpt>
      <trkpt lat="43.41463" lon="6.11152">
        <ele>214.91175842285</ele>
        <time>2014-06-07T14:23:31Z</time>
      </trkpt>
      <trkpt lat="43.41463" lon="6.11149">
        <ele>214.71949768066</ele>
        <time>2014-06-07T14:23:32Z</time>
      </trkpt>
      <trkpt lat="43.41463" lon="6.11146">
        <ele>214.49290466309</ele>
        <time>2014-06-07T14:23:33Z</time>
      </trkpt>
      <trkpt lat="43.41463" lon="6.11139">
        <ele>214.01911926269</ele>
        <time>2014-06-07T14:23:35Z</time>
      </trkpt>
      <trkpt lat="43.41465" lon="6.11132">
        <ele>213.74348449707</ele>
        <time>2014-06-07T14:23:37Z</time>
      </trkpt>
      <trkpt lat="43.41469" lon="6.11113">
        <ele>213.06370544434</ele>
        <time>2014-06-07T14:23:43Z</time>
      </trkpt>
      <trkpt lat="43.41469" lon="6.1111">
        <ele>212.97100830078</ele>
        <time>2014-06-07T14:23:44Z</time>
      </trkpt>
      <trkpt lat="43.41471" lon="6.11105">
        <ele>212.78904724121</ele>
        <time>2014-06-07T14:23:46Z</time>
      </trkpt>
      <trkpt lat="43.41481" lon="6.11097">
        <ele>212.48348999023</ele>
        <time>2014-06-07T14:23:53Z</time>
      </trkpt>
      <trkpt lat="43.41489" lon="6.11093">
        <ele>212.35302734375</ele>
        <time>2014-06-07T14:23:57Z</time>
      </trkpt>
      <trkpt lat="43.41491" lon="6.11091">
        <ele>212.27062988281</ele>
        <time>2014-06-07T14:23:59Z</time>
      </trkpt>
      <trkpt lat="43.41492" lon="6.1109">
        <ele>212.22256469727</ele>
        <time>2014-06-07T14:24:03Z</time>
      </trkpt>
      <trkpt lat="43.41494" lon="6.11091">
        <ele>212.26376342773</ele>
        <time>2014-06-07T14:24:11Z</time>
      </trkpt>
      <trkpt lat="43.41495" lon="6.11091">
        <ele>212.26547241211</ele>
        <time>2014-06-07T14:24:14Z</time>
      </trkpt>
      <trkpt lat="43.41495" lon="6.11091">
        <ele>212.26547241211</ele>
        <time>2014-06-07T14:24:19Z</time>
      </trkpt>
      <trkpt lat="43.41495" lon="6.1109">
        <ele>212.25346374512</ele>
        <time>2014-06-07T14:24:21Z</time>
      </trkpt>
      <trkpt lat="43.41495" lon="6.1109">
        <ele>212.23458862305</ele>
        <time>2014-06-07T14:24:24Z</time>
      </trkpt>
      <trkpt lat="43.41495" lon="6.11089">
        <ele>212.21054077148</ele>
        <time>2014-06-07T14:24:30Z</time>
      </trkpt>
      <trkpt lat="43.41492" lon="6.11085">
        <ele>212.05090332031</ele>
        <time>2014-06-07T14:24:36Z</time>
      </trkpt>
      <trkpt lat="43.41491" lon="6.11083">
        <ele>211.96447753906</ele>
        <time>2014-06-07T14:24:38Z</time>
      </trkpt>
      <trkpt lat="43.41489" lon="6.1108">
        <ele>211.77565002441</ele>
        <time>2014-06-07T14:24:46Z</time>
      </trkpt>
      <trkpt lat="43.4149" lon="6.11079">
        <ele>211.68295288086</ele>
        <time>2014-06-07T14:24:52Z</time>
      </trkpt>
      <trkpt lat="43.4149" lon="6.11079">
        <ele>211.68295288086</ele>
        <time>2014-06-07T14:25:14Z</time>
      </trkpt>
      <trkpt lat="43.4149" lon="6.11079">
        <ele>211.68295288086</ele>
        <time>2014-06-07T14:25:20Z</time>
      </trkpt>
      <trkpt lat="43.41491" lon="6.11078">
        <ele>211.63145446777</ele>
        <time>2014-06-07T14:25:25Z</time>
      </trkpt>
      <trkpt lat="43.41492" lon="6.11077">
        <ele>211.55592346191</ele>
        <time>2014-06-07T14:25:26Z</time>
      </trkpt>
      <trkpt lat="43.41496" lon="6.11069">
        <ele>210.98257446289</ele>
        <time>2014-06-07T14:25:30Z</time>
      </trkpt>
      <trkpt lat="43.41498" lon="6.11063">
        <ele>210.51222229004</ele>
        <time>2014-06-07T14:25:33Z</time>
      </trkpt>
      <trkpt lat="43.41499" lon="6.11058">
        <ele>210.19293212891</ele>
        <time>2014-06-07T14:25:35Z</time>
      </trkpt>
      <trkpt lat="43.415" lon="6.1105">
        <ele>210.15795898438</ele>
        <time>2014-06-07T14:25:38Z</time>
      </trkpt>
      <trkpt lat="43.41503" lon="6.11044">
        <ele>210.0828704834</ele>
        <time>2014-06-07T14:25:40Z</time>
      </trkpt>
      <trkpt lat="43.41509" lon="6.11028">
        <ele>209.66401672363</ele>
        <time>2014-06-07T14:25:45Z</time>
      </trkpt>
      <trkpt lat="43.41513" lon="6.1102">
        <ele>209.22135925293</ele>
        <time>2014-06-07T14:25:47Z</time>
      </trkpt>
      <trkpt lat="43.41516" lon="6.11007">
        <ele>208.34631347656</ele>
        <time>2014-06-07T14:25:50Z</time>
      </trkpt>
      <trkpt lat="43.41521" lon="6.10985">
        <ele>209.93089294434</ele>
        <time>2014-06-07T14:25:55Z</time>
      </trkpt>
      <trkpt lat="43.41524" lon="6.10969">
        <ele>211.75569152832</ele>
        <time>2014-06-07T14:25:59Z</time>
      </trkpt>
      <trkpt lat="43.41529" lon="6.10949">
        <ele>212.56698608398</ele>
        <time>2014-06-07T14:26:05Z</time>
      </trkpt>
      <trkpt lat="43.41536" lon="6.10923">
        <ele>215.76507568359</ele>
        <time>2014-06-07T14:26:11Z</time>
      </trkpt>
      <trkpt lat="43.41538" lon="6.10921">
        <ele>215.38136291504</ele>
        <time>2014-06-07T14:26:12Z</time>
      </trkpt>
      <trkpt lat="43.41546" lon="6.10903">
        <ele>215.41204833984</ele>
        <time>2014-06-07T14:26:16Z</time>
      </trkpt>
      <trkpt lat="43.41553" lon="6.10878">
        <ele>217.61219787598</ele>
        <time>2014-06-07T14:26:21Z</time>
      </trkpt>
      <trkpt lat="43.41564" lon="6.10856">
        <ele>217.93185424805</ele>
        <time>2014-06-07T14:26:26Z</time>
      </trkpt>
      <trkpt lat="43.41574" lon="6.10842">
        <ele>217.65490722656</ele>
        <time>2014-06-07T14:26:29Z</time>
      </trkpt>
      <trkpt lat="43.41586" lon="6.10828">
        <ele>216.14276123047</ele>
        <time>2014-06-07T14:26:32Z</time>
      </trkpt>
      <trkpt lat="43.41594" lon="6.10817">
        <ele>214.77288818359</ele>
        <time>2014-06-07T14:26:35Z</time>
      </trkpt>
      <trkpt lat="43.41597" lon="6.10814">
        <ele>214.0399017334</ele>
        <time>2014-06-07T14:26:36Z</time>
      </trkpt>
      <trkpt lat="43.41611" lon="6.108">
        <ele>209.79190063477</ele>
        <time>2014-06-07T14:26:41Z</time>
      </trkpt>
      <trkpt lat="43.41619" lon="6.10778">
        <ele>209.93139648438</ele>
        <time>2014-06-07T14:26:45Z</time>
      </trkpt>
      <trkpt lat="43.41621" lon="6.10772">
        <ele>210.07247924805</ele>
        <time>2014-06-07T14:26:46Z</time>
      </trkpt>
      <trkpt lat="43.41623" lon="6.10767">
        <ele>210.11773681641</ele>
        <time>2014-06-07T14:26:47Z</time>
      </trkpt>
      <trkpt lat="43.41625" lon="6.10762">
        <ele>209.7706451416</ele>
        <time>2014-06-07T14:26:48Z</time>
      </trkpt>
      <trkpt lat="43.41628" lon="6.10757">
        <ele>209.28311157227</ele>
        <time>2014-06-07T14:26:49Z</time>
      </trkpt>
      <trkpt lat="43.41634" lon="6.10735">
        <ele>208.34925842285</ele>
        <time>2014-06-07T14:26:53Z</time>
      </trkpt>
      <trkpt lat="43.41633" lon="6.10731">
        <ele>209.373046875</ele>
        <time>2014-06-07T14:26:54Z</time>
      </trkpt>
      <trkpt lat="43.41631" lon="6.10721">
        <ele>211.36328125</ele>
        <time>2014-06-07T14:26:58Z</time>
      </trkpt>
      <trkpt lat="43.41631" lon="6.10719">
        <ele>211.49859619141</ele>
        <time>2014-06-07T14:26:59Z</time>
      </trkpt>
      <trkpt lat="43.41631" lon="6.10716">
        <ele>211.48698425293</ele>
        <time>2014-06-07T14:27:01Z</time>
      </trkpt>
      <trkpt lat="43.41631" lon="6.10709">
        <ele>212.11636352539</ele>
        <time>2014-06-07T14:27:04Z</time>
      </trkpt>
      <trkpt lat="43.41631" lon="6.10707">
        <ele>212.21931457519</ele>
        <time>2014-06-07T14:27:05Z</time>
      </trkpt>
      <trkpt lat="43.41631" lon="6.10705">
        <ele>212.33993530273</ele>
        <time>2014-06-07T14:27:06Z</time>
      </trkpt>
      <trkpt lat="43.41631" lon="6.10701">
        <ele>212.57527160644</ele>
        <time>2014-06-07T14:27:08Z</time>
      </trkpt>
      <trkpt lat="43.41631" lon="6.10701">
        <ele>212.43290710449</ele>
        <time>2014-06-07T14:27:09Z</time>
      </trkpt>
      <trkpt lat="43.41632" lon="6.107">
        <ele>212.24656677246</ele>
        <time>2014-06-07T14:27:11Z</time>
      </trkpt>
      <trkpt lat="43.41632" lon="6.10699">
        <ele>212.36015319824</ele>
        <time>2014-06-07T14:27:17Z</time>
      </trkpt>
      <trkpt lat="43.41632" lon="6.10696">
        <ele>212.50660705566</ele>
        <time>2014-06-07T14:27:19Z</time>
      </trkpt>
      <trkpt lat="43.41632" lon="6.10693">
        <ele>212.81567382812</ele>
        <time>2014-06-07T14:27:23Z</time>
      </trkpt>
      <trkpt lat="43.41631" lon="6.10686">
        <ele>213.83647155762</ele>
        <time>2014-06-07T14:27:30Z</time>
      </trkpt>
      <trkpt lat="43.41632" lon="6.10683">
        <ele>213.5323638916</ele>
        <time>2014-06-07T14:27:35Z</time>
      </trkpt>
      <trkpt lat="43.41632" lon="6.10679">
        <ele>214.13320922852</ele>
        <time>2014-06-07T14:27:41Z</time>
      </trkpt>
      <trkpt lat="43.41632" lon="6.10676">
        <ele>214.45318603516</ele>
        <time>2014-06-07T14:27:47Z</time>
      </trkpt>
      <trkpt lat="43.41631" lon="6.10673">
        <ele>215.07559204102</ele>
        <time>2014-06-07T14:27:50Z</time>
      </trkpt>
      <trkpt lat="43.41631" lon="6.10669">
        <ele>215.6328125</ele>
        <time>2014-06-07T14:27:57Z</time>
      </trkpt>
      <trkpt lat="43.41631" lon="6.10669">
        <ele>215.6328125</ele>
        <time>2014-06-07T14:28:05Z</time>
      </trkpt>
      <trkpt lat="43.41631" lon="6.10669">
        <ele>215.62817382812</ele>
        <time>2014-06-07T14:28:12Z</time>
      </trkpt>
      <trkpt lat="43.41631" lon="6.10669">
        <ele>215.62817382812</ele>
        <time>2014-06-07T14:28:18Z</time>
      </trkpt>
      <trkpt lat="43.41631" lon="6.10666">
        <ele>215.92565917969</ele>
        <time>2014-06-07T14:28:21Z</time>
      </trkpt>
      <trkpt lat="43.4163" lon="6.10663">
        <ele>216.4313659668</ele>
        <time>2014-06-07T14:28:23Z</time>
      </trkpt>
      <trkpt lat="43.4163" lon="6.10661">
        <ele>216.51112365723</ele>
        <time>2014-06-07T14:28:24Z</time>
      </trkpt>
      <trkpt lat="43.4163" lon="6.10658">
        <ele>216.48783874512</ele>
        <time>2014-06-07T14:28:26Z</time>
      </trkpt>
      <trkpt lat="43.41631" lon="6.10654">
        <ele>216.31434631348</ele>
        <time>2014-06-07T14:28:28Z</time>
      </trkpt>
      <trkpt lat="43.41632" lon="6.10649">
        <ele>216.16290283203</ele>
        <time>2014-06-07T14:28:30Z</time>
      </trkpt>
      <trkpt lat="43.41631" lon="6.1064">
        <ele>216.77612304688</ele>
        <time>2014-06-07T14:28:35Z</time>
      </trkpt>
      <trkpt lat="43.41633" lon="6.10626">
        <ele>216.25012207031</ele>
        <time>2014-06-07T14:28:42Z</time>
      </trkpt>
      <trkpt lat="43.41633" lon="6.10621">
        <ele>216.32559204102</ele>
        <time>2014-06-07T14:28:44Z</time>
      </trkpt>
      <trkpt lat="43.41634" lon="6.10609">
        <ele>216.04296875</ele>
        <time>2014-06-07T14:28:50Z</time>
      </trkpt>
      <trkpt lat="43.41634" lon="6.10605">
        <ele>215.8232421875</ele>
        <time>2014-06-07T14:28:52Z</time>
      </trkpt>
      <trkpt lat="43.41634" lon="6.10603">
        <ele>216.04296875</ele>
        <time>2014-06-07T14:28:54Z</time>
      </trkpt>
      <trkpt lat="43.41634" lon="6.10597">
        <ele>215.8232421875</ele>
        <time>2014-06-07T14:28:59Z</time>
      </trkpt>
      <trkpt lat="43.41633" lon="6.10584">
        <ele>216.2626953125</ele>
        <time>2014-06-07T14:29:06Z</time>
      </trkpt>
      <trkpt lat="43.41632" lon="6.10579">
        <ele>216.921875</ele>
        <time>2014-06-07T14:29:09Z</time>
      </trkpt>
      <trkpt lat="43.41631" lon="6.10576">
        <ele>217.5810546875</ele>
        <time>2014-06-07T14:29:11Z</time>
      </trkpt>
      <trkpt lat="43.4163" lon="6.10574">
        <ele>218.240234375</ele>
        <time>2014-06-07T14:29:13Z</time>
      </trkpt>
      <trkpt lat="43.4163" lon="6.10572">
        <ele>218.240234375</ele>
        <time>2014-06-07T14:29:16Z</time>
      </trkpt>
      <trkpt lat="43.41628" lon="6.10567">
        <ele>219.55859375</ele>
        <time>2014-06-07T14:29:22Z</time>
      </trkpt>
      <trkpt lat="43.41626" lon="6.10557">
        <ele>220.6572265625</ele>
        <time>2014-06-07T14:29:28Z</time>
      </trkpt>
      <trkpt lat="43.41624" lon="6.10554">
        <ele>221.27528381348</ele>
        <time>2014-06-07T14:29:30Z</time>
      </trkpt>
      <trkpt lat="43.41623" lon="6.10552">
        <ele>222.26141357422</ele>
        <time>2014-06-07T14:29:33Z</time>
      </trkpt>
      <trkpt lat="43.41621" lon="6.10551">
        <ele>222.88172912598</ele>
        <time>2014-06-07T14:29:35Z</time>
      </trkpt>
      <trkpt lat="43.41622" lon="6.10551">
        <ele>222.64506530762</ele>
        <time>2014-06-07T14:29:40Z</time>
      </trkpt>
      <trkpt lat="43.41622" lon="6.10551">
        <ele>222.6344909668</ele>
        <time>2014-06-07T14:29:46Z</time>
      </trkpt>
      <trkpt lat="43.41622" lon="6.10549">
        <ele>222.57527160644</ele>
        <time>2014-06-07T14:29:52Z</time>
      </trkpt>
      <trkpt lat="43.41622" lon="6.10548">
        <ele>222.32043457031</ele>
        <time>2014-06-07T14:29:59Z</time>
      </trkpt>
      <trkpt lat="43.41621" lon="6.10545">
        <ele>222.80569458008</ele>
        <time>2014-06-07T14:30:04Z</time>
      </trkpt>
      <trkpt lat="43.41619" lon="6.10537">
        <ele>223.6329498291</ele>
        <time>2014-06-07T14:30:10Z</time>
      </trkpt>
      <trkpt lat="43.41618" lon="6.10536">
        <ele>223.80621337891</ele>
        <time>2014-06-07T14:30:12Z</time>
      </trkpt>
      <trkpt lat="43.41618" lon="6.10536">
        <ele>223.80113220215</ele>
        <time>2014-06-07T14:30:13Z</time>
      </trkpt>
      <trkpt lat="43.41618" lon="6.10536">
        <ele>223.80113220215</ele>
        <time>2014-06-07T14:30:14Z</time>
      </trkpt>
      <trkpt lat="43.41618" lon="6.10534">
        <ele>223.89051818848</ele>
        <time>2014-06-07T14:30:18Z</time>
      </trkpt>
      <trkpt lat="43.41615" lon="6.10527">
        <ele>224.7795715332</ele>
        <time>2014-06-07T14:30:30Z</time>
      </trkpt>
      <trkpt lat="43.41613" lon="6.10519">
        <ele>225.01324462891</ele>
        <time>2014-06-07T14:30:39Z</time>
      </trkpt>
      <trkpt lat="43.41613" lon="6.10517">
        <ele>225.11459350586</ele>
        <time>2014-06-07T14:30:43Z</time>
      </trkpt>
      <trkpt lat="43.41612" lon="6.10516">
        <ele>225.21644592285</ele>
        <time>2014-06-07T14:30:44Z</time>
      </trkpt>
      <trkpt lat="43.41612" lon="6.10516">
        <ele>225.35125732422</ele>
        <time>2014-06-07T14:30:46Z</time>
      </trkpt>
      <trkpt lat="43.41611" lon="6.10513">
        <ele>225.51431274414</ele>
        <time>2014-06-07T14:30:51Z</time>
      </trkpt>
      <trkpt lat="43.4161" lon="6.10512">
        <ele>225.61305236816</ele>
        <time>2014-06-07T14:30:58Z</time>
      </trkpt>
      <trkpt lat="43.4161" lon="6.10512">
        <ele>225.61305236816</ele>
        <time>2014-06-07T14:30:59Z</time>
      </trkpt>
      <trkpt lat="43.41609" lon="6.1051">
        <ele>225.84637451172</ele>
        <time>2014-06-07T14:31:01Z</time>
      </trkpt>
      <trkpt lat="43.41607" lon="6.10505">
        <ele>225.9587097168</ele>
        <time>2014-06-07T14:31:03Z</time>
      </trkpt>
      <trkpt lat="43.41601" lon="6.10493">
        <ele>226.68190002441</ele>
        <time>2014-06-07T14:31:07Z</time>
      </trkpt>
      <trkpt lat="43.41599" lon="6.10486">
        <ele>226.81922912598</ele>
        <time>2014-06-07T14:31:09Z</time>
      </trkpt>
      <trkpt lat="43.41598" lon="6.10476">
        <ele>226.61666870117</ele>
        <time>2014-06-07T14:31:12Z</time>
      </trkpt>
      <trkpt lat="43.41595" lon="6.10465">
        <ele>226.56481933594</ele>
        <time>2014-06-07T14:31:15Z</time>
      </trkpt>
      <trkpt lat="43.41594" lon="6.10463">
        <ele>226.65585327148</ele>
        <time>2014-06-07T14:31:16Z</time>
      </trkpt>
      <trkpt lat="43.41592" lon="6.10457">
        <ele>226.57586669922</ele>
        <time>2014-06-07T14:31:19Z</time>
      </trkpt>
      <trkpt lat="43.41593" lon="6.10448">
        <ele>225.45823669434</ele>
        <time>2014-06-07T14:31:25Z</time>
      </trkpt>
      <trkpt lat="43.41594" lon="6.10435">
        <ele>223.86222839356</ele>
        <time>2014-06-07T14:31:29Z</time>
      </trkpt>
      <trkpt lat="43.4159" lon="6.10411">
        <ele>222.31852722168</ele>
        <time>2014-06-07T14:31:35Z</time>
      </trkpt>
      <trkpt lat="43.41589" lon="6.10398">
        <ele>221.31491088867</ele>
        <time>2014-06-07T14:31:38Z</time>
      </trkpt>
      <trkpt lat="43.41589" lon="6.10393">
        <ele>220.77467346191</ele>
        <time>2014-06-07T14:31:39Z</time>
      </trkpt>
      <trkpt lat="43.41589" lon="6.10387">
        <ele>220.27114868164</ele>
        <time>2014-06-07T14:31:40Z</time>
      </trkpt>
      <trkpt lat="43.41589" lon="6.1038">
        <ele>219.86695861816</ele>
        <time>2014-06-07T14:31:41Z</time>
      </trkpt>
      <trkpt lat="43.41586" lon="6.10366">
        <ele>219.16957092285</ele>
        <time>2014-06-07T14:31:43Z</time>
      </trkpt>
      <trkpt lat="43.41576" lon="6.10349">
        <ele>219.33540344238</ele>
        <time>2014-06-07T14:31:46Z</time>
      </trkpt>
      <trkpt lat="43.4157" lon="6.10337">
        <ele>219.16375732422</ele>
        <time>2014-06-07T14:31:48Z</time>
      </trkpt>
      <trkpt lat="43.41566" lon="6.10332">
        <ele>219.20802307129</ele>
        <time>2014-06-07T14:31:49Z</time>
      </trkpt>
      <trkpt lat="43.41562" lon="6.10327">
        <ele>219.37074279785</ele>
        <time>2014-06-07T14:31:50Z</time>
      </trkpt>
      <trkpt lat="43.41558" lon="6.10322">
        <ele>219.48527526856</ele>
        <time>2014-06-07T14:31:51Z</time>
      </trkpt>
      <trkpt lat="43.41536" lon="6.10292">
        <ele>223.17735290527</ele>
        <time>2014-06-07T14:31:56Z</time>
      </trkpt>
      <trkpt lat="43.4153" lon="6.10286">
        <ele>224.01028442383</ele>
        <time>2014-06-07T14:31:57Z</time>
      </trkpt>
      <trkpt lat="43.41523" lon="6.10273">
        <ele>225.54083251953</ele>
        <time>2014-06-07T14:31:59Z</time>
      </trkpt>
      <trkpt lat="43.41521" lon="6.10267">
        <ele>226.06300354004</ele>
        <time>2014-06-07T14:32:00Z</time>
      </trkpt>
      <trkpt lat="43.4152" lon="6.1026">
        <ele>226.1340637207</ele>
        <time>2014-06-07T14:32:01Z</time>
      </trkpt>
      <trkpt lat="43.41518" lon="6.10252">
        <ele>226.13397216797</ele>
        <time>2014-06-07T14:32:02Z</time>
      </trkpt>
      <trkpt lat="43.41517" lon="6.10243">
        <ele>225.84468078613</ele>
        <time>2014-06-07T14:32:03Z</time>
      </trkpt>
      <trkpt lat="43.41516" lon="6.10234">
        <ele>225.42889404297</ele>
        <time>2014-06-07T14:32:04Z</time>
      </trkpt>
      <trkpt lat="43.41516" lon="6.10225">
        <ele>224.75524902344</ele>
        <time>2014-06-07T14:32:05Z</time>
      </trkpt>
      <trkpt lat="43.41516" lon="6.10198">
        <ele>222.50402832031</ele>
        <time>2014-06-07T14:32:08Z</time>
      </trkpt>
      <trkpt lat="43.41516" lon="6.1018">
        <ele>220.9666595459</ele>
        <time>2014-06-07T14:32:10Z</time>
      </trkpt>
      <trkpt lat="43.41515" lon="6.10171">
        <ele>220.57527160644</ele>
        <time>2014-06-07T14:32:11Z</time>
      </trkpt>
      <trkpt lat="43.41514" lon="6.10165">
        <ele>220.34365844727</ele>
        <time>2014-06-07T14:32:12Z</time>
      </trkpt>
      <trkpt lat="43.41511" lon="6.10156">
        <ele>220.3249206543</ele>
        <time>2014-06-07T14:32:15Z</time>
      </trkpt>
      <trkpt lat="43.41508" lon="6.1015">
        <ele>220.19071960449</ele>
        <time>2014-06-07T14:32:17Z</time>
      </trkpt>
      <trkpt lat="43.41507" lon="6.10143">
        <ele>219.86991882324</ele>
        <time>2014-06-07T14:32:19Z</time>
      </trkpt>
      <trkpt lat="43.41505" lon="6.10137">
        <ele>219.55717468262</ele>
        <time>2014-06-07T14:32:21Z</time>
      </trkpt>
      <trkpt lat="43.41502" lon="6.10131">
        <ele>219.29983520508</ele>
        <time>2014-06-07T14:32:23Z</time>
      </trkpt>
      <trkpt lat="43.41502" lon="6.10128">
        <ele>219.1471862793</ele>
        <time>2014-06-07T14:32:24Z</time>
      </trkpt>
      <trkpt lat="43.41501" lon="6.10126">
        <ele>219.00578308106</ele>
        <time>2014-06-07T14:32:25Z</time>
      </trkpt>
      <trkpt lat="43.415" lon="6.10123">
        <ele>218.83612060547</ele>
        <time>2014-06-07T14:32:26Z</time>
      </trkpt>
      <trkpt lat="43.415" lon="6.10121">
        <ele>218.72018432617</ele>
        <time>2014-06-07T14:32:27Z</time>
      </trkpt>
      <trkpt lat="43.41499" lon="6.10117">
        <ele>218.5633392334</ele>
        <time>2014-06-07T14:32:28Z</time>
      </trkpt>
      <trkpt lat="43.4149" lon="6.10098">
        <ele>218.55937194824</ele>
        <time>2014-06-07T14:32:33Z</time>
      </trkpt>
      <trkpt lat="43.41478" lon="6.10074">
        <ele>218.79321289062</ele>
        <time>2014-06-07T14:32:38Z</time>
      </trkpt>
      <trkpt lat="43.41476" lon="6.10068">
        <ele>218.84814453125</ele>
        <time>2014-06-07T14:32:39Z</time>
      </trkpt>
      <trkpt lat="43.41472" lon="6.10055">
        <ele>218.99920654297</ele>
        <time>2014-06-07T14:32:41Z</time>
      </trkpt>
      <trkpt lat="43.41471" lon="6.10051">
        <ele>219.23985290527</ele>
        <time>2014-06-07T14:32:42Z</time>
      </trkpt>
      <trkpt lat="43.4147" lon="6.10047">
        <ele>219.35116577148</ele>
        <time>2014-06-07T14:32:43Z</time>
      </trkpt>
      <trkpt lat="43.4147" lon="6.10044">
        <ele>219.43043518066</ele>
        <time>2014-06-07T14:32:44Z</time>
      </trkpt>
      <trkpt lat="43.4147" lon="6.10042">
        <ele>219.38035583496</ele>
        <time>2014-06-07T14:32:45Z</time>
      </trkpt>
      <trkpt lat="43.41469" lon="6.10039">
        <ele>219.4178314209</ele>
        <time>2014-06-07T14:32:46Z</time>
      </trkpt>
      <trkpt lat="43.41467" lon="6.10037">
        <ele>219.52784729004</ele>
        <time>2014-06-07T14:32:47Z</time>
      </trkpt>
      <trkpt lat="43.41459" lon="6.10025">
        <ele>219.43365478516</ele>
        <time>2014-06-07T14:32:54Z</time>
      </trkpt>
      <trkpt lat="43.41452" lon="6.10011">
        <ele>219.54168701172</ele>
        <time>2014-06-07T14:33:01Z</time>
      </trkpt>
      <trkpt lat="43.41446" lon="6.09996">
        <ele>219.8935546875</ele>
        <time>2014-06-07T14:33:07Z</time>
      </trkpt>
      <trkpt lat="43.41442" lon="6.09984">
        <ele>221.04440307617</ele>
        <time>2014-06-07T14:33:11Z</time>
      </trkpt>
      <trkpt lat="43.4144" lon="6.09978">
        <ele>222.03358459473</ele>
        <time>2014-06-07T14:33:13Z</time>
      </trkpt>
      <trkpt lat="43.41435" lon="6.09964">
        <ele>223.87568664551</ele>
        <time>2014-06-07T14:33:18Z</time>
      </trkpt>
      <trkpt lat="43.41434" lon="6.09957">
        <ele>224.26876831055</ele>
        <time>2014-06-07T14:33:20Z</time>
      </trkpt>
      <trkpt lat="43.41433" lon="6.09941">
        <ele>224.353515625</ele>
        <time>2014-06-07T14:33:25Z</time>
      </trkpt>
      <trkpt lat="43.41433" lon="6.09923">
        <ele>224.08369445801</ele>
        <time>2014-06-07T14:33:30Z</time>
      </trkpt>
      <trkpt lat="43.41433" lon="6.09914">
        <ele>224.10388183594</ele>
        <time>2014-06-07T14:33:32Z</time>
      </trkpt>
      <trkpt lat="43.41434" lon="6.0991">
        <ele>223.50784301758</ele>
        <time>2014-06-07T14:33:33Z</time>
      </trkpt>
      <trkpt lat="43.41439" lon="6.09898">
        <ele>221.81065368652</ele>
        <time>2014-06-07T14:33:36Z</time>
      </trkpt>
      <trkpt lat="43.41444" lon="6.0989">
        <ele>220.13983154297</ele>
        <time>2014-06-07T14:33:38Z</time>
      </trkpt>
      <trkpt lat="43.41444" lon="6.09886">
        <ele>220.25967407227</ele>
        <time>2014-06-07T14:33:39Z</time>
      </trkpt>
      <trkpt lat="43.41443" lon="6.09882">
        <ele>220.37577819824</ele>
        <time>2014-06-07T14:33:40Z</time>
      </trkpt>
      <trkpt lat="43.41444" lon="6.09869">
        <ele>220.24208068848</ele>
        <time>2014-06-07T14:33:44Z</time>
      </trkpt>
      <trkpt lat="43.41444" lon="6.09868">
        <ele>220.12733459473</ele>
        <time>2014-06-07T14:33:45Z</time>
      </trkpt>
      <trkpt lat="43.41444" lon="6.09866">
        <ele>220.0139465332</ele>
        <time>2014-06-07T14:33:46Z</time>
      </trkpt>
      <trkpt lat="43.41444" lon="6.09858">
        <ele>220.12353515625</ele>
        <time>2014-06-07T14:33:49Z</time>
      </trkpt>
      <trkpt lat="43.41444" lon="6.09856">
        <ele>220.2333984375</ele>
        <time>2014-06-07T14:33:50Z</time>
      </trkpt>
      <trkpt lat="43.41442" lon="6.09847">
        <ele>220.56298828125</ele>
        <time>2014-06-07T14:33:53Z</time>
      </trkpt>
      <trkpt lat="43.41442" lon="6.09832">
        <ele>220.71395874023</ele>
        <time>2014-06-07T14:33:59Z</time>
      </trkpt>
      <trkpt lat="43.4144" lon="6.09818">
        <ele>221.86923217773</ele>
        <time>2014-06-07T14:34:05Z</time>
      </trkpt>
      <trkpt lat="43.4144" lon="6.09813">
        <ele>222.06149291992</ele>
        <time>2014-06-07T14:34:07Z</time>
      </trkpt>
      <trkpt lat="43.4144" lon="6.09803">
        <ele>222.34764099121</ele>
        <time>2014-06-07T14:34:12Z</time>
      </trkpt>
      <trkpt lat="43.41446" lon="6.09789">
        <ele>221.50042724609</ele>
        <time>2014-06-07T14:34:17Z</time>
      </trkpt>
      <trkpt lat="43.4145" lon="6.09781">
        <ele>221.3063659668</ele>
        <time>2014-06-07T14:34:20Z</time>
      </trkpt>
      <trkpt lat="43.41453" lon="6.09773">
        <ele>221.51371765137</ele>
        <time>2014-06-07T14:34:23Z</time>
      </trkpt>
      <trkpt lat="43.41457" lon="6.09755">
        <ele>222.41526794434</ele>
        <time>2014-06-07T14:34:27Z</time>
      </trkpt>
      <trkpt lat="43.41461" lon="6.0974">
        <ele>222.97692871094</ele>
        <time>2014-06-07T14:34:30Z</time>
      </trkpt>
      <trkpt lat="43.41463" lon="6.09728">
        <ele>223.81463623047</ele>
        <time>2014-06-07T14:34:32Z</time>
      </trkpt>
      <trkpt lat="43.41464" lon="6.09721">
        <ele>224.18751525879</ele>
        <time>2014-06-07T14:34:33Z</time>
      </trkpt>
      <trkpt lat="43.41464" lon="6.09715">
        <ele>224.55487060547</ele>
        <time>2014-06-07T14:34:34Z</time>
      </trkpt>
      <trkpt lat="43.41465" lon="6.0971">
        <ele>224.63383483887</ele>
        <time>2014-06-07T14:34:35Z</time>
      </trkpt>
      <trkpt lat="43.41471" lon="6.09694">
        <ele>224.23941040039</ele>
        <time>2014-06-07T14:34:38Z</time>
      </trkpt>
      <trkpt lat="43.4148" lon="6.09679">
        <ele>224.09242248535</ele>
        <time>2014-06-07T14:34:43Z</time>
      </trkpt>
      <trkpt lat="43.41479" lon="6.09674">
        <ele>224.83508300781</ele>
        <time>2014-06-07T14:34:46Z</time>
      </trkpt>
      <trkpt lat="43.41478" lon="6.0967">
        <ele>225.50772094727</ele>
        <time>2014-06-07T14:34:48Z</time>
      </trkpt>
      <trkpt lat="43.41476" lon="6.0966">
        <ele>227.00396728516</ele>
        <time>2014-06-07T14:34:52Z</time>
      </trkpt>
      <trkpt lat="43.41474" lon="6.09653">
        <ele>228.03907775879</ele>
        <time>2014-06-07T14:34:55Z</time>
      </trkpt>
      <trkpt lat="43.41474" lon="6.09653">
        <ele>228.03907775879</ele>
        <time>2014-06-07T14:35:00Z</time>
      </trkpt>
      <trkpt lat="43.41474" lon="6.09652">
        <ele>228.18841552734</ele>
        <time>2014-06-07T14:35:02Z</time>
      </trkpt>
      <trkpt lat="43.41476" lon="6.09649">
        <ele>228.11633300781</ele>
        <time>2014-06-07T14:35:08Z</time>
      </trkpt>
      <trkpt lat="43.41476" lon="6.09649">
        <ele>228.11633300781</ele>
        <time>2014-06-07T14:35:13Z</time>
      </trkpt>
      <trkpt lat="43.41477" lon="6.09645">
        <ele>228.32746887207</ele>
        <time>2014-06-07T14:35:18Z</time>
      </trkpt>
      <trkpt lat="43.41477" lon="6.09641">
        <ele>228.73431396484</ele>
        <time>2014-06-07T14:35:21Z</time>
      </trkpt>
      <trkpt lat="43.41478" lon="6.09637">
        <ele>229.00355529785</ele>
        <time>2014-06-07T14:35:23Z</time>
      </trkpt>
      <trkpt lat="43.41476" lon="6.09627">
        <ele>230.07815551758</ele>
        <time>2014-06-07T14:35:28Z</time>
      </trkpt>
      <trkpt lat="43.41475" lon="6.09618">
        <ele>230.81629943848</ele>
        <time>2014-06-07T14:35:33Z</time>
      </trkpt>
      <trkpt lat="43.41475" lon="6.09613">
        <ele>231.19395446777</ele>
        <time>2014-06-07T14:35:36Z</time>
      </trkpt>
      <trkpt lat="43.4148" lon="6.09603">
        <ele>231.17440795898</ele>
        <time>2014-06-07T14:35:42Z</time>
      </trkpt>
      <trkpt lat="43.41484" lon="6.09592">
        <ele>231.55548095703</ele>
        <time>2014-06-07T14:35:49Z</time>
      </trkpt>
      <trkpt lat="43.41491" lon="6.09577">
        <ele>231.69453430176</ele>
        <time>2014-06-07T14:35:55Z</time>
      </trkpt>
      <trkpt lat="43.41492" lon="6.09572">
        <ele>232.01382446289</ele>
        <time>2014-06-07T14:35:57Z</time>
      </trkpt>
      <trkpt lat="43.41494" lon="6.09568">
        <ele>231.88507080078</ele>
        <time>2014-06-07T14:35:59Z</time>
      </trkpt>
      <trkpt lat="43.41496" lon="6.09566">
        <ele>231.81813049316</ele>
        <time>2014-06-07T14:36:00Z</time>
      </trkpt>
      <trkpt lat="43.41497" lon="6.09564">
        <ele>231.79753112793</ele>
        <time>2014-06-07T14:36:01Z</time>
      </trkpt>
      <trkpt lat="43.41499" lon="6.09562">
        <ele>231.64819335938</ele>
        <time>2014-06-07T14:36:02Z</time>
      </trkpt>
      <trkpt lat="43.41512" lon="6.09554">
        <ele>228.62272644043</ele>
        <time>2014-06-07T14:36:07Z</time>
      </trkpt>
      <trkpt lat="43.4151" lon="6.09547">
        <ele>229.95330810547</ele>
        <time>2014-06-07T14:36:10Z</time>
      </trkpt>
      <trkpt lat="43.41509" lon="6.09545">
        <ele>230.30993652344</ele>
        <time>2014-06-07T14:36:11Z</time>
      </trkpt>
      <trkpt lat="43.4151" lon="6.09536">
        <ele>230.9411315918</ele>
        <time>2014-06-07T14:36:15Z</time>
      </trkpt>
      <trkpt lat="43.41514" lon="6.09528">
        <ele>230.53108215332</ele>
        <time>2014-06-07T14:36:18Z</time>
      </trkpt>
      <trkpt lat="43.4152" lon="6.09514">
        <ele>229.89764404297</ele>
        <time>2014-06-07T14:36:23Z</time>
      </trkpt>
      <trkpt lat="43.41521" lon="6.09502">
        <ele>231.1181640625</ele>
        <time>2014-06-07T14:36:27Z</time>
      </trkpt>
      <trkpt lat="43.41523" lon="6.09495">
        <ele>231.13427734375</ele>
        <time>2014-06-07T14:36:30Z</time>
      </trkpt>
      <trkpt lat="43.41525" lon="6.09493">
        <ele>230.58438110352</ele>
        <time>2014-06-07T14:36:32Z</time>
      </trkpt>
      <trkpt lat="43.41531" lon="6.09487">
        <ele>229.02098083496</ele>
        <time>2014-06-07T14:36:35Z</time>
      </trkpt>
      <trkpt lat="43.41533" lon="6.09481">
        <ele>229.09892272949</ele>
        <time>2014-06-07T14:36:38Z</time>
      </trkpt>
      <trkpt lat="43.41535" lon="6.09475">
        <ele>228.73677062988</ele>
        <time>2014-06-07T14:36:42Z</time>
      </trkpt>
      <trkpt lat="43.41533" lon="6.09468">
        <ele>229.96282958984</ele>
        <time>2014-06-07T14:36:46Z</time>
      </trkpt>
      <trkpt lat="43.41533" lon="6.09467">
        <ele>230.16539001465</ele>
        <time>2014-06-07T14:36:47Z</time>
      </trkpt>
      <trkpt lat="43.41532" lon="6.09465">
        <ele>230.64947509766</ele>
        <time>2014-06-07T14:36:53Z</time>
      </trkpt>
      <trkpt lat="43.41534" lon="6.0946">
        <ele>230.1962890625</ele>
        <time>2014-06-07T14:37:00Z</time>
      </trkpt>
      <trkpt lat="43.41534" lon="6.09455">
        <ele>230.51901245117</ele>
        <time>2014-06-07T14:37:07Z</time>
      </trkpt>
      <trkpt lat="43.41536" lon="6.09452">
        <ele>230.11389160156</ele>
        <time>2014-06-07T14:37:14Z</time>
      </trkpt>
      <trkpt lat="43.41536" lon="6.09449">
        <ele>230.14479064941</ele>
        <time>2014-06-07T14:37:20Z</time>
      </trkpt>
      <trkpt lat="43.41537" lon="6.09447">
        <ele>229.59204101562</ele>
        <time>2014-06-07T14:37:29Z</time>
      </trkpt>
      <trkpt lat="43.41542" lon="6.09442">
        <ele>228.11807250977</ele>
        <time>2014-06-07T14:37:33Z</time>
      </trkpt>
      <trkpt lat="43.41543" lon="6.09427">
        <ele>229.20983886719</ele>
        <time>2014-06-07T14:37:40Z</time>
      </trkpt>
      <trkpt lat="43.41544" lon="6.09414">
        <ele>230.24894714356</ele>
        <time>2014-06-07T14:37:45Z</time>
      </trkpt>
      <trkpt lat="43.41542" lon="6.09406">
        <ele>231.59687805176</ele>
        <time>2014-06-07T14:37:48Z</time>
      </trkpt>
      <trkpt lat="43.41544" lon="6.094">
        <ele>231.65876770019</ele>
        <time>2014-06-07T14:37:50Z</time>
      </trkpt>
      <trkpt lat="43.41545" lon="6.09388">
        <ele>231.95599365234</ele>
        <time>2014-06-07T14:37:54Z</time>
      </trkpt>
      <trkpt lat="43.41544" lon="6.09377">
        <ele>233.31764221191</ele>
        <time>2014-06-07T14:37:59Z</time>
      </trkpt>
      <trkpt lat="43.41543" lon="6.09375">
        <ele>233.61618041992</ele>
        <time>2014-06-07T14:38:00Z</time>
      </trkpt>
      <trkpt lat="43.41543" lon="6.09369">
        <ele>234.1003112793</ele>
        <time>2014-06-07T14:38:03Z</time>
      </trkpt>
      <trkpt lat="43.41544" lon="6.09364">
        <ele>234.11738586426</ele>
        <time>2014-06-07T14:38:06Z</time>
      </trkpt>
      <trkpt lat="43.41543" lon="6.09352">
        <ele>235.36268615723</ele>
        <time>2014-06-07T14:38:17Z</time>
      </trkpt>
      <trkpt lat="43.41544" lon="6.0935">
        <ele>235.38815307617</ele>
        <time>2014-06-07T14:38:19Z</time>
      </trkpt>
      <trkpt lat="43.41544" lon="6.09348">
        <ele>235.57400512695</ele>
        <time>2014-06-07T14:38:21Z</time>
      </trkpt>
      <trkpt lat="43.41544" lon="6.09348">
        <ele>235.57400512695</ele>
        <time>2014-06-07T14:38:22Z</time>
      </trkpt>
      <trkpt lat="43.41544" lon="6.09348">
        <ele>235.57400512695</ele>
        <time>2014-06-07T14:38:30Z</time>
      </trkpt>
      <trkpt lat="43.41545" lon="6.09346">
        <ele>235.48200988769</ele>
        <time>2014-06-07T14:38:31Z</time>
      </trkpt>
      <trkpt lat="43.41546" lon="6.09339">
        <ele>235.82363891602</ele>
        <time>2014-06-07T14:38:34Z</time>
      </trkpt>
      <trkpt lat="43.41548" lon="6.09332">
        <ele>235.81268310547</ele>
        <time>2014-06-07T14:38:39Z</time>
      </trkpt>
      <trkpt lat="43.41551" lon="6.09321">
        <ele>234.65396118164</ele>
        <time>2014-06-07T14:38:45Z</time>
      </trkpt>
      <trkpt lat="43.41555" lon="6.09312">
        <ele>233.44718933106</ele>
        <time>2014-06-07T14:38:50Z</time>
      </trkpt>
      <trkpt lat="43.41555" lon="6.0931">
        <ele>233.40084838867</ele>
        <time>2014-06-07T14:38:51Z</time>
      </trkpt>
      <trkpt lat="43.41558" lon="6.09299">
        <ele>232.16455078125</ele>
        <time>2014-06-07T14:38:56Z</time>
      </trkpt>
      <trkpt lat="43.41561" lon="6.09293">
        <ele>231.50537109375</ele>
        <time>2014-06-07T14:38:57Z</time>
      </trkpt>
      <trkpt lat="43.41563" lon="6.09285">
        <ele>230.9560546875</ele>
        <time>2014-06-07T14:39:00Z</time>
      </trkpt>
      <trkpt lat="43.41564" lon="6.09283">
        <ele>230.62646484375</ele>
        <time>2014-06-07T14:39:01Z</time>
      </trkpt>
      <trkpt lat="43.41566" lon="6.09279">
        <ele>229.857421875</ele>
        <time>2014-06-07T14:39:03Z</time>
      </trkpt>
      <trkpt lat="43.41573" lon="6.09277">
        <ele>228.11759948731</ele>
        <time>2014-06-07T14:39:06Z</time>
      </trkpt>
      <trkpt lat="43.41576" lon="6.09274">
        <ele>227.32252502441</ele>
        <time>2014-06-07T14:39:07Z</time>
      </trkpt>
      <trkpt lat="43.41577" lon="6.09272">
        <ele>226.95085144043</ele>
        <time>2014-06-07T14:39:08Z</time>
      </trkpt>
      <trkpt lat="43.41578" lon="6.09271">
        <ele>226.77027893066</ele>
        <time>2014-06-07T14:39:09Z</time>
      </trkpt>
      <trkpt lat="43.41578" lon="6.0927">
        <ele>226.67802429199</ele>
        <time>2014-06-07T14:39:10Z</time>
      </trkpt>
      <trkpt lat="43.41579" lon="6.09269">
        <ele>226.59910583496</ele>
        <time>2014-06-07T14:39:11Z</time>
      </trkpt>
      <trkpt lat="43.41579" lon="6.09269">
        <ele>226.59910583496</ele>
        <time>2014-06-07T14:39:17Z</time>
      </trkpt>
      <trkpt lat="43.41579" lon="6.09269">
        <ele>226.50366210938</ele>
        <time>2014-06-07T14:39:23Z</time>
      </trkpt>
      <trkpt lat="43.41579" lon="6.09269">
        <ele>226.50366210938</ele>
        <time>2014-06-07T14:39:44Z</time>
      </trkpt>
      <trkpt lat="43.41579" lon="6.09269">
        <ele>226.50366210938</ele>
        <time>2014-06-07T14:39:57Z</time>
      </trkpt>
      <trkpt lat="43.4158" lon="6.09268">
        <ele>226.33323669434</ele>
        <time>2014-06-07T14:40:05Z</time>
      </trkpt>
      <trkpt lat="43.4158" lon="6.09268">
        <ele>226.33323669434</ele>
        <time>2014-06-07T14:40:27Z</time>
      </trkpt>
      <trkpt lat="43.41579" lon="6.09267">
        <ele>226.44543457031</ele>
        <time>2014-06-07T14:42:01Z</time>
      </trkpt>
      <trkpt lat="43.41579" lon="6.09267">
        <ele>226.44543457031</ele>
        <time>2014-06-07T14:42:18Z</time>
      </trkpt>
      <trkpt lat="43.41579" lon="6.09267">
        <ele>226.4587097168</ele>
        <time>2014-06-07T14:42:44Z</time>
      </trkpt>
      <trkpt lat="43.41579" lon="6.09267">
        <ele>226.4587097168</ele>
        <time>2014-06-07T14:42:48Z</time>
      </trkpt>
      <trkpt lat="43.41579" lon="6.09264">
        <ele>226.55316162109</ele>
        <time>2014-06-07T14:42:51Z</time>
      </trkpt>
      <trkpt lat="43.4158" lon="6.09258">
        <ele>226.54672241211</ele>
        <time>2014-06-07T14:42:54Z</time>
      </trkpt>
      <trkpt lat="43.41584" lon="6.09251">
        <ele>225.54034423828</ele>
        <time>2014-06-07T14:42:57Z</time>
      </trkpt>
      <trkpt lat="43.41588" lon="6.09247">
        <ele>224.21948242188</ele>
        <time>2014-06-07T14:42:59Z</time>
      </trkpt>
      <trkpt lat="43.41592" lon="6.09238">
        <ele>222.40673828125</ele>
        <time>2014-06-07T14:43:02Z</time>
      </trkpt>
      <trkpt lat="43.41593" lon="6.09234">
        <ele>222.25567626953</ele>
        <time>2014-06-07T14:43:03Z</time>
      </trkpt>
      <trkpt lat="43.41593" lon="6.09228">
        <ele>222.10461425781</ele>
        <time>2014-06-07T14:43:05Z</time>
      </trkpt>
      <trkpt lat="43.41595" lon="6.09213">
        <ele>221.50036621094</ele>
        <time>2014-06-07T14:43:12Z</time>
      </trkpt>
      <trkpt lat="43.41594" lon="6.0921">
        <ele>221.65142822266</ele>
        <time>2014-06-07T14:43:13Z</time>
      </trkpt>
      <trkpt lat="43.41594" lon="6.09191">
        <ele>221.80249023438</ele>
        <time>2014-06-07T14:43:19Z</time>
      </trkpt>
      <trkpt lat="43.41593" lon="6.09168">
        <ele>222.25567626953</ele>
        <time>2014-06-07T14:43:25Z</time>
      </trkpt>
      <trkpt lat="43.41594" lon="6.09147">
        <ele>220.36763000488</ele>
        <time>2014-06-07T14:43:31Z</time>
      </trkpt>
      <trkpt lat="43.41596" lon="6.09119">
        <ele>216.74795532227</ele>
        <time>2014-06-07T14:43:37Z</time>
      </trkpt>
      <trkpt lat="43.41596" lon="6.09094">
        <ele>214.40972900391</ele>
        <time>2014-06-07T14:43:42Z</time>
      </trkpt>
      <trkpt lat="43.41595" lon="6.09085">
        <ele>214.00778198242</ele>
        <time>2014-06-07T14:43:44Z</time>
      </trkpt>
      <trkpt lat="43.41594" lon="6.09074">
        <ele>213.09014892578</ele>
        <time>2014-06-07T14:43:46Z</time>
      </trkpt>
      <trkpt lat="43.41592" lon="6.09064">
        <ele>213.25630187988</ele>
        <time>2014-06-07T14:43:48Z</time>
      </trkpt>
      <trkpt lat="43.4159" lon="6.09053">
        <ele>213.07501220703</ele>
        <time>2014-06-07T14:43:51Z</time>
      </trkpt>
      <trkpt lat="43.4159" lon="6.09045">
        <ele>211.99290466309</ele>
        <time>2014-06-07T14:43:53Z</time>
      </trkpt>
      <trkpt lat="43.4159" lon="6.09026">
        <ele>210.05590820312</ele>
        <time>2014-06-07T14:43:58Z</time>
      </trkpt>
      <trkpt lat="43.41592" lon="6.09007">
        <ele>209.19892883301</ele>
        <time>2014-06-07T14:44:04Z</time>
      </trkpt>
      <trkpt lat="43.4159" lon="6.08971">
        <ele>209.57437133789</ele>
        <time>2014-06-07T14:44:17Z</time>
      </trkpt>
      <trkpt lat="43.41589" lon="6.0896">
        <ele>209.35888671875</ele>
        <time>2014-06-07T14:44:21Z</time>
      </trkpt>
      <trkpt lat="43.41587" lon="6.08955">
        <ele>209.59187316894</ele>
        <time>2014-06-07T14:44:25Z</time>
      </trkpt>
      <trkpt lat="43.41592" lon="6.08951">
        <ele>208.60685729981</ele>
        <time>2014-06-07T14:44:28Z</time>
      </trkpt>
      <trkpt lat="43.41597" lon="6.08951">
        <ele>207.59416198731</ele>
        <time>2014-06-07T14:44:32Z</time>
      </trkpt>
      <trkpt lat="43.416" lon="6.0895">
        <ele>207.14730834961</ele>
        <time>2014-06-07T14:44:34Z</time>
      </trkpt>
      <trkpt lat="43.41602" lon="6.0895">
        <ele>206.78684997559</ele>
        <time>2014-06-07T14:44:39Z</time>
      </trkpt>
      <trkpt lat="43.41602" lon="6.0895">
        <ele>206.78684997559</ele>
        <time>2014-06-07T14:44:46Z</time>
      </trkpt>
      <trkpt lat="43.41602" lon="6.0895">
        <ele>206.71376037598</ele>
        <time>2014-06-07T14:44:48Z</time>
      </trkpt>
      <trkpt lat="43.41602" lon="6.08949">
        <ele>206.63104248047</ele>
        <time>2014-06-07T14:44:49Z</time>
      </trkpt>
      <trkpt lat="43.41608" lon="6.08943">
        <ele>205.65409851074</ele>
        <time>2014-06-07T14:44:53Z</time>
      </trkpt>
      <trkpt lat="43.41611" lon="6.08938">
        <ele>205.30364990234</ele>
        <time>2014-06-07T14:44:55Z</time>
      </trkpt>
      <trkpt lat="43.41611" lon="6.0893">
        <ele>205.51277160644</ele>
        <time>2014-06-07T14:44:57Z</time>
      </trkpt>
      <trkpt lat="43.4161" lon="6.08923">
        <ele>205.96423339844</ele>
        <time>2014-06-07T14:44:59Z</time>
      </trkpt>
      <trkpt lat="43.41608" lon="6.08915">
        <ele>206.32777404785</ele>
        <time>2014-06-07T14:45:01Z</time>
      </trkpt>
      <trkpt lat="43.41608" lon="6.08911">
        <ele>206.22569274902</ele>
        <time>2014-06-07T14:45:02Z</time>
      </trkpt>
      <trkpt lat="43.41607" lon="6.08905">
        <ele>206.10575866699</ele>
        <time>2014-06-07T14:45:04Z</time>
      </trkpt>
      <trkpt lat="43.41607" lon="6.08902">
        <ele>206.02670288086</ele>
        <time>2014-06-07T14:45:05Z</time>
      </trkpt>
      <trkpt lat="43.41592" lon="6.08818">
        <ele>202.31008911133</ele>
        <time>2014-06-07T14:45:28Z</time>
      </trkpt>
      <trkpt lat="43.41587" lon="6.088">
        <ele>201.7149810791</ele>
        <time>2014-06-07T14:45:34Z</time>
      </trkpt>
      <trkpt lat="43.41583" lon="6.08799">
        <ele>201.79364013672</ele>
        <time>2014-06-07T14:45:36Z</time>
      </trkpt>
      <trkpt lat="43.41579" lon="6.08802">
        <ele>202.32353210449</ele>
        <time>2014-06-07T14:45:38Z</time>
      </trkpt>
      <trkpt lat="43.41552" lon="6.08826">
        <ele>207.02713012695</ele>
        <time>2014-06-07T14:45:50Z</time>
      </trkpt>
      <trkpt lat="43.41534" lon="6.0884">
        <ele>210.33233642578</ele>
        <time>2014-06-07T14:45:58Z</time>
      </trkpt>
      <trkpt lat="43.4153" lon="6.08841">
        <ele>210.97607421875</ele>
        <time>2014-06-07T14:46:00Z</time>
      </trkpt>
      <trkpt lat="43.41521" lon="6.08837">
        <ele>212.05410766602</ele>
        <time>2014-06-07T14:46:04Z</time>
      </trkpt>
      <trkpt lat="43.41508" lon="6.08827">
        <ele>213.45756530762</ele>
        <time>2014-06-07T14:46:12Z</time>
      </trkpt>
      <trkpt lat="43.41506" lon="6.08824">
        <ele>213.48503112793</ele>
        <time>2014-06-07T14:46:14Z</time>
      </trkpt>
      <trkpt lat="43.41502" lon="6.0882">
        <ele>213.66355895996</ele>
        <time>2014-06-07T14:46:17Z</time>
      </trkpt>
      <trkpt lat="43.41496" lon="6.08818">
        <ele>214.39814758301</ele>
        <time>2014-06-07T14:46:19Z</time>
      </trkpt>
      <trkpt lat="43.41478" lon="6.08804">
        <ele>216.12336730957</ele>
        <time>2014-06-07T14:46:27Z</time>
      </trkpt>
      <trkpt lat="43.41472" lon="6.08781">
        <ele>216.09680175781</ele>
        <time>2014-06-07T14:46:33Z</time>
      </trkpt>
      <trkpt lat="43.41463" lon="6.08743">
        <ele>216.40740966797</ele>
        <time>2014-06-07T14:46:41Z</time>
      </trkpt>
      <trkpt lat="43.41458" lon="6.08724">
        <ele>217.07078552246</ele>
        <time>2014-06-07T14:46:45Z</time>
      </trkpt>
      <trkpt lat="43.41449" lon="6.08686">
        <ele>216.88122558594</ele>
        <time>2014-06-07T14:46:52Z</time>
      </trkpt>
      <trkpt lat="43.41442" lon="6.08659">
        <ele>217.32920837402</ele>
        <time>2014-06-07T14:46:57Z</time>
      </trkpt>
      <trkpt lat="43.41438" lon="6.08643">
        <ele>217.16719055176</ele>
        <time>2014-06-07T14:47:00Z</time>
      </trkpt>
      <trkpt lat="43.41429" lon="6.08605">
        <ele>217.46630859375</ele>
        <time>2014-06-07T14:47:08Z</time>
      </trkpt>
      <trkpt lat="43.41415" lon="6.08567">
        <ele>216.95782470703</ele>
        <time>2014-06-07T14:47:16Z</time>
      </trkpt>
      <trkpt lat="43.41404" lon="6.08533">
        <ele>216.20625305176</ele>
        <time>2014-06-07T14:47:23Z</time>
      </trkpt>
      <trkpt lat="43.41377" lon="6.08463">
        <ele>214.82917785644</ele>
        <time>2014-06-07T14:47:38Z</time>
      </trkpt>
      <trkpt lat="43.41368" lon="6.08444">
        <ele>214.47998046875</ele>
        <time>2014-06-07T14:47:42Z</time>
      </trkpt>
      <trkpt lat="43.41362" lon="6.08432">
        <ele>214.05082702637</ele>
        <time>2014-06-07T14:47:45Z</time>
      </trkpt>
      <trkpt lat="43.41349" lon="6.08402">
        <ele>212.37306213379</ele>
        <time>2014-06-07T14:47:52Z</time>
      </trkpt>
      <trkpt lat="43.41337" lon="6.08375">
        <ele>211.37185668945</ele>
        <time>2014-06-07T14:47:59Z</time>
      </trkpt>
      <trkpt lat="43.41325" lon="6.08351">
        <ele>211.22564697266</ele>
        <time>2014-06-07T14:48:05Z</time>
      </trkpt>
      <trkpt lat="43.41313" lon="6.08322">
        <ele>211.04196166992</ele>
        <time>2014-06-07T14:48:11Z</time>
      </trkpt>
      <trkpt lat="43.413" lon="6.08288">
        <ele>210.67707824707</ele>
        <time>2014-06-07T14:48:18Z</time>
      </trkpt>
      <trkpt lat="43.41294" lon="6.08263">
        <ele>210.08714294434</ele>
        <time>2014-06-07T14:48:23Z</time>
      </trkpt>
      <trkpt lat="43.41284" lon="6.08231">
        <ele>208.93089294434</ele>
        <time>2014-06-07T14:48:29Z</time>
      </trkpt>
      <trkpt lat="43.41272" lon="6.08192">
        <ele>208.11807250977</ele>
        <time>2014-06-07T14:48:36Z</time>
      </trkpt>
      <trkpt lat="43.41265" lon="6.08173">
        <ele>207.68893432617</ele>
        <time>2014-06-07T14:48:40Z</time>
      </trkpt>
      <trkpt lat="43.41246" lon="6.08131">
        <ele>206.85980224609</ele>
        <time>2014-06-07T14:48:49Z</time>
      </trkpt>
      <trkpt lat="43.4123" lon="6.08095">
        <ele>205.94982910156</ele>
        <time>2014-06-07T14:48:57Z</time>
      </trkpt>
      <trkpt lat="43.41219" lon="6.08074">
        <ele>205.88073730469</ele>
        <time>2014-06-07T14:49:02Z</time>
      </trkpt>
      <trkpt lat="43.41212" lon="6.08065">
        <ele>206.07986450195</ele>
        <time>2014-06-07T14:49:05Z</time>
      </trkpt>
      <trkpt lat="43.41208" lon="6.08063">
        <ele>206.26184082031</ele>
        <time>2014-06-07T14:49:07Z</time>
      </trkpt>
      <trkpt lat="43.41206" lon="6.0806">
        <ele>206.29272460938</ele>
        <time>2014-06-07T14:49:09Z</time>
      </trkpt>
      <trkpt lat="43.41201" lon="6.08054">
        <ele>206.48011779785</ele>
        <time>2014-06-07T14:49:12Z</time>
      </trkpt>
      <trkpt lat="43.41197" lon="6.0805">
        <ele>206.43505859375</ele>
        <time>2014-06-07T14:49:14Z</time>
      </trkpt>
      <trkpt lat="43.41182" lon="6.08034">
        <ele>207.33297729492</ele>
        <time>2014-06-07T14:49:22Z</time>
      </trkpt>
      <trkpt lat="43.41171" lon="6.08021">
        <ele>208.10665893555</ele>
        <time>2014-06-07T14:49:28Z</time>
      </trkpt>
      <trkpt lat="43.41158" lon="6.08007">
        <ele>209.81224060059</ele>
        <time>2014-06-07T14:49:34Z</time>
      </trkpt>
      <trkpt lat="43.41138" lon="6.07994">
        <ele>212.84391784668</ele>
        <time>2014-06-07T14:49:42Z</time>
      </trkpt>
      <trkpt lat="43.41135" lon="6.07993">
        <ele>212.92901611328</ele>
        <time>2014-06-07T14:49:43Z</time>
      </trkpt>
      <trkpt lat="43.41132" lon="6.0799">
        <ele>213.00682067871</ele>
        <time>2014-06-07T14:49:45Z</time>
      </trkpt>
      <trkpt lat="43.4113" lon="6.0799">
        <ele>213.04200744629</ele>
        <time>2014-06-07T14:49:46Z</time>
      </trkpt>
      <trkpt lat="43.41129" lon="6.07989">
        <ele>213.10330200195</ele>
        <time>2014-06-07T14:49:47Z</time>
      </trkpt>
      <trkpt lat="43.41128" lon="6.07988">
        <ele>213.14752197266</ele>
        <time>2014-06-07T14:49:48Z</time>
      </trkpt>
      <trkpt lat="43.41126" lon="6.07987">
        <ele>213.22775268555</ele>
        <time>2014-06-07T14:49:50Z</time>
      </trkpt>
      <trkpt lat="43.41125" lon="6.07987">
        <ele>213.27670288086</ele>
        <time>2014-06-07T14:49:54Z</time>
      </trkpt>
      <trkpt lat="43.41125" lon="6.07987">
        <ele>213.27670288086</ele>
        <time>2014-06-07T14:50:04Z</time>
      </trkpt>
      <trkpt lat="43.41125" lon="6.07987">
        <ele>213.27670288086</ele>
        <time>2014-06-07T14:50:12Z</time>
      </trkpt>
      <trkpt lat="43.41122" lon="6.07985">
        <ele>213.39286804199</ele>
        <time>2014-06-07T14:50:17Z</time>
      </trkpt>
      <trkpt lat="43.41119" lon="6.07985">
        <ele>213.54049682617</ele>
        <time>2014-06-07T14:50:19Z</time>
      </trkpt>
      <trkpt lat="43.41117" lon="6.07986">
        <ele>213.65193176269</ele>
        <time>2014-06-07T14:50:20Z</time>
      </trkpt>
      <trkpt lat="43.41116" lon="6.07986">
        <ele>213.75924682617</ele>
        <time>2014-06-07T14:50:21Z</time>
      </trkpt>
      <trkpt lat="43.41112" lon="6.07989">
        <ele>213.96723937988</ele>
        <time>2014-06-07T14:50:23Z</time>
      </trkpt>
      <trkpt lat="43.41111" lon="6.07991">
        <ele>214.01800537109</ele>
        <time>2014-06-07T14:50:24Z</time>
      </trkpt>
      <trkpt lat="43.41103" lon="6.07999">
        <ele>214.27893066406</ele>
        <time>2014-06-07T14:50:28Z</time>
      </trkpt>
      <trkpt lat="43.41096" lon="6.08008">
        <ele>215.16415405273</ele>
        <time>2014-06-07T14:50:33Z</time>
      </trkpt>
      <trkpt lat="43.4109" lon="6.08015">
        <ele>215.87139892578</ele>
        <time>2014-06-07T14:50:37Z</time>
      </trkpt>
      <trkpt lat="43.41087" lon="6.08021">
        <ele>216.37608337402</ele>
        <time>2014-06-07T14:50:40Z</time>
      </trkpt>
      <trkpt lat="43.41079" lon="6.08026">
        <ele>216.89025878906</ele>
        <time>2014-06-07T14:50:46Z</time>
      </trkpt>
      <trkpt lat="43.41077" lon="6.08027">
        <ele>216.9582824707</ele>
        <time>2014-06-07T14:50:47Z</time>
      </trkpt>
      <trkpt lat="43.41071" lon="6.08022">
        <ele>216.66206359863</ele>
        <time>2014-06-07T14:50:51Z</time>
      </trkpt>
      <trkpt lat="43.41061" lon="6.08001">
        <ele>215.83377075195</ele>
        <time>2014-06-07T14:50:56Z</time>
      </trkpt>
      <trkpt lat="43.41043" lon="6.07965">
        <ele>214.27899169922</ele>
        <time>2014-06-07T14:51:02Z</time>
      </trkpt>
      <trkpt lat="43.41033" lon="6.07943">
        <ele>213.11750793457</ele>
        <time>2014-06-07T14:51:05Z</time>
      </trkpt>
      <trkpt lat="43.4103" lon="6.07934">
        <ele>212.68269348144</ele>
        <time>2014-06-07T14:51:06Z</time>
      </trkpt>
      <trkpt lat="43.41025" lon="6.07927">
        <ele>212.24993896484</ele>
        <time>2014-06-07T14:51:07Z</time>
      </trkpt>
      <trkpt lat="43.41021" lon="6.07918">
        <ele>211.78474426269</ele>
        <time>2014-06-07T14:51:08Z</time>
      </trkpt>
      <trkpt lat="43.41016" lon="6.07909">
        <ele>211.29895019531</ele>
        <time>2014-06-07T14:51:09Z</time>
      </trkpt>
      <trkpt lat="43.41011" lon="6.079">
        <ele>210.80798339844</ele>
        <time>2014-06-07T14:51:10Z</time>
      </trkpt>
      <trkpt lat="43.41008" lon="6.07891">
        <ele>210.36166381836</ele>
        <time>2014-06-07T14:51:11Z</time>
      </trkpt>
      <trkpt lat="43.41004" lon="6.07884">
        <ele>210.11094665527</ele>
        <time>2014-06-07T14:51:12Z</time>
      </trkpt>
      <trkpt lat="43.41" lon="6.07876">
        <ele>210.00028991699</ele>
        <time>2014-06-07T14:51:13Z</time>
      </trkpt>
      <trkpt lat="43.40993" lon="6.07861">
        <ele>209.98034667969</ele>
        <time>2014-06-07T14:51:15Z</time>
      </trkpt>
      <trkpt lat="43.40989" lon="6.07854">
        <ele>209.73831176758</ele>
        <time>2014-06-07T14:51:16Z</time>
      </trkpt>
      <trkpt lat="43.4098" lon="6.07842">
        <ele>209.32803344727</ele>
        <time>2014-06-07T14:51:18Z</time>
      </trkpt>
      <trkpt lat="43.40969" lon="6.07833">
        <ele>209.10105895996</ele>
        <time>2014-06-07T14:51:20Z</time>
      </trkpt>
      <trkpt lat="43.40954" lon="6.07823">
        <ele>209.66223144531</ele>
        <time>2014-06-07T14:51:23Z</time>
      </trkpt>
      <trkpt lat="43.40921" lon="6.07805">
        <ele>209.98736572266</ele>
        <time>2014-06-07T14:51:30Z</time>
      </trkpt>
      <trkpt lat="43.40892" lon="6.07787">
        <ele>210.22372436523</ele>
        <time>2014-06-07T14:51:37Z</time>
      </trkpt>
      <trkpt lat="43.40882" lon="6.07777">
        <ele>210.25775146484</ele>
        <time>2014-06-07T14:51:40Z</time>
      </trkpt>
      <trkpt lat="43.40872" lon="6.07766">
        <ele>210.60107421875</ele>
        <time>2014-06-07T14:51:43Z</time>
      </trkpt>
      <trkpt lat="43.40852" lon="6.0774">
        <ele>210.63558959961</ele>
        <time>2014-06-07T14:51:50Z</time>
      </trkpt>
      <trkpt lat="43.40832" lon="6.07717">
        <ele>210.05676269531</ele>
        <time>2014-06-07T14:51:57Z</time>
      </trkpt>
      <trkpt lat="43.40813" lon="6.07703">
        <ele>210.74340820312</ele>
        <time>2014-06-07T14:52:04Z</time>
      </trkpt>
      <trkpt lat="43.40799" lon="6.07698">
        <ele>211</ele>
        <time>2014-06-07T14:52:09Z</time>
      </trkpt>
      <trkpt lat="43.40783" lon="6.0769">
        <ele>211</ele>
        <time>2014-06-07T14:52:15Z</time>
      </trkpt>
      <trkpt lat="43.40756" lon="6.07677">
        <ele>211.78961181641</ele>
        <time>2014-06-07T14:52:25Z</time>
      </trkpt>
      <trkpt lat="43.4073" lon="6.07656">
        <ele>212.73718261719</ele>
        <time>2014-06-07T14:52:35Z</time>
      </trkpt>
      <trkpt lat="43.40723" lon="6.07643">
        <ele>212.984375</ele>
        <time>2014-06-07T14:52:39Z</time>
      </trkpt>
      <trkpt lat="43.40716" lon="6.07618">
        <ele>212.43132019043</ele>
        <time>2014-06-07T14:52:45Z</time>
      </trkpt>
      <trkpt lat="43.40711" lon="6.07586">
        <ele>212.41009521484</ele>
        <time>2014-06-07T14:52:52Z</time>
      </trkpt>
      <trkpt lat="43.40705" lon="6.07547">
        <ele>212.60235595703</ele>
        <time>2014-06-07T14:53:00Z</time>
      </trkpt>
      <trkpt lat="43.40701" lon="6.07518">
        <ele>212.78088378906</ele>
        <time>2014-06-07T14:53:06Z</time>
      </trkpt>
      <trkpt lat="43.40697" lon="6.07495">
        <ele>213.11459350586</ele>
        <time>2014-06-07T14:53:11Z</time>
      </trkpt>
      <trkpt lat="43.40696" lon="6.0749">
        <ele>213.31372070312</ele>
        <time>2014-06-07T14:53:12Z</time>
      </trkpt>
      <trkpt lat="43.40694" lon="6.07481">
        <ele>213.68218994141</ele>
        <time>2014-06-07T14:53:14Z</time>
      </trkpt>
      <trkpt lat="43.40687" lon="6.07451">
        <ele>214</ele>
        <time>2014-06-07T14:53:21Z</time>
      </trkpt>
      <trkpt lat="43.4069" lon="6.07443">
        <ele>214</ele>
        <time>2014-06-07T14:53:25Z</time>
      </trkpt>
      <trkpt lat="43.40694" lon="6.07439">
        <ele>214</ele>
        <time>2014-06-07T14:53:28Z</time>
      </trkpt>
      <trkpt lat="43.40701" lon="6.07436">
        <ele>213.78088378906</ele>
        <time>2014-06-07T14:53:31Z</time>
      </trkpt>
      <trkpt lat="43.4072" lon="6.0743">
        <ele>213.06677246094</ele>
        <time>2014-06-07T14:53:37Z</time>
      </trkpt>
      <trkpt lat="43.40741" lon="6.07423">
        <ele>212.3251953125</ele>
        <time>2014-06-07T14:53:42Z</time>
      </trkpt>
      <trkpt lat="43.40746" lon="6.07422">
        <ele>212.16040039062</ele>
        <time>2014-06-07T14:53:43Z</time>
      </trkpt>
      <trkpt lat="43.40751" lon="6.07421">
        <ele>211.98187255859</ele>
        <time>2014-06-07T14:53:44Z</time>
      </trkpt>
      <trkpt lat="43.4076" lon="6.07418">
        <ele>211.62481689453</ele>
        <time>2014-06-07T14:53:46Z</time>
      </trkpt>
      <trkpt lat="43.40778" lon="6.07413">
        <ele>211.0068359375</ele>
        <time>2014-06-07T14:53:50Z</time>
      </trkpt>
      <trkpt lat="43.40786" lon="6.07411">
        <ele>210.69097900391</ele>
        <time>2014-06-07T14:53:52Z</time>
      </trkpt>
      <trkpt lat="43.40799" lon="6.07407">
        <ele>210.22406005859</ele>
        <time>2014-06-07T14:53:55Z</time>
      </trkpt>
      <trkpt lat="43.40815" lon="6.07403">
        <ele>209.66101074219</ele>
        <time>2014-06-07T14:53:59Z</time>
      </trkpt>
      <trkpt lat="43.40841" lon="6.07399">
        <ele>209</ele>
        <time>2014-06-07T14:54:07Z</time>
      </trkpt>
      <trkpt lat="43.40844" lon="6.07397">
        <ele>209</ele>
        <time>2014-06-07T14:54:11Z</time>
      </trkpt>
      <trkpt lat="43.40844" lon="6.07395">
        <ele>209</ele>
        <time>2014-06-07T14:54:12Z</time>
      </trkpt>
      <trkpt lat="43.40844" lon="6.07387">
        <ele>209.04789733887</ele>
        <time>2014-06-07T14:54:17Z</time>
      </trkpt>
      <trkpt lat="43.40843" lon="6.07384">
        <ele>209.10429382324</ele>
        <time>2014-06-07T14:54:18Z</time>
      </trkpt>
      <trkpt lat="43.40841" lon="6.07367">
        <ele>209.55506896973</ele>
        <time>2014-06-07T14:54:23Z</time>
      </trkpt>
      <trkpt lat="43.40838" lon="6.07347">
        <ele>209.82330322266</ele>
        <time>2014-06-07T14:54:28Z</time>
      </trkpt>
      <trkpt lat="43.40838" lon="6.07343">
        <ele>209.83703613281</ele>
        <time>2014-06-07T14:54:29Z</time>
      </trkpt>
      <trkpt lat="43.40833" lon="6.07313">
        <ele>210.00183105469</ele>
        <time>2014-06-07T14:54:36Z</time>
      </trkpt>
      <trkpt lat="43.4083" lon="6.07283">
        <ele>210.12542724609</ele>
        <time>2014-06-07T14:54:43Z</time>
      </trkpt>
      <trkpt lat="43.40829" lon="6.07279">
        <ele>210.15289306641</ele>
        <time>2014-06-07T14:54:44Z</time>
      </trkpt>
      <trkpt lat="43.40823" lon="6.07254">
        <ele>211.21215820312</ele>
        <time>2014-06-07T14:54:50Z</time>
      </trkpt>
      <trkpt lat="43.40817" lon="6.07228">
        <ele>211.57861328125</ele>
        <time>2014-06-07T14:54:57Z</time>
      </trkpt>
      <trkpt lat="43.40816" lon="6.07209">
        <ele>211.61981201172</ele>
        <time>2014-06-07T14:55:04Z</time>
      </trkpt>
      <trkpt lat="43.40816" lon="6.0721">
        <ele>211.61981201172</ele>
        <time>2014-06-07T14:55:09Z</time>
      </trkpt>
      <trkpt lat="43.40816" lon="6.0721">
        <ele>211.61981201172</ele>
        <time>2014-06-07T14:55:33Z</time>
      </trkpt>
      <trkpt lat="43.40816" lon="6.0721">
        <ele>211.61981201172</ele>
        <time>2014-06-07T14:55:36Z</time>
      </trkpt>
      <trkpt lat="43.40816" lon="6.07208">
        <ele>211.61981201172</ele>
        <time>2014-06-07T14:55:47Z</time>
      </trkpt>
      <trkpt lat="43.40818" lon="6.07201">
        <ele>211.53741455078</ele>
        <time>2014-06-07T14:55:51Z</time>
      </trkpt>
      <trkpt lat="43.40819" lon="6.07199">
        <ele>211.50994873047</ele>
        <time>2014-06-07T14:55:53Z</time>
      </trkpt>
      <trkpt lat="43.40821" lon="6.07194">
        <ele>211.42994689941</ele>
        <time>2014-06-07T14:55:57Z</time>
      </trkpt>
      <trkpt lat="43.40826" lon="6.07185">
        <ele>211.51257324219</ele>
        <time>2014-06-07T14:56:03Z</time>
      </trkpt>
      <trkpt lat="43.40834" lon="6.07166">
        <ele>211.94879150391</ele>
        <time>2014-06-07T14:56:10Z</time>
      </trkpt>
      <trkpt lat="43.40842" lon="6.07139">
        <ele>210.68708801269</ele>
        <time>2014-06-07T14:56:17Z</time>
      </trkpt>
      <trkpt lat="43.40849" lon="6.07107">
        <ele>210.45251464844</ele>
        <time>2014-06-07T14:56:24Z</time>
      </trkpt>
      <trkpt lat="43.4085" lon="6.07069">
        <ele>210.39758300781</ele>
        <time>2014-06-07T14:56:32Z</time>
      </trkpt>
      <trkpt lat="43.40845" lon="6.07029">
        <ele>210.56237792969</ele>
        <time>2014-06-07T14:56:40Z</time>
      </trkpt>
      <trkpt lat="43.40845" lon="6.07011">
        <ele>210.56237792969</ele>
        <time>2014-06-07T14:56:46Z</time>
      </trkpt>
      <trkpt lat="43.40853" lon="6.07009">
        <ele>210.28771972656</ele>
        <time>2014-06-07T14:56:51Z</time>
      </trkpt>
      <trkpt lat="43.40858" lon="6.07009">
        <ele>210.10919189453</ele>
        <time>2014-06-07T14:56:53Z</time>
      </trkpt>
      <trkpt lat="43.40863" lon="6.0701">
        <ele>209.91693115234</ele>
        <time>2014-06-07T14:56:55Z</time>
      </trkpt>
      <trkpt lat="43.40886" lon="6.07005">
        <ele>209.12042236328</ele>
        <time>2014-06-07T14:57:02Z</time>
      </trkpt>
      <trkpt lat="43.40906" lon="6.06992">
        <ele>208.37884521484</ele>
        <time>2014-06-07T14:57:08Z</time>
      </trkpt>
      <trkpt lat="43.40913" lon="6.0696">
        <ele>208.14538574219</ele>
        <time>2014-06-07T14:57:15Z</time>
      </trkpt>
      <trkpt lat="43.40919" lon="6.06956">
        <ele>207.91192626953</ele>
        <time>2014-06-07T14:57:17Z</time>
      </trkpt>
      <trkpt lat="43.4094" lon="6.06951">
        <ele>207.15661621094</ele>
        <time>2014-06-07T14:57:22Z</time>
      </trkpt>
      <trkpt lat="43.40971" lon="6.06942">
        <ele>207</ele>
        <time>2014-06-07T14:57:29Z</time>
      </trkpt>
      <trkpt lat="43.41002" lon="6.06928">
        <ele>207</ele>
        <time>2014-06-07T14:57:37Z</time>
      </trkpt>
      <trkpt lat="43.41016" lon="6.06913">
        <ele>207</ele>
        <time>2014-06-07T14:57:42Z</time>
      </trkpt>
      <trkpt lat="43.41017" lon="6.06906">
        <ele>207</ele>
        <time>2014-06-07T14:57:44Z</time>
      </trkpt>
      <trkpt lat="43.41019" lon="6.06896">
        <ele>207</ele>
        <time>2014-06-07T14:57:47Z</time>
      </trkpt>
      <trkpt lat="43.4103" lon="6.06888">
        <ele>207</ele>
        <time>2014-06-07T14:57:51Z</time>
      </trkpt>
      <trkpt lat="43.41046" lon="6.06878">
        <ele>207</ele>
        <time>2014-06-07T14:57:57Z</time>
      </trkpt>
      <trkpt lat="43.41054" lon="6.06875">
        <ele>207</ele>
        <time>2014-06-07T14:58:00Z</time>
      </trkpt>
      <trkpt lat="43.41064" lon="6.0687">
        <ele>207.61315917969</ele>
        <time>2014-06-07T14:58:04Z</time>
      </trkpt>
      <trkpt lat="43.41067" lon="6.06868">
        <ele>207.80541992188</ele>
        <time>2014-06-07T14:58:06Z</time>
      </trkpt>
      <trkpt lat="43.41076" lon="6.06835">
        <ele>209.36741638184</ele>
        <time>2014-06-07T14:58:13Z</time>
      </trkpt>
      <trkpt lat="43.41084" lon="6.06804">
        <ele>210.00144958496</ele>
        <time>2014-06-07T14:58:19Z</time>
      </trkpt>
      <trkpt lat="43.41084" lon="6.06798">
        <ele>210.00575256348</ele>
        <time>2014-06-07T14:58:20Z</time>
      </trkpt>
      <trkpt lat="43.4109" lon="6.06759">
        <ele>210.22668457031</ele>
        <time>2014-06-07T14:58:28Z</time>
      </trkpt>
      <trkpt lat="43.41109" lon="6.06739">
        <ele>210.53742980957</ele>
        <time>2014-06-07T14:58:35Z</time>
      </trkpt>
      <trkpt lat="43.41136" lon="6.06724">
        <ele>210.9549407959</ele>
        <time>2014-06-07T14:58:43Z</time>
      </trkpt>
      <trkpt lat="43.41159" lon="6.06718">
        <ele>212.04954528809</ele>
        <time>2014-06-07T14:58:49Z</time>
      </trkpt>
      <trkpt lat="43.41176" lon="6.06719">
        <ele>212.57482910156</ele>
        <time>2014-06-07T14:58:54Z</time>
      </trkpt>
      <trkpt lat="43.41197" lon="6.06718">
        <ele>213.39880371094</ele>
        <time>2014-06-07T14:58:59Z</time>
      </trkpt>
      <trkpt lat="43.41208" lon="6.06718">
        <ele>213.82109069824</ele>
        <time>2014-06-07T14:59:02Z</time>
      </trkpt>
      <trkpt lat="43.41215" lon="6.06717">
        <ele>214.09918212891</ele>
        <time>2014-06-07T14:59:04Z</time>
      </trkpt>
      <trkpt lat="43.41228" lon="6.06713">
        <ele>214.90599060059</ele>
        <time>2014-06-07T14:59:08Z</time>
      </trkpt>
      <trkpt lat="43.41242" lon="6.06712">
        <ele>215.45874023438</ele>
        <time>2014-06-07T14:59:13Z</time>
      </trkpt>
      <trkpt lat="43.41245" lon="6.06712">
        <ele>215.56173706055</ele>
        <time>2014-06-07T14:59:14Z</time>
      </trkpt>
      <trkpt lat="43.41246" lon="6.06712">
        <ele>215.56860351562</ele>
        <time>2014-06-07T14:59:15Z</time>
      </trkpt>
      <trkpt lat="43.41249" lon="6.06714">
        <ele>215.55487060547</ele>
        <time>2014-06-07T14:59:17Z</time>
      </trkpt>
      <trkpt lat="43.41251" lon="6.06716">
        <ele>215.51710510254</ele>
        <time>2014-06-07T14:59:19Z</time>
      </trkpt>
      <trkpt lat="43.41258" lon="6.06723">
        <ele>215.30999755859</ele>
        <time>2014-06-07T14:59:24Z</time>
      </trkpt>
      <trkpt lat="43.41269" lon="6.06743">
        <ele>216.42750549316</ele>
        <time>2014-06-07T14:59:31Z</time>
      </trkpt>
      <trkpt lat="43.4128" lon="6.06767">
        <ele>217.09313964844</ele>
        <time>2014-06-07T14:59:38Z</time>
      </trkpt>
      <trkpt lat="43.41296" lon="6.06787">
        <ele>217.33741760254</ele>
        <time>2014-06-07T14:59:45Z</time>
      </trkpt>
      <trkpt lat="43.41301" lon="6.06792">
        <ele>217.33227539062</ele>
        <time>2014-06-07T14:59:47Z</time>
      </trkpt>
      <trkpt lat="43.41307" lon="6.06797">
        <ele>217.32073974609</ele>
        <time>2014-06-07T14:59:49Z</time>
      </trkpt>
      <trkpt lat="43.4132" lon="6.06806">
        <ele>217</ele>
        <time>2014-06-07T14:59:53Z</time>
      </trkpt>
      <trkpt lat="43.41347" lon="6.06824">
        <ele>217.49639892578</ele>
        <time>2014-06-07T15:00:02Z</time>
      </trkpt>
      <trkpt lat="43.41374" lon="6.06836">
        <ele>217.94409179688</ele>
        <time>2014-06-07T15:00:10Z</time>
      </trkpt>
      <trkpt lat="43.41396" lon="6.06852">
        <ele>218.25421142578</ele>
        <time>2014-06-07T15:00:16Z</time>
      </trkpt>
      <trkpt lat="43.41406" lon="6.06864">
        <ele>218.51672363281</ele>
        <time>2014-06-07T15:00:19Z</time>
      </trkpt>
      <trkpt lat="43.41413" lon="6.06877">
        <ele>218.31072998047</ele>
        <time>2014-06-07T15:00:22Z</time>
      </trkpt>
      <trkpt lat="43.41415" lon="6.0689">
        <ele>217.90608215332</ele>
        <time>2014-06-07T15:00:26Z</time>
      </trkpt>
      <trkpt lat="43.41422" lon="6.06911">
        <ele>217.33308410644</ele>
        <time>2014-06-07T15:00:31Z</time>
      </trkpt>
      <trkpt lat="43.41431" lon="6.06921">
        <ele>217.50390625</ele>
        <time>2014-06-07T15:00:34Z</time>
      </trkpt>
      <trkpt lat="43.41439" lon="6.06924">
        <ele>217.79229736328</ele>
        <time>2014-06-07T15:00:36Z</time>
      </trkpt>
      <trkpt lat="43.41447" lon="6.06924">
        <ele>218</ele>
        <time>2014-06-07T15:00:38Z</time>
      </trkpt>
      <trkpt lat="43.41455" lon="6.06924">
        <ele>218</ele>
        <time>2014-06-07T15:00:40Z</time>
      </trkpt>
      <trkpt lat="43.41462" lon="6.06929">
        <ele>218</ele>
        <time>2014-06-07T15:00:42Z</time>
      </trkpt>
      <trkpt lat="43.41475" lon="6.06949">
        <ele>217.76596069336</ele>
        <time>2014-06-07T15:00:46Z</time>
      </trkpt>
      <trkpt lat="43.41489" lon="6.06978">
        <ele>217</ele>
        <time>2014-06-07T15:00:51Z</time>
      </trkpt>
      <trkpt lat="43.41491" lon="6.06986">
        <ele>217</ele>
        <time>2014-06-07T15:00:52Z</time>
      </trkpt>
      <trkpt lat="43.41489" lon="6.07008">
        <ele>216.87767028809</ele>
        <time>2014-06-07T15:00:55Z</time>
      </trkpt>
      <trkpt lat="43.41481" lon="6.07029">
        <ele>216.33038330078</ele>
        <time>2014-06-07T15:00:58Z</time>
      </trkpt>
      <trkpt lat="43.41476" lon="6.07042">
        <ele>216.12438964844</ele>
        <time>2014-06-07T15:01:00Z</time>
      </trkpt>
      <trkpt lat="43.4147" lon="6.07054">
        <ele>216</ele>
        <time>2014-06-07T15:01:02Z</time>
      </trkpt>
      <trkpt lat="43.41469" lon="6.07068">
        <ele>215.54634094238</ele>
        <time>2014-06-07T15:01:04Z</time>
      </trkpt>
      <trkpt lat="43.41477" lon="6.07077">
        <ele>215.39263916016</ele>
        <time>2014-06-07T15:01:07Z</time>
      </trkpt>
      <trkpt lat="43.41485" lon="6.07078">
        <ele>215.63467407227</ele>
        <time>2014-06-07T15:01:09Z</time>
      </trkpt>
      <trkpt lat="43.41491" lon="6.07081">
        <ele>215.75827026367</ele>
        <time>2014-06-07T15:01:11Z</time>
      </trkpt>
      <trkpt lat="43.41508" lon="6.07084">
        <ele>216.27795410156</ele>
        <time>2014-06-07T15:01:16Z</time>
      </trkpt>
      <trkpt lat="43.41533" lon="6.07079">
        <ele>217.173828125</ele>
        <time>2014-06-07T15:01:23Z</time>
      </trkpt>
      <trkpt lat="43.41542" lon="6.07085">
        <ele>217</ele>
        <time>2014-06-07T15:01:27Z</time>
      </trkpt>
      <trkpt lat="43.41546" lon="6.07103">
        <ele>217</ele>
        <time>2014-06-07T15:01:32Z</time>
      </trkpt>
      <trkpt lat="43.41549" lon="6.07118">
        <ele>217</ele>
        <time>2014-06-07T15:01:36Z</time>
      </trkpt>
      <trkpt lat="43.41553" lon="6.07121">
        <ele>217</ele>
        <time>2014-06-07T15:01:38Z</time>
      </trkpt>
      <trkpt lat="43.41558" lon="6.0712">
        <ele>217.09069824219</ele>
        <time>2014-06-07T15:01:40Z</time>
      </trkpt>
      <trkpt lat="43.41568" lon="6.07116">
        <ele>217.44775390625</ele>
        <time>2014-06-07T15:01:44Z</time>
      </trkpt>
      <trkpt lat="43.4158" lon="6.07104">
        <ele>217.88720703125</ele>
        <time>2014-06-07T15:01:51Z</time>
      </trkpt>
      <trkpt lat="43.41584" lon="6.071">
        <ele>218</ele>
        <time>2014-06-07T15:01:54Z</time>
      </trkpt>
      <trkpt lat="43.41584" lon="6.07086">
        <ele>218</ele>
        <time>2014-06-07T15:01:59Z</time>
      </trkpt>
      <trkpt lat="43.41582" lon="6.07049">
        <ele>218.94213867188</ele>
        <time>2014-06-07T15:02:08Z</time>
      </trkpt>
      <trkpt lat="43.4158" lon="6.07039">
        <ele>218.87347412109</ele>
        <time>2014-06-07T15:02:13Z</time>
      </trkpt>
      <trkpt lat="43.4158" lon="6.07039">
        <ele>218.87347412109</ele>
        <time>2014-06-07T15:02:26Z</time>
      </trkpt>
    </trkseg>
  </trk>
</gpx>